<?xml version="1.0" encoding="UTF-8" standalone="no" ?>
<gpx xmlns="http://www.topografix.com/GPX/1/1" xmlns:xsi="http://www.w3.org/2001/XMLSchema-instance" xsi:schemaLocation="http://www.topografix.com/GPX/1/1 http://www.topografix.com/GPX/1/1/gpx.xsd" version="1.1" creator="VisuGPX - https://www.visugpx.com">
  <metadata>
    <name>Rando autour de la côte Ste Hélène</name>
    <desc><![CDATA[Randonnée facile et réalisable en famille.
]]></desc>
  </metadata>
  <trk>
    <name><![CDATA[Rando côte Ste Hélène en famille]]></name>
    <trkseg>
      <trkpt lat="49.43143" lon="1.727">
        <ele>94.800003051758</ele>
        <time>2020-08-03T12:24:07.000Z</time>
      </trkpt>
      <trkpt lat="49.43143" lon="1.727">
        <ele>94.800003051758</ele>
        <time>2020-08-03T12:24:07.000Z</time>
      </trkpt>
      <trkpt lat="49.43141" lon="1.72704">
        <ele>95.199996948242</ele>
        <time>2020-08-03T12:24:11.000Z</time>
      </trkpt>
      <trkpt lat="49.43136" lon="1.7271">
        <ele>95.199996948242</ele>
        <time>2020-08-03T12:24:16.000Z</time>
      </trkpt>
      <trkpt lat="49.43133" lon="1.72713">
        <ele>95</ele>
        <time>2020-08-03T12:24:19.000Z</time>
      </trkpt>
      <trkpt lat="49.43133" lon="1.72714">
        <ele>95.199996948242</ele>
        <time>2020-08-03T12:24:21.000Z</time>
      </trkpt>
      <trkpt lat="49.43129" lon="1.72715">
        <ele>95.599998474121</ele>
        <time>2020-08-03T12:24:27.000Z</time>
      </trkpt>
      <trkpt lat="49.43128" lon="1.72715">
        <ele>95.800003051758</ele>
        <time>2020-08-03T12:24:28.000Z</time>
      </trkpt>
      <trkpt lat="49.43122" lon="1.72713">
        <ele>95.800003051758</ele>
        <time>2020-08-03T12:24:33.000Z</time>
      </trkpt>
      <trkpt lat="49.43121" lon="1.72713">
        <ele>95.800003051758</ele>
        <time>2020-08-03T12:24:35.000Z</time>
      </trkpt>
      <trkpt lat="49.4312" lon="1.72711">
        <ele>95.800003051758</ele>
        <time>2020-08-03T12:24:37.000Z</time>
      </trkpt>
      <trkpt lat="49.43114" lon="1.72708">
        <ele>96</ele>
        <time>2020-08-03T12:24:43.000Z</time>
      </trkpt>
      <trkpt lat="49.43113" lon="1.72709">
        <ele>96.199996948242</ele>
        <time>2020-08-03T12:24:45.000Z</time>
      </trkpt>
      <trkpt lat="49.43112" lon="1.72709">
        <ele>96.400001525879</ele>
        <time>2020-08-03T12:24:47.000Z</time>
      </trkpt>
      <trkpt lat="49.43104" lon="1.72703">
        <ele>96.599998474121</ele>
        <time>2020-08-03T12:24:54.000Z</time>
      </trkpt>
      <trkpt lat="49.43101" lon="1.72701">
        <ele>96.599998474121</ele>
        <time>2020-08-03T12:24:56.000Z</time>
      </trkpt>
      <trkpt lat="49.43099" lon="1.72699">
        <ele>97</ele>
        <time>2020-08-03T12:24:58.000Z</time>
      </trkpt>
      <trkpt lat="49.43095" lon="1.72697">
        <ele>97.199996948242</ele>
        <time>2020-08-03T12:25:02.000Z</time>
      </trkpt>
      <trkpt lat="49.43089" lon="1.72697">
        <ele>97.199996948242</ele>
        <time>2020-08-03T12:25:07.000Z</time>
      </trkpt>
      <trkpt lat="49.43081" lon="1.72692">
        <ele>97.800003051758</ele>
        <time>2020-08-03T12:25:17.000Z</time>
      </trkpt>
      <trkpt lat="49.43079" lon="1.7269">
        <ele>97.599998474121</ele>
        <time>2020-08-03T12:25:19.000Z</time>
      </trkpt>
      <trkpt lat="49.43077" lon="1.72686">
        <ele>97.599998474121</ele>
        <time>2020-08-03T12:25:22.000Z</time>
      </trkpt>
      <trkpt lat="49.43073" lon="1.72683">
        <ele>97.800003051758</ele>
        <time>2020-08-03T12:25:26.000Z</time>
      </trkpt>
      <trkpt lat="49.43072" lon="1.72683">
        <ele>98</ele>
        <time>2020-08-03T12:25:27.000Z</time>
      </trkpt>
      <trkpt lat="49.43071" lon="1.72682">
        <ele>98</ele>
        <time>2020-08-03T12:25:28.000Z</time>
      </trkpt>
      <trkpt lat="49.4307" lon="1.72682">
        <ele>98</ele>
        <time>2020-08-03T12:25:29.000Z</time>
      </trkpt>
      <trkpt lat="49.4306" lon="1.72679">
        <ele>98</ele>
        <time>2020-08-03T12:25:38.000Z</time>
      </trkpt>
      <trkpt lat="49.43054" lon="1.72679">
        <ele>97.800003051758</ele>
        <time>2020-08-03T12:25:43.000Z</time>
      </trkpt>
      <trkpt lat="49.43049" lon="1.72675">
        <ele>98</ele>
        <time>2020-08-03T12:25:48.000Z</time>
      </trkpt>
      <trkpt lat="49.43046" lon="1.72674">
        <ele>98.199996948242</ele>
        <time>2020-08-03T12:25:50.000Z</time>
      </trkpt>
      <trkpt lat="49.43036" lon="1.72671">
        <ele>98.199996948242</ele>
        <time>2020-08-03T12:25:58.000Z</time>
      </trkpt>
      <trkpt lat="49.43035" lon="1.72671">
        <ele>98.199996948242</ele>
        <time>2020-08-03T12:25:59.000Z</time>
      </trkpt>
      <trkpt lat="49.43033" lon="1.72669">
        <ele>98.199996948242</ele>
        <time>2020-08-03T12:26:02.000Z</time>
      </trkpt>
      <trkpt lat="49.43028" lon="1.72667">
        <ele>98.199996948242</ele>
        <time>2020-08-03T12:26:07.000Z</time>
      </trkpt>
      <trkpt lat="49.43025" lon="1.72664">
        <ele>98.199996948242</ele>
        <time>2020-08-03T12:26:10.000Z</time>
      </trkpt>
      <trkpt lat="49.43022" lon="1.72663">
        <ele>98.199996948242</ele>
        <time>2020-08-03T12:26:13.000Z</time>
      </trkpt>
      <trkpt lat="49.43013" lon="1.7266">
        <ele>97.599998474121</ele>
        <time>2020-08-03T12:26:21.000Z</time>
      </trkpt>
      <trkpt lat="49.4301" lon="1.72659">
        <ele>97.400001525879</ele>
        <time>2020-08-03T12:26:24.000Z</time>
      </trkpt>
      <trkpt lat="49.43007" lon="1.72659">
        <ele>97.400001525879</ele>
        <time>2020-08-03T12:26:27.000Z</time>
      </trkpt>
      <trkpt lat="49.43006" lon="1.72658">
        <ele>97.400001525879</ele>
        <time>2020-08-03T12:26:28.000Z</time>
      </trkpt>
      <trkpt lat="49.43006" lon="1.72657">
        <ele>97.400001525879</ele>
        <time>2020-08-03T12:26:29.000Z</time>
      </trkpt>
      <trkpt lat="49.42999" lon="1.72655">
        <ele>97.400001525879</ele>
        <time>2020-08-03T12:26:36.000Z</time>
      </trkpt>
      <trkpt lat="49.42994" lon="1.72652">
        <ele>97</ele>
        <time>2020-08-03T12:26:42.000Z</time>
      </trkpt>
      <trkpt lat="49.4299" lon="1.7265">
        <ele>97.400001525879</ele>
        <time>2020-08-03T12:26:46.000Z</time>
      </trkpt>
      <trkpt lat="49.42982" lon="1.72648">
        <ele>97.199996948242</ele>
        <time>2020-08-03T12:26:53.000Z</time>
      </trkpt>
      <trkpt lat="49.42981" lon="1.72649">
        <ele>97.199996948242</ele>
        <time>2020-08-03T12:26:54.000Z</time>
      </trkpt>
      <trkpt lat="49.4298" lon="1.72649">
        <ele>97.199996948242</ele>
        <time>2020-08-03T12:26:55.000Z</time>
      </trkpt>
      <trkpt lat="49.42977" lon="1.7265">
        <ele>97.400001525879</ele>
        <time>2020-08-03T12:26:58.000Z</time>
      </trkpt>
      <trkpt lat="49.42975" lon="1.7265">
        <ele>97.400001525879</ele>
        <time>2020-08-03T12:27:00.000Z</time>
      </trkpt>
      <trkpt lat="49.42973" lon="1.7265">
        <ele>97.400001525879</ele>
        <time>2020-08-03T12:27:02.000Z</time>
      </trkpt>
      <trkpt lat="49.42966" lon="1.72646">
        <ele>97.400001525879</ele>
        <time>2020-08-03T12:27:09.000Z</time>
      </trkpt>
      <trkpt lat="49.42957" lon="1.72646">
        <ele>97.800003051758</ele>
        <time>2020-08-03T12:27:17.000Z</time>
      </trkpt>
      <trkpt lat="49.42951" lon="1.72642">
        <ele>97.599998474121</ele>
        <time>2020-08-03T12:27:23.000Z</time>
      </trkpt>
      <trkpt lat="49.42946" lon="1.72642">
        <ele>97.800003051758</ele>
        <time>2020-08-03T12:27:27.000Z</time>
      </trkpt>
      <trkpt lat="49.42942" lon="1.72641">
        <ele>98.199996948242</ele>
        <time>2020-08-03T12:27:31.000Z</time>
      </trkpt>
      <trkpt lat="49.42941" lon="1.72641">
        <ele>98.199996948242</ele>
        <time>2020-08-03T12:27:32.000Z</time>
      </trkpt>
      <trkpt lat="49.42933" lon="1.72637">
        <ele>98.400001525879</ele>
        <time>2020-08-03T12:27:39.000Z</time>
      </trkpt>
      <trkpt lat="49.4293" lon="1.72634">
        <ele>98.199996948242</ele>
        <time>2020-08-03T12:27:43.000Z</time>
      </trkpt>
      <trkpt lat="49.4293" lon="1.72633">
        <ele>98.199996948242</ele>
        <time>2020-08-03T12:27:44.000Z</time>
      </trkpt>
      <trkpt lat="49.42929" lon="1.72633">
        <ele>98.199996948242</ele>
        <time>2020-08-03T12:27:45.000Z</time>
      </trkpt>
      <trkpt lat="49.42925" lon="1.72632">
        <ele>98.400001525879</ele>
        <time>2020-08-03T12:27:48.000Z</time>
      </trkpt>
      <trkpt lat="49.42918" lon="1.72629">
        <ele>98.599998474121</ele>
        <time>2020-08-03T12:27:56.000Z</time>
      </trkpt>
      <trkpt lat="49.42913" lon="1.72628">
        <ele>99</ele>
        <time>2020-08-03T12:28:00.000Z</time>
      </trkpt>
      <trkpt lat="49.42911" lon="1.72628">
        <ele>99</ele>
        <time>2020-08-03T12:28:01.000Z</time>
      </trkpt>
      <trkpt lat="49.4291" lon="1.72627">
        <ele>99</ele>
        <time>2020-08-03T12:28:03.000Z</time>
      </trkpt>
      <trkpt lat="49.42903" lon="1.72621">
        <ele>98.800003051758</ele>
        <time>2020-08-03T12:28:11.000Z</time>
      </trkpt>
      <trkpt lat="49.42896" lon="1.72617">
        <ele>98.599998474121</ele>
        <time>2020-08-03T12:28:18.000Z</time>
      </trkpt>
      <trkpt lat="49.42885" lon="1.72615">
        <ele>98.800003051758</ele>
        <time>2020-08-03T12:28:28.000Z</time>
      </trkpt>
      <trkpt lat="49.42882" lon="1.72615">
        <ele>98.800003051758</ele>
        <time>2020-08-03T12:28:30.000Z</time>
      </trkpt>
      <trkpt lat="49.42874" lon="1.72614">
        <ele>98.800003051758</ele>
        <time>2020-08-03T12:28:37.000Z</time>
      </trkpt>
      <trkpt lat="49.42872" lon="1.72615">
        <ele>98.800003051758</ele>
        <time>2020-08-03T12:28:38.000Z</time>
      </trkpt>
      <trkpt lat="49.42865" lon="1.72614">
        <ele>98.599998474121</ele>
        <time>2020-08-03T12:28:45.000Z</time>
      </trkpt>
      <trkpt lat="49.42862" lon="1.72613">
        <ele>98.400001525879</ele>
        <time>2020-08-03T12:28:47.000Z</time>
      </trkpt>
      <trkpt lat="49.42859" lon="1.72613">
        <ele>98.199996948242</ele>
        <time>2020-08-03T12:28:50.000Z</time>
      </trkpt>
      <trkpt lat="49.42858" lon="1.72613">
        <ele>98</ele>
        <time>2020-08-03T12:28:52.000Z</time>
      </trkpt>
      <trkpt lat="49.42852" lon="1.72613">
        <ele>97.599998474121</ele>
        <time>2020-08-03T12:28:57.000Z</time>
      </trkpt>
      <trkpt lat="49.42849" lon="1.72614">
        <ele>97.199996948242</ele>
        <time>2020-08-03T12:29:00.000Z</time>
      </trkpt>
      <trkpt lat="49.42844" lon="1.72613">
        <ele>97</ele>
        <time>2020-08-03T12:29:04.000Z</time>
      </trkpt>
      <trkpt lat="49.4284" lon="1.72612">
        <ele>96.800003051758</ele>
        <time>2020-08-03T12:29:08.000Z</time>
      </trkpt>
      <trkpt lat="49.42833" lon="1.72614">
        <ele>96.400001525879</ele>
        <time>2020-08-03T12:29:14.000Z</time>
      </trkpt>
      <trkpt lat="49.42831" lon="1.72614">
        <ele>96.400001525879</ele>
        <time>2020-08-03T12:29:16.000Z</time>
      </trkpt>
      <trkpt lat="49.42824" lon="1.72614">
        <ele>95.800003051758</ele>
        <time>2020-08-03T12:29:22.000Z</time>
      </trkpt>
      <trkpt lat="49.42821" lon="1.72613">
        <ele>95.599998474121</ele>
        <time>2020-08-03T12:29:25.000Z</time>
      </trkpt>
      <trkpt lat="49.42816" lon="1.72613">
        <ele>94.800003051758</ele>
        <time>2020-08-03T12:29:29.000Z</time>
      </trkpt>
      <trkpt lat="49.42813" lon="1.72612">
        <ele>94.599998474121</ele>
        <time>2020-08-03T12:29:32.000Z</time>
      </trkpt>
      <trkpt lat="49.4281" lon="1.72611">
        <ele>94.599998474121</ele>
        <time>2020-08-03T12:29:35.000Z</time>
      </trkpt>
      <trkpt lat="49.42808" lon="1.7261">
        <ele>94.400001525879</ele>
        <time>2020-08-03T12:29:38.000Z</time>
      </trkpt>
      <trkpt lat="49.42802" lon="1.72608">
        <ele>93.800003051758</ele>
        <time>2020-08-03T12:29:44.000Z</time>
      </trkpt>
      <trkpt lat="49.428" lon="1.72607">
        <ele>93.599998474121</ele>
        <time>2020-08-03T12:29:46.000Z</time>
      </trkpt>
      <trkpt lat="49.42792" lon="1.72607">
        <ele>92.800003051758</ele>
        <time>2020-08-03T12:29:52.000Z</time>
      </trkpt>
      <trkpt lat="49.4279" lon="1.72606">
        <ele>92.599998474121</ele>
        <time>2020-08-03T12:29:54.000Z</time>
      </trkpt>
      <trkpt lat="49.42789" lon="1.72606">
        <ele>92.199996948242</ele>
        <time>2020-08-03T12:29:55.000Z</time>
      </trkpt>
      <trkpt lat="49.42786" lon="1.72606">
        <ele>91.800003051758</ele>
        <time>2020-08-03T12:29:58.000Z</time>
      </trkpt>
      <trkpt lat="49.42781" lon="1.72606">
        <ele>91.400001525879</ele>
        <time>2020-08-03T12:30:02.000Z</time>
      </trkpt>
      <trkpt lat="49.4278" lon="1.72606">
        <ele>91.199996948242</ele>
        <time>2020-08-03T12:30:03.000Z</time>
      </trkpt>
      <trkpt lat="49.42775" lon="1.72604">
        <ele>91</ele>
        <time>2020-08-03T12:30:09.000Z</time>
      </trkpt>
      <trkpt lat="49.42766" lon="1.72603">
        <ele>90.800003051758</ele>
        <time>2020-08-03T12:30:16.000Z</time>
      </trkpt>
      <trkpt lat="49.42765" lon="1.72602">
        <ele>90.599998474121</ele>
        <time>2020-08-03T12:30:17.000Z</time>
      </trkpt>
      <trkpt lat="49.42753" lon="1.72601">
        <ele>90.199996948242</ele>
        <time>2020-08-03T12:30:26.000Z</time>
      </trkpt>
      <trkpt lat="49.42751" lon="1.72601">
        <ele>89.599998474121</ele>
        <time>2020-08-03T12:30:28.000Z</time>
      </trkpt>
      <trkpt lat="49.42745" lon="1.72601">
        <ele>89.199996948242</ele>
        <time>2020-08-03T12:30:33.000Z</time>
      </trkpt>
      <trkpt lat="49.42742" lon="1.726">
        <ele>88.800003051758</ele>
        <time>2020-08-03T12:30:37.000Z</time>
      </trkpt>
      <trkpt lat="49.42739" lon="1.726">
        <ele>88.800003051758</ele>
        <time>2020-08-03T12:30:39.000Z</time>
      </trkpt>
      <trkpt lat="49.42738" lon="1.726">
        <ele>88.800003051758</ele>
        <time>2020-08-03T12:30:40.000Z</time>
      </trkpt>
      <trkpt lat="49.42734" lon="1.72599">
        <ele>88.599998474121</ele>
        <time>2020-08-03T12:30:44.000Z</time>
      </trkpt>
      <trkpt lat="49.42732" lon="1.72599">
        <ele>88.599998474121</ele>
        <time>2020-08-03T12:30:46.000Z</time>
      </trkpt>
      <trkpt lat="49.42731" lon="1.72599">
        <ele>88.400001525879</ele>
        <time>2020-08-03T12:30:47.000Z</time>
      </trkpt>
      <trkpt lat="49.4273" lon="1.72599">
        <ele>88.199996948242</ele>
        <time>2020-08-03T12:30:49.000Z</time>
      </trkpt>
      <trkpt lat="49.42728" lon="1.72599">
        <ele>88</ele>
        <time>2020-08-03T12:30:51.000Z</time>
      </trkpt>
      <trkpt lat="49.42726" lon="1.72599">
        <ele>88</ele>
        <time>2020-08-03T12:30:53.000Z</time>
      </trkpt>
      <trkpt lat="49.42717" lon="1.72601">
        <ele>87.599998474121</ele>
        <time>2020-08-03T12:31:02.000Z</time>
      </trkpt>
      <trkpt lat="49.42715" lon="1.72601">
        <ele>87.400001525879</ele>
        <time>2020-08-03T12:31:04.000Z</time>
      </trkpt>
      <trkpt lat="49.42713" lon="1.72603">
        <ele>87.199996948242</ele>
        <time>2020-08-03T12:31:06.000Z</time>
      </trkpt>
      <trkpt lat="49.42708" lon="1.72602">
        <ele>86.800003051758</ele>
        <time>2020-08-03T12:31:09.000Z</time>
      </trkpt>
      <trkpt lat="49.42703" lon="1.72605">
        <ele>86.800003051758</ele>
        <time>2020-08-03T12:31:15.000Z</time>
      </trkpt>
      <trkpt lat="49.42702" lon="1.72605">
        <ele>86.599998474121</ele>
        <time>2020-08-03T12:31:16.000Z</time>
      </trkpt>
      <trkpt lat="49.42693" lon="1.72608">
        <ele>86.800003051758</ele>
        <time>2020-08-03T12:31:23.000Z</time>
      </trkpt>
      <trkpt lat="49.42689" lon="1.72611">
        <ele>86</ele>
        <time>2020-08-03T12:31:28.000Z</time>
      </trkpt>
      <trkpt lat="49.42687" lon="1.72613">
        <ele>86</ele>
        <time>2020-08-03T12:31:30.000Z</time>
      </trkpt>
      <trkpt lat="49.42685" lon="1.72614">
        <ele>85.800003051758</ele>
        <time>2020-08-03T12:31:32.000Z</time>
      </trkpt>
      <trkpt lat="49.42684" lon="1.72614">
        <ele>85.800003051758</ele>
        <time>2020-08-03T12:31:33.000Z</time>
      </trkpt>
      <trkpt lat="49.42682" lon="1.72614">
        <ele>85.800003051758</ele>
        <time>2020-08-03T12:31:35.000Z</time>
      </trkpt>
      <trkpt lat="49.42681" lon="1.72614">
        <ele>85.599998474121</ele>
        <time>2020-08-03T12:31:36.000Z</time>
      </trkpt>
      <trkpt lat="49.42673" lon="1.72616">
        <ele>85.599998474121</ele>
        <time>2020-08-03T12:31:43.000Z</time>
      </trkpt>
      <trkpt lat="49.42671" lon="1.72617">
        <ele>85.599998474121</ele>
        <time>2020-08-03T12:31:44.000Z</time>
      </trkpt>
      <trkpt lat="49.42669" lon="1.72616">
        <ele>85.400001525879</ele>
        <time>2020-08-03T12:31:46.000Z</time>
      </trkpt>
      <trkpt lat="49.42667" lon="1.72617">
        <ele>85.400001525879</ele>
        <time>2020-08-03T12:31:48.000Z</time>
      </trkpt>
      <trkpt lat="49.42665" lon="1.72619">
        <ele>85.400001525879</ele>
        <time>2020-08-03T12:31:50.000Z</time>
      </trkpt>
      <trkpt lat="49.4266" lon="1.7262">
        <ele>85</ele>
        <time>2020-08-03T12:31:53.000Z</time>
      </trkpt>
      <trkpt lat="49.42659" lon="1.7262">
        <ele>85</ele>
        <time>2020-08-03T12:31:54.000Z</time>
      </trkpt>
      <trkpt lat="49.42659" lon="1.7262">
        <ele>84.800003051758</ele>
        <time>2020-08-03T12:31:56.000Z</time>
      </trkpt>
      <trkpt lat="49.42658" lon="1.7262">
        <ele>84.800003051758</ele>
        <time>2020-08-03T12:31:57.000Z</time>
      </trkpt>
      <trkpt lat="49.42657" lon="1.72619">
        <ele>84.800003051758</ele>
        <time>2020-08-03T12:31:58.000Z</time>
      </trkpt>
      <trkpt lat="49.42656" lon="1.72619">
        <ele>84.800003051758</ele>
        <time>2020-08-03T12:31:59.000Z</time>
      </trkpt>
      <trkpt lat="49.42651" lon="1.7262">
        <ele>84.599998474121</ele>
        <time>2020-08-03T12:32:05.000Z</time>
      </trkpt>
      <trkpt lat="49.42647" lon="1.72621">
        <ele>84.800003051758</ele>
        <time>2020-08-03T12:32:08.000Z</time>
      </trkpt>
      <trkpt lat="49.42645" lon="1.72622">
        <ele>84.800003051758</ele>
        <time>2020-08-03T12:32:11.000Z</time>
      </trkpt>
      <trkpt lat="49.42643" lon="1.72623">
        <ele>84.800003051758</ele>
        <time>2020-08-03T12:32:12.000Z</time>
      </trkpt>
      <trkpt lat="49.42642" lon="1.72623">
        <ele>84.800003051758</ele>
        <time>2020-08-03T12:32:13.000Z</time>
      </trkpt>
      <trkpt lat="49.42641" lon="1.72624">
        <ele>84.800003051758</ele>
        <time>2020-08-03T12:32:14.000Z</time>
      </trkpt>
      <trkpt lat="49.42641" lon="1.72625">
        <ele>84.599998474121</ele>
        <time>2020-08-03T12:32:15.000Z</time>
      </trkpt>
      <trkpt lat="49.4264" lon="1.72625">
        <ele>84.599998474121</ele>
        <time>2020-08-03T12:32:16.000Z</time>
      </trkpt>
      <trkpt lat="49.42635" lon="1.72627">
        <ele>84.400001525879</ele>
        <time>2020-08-03T12:32:20.000Z</time>
      </trkpt>
      <trkpt lat="49.42632" lon="1.72628">
        <ele>84</ele>
        <time>2020-08-03T12:32:23.000Z</time>
      </trkpt>
      <trkpt lat="49.42627" lon="1.72629">
        <ele>83.400001525879</ele>
        <time>2020-08-03T12:32:28.000Z</time>
      </trkpt>
      <trkpt lat="49.4262" lon="1.72628">
        <ele>83</ele>
        <time>2020-08-03T12:32:36.000Z</time>
      </trkpt>
      <trkpt lat="49.42609" lon="1.72629">
        <ele>83.599998474121</ele>
        <time>2020-08-03T12:32:47.000Z</time>
      </trkpt>
      <trkpt lat="49.42605" lon="1.72631">
        <ele>83.599998474121</ele>
        <time>2020-08-03T12:32:51.000Z</time>
      </trkpt>
      <trkpt lat="49.42604" lon="1.72631">
        <ele>83.599998474121</ele>
        <time>2020-08-03T12:32:54.000Z</time>
      </trkpt>
      <trkpt lat="49.42603" lon="1.72632">
        <ele>83.599998474121</ele>
        <time>2020-08-03T12:32:55.000Z</time>
      </trkpt>
      <trkpt lat="49.42597" lon="1.72634">
        <ele>83.800003051758</ele>
        <time>2020-08-03T12:33:00.000Z</time>
      </trkpt>
      <trkpt lat="49.42588" lon="1.7264">
        <ele>83.800003051758</ele>
        <time>2020-08-03T12:33:09.000Z</time>
      </trkpt>
      <trkpt lat="49.42577" lon="1.72652">
        <ele>83.400001525879</ele>
        <time>2020-08-03T12:33:19.000Z</time>
      </trkpt>
      <trkpt lat="49.42573" lon="1.72659">
        <ele>83.800003051758</ele>
        <time>2020-08-03T12:33:24.000Z</time>
      </trkpt>
      <trkpt lat="49.42572" lon="1.72663">
        <ele>83.800003051758</ele>
        <time>2020-08-03T12:33:27.000Z</time>
      </trkpt>
      <trkpt lat="49.42566" lon="1.72674">
        <ele>83.400001525879</ele>
        <time>2020-08-03T12:33:36.000Z</time>
      </trkpt>
      <trkpt lat="49.42561" lon="1.72685">
        <ele>83.599998474121</ele>
        <time>2020-08-03T12:33:44.000Z</time>
      </trkpt>
      <trkpt lat="49.42559" lon="1.72687">
        <ele>83.599998474121</ele>
        <time>2020-08-03T12:33:46.000Z</time>
      </trkpt>
      <trkpt lat="49.42556" lon="1.72691">
        <ele>83.599998474121</ele>
        <time>2020-08-03T12:33:49.000Z</time>
      </trkpt>
      <trkpt lat="49.42554" lon="1.72695">
        <ele>83.400001525879</ele>
        <time>2020-08-03T12:33:52.000Z</time>
      </trkpt>
      <trkpt lat="49.42551" lon="1.727">
        <ele>83.599998474121</ele>
        <time>2020-08-03T12:33:56.000Z</time>
      </trkpt>
      <trkpt lat="49.42549" lon="1.72704">
        <ele>84</ele>
        <time>2020-08-03T12:33:59.000Z</time>
      </trkpt>
      <trkpt lat="49.42544" lon="1.72712">
        <ele>84.199996948242</ele>
        <time>2020-08-03T12:34:06.000Z</time>
      </trkpt>
      <trkpt lat="49.42539" lon="1.72719">
        <ele>84</ele>
        <time>2020-08-03T12:34:12.000Z</time>
      </trkpt>
      <trkpt lat="49.42538" lon="1.72721">
        <ele>84</ele>
        <time>2020-08-03T12:34:13.000Z</time>
      </trkpt>
      <trkpt lat="49.42534" lon="1.72726">
        <ele>84.199996948242</ele>
        <time>2020-08-03T12:34:18.000Z</time>
      </trkpt>
      <trkpt lat="49.42531" lon="1.7273">
        <ele>84</ele>
        <time>2020-08-03T12:34:22.000Z</time>
      </trkpt>
      <trkpt lat="49.42526" lon="1.72741">
        <ele>84.199996948242</ele>
        <time>2020-08-03T12:34:30.000Z</time>
      </trkpt>
      <trkpt lat="49.42525" lon="1.72742">
        <ele>84.199996948242</ele>
        <time>2020-08-03T12:34:31.000Z</time>
      </trkpt>
      <trkpt lat="49.42522" lon="1.72745">
        <ele>84.199996948242</ele>
        <time>2020-08-03T12:34:34.000Z</time>
      </trkpt>
      <trkpt lat="49.4252" lon="1.72751">
        <ele>84.599998474121</ele>
        <time>2020-08-03T12:34:38.000Z</time>
      </trkpt>
      <trkpt lat="49.42519" lon="1.72752">
        <ele>84.599998474121</ele>
        <time>2020-08-03T12:34:39.000Z</time>
      </trkpt>
      <trkpt lat="49.42511" lon="1.72766">
        <ele>84.800003051758</ele>
        <time>2020-08-03T12:34:49.000Z</time>
      </trkpt>
      <trkpt lat="49.4251" lon="1.72767">
        <ele>84.599998474121</ele>
        <time>2020-08-03T12:34:50.000Z</time>
      </trkpt>
      <trkpt lat="49.42506" lon="1.72772">
        <ele>84.599998474121</ele>
        <time>2020-08-03T12:34:53.000Z</time>
      </trkpt>
      <trkpt lat="49.42504" lon="1.72774">
        <ele>84.400001525879</ele>
        <time>2020-08-03T12:34:55.000Z</time>
      </trkpt>
      <trkpt lat="49.42502" lon="1.72777">
        <ele>84.400001525879</ele>
        <time>2020-08-03T12:34:57.000Z</time>
      </trkpt>
      <trkpt lat="49.425" lon="1.72779">
        <ele>84.800003051758</ele>
        <time>2020-08-03T12:34:59.000Z</time>
      </trkpt>
      <trkpt lat="49.425" lon="1.7278">
        <ele>85</ele>
        <time>2020-08-03T12:35:00.000Z</time>
      </trkpt>
      <trkpt lat="49.42494" lon="1.72783">
        <ele>85.800003051758</ele>
        <time>2020-08-03T12:35:05.000Z</time>
      </trkpt>
      <trkpt lat="49.42486" lon="1.72775">
        <ele>85</ele>
        <time>2020-08-03T12:35:13.000Z</time>
      </trkpt>
      <trkpt lat="49.42481" lon="1.72767">
        <ele>85</ele>
        <time>2020-08-03T12:35:19.000Z</time>
      </trkpt>
      <trkpt lat="49.42479" lon="1.72766">
        <ele>84.800003051758</ele>
        <time>2020-08-03T12:35:21.000Z</time>
      </trkpt>
      <trkpt lat="49.42478" lon="1.72767">
        <ele>84.800003051758</ele>
        <time>2020-08-03T12:35:22.000Z</time>
      </trkpt>
      <trkpt lat="49.42477" lon="1.72768">
        <ele>84.800003051758</ele>
        <time>2020-08-03T12:35:25.000Z</time>
      </trkpt>
      <trkpt lat="49.42477" lon="1.72767">
        <ele>85</ele>
        <time>2020-08-03T12:35:27.000Z</time>
      </trkpt>
      <trkpt lat="49.42477" lon="1.72768">
        <ele>85</ele>
        <time>2020-08-03T12:35:28.000Z</time>
      </trkpt>
      <trkpt lat="49.42473" lon="1.72772">
        <ele>85</ele>
        <time>2020-08-03T12:35:33.000Z</time>
      </trkpt>
      <trkpt lat="49.42469" lon="1.72778">
        <ele>85.199996948242</ele>
        <time>2020-08-03T12:35:37.000Z</time>
      </trkpt>
      <trkpt lat="49.42469" lon="1.72779">
        <ele>85.400001525879</ele>
        <time>2020-08-03T12:35:38.000Z</time>
      </trkpt>
      <trkpt lat="49.42468" lon="1.7278">
        <ele>85.400001525879</ele>
        <time>2020-08-03T12:35:39.000Z</time>
      </trkpt>
      <trkpt lat="49.42467" lon="1.72781">
        <ele>85.400001525879</ele>
        <time>2020-08-03T12:35:40.000Z</time>
      </trkpt>
      <trkpt lat="49.42465" lon="1.72783">
        <ele>85.599998474121</ele>
        <time>2020-08-03T12:35:42.000Z</time>
      </trkpt>
      <trkpt lat="49.4246" lon="1.72788">
        <ele>86</ele>
        <time>2020-08-03T12:35:46.000Z</time>
      </trkpt>
      <trkpt lat="49.42458" lon="1.7279">
        <ele>86</ele>
        <time>2020-08-03T12:35:48.000Z</time>
      </trkpt>
      <trkpt lat="49.4245" lon="1.72796">
        <ele>86.400001525879</ele>
        <time>2020-08-03T12:35:56.000Z</time>
      </trkpt>
      <trkpt lat="49.42445" lon="1.72802">
        <ele>86.400001525879</ele>
        <time>2020-08-03T12:36:04.000Z</time>
      </trkpt>
      <trkpt lat="49.42441" lon="1.72808">
        <ele>86.599998474121</ele>
        <time>2020-08-03T12:36:08.000Z</time>
      </trkpt>
      <trkpt lat="49.42435" lon="1.72813">
        <ele>87</ele>
        <time>2020-08-03T12:36:15.000Z</time>
      </trkpt>
      <trkpt lat="49.42426" lon="1.72817">
        <ele>86.800003051758</ele>
        <time>2020-08-03T12:36:22.000Z</time>
      </trkpt>
      <trkpt lat="49.42423" lon="1.72816">
        <ele>87</ele>
        <time>2020-08-03T12:36:24.000Z</time>
      </trkpt>
      <trkpt lat="49.42419" lon="1.72815">
        <ele>87</ele>
        <time>2020-08-03T12:36:27.000Z</time>
      </trkpt>
      <trkpt lat="49.42418" lon="1.72815">
        <ele>87</ele>
        <time>2020-08-03T12:36:28.000Z</time>
      </trkpt>
      <trkpt lat="49.42414" lon="1.72811">
        <ele>86.599998474121</ele>
        <time>2020-08-03T12:36:32.000Z</time>
      </trkpt>
      <trkpt lat="49.42412" lon="1.72811">
        <ele>86.599998474121</ele>
        <time>2020-08-03T12:36:33.000Z</time>
      </trkpt>
      <trkpt lat="49.42409" lon="1.72807">
        <ele>86.400001525879</ele>
        <time>2020-08-03T12:36:36.000Z</time>
      </trkpt>
      <trkpt lat="49.42407" lon="1.72805">
        <ele>86.199996948242</ele>
        <time>2020-08-03T12:36:38.000Z</time>
      </trkpt>
      <trkpt lat="49.424" lon="1.728">
        <ele>86</ele>
        <time>2020-08-03T12:36:45.000Z</time>
      </trkpt>
      <trkpt lat="49.42398" lon="1.72798">
        <ele>85.800003051758</ele>
        <time>2020-08-03T12:36:48.000Z</time>
      </trkpt>
      <trkpt lat="49.42393" lon="1.72792">
        <ele>85.800003051758</ele>
        <time>2020-08-03T12:36:55.000Z</time>
      </trkpt>
      <trkpt lat="49.42389" lon="1.72789">
        <ele>85.400001525879</ele>
        <time>2020-08-03T12:37:01.000Z</time>
      </trkpt>
      <trkpt lat="49.42378" lon="1.72784">
        <ele>85.400001525879</ele>
        <time>2020-08-03T12:37:10.000Z</time>
      </trkpt>
      <trkpt lat="49.42371" lon="1.7278">
        <ele>85.199996948242</ele>
        <time>2020-08-03T12:37:17.000Z</time>
      </trkpt>
      <trkpt lat="49.42366" lon="1.72778">
        <ele>85</ele>
        <time>2020-08-03T12:37:21.000Z</time>
      </trkpt>
      <trkpt lat="49.42364" lon="1.72776">
        <ele>85</ele>
        <time>2020-08-03T12:37:23.000Z</time>
      </trkpt>
      <trkpt lat="49.42363" lon="1.72776">
        <ele>85</ele>
        <time>2020-08-03T12:37:24.000Z</time>
      </trkpt>
      <trkpt lat="49.42362" lon="1.72775">
        <ele>85</ele>
        <time>2020-08-03T12:37:25.000Z</time>
      </trkpt>
      <trkpt lat="49.42353" lon="1.72772">
        <ele>84.800003051758</ele>
        <time>2020-08-03T12:37:33.000Z</time>
      </trkpt>
      <trkpt lat="49.42346" lon="1.72773">
        <ele>84.800003051758</ele>
        <time>2020-08-03T12:37:39.000Z</time>
      </trkpt>
      <trkpt lat="49.42345" lon="1.72773">
        <ele>84.800003051758</ele>
        <time>2020-08-03T12:37:40.000Z</time>
      </trkpt>
      <trkpt lat="49.42345" lon="1.72773">
        <ele>84.599998474121</ele>
        <time>2020-08-03T12:37:41.000Z</time>
      </trkpt>
      <trkpt lat="49.42342" lon="1.7277">
        <ele>84.800003051758</ele>
        <time>2020-08-03T12:37:46.000Z</time>
      </trkpt>
      <trkpt lat="49.42338" lon="1.72766">
        <ele>85.199996948242</ele>
        <time>2020-08-03T12:37:51.000Z</time>
      </trkpt>
      <trkpt lat="49.42337" lon="1.72766">
        <ele>85</ele>
        <time>2020-08-03T12:37:53.000Z</time>
      </trkpt>
      <trkpt lat="49.42336" lon="1.72765">
        <ele>84.400001525879</ele>
        <time>2020-08-03T12:37:56.000Z</time>
      </trkpt>
      <trkpt lat="49.42336" lon="1.72767">
        <ele>84.400001525879</ele>
        <time>2020-08-03T12:38:00.000Z</time>
      </trkpt>
      <trkpt lat="49.42336" lon="1.72767">
        <ele>84.400001525879</ele>
        <time>2020-08-03T12:38:09.000Z</time>
      </trkpt>
      <trkpt lat="49.42334" lon="1.72763">
        <ele>83.800003051758</ele>
        <time>2020-08-03T12:38:14.000Z</time>
      </trkpt>
      <trkpt lat="49.42331" lon="1.72759">
        <ele>84</ele>
        <time>2020-08-03T12:38:19.000Z</time>
      </trkpt>
      <trkpt lat="49.42329" lon="1.72758">
        <ele>84.199996948242</ele>
        <time>2020-08-03T12:38:21.000Z</time>
      </trkpt>
      <trkpt lat="49.42324" lon="1.72753">
        <ele>84.400001525879</ele>
        <time>2020-08-03T12:38:28.000Z</time>
      </trkpt>
      <trkpt lat="49.42316" lon="1.72751">
        <ele>84</ele>
        <time>2020-08-03T12:38:35.000Z</time>
      </trkpt>
      <trkpt lat="49.4231" lon="1.72748">
        <ele>84.199996948242</ele>
        <time>2020-08-03T12:38:41.000Z</time>
      </trkpt>
      <trkpt lat="49.42301" lon="1.72743">
        <ele>84.400001525879</ele>
        <time>2020-08-03T12:38:49.000Z</time>
      </trkpt>
      <trkpt lat="49.42296" lon="1.72739">
        <ele>84.199996948242</ele>
        <time>2020-08-03T12:38:56.000Z</time>
      </trkpt>
      <trkpt lat="49.42295" lon="1.72739">
        <ele>84.199996948242</ele>
        <time>2020-08-03T12:38:57.000Z</time>
      </trkpt>
      <trkpt lat="49.42296" lon="1.72738">
        <ele>84.199996948242</ele>
        <time>2020-08-03T12:38:58.000Z</time>
      </trkpt>
      <trkpt lat="49.42292" lon="1.72736">
        <ele>84.199996948242</ele>
        <time>2020-08-03T12:39:02.000Z</time>
      </trkpt>
      <trkpt lat="49.42286" lon="1.7273">
        <ele>84.800003051758</ele>
        <time>2020-08-03T12:39:09.000Z</time>
      </trkpt>
      <trkpt lat="49.42283" lon="1.72728">
        <ele>85</ele>
        <time>2020-08-03T12:39:12.000Z</time>
      </trkpt>
      <trkpt lat="49.42276" lon="1.72726">
        <ele>85.199996948242</ele>
        <time>2020-08-03T12:39:17.000Z</time>
      </trkpt>
      <trkpt lat="49.42265" lon="1.72724">
        <ele>85.400001525879</ele>
        <time>2020-08-03T12:39:26.000Z</time>
      </trkpt>
      <trkpt lat="49.4226" lon="1.72722">
        <ele>85.400001525879</ele>
        <time>2020-08-03T12:39:31.000Z</time>
      </trkpt>
      <trkpt lat="49.42259" lon="1.72722">
        <ele>85.400001525879</ele>
        <time>2020-08-03T12:39:32.000Z</time>
      </trkpt>
      <trkpt lat="49.42258" lon="1.72722">
        <ele>85.400001525879</ele>
        <time>2020-08-03T12:39:33.000Z</time>
      </trkpt>
      <trkpt lat="49.42258" lon="1.72723">
        <ele>85.400001525879</ele>
        <time>2020-08-03T12:39:34.000Z</time>
      </trkpt>
      <trkpt lat="49.42258" lon="1.72723">
        <ele>85.400001525879</ele>
        <time>2020-08-03T12:39:35.000Z</time>
      </trkpt>
      <trkpt lat="49.42255" lon="1.72723">
        <ele>85</ele>
        <time>2020-08-03T12:39:40.000Z</time>
      </trkpt>
      <trkpt lat="49.42253" lon="1.72721">
        <ele>85.199996948242</ele>
        <time>2020-08-03T12:39:45.000Z</time>
      </trkpt>
      <trkpt lat="49.42252" lon="1.72721">
        <ele>85.199996948242</ele>
        <time>2020-08-03T12:39:46.000Z</time>
      </trkpt>
      <trkpt lat="49.4225" lon="1.72719">
        <ele>85.199996948242</ele>
        <time>2020-08-03T12:39:51.000Z</time>
      </trkpt>
      <trkpt lat="49.42247" lon="1.72718">
        <ele>85.199996948242</ele>
        <time>2020-08-03T12:39:59.000Z</time>
      </trkpt>
      <trkpt lat="49.42247" lon="1.72717">
        <ele>85.199996948242</ele>
        <time>2020-08-03T12:40:00.000Z</time>
      </trkpt>
      <trkpt lat="49.42247" lon="1.72717">
        <ele>85.199996948242</ele>
        <time>2020-08-03T12:40:01.000Z</time>
      </trkpt>
      <trkpt lat="49.42247" lon="1.72717">
        <ele>85.199996948242</ele>
        <time>2020-08-03T12:40:02.000Z</time>
      </trkpt>
      <trkpt lat="49.42248" lon="1.72718">
        <ele>85.199996948242</ele>
        <time>2020-08-03T12:40:05.000Z</time>
      </trkpt>
      <trkpt lat="49.42249" lon="1.72719">
        <ele>85.199996948242</ele>
        <time>2020-08-03T12:40:06.000Z</time>
      </trkpt>
      <trkpt lat="49.42251" lon="1.7272">
        <ele>85.199996948242</ele>
        <time>2020-08-03T12:40:08.000Z</time>
      </trkpt>
      <trkpt lat="49.42252" lon="1.72719">
        <ele>85.199996948242</ele>
        <time>2020-08-03T12:40:11.000Z</time>
      </trkpt>
      <trkpt lat="49.42249" lon="1.72716">
        <ele>85.199996948242</ele>
        <time>2020-08-03T12:40:16.000Z</time>
      </trkpt>
      <trkpt lat="49.42247" lon="1.72715">
        <ele>85.199996948242</ele>
        <time>2020-08-03T12:40:18.000Z</time>
      </trkpt>
      <trkpt lat="49.42246" lon="1.72714">
        <ele>85.400001525879</ele>
        <time>2020-08-03T12:40:20.000Z</time>
      </trkpt>
      <trkpt lat="49.42245" lon="1.72713">
        <ele>85.599998474121</ele>
        <time>2020-08-03T12:40:22.000Z</time>
      </trkpt>
      <trkpt lat="49.42241" lon="1.72713">
        <ele>85.599998474121</ele>
        <time>2020-08-03T12:40:27.000Z</time>
      </trkpt>
      <trkpt lat="49.42239" lon="1.72714">
        <ele>85.599998474121</ele>
        <time>2020-08-03T12:40:30.000Z</time>
      </trkpt>
      <trkpt lat="49.42237" lon="1.72713">
        <ele>85.800003051758</ele>
        <time>2020-08-03T12:40:39.000Z</time>
      </trkpt>
      <trkpt lat="49.42238" lon="1.72711">
        <ele>86</ele>
        <time>2020-08-03T12:40:46.000Z</time>
      </trkpt>
      <trkpt lat="49.42238" lon="1.72712">
        <ele>86</ele>
        <time>2020-08-03T12:40:47.000Z</time>
      </trkpt>
      <trkpt lat="49.42234" lon="1.72711">
        <ele>86.400001525879</ele>
        <time>2020-08-03T12:40:51.000Z</time>
      </trkpt>
      <trkpt lat="49.42233" lon="1.7271">
        <ele>86.400001525879</ele>
        <time>2020-08-03T12:40:52.000Z</time>
      </trkpt>
      <trkpt lat="49.42232" lon="1.7271">
        <ele>86.599998474121</ele>
        <time>2020-08-03T12:40:54.000Z</time>
      </trkpt>
      <trkpt lat="49.42229" lon="1.7271">
        <ele>86.400001525879</ele>
        <time>2020-08-03T12:40:58.000Z</time>
      </trkpt>
      <trkpt lat="49.42225" lon="1.72708">
        <ele>86.400001525879</ele>
        <time>2020-08-03T12:41:02.000Z</time>
      </trkpt>
      <trkpt lat="49.42223" lon="1.72707">
        <ele>86.199996948242</ele>
        <time>2020-08-03T12:41:04.000Z</time>
      </trkpt>
      <trkpt lat="49.42222" lon="1.72706">
        <ele>86.199996948242</ele>
        <time>2020-08-03T12:41:05.000Z</time>
      </trkpt>
      <trkpt lat="49.4222" lon="1.72705">
        <ele>86.800003051758</ele>
        <time>2020-08-03T12:41:09.000Z</time>
      </trkpt>
      <trkpt lat="49.4222" lon="1.72705">
        <ele>86.800003051758</ele>
        <time>2020-08-03T12:41:10.000Z</time>
      </trkpt>
      <trkpt lat="49.42215" lon="1.72703">
        <ele>86.800003051758</ele>
        <time>2020-08-03T12:41:16.000Z</time>
      </trkpt>
      <trkpt lat="49.42208" lon="1.72701">
        <ele>86.800003051758</ele>
        <time>2020-08-03T12:41:22.000Z</time>
      </trkpt>
      <trkpt lat="49.42206" lon="1.72702">
        <ele>86.599998474121</ele>
        <time>2020-08-03T12:41:23.000Z</time>
      </trkpt>
      <trkpt lat="49.42199" lon="1.72697">
        <ele>86.599998474121</ele>
        <time>2020-08-03T12:41:28.000Z</time>
      </trkpt>
      <trkpt lat="49.42197" lon="1.72696">
        <ele>86.599998474121</ele>
        <time>2020-08-03T12:41:30.000Z</time>
      </trkpt>
      <trkpt lat="49.42195" lon="1.72696">
        <ele>87.199996948242</ele>
        <time>2020-08-03T12:41:33.000Z</time>
      </trkpt>
      <trkpt lat="49.42193" lon="1.72696">
        <ele>87.599998474121</ele>
        <time>2020-08-03T12:41:35.000Z</time>
      </trkpt>
      <trkpt lat="49.42194" lon="1.72696">
        <ele>87.599998474121</ele>
        <time>2020-08-03T12:41:37.000Z</time>
      </trkpt>
      <trkpt lat="49.42194" lon="1.72697">
        <ele>87.400001525879</ele>
        <time>2020-08-03T12:41:40.000Z</time>
      </trkpt>
      <trkpt lat="49.42193" lon="1.72697">
        <ele>87.199996948242</ele>
        <time>2020-08-03T12:41:42.000Z</time>
      </trkpt>
      <trkpt lat="49.42192" lon="1.72698">
        <ele>87.199996948242</ele>
        <time>2020-08-03T12:41:44.000Z</time>
      </trkpt>
      <trkpt lat="49.42191" lon="1.72699">
        <ele>87.199996948242</ele>
        <time>2020-08-03T12:41:45.000Z</time>
      </trkpt>
      <trkpt lat="49.42189" lon="1.727">
        <ele>87.199996948242</ele>
        <time>2020-08-03T12:41:46.000Z</time>
      </trkpt>
      <trkpt lat="49.4218" lon="1.72698">
        <ele>87.400001525879</ele>
        <time>2020-08-03T12:41:53.000Z</time>
      </trkpt>
      <trkpt lat="49.42175" lon="1.72687">
        <ele>87.800003051758</ele>
        <time>2020-08-03T12:42:01.000Z</time>
      </trkpt>
      <trkpt lat="49.42175" lon="1.72686">
        <ele>87.599998474121</ele>
        <time>2020-08-03T12:42:03.000Z</time>
      </trkpt>
      <trkpt lat="49.42176" lon="1.72683">
        <ele>87.400001525879</ele>
        <time>2020-08-03T12:42:06.000Z</time>
      </trkpt>
      <trkpt lat="49.42176" lon="1.72683">
        <ele>87.599998474121</ele>
        <time>2020-08-03T12:42:08.000Z</time>
      </trkpt>
      <trkpt lat="49.42176" lon="1.72681">
        <ele>87.599998474121</ele>
        <time>2020-08-03T12:42:09.000Z</time>
      </trkpt>
      <trkpt lat="49.42172" lon="1.7268">
        <ele>87.599998474121</ele>
        <time>2020-08-03T12:42:12.000Z</time>
      </trkpt>
      <trkpt lat="49.42171" lon="1.72677">
        <ele>87.599998474121</ele>
        <time>2020-08-03T12:42:14.000Z</time>
      </trkpt>
      <trkpt lat="49.42171" lon="1.72675">
        <ele>87.599998474121</ele>
        <time>2020-08-03T12:42:17.000Z</time>
      </trkpt>
      <trkpt lat="49.42169" lon="1.72676">
        <ele>87.599998474121</ele>
        <time>2020-08-03T12:42:20.000Z</time>
      </trkpt>
      <trkpt lat="49.4217" lon="1.72676">
        <ele>87.599998474121</ele>
        <time>2020-08-03T12:42:21.000Z</time>
      </trkpt>
      <trkpt lat="49.42169" lon="1.72679">
        <ele>87.599998474121</ele>
        <time>2020-08-03T12:42:22.000Z</time>
      </trkpt>
      <trkpt lat="49.42168" lon="1.72679">
        <ele>87.599998474121</ele>
        <time>2020-08-03T12:42:24.000Z</time>
      </trkpt>
      <trkpt lat="49.42167" lon="1.72677">
        <ele>87.400001525879</ele>
        <time>2020-08-03T12:42:28.000Z</time>
      </trkpt>
      <trkpt lat="49.42166" lon="1.72676">
        <ele>87.199996948242</ele>
        <time>2020-08-03T12:42:29.000Z</time>
      </trkpt>
      <trkpt lat="49.42163" lon="1.72674">
        <ele>87</ele>
        <time>2020-08-03T12:42:33.000Z</time>
      </trkpt>
      <trkpt lat="49.42163" lon="1.72672">
        <ele>87</ele>
        <time>2020-08-03T12:42:36.000Z</time>
      </trkpt>
      <trkpt lat="49.42161" lon="1.72669">
        <ele>86.599998474121</ele>
        <time>2020-08-03T12:42:39.000Z</time>
      </trkpt>
      <trkpt lat="49.4216" lon="1.7267">
        <ele>86.599998474121</ele>
        <time>2020-08-03T12:42:42.000Z</time>
      </trkpt>
      <trkpt lat="49.42158" lon="1.72668">
        <ele>86.400001525879</ele>
        <time>2020-08-03T12:42:52.000Z</time>
      </trkpt>
      <trkpt lat="49.42158" lon="1.72667">
        <ele>86.800003051758</ele>
        <time>2020-08-03T12:42:58.000Z</time>
      </trkpt>
      <trkpt lat="49.42159" lon="1.72666">
        <ele>87</ele>
        <time>2020-08-03T12:43:01.000Z</time>
      </trkpt>
      <trkpt lat="49.42159" lon="1.72665">
        <ele>87.199996948242</ele>
        <time>2020-08-03T12:43:05.000Z</time>
      </trkpt>
      <trkpt lat="49.42158" lon="1.72663">
        <ele>86.400001525879</ele>
        <time>2020-08-03T12:43:14.000Z</time>
      </trkpt>
      <trkpt lat="49.42159" lon="1.72662">
        <ele>86.400001525879</ele>
        <time>2020-08-03T12:43:19.000Z</time>
      </trkpt>
      <trkpt lat="49.42159" lon="1.72662">
        <ele>86.400001525879</ele>
        <time>2020-08-03T12:43:20.000Z</time>
      </trkpt>
      <trkpt lat="49.42156" lon="1.72657">
        <ele>86.400001525879</ele>
        <time>2020-08-03T12:43:26.000Z</time>
      </trkpt>
      <trkpt lat="49.42155" lon="1.72657">
        <ele>86.400001525879</ele>
        <time>2020-08-03T12:43:27.000Z</time>
      </trkpt>
      <trkpt lat="49.42148" lon="1.72654">
        <ele>86.400001525879</ele>
        <time>2020-08-03T12:43:34.000Z</time>
      </trkpt>
      <trkpt lat="49.42146" lon="1.72654">
        <ele>86.400001525879</ele>
        <time>2020-08-03T12:43:35.000Z</time>
      </trkpt>
      <trkpt lat="49.42143" lon="1.72653">
        <ele>86.599998474121</ele>
        <time>2020-08-03T12:43:38.000Z</time>
      </trkpt>
      <trkpt lat="49.42139" lon="1.72653">
        <ele>86.800003051758</ele>
        <time>2020-08-03T12:43:41.000Z</time>
      </trkpt>
      <trkpt lat="49.42132" lon="1.72653">
        <ele>87</ele>
        <time>2020-08-03T12:43:48.000Z</time>
      </trkpt>
      <trkpt lat="49.42124" lon="1.72653">
        <ele>87.199996948242</ele>
        <time>2020-08-03T12:43:55.000Z</time>
      </trkpt>
      <trkpt lat="49.42117" lon="1.72654">
        <ele>87.800003051758</ele>
        <time>2020-08-03T12:44:03.000Z</time>
      </trkpt>
      <trkpt lat="49.42116" lon="1.72654">
        <ele>88</ele>
        <time>2020-08-03T12:44:04.000Z</time>
      </trkpt>
      <trkpt lat="49.42114" lon="1.72655">
        <ele>88.199996948242</ele>
        <time>2020-08-03T12:44:07.000Z</time>
      </trkpt>
      <trkpt lat="49.42109" lon="1.72655">
        <ele>88.800003051758</ele>
        <time>2020-08-03T12:44:12.000Z</time>
      </trkpt>
      <trkpt lat="49.42107" lon="1.72656">
        <ele>89</ele>
        <time>2020-08-03T12:44:14.000Z</time>
      </trkpt>
      <trkpt lat="49.42106" lon="1.72659">
        <ele>89.199996948242</ele>
        <time>2020-08-03T12:44:16.000Z</time>
      </trkpt>
      <trkpt lat="49.42105" lon="1.72659">
        <ele>89.199996948242</ele>
        <time>2020-08-03T12:44:17.000Z</time>
      </trkpt>
      <trkpt lat="49.42103" lon="1.72658">
        <ele>89.400001525879</ele>
        <time>2020-08-03T12:44:19.000Z</time>
      </trkpt>
      <trkpt lat="49.42098" lon="1.72656">
        <ele>89.400001525879</ele>
        <time>2020-08-03T12:44:23.000Z</time>
      </trkpt>
      <trkpt lat="49.42095" lon="1.72655">
        <ele>89.599998474121</ele>
        <time>2020-08-03T12:44:27.000Z</time>
      </trkpt>
      <trkpt lat="49.42094" lon="1.72654">
        <ele>89.599998474121</ele>
        <time>2020-08-03T12:44:28.000Z</time>
      </trkpt>
      <trkpt lat="49.42091" lon="1.72653">
        <ele>89.800003051758</ele>
        <time>2020-08-03T12:44:30.000Z</time>
      </trkpt>
      <trkpt lat="49.4209" lon="1.72653">
        <ele>89.800003051758</ele>
        <time>2020-08-03T12:44:31.000Z</time>
      </trkpt>
      <trkpt lat="49.42086" lon="1.72649">
        <ele>89.800003051758</ele>
        <time>2020-08-03T12:44:36.000Z</time>
      </trkpt>
      <trkpt lat="49.42079" lon="1.72645">
        <ele>89.800003051758</ele>
        <time>2020-08-03T12:44:43.000Z</time>
      </trkpt>
      <trkpt lat="49.42075" lon="1.72644">
        <ele>90</ele>
        <time>2020-08-03T12:44:46.000Z</time>
      </trkpt>
      <trkpt lat="49.42072" lon="1.72643">
        <ele>90.199996948242</ele>
        <time>2020-08-03T12:44:50.000Z</time>
      </trkpt>
      <trkpt lat="49.42069" lon="1.72644">
        <ele>90.199996948242</ele>
        <time>2020-08-03T12:44:53.000Z</time>
      </trkpt>
      <trkpt lat="49.42068" lon="1.72643">
        <ele>90.199996948242</ele>
        <time>2020-08-03T12:44:56.000Z</time>
      </trkpt>
      <trkpt lat="49.42067" lon="1.72642">
        <ele>90.400001525879</ele>
        <time>2020-08-03T12:44:58.000Z</time>
      </trkpt>
      <trkpt lat="49.42063" lon="1.7264">
        <ele>90.599998474121</ele>
        <time>2020-08-03T12:45:01.000Z</time>
      </trkpt>
      <trkpt lat="49.42062" lon="1.72639">
        <ele>90.800003051758</ele>
        <time>2020-08-03T12:45:02.000Z</time>
      </trkpt>
      <trkpt lat="49.42058" lon="1.72637">
        <ele>91</ele>
        <time>2020-08-03T12:45:06.000Z</time>
      </trkpt>
      <trkpt lat="49.42057" lon="1.72637">
        <ele>91</ele>
        <time>2020-08-03T12:45:07.000Z</time>
      </trkpt>
      <trkpt lat="49.42056" lon="1.72637">
        <ele>91</ele>
        <time>2020-08-03T12:45:08.000Z</time>
      </trkpt>
      <trkpt lat="49.42053" lon="1.72634">
        <ele>91</ele>
        <time>2020-08-03T12:45:11.000Z</time>
      </trkpt>
      <trkpt lat="49.42047" lon="1.72629">
        <ele>90.800003051758</ele>
        <time>2020-08-03T12:45:17.000Z</time>
      </trkpt>
      <trkpt lat="49.42046" lon="1.72629">
        <ele>90.800003051758</ele>
        <time>2020-08-03T12:45:18.000Z</time>
      </trkpt>
      <trkpt lat="49.42042" lon="1.7263">
        <ele>91</ele>
        <time>2020-08-03T12:45:22.000Z</time>
      </trkpt>
      <trkpt lat="49.42034" lon="1.72628">
        <ele>91.199996948242</ele>
        <time>2020-08-03T12:45:28.000Z</time>
      </trkpt>
      <trkpt lat="49.42026" lon="1.72622">
        <ele>91.199996948242</ele>
        <time>2020-08-03T12:45:35.000Z</time>
      </trkpt>
      <trkpt lat="49.4202" lon="1.72617">
        <ele>91.199996948242</ele>
        <time>2020-08-03T12:45:40.000Z</time>
      </trkpt>
      <trkpt lat="49.42019" lon="1.72616">
        <ele>91.199996948242</ele>
        <time>2020-08-03T12:45:42.000Z</time>
      </trkpt>
      <trkpt lat="49.42014" lon="1.72612">
        <ele>91.199996948242</ele>
        <time>2020-08-03T12:45:46.000Z</time>
      </trkpt>
      <trkpt lat="49.42013" lon="1.72612">
        <ele>91.199996948242</ele>
        <time>2020-08-03T12:45:47.000Z</time>
      </trkpt>
      <trkpt lat="49.42011" lon="1.72611">
        <ele>91.400001525879</ele>
        <time>2020-08-03T12:45:50.000Z</time>
      </trkpt>
      <trkpt lat="49.4201" lon="1.72612">
        <ele>91.199996948242</ele>
        <time>2020-08-03T12:45:51.000Z</time>
      </trkpt>
      <trkpt lat="49.42006" lon="1.72615">
        <ele>91.599998474121</ele>
        <time>2020-08-03T12:45:55.000Z</time>
      </trkpt>
      <trkpt lat="49.42005" lon="1.72616">
        <ele>91.800003051758</ele>
        <time>2020-08-03T12:45:56.000Z</time>
      </trkpt>
      <trkpt lat="49.42004" lon="1.72618">
        <ele>92</ele>
        <time>2020-08-03T12:45:57.000Z</time>
      </trkpt>
      <trkpt lat="49.42001" lon="1.72627">
        <ele>91.800003051758</ele>
        <time>2020-08-03T12:46:02.000Z</time>
      </trkpt>
      <trkpt lat="49.41999" lon="1.72637">
        <ele>91.800003051758</ele>
        <time>2020-08-03T12:46:08.000Z</time>
      </trkpt>
      <trkpt lat="49.41999" lon="1.72638">
        <ele>91.800003051758</ele>
        <time>2020-08-03T12:46:09.000Z</time>
      </trkpt>
      <trkpt lat="49.41997" lon="1.72643">
        <ele>91.800003051758</ele>
        <time>2020-08-03T12:46:12.000Z</time>
      </trkpt>
      <trkpt lat="49.41992" lon="1.72654">
        <ele>91.800003051758</ele>
        <time>2020-08-03T12:46:20.000Z</time>
      </trkpt>
      <trkpt lat="49.41988" lon="1.72662">
        <ele>91.800003051758</ele>
        <time>2020-08-03T12:46:25.000Z</time>
      </trkpt>
      <trkpt lat="49.41988" lon="1.72663">
        <ele>91.800003051758</ele>
        <time>2020-08-03T12:46:26.000Z</time>
      </trkpt>
      <trkpt lat="49.41988" lon="1.72665">
        <ele>91.800003051758</ele>
        <time>2020-08-03T12:46:27.000Z</time>
      </trkpt>
      <trkpt lat="49.41986" lon="1.7267">
        <ele>92</ele>
        <time>2020-08-03T12:46:31.000Z</time>
      </trkpt>
      <trkpt lat="49.41986" lon="1.72671">
        <ele>92</ele>
        <time>2020-08-03T12:46:33.000Z</time>
      </trkpt>
      <trkpt lat="49.41985" lon="1.72672">
        <ele>92</ele>
        <time>2020-08-03T12:46:34.000Z</time>
      </trkpt>
      <trkpt lat="49.41981" lon="1.72685">
        <ele>92.199996948242</ele>
        <time>2020-08-03T12:46:42.000Z</time>
      </trkpt>
      <trkpt lat="49.41981" lon="1.72686">
        <ele>92.199996948242</ele>
        <time>2020-08-03T12:46:43.000Z</time>
      </trkpt>
      <trkpt lat="49.41975" lon="1.72695">
        <ele>92.199996948242</ele>
        <time>2020-08-03T12:46:51.000Z</time>
      </trkpt>
      <trkpt lat="49.41969" lon="1.72704">
        <ele>92.400001525879</ele>
        <time>2020-08-03T12:47:00.000Z</time>
      </trkpt>
      <trkpt lat="49.41967" lon="1.72708">
        <ele>92.400001525879</ele>
        <time>2020-08-03T12:47:04.000Z</time>
      </trkpt>
      <trkpt lat="49.41967" lon="1.72709">
        <ele>92.400001525879</ele>
        <time>2020-08-03T12:47:07.000Z</time>
      </trkpt>
      <trkpt lat="49.41967" lon="1.72709">
        <ele>92.599998474121</ele>
        <time>2020-08-03T12:47:10.000Z</time>
      </trkpt>
      <trkpt lat="49.41968" lon="1.72709">
        <ele>92.599998474121</ele>
        <time>2020-08-03T12:47:13.000Z</time>
      </trkpt>
      <trkpt lat="49.41968" lon="1.72709">
        <ele>92.599998474121</ele>
        <time>2020-08-03T12:47:15.000Z</time>
      </trkpt>
      <trkpt lat="49.41968" lon="1.72709">
        <ele>92.599998474121</ele>
        <time>2020-08-03T12:47:16.000Z</time>
      </trkpt>
      <trkpt lat="49.41968" lon="1.72709">
        <ele>92.599998474121</ele>
        <time>2020-08-03T12:47:18.000Z</time>
      </trkpt>
      <trkpt lat="49.41968" lon="1.72709">
        <ele>92.800003051758</ele>
        <time>2020-08-03T12:47:21.000Z</time>
      </trkpt>
      <trkpt lat="49.41967" lon="1.72709">
        <ele>92.800003051758</ele>
        <time>2020-08-03T12:47:25.000Z</time>
      </trkpt>
      <trkpt lat="49.41967" lon="1.72709">
        <ele>92.800003051758</ele>
        <time>2020-08-03T12:47:26.000Z</time>
      </trkpt>
      <trkpt lat="49.41961" lon="1.72713">
        <ele>93</ele>
        <time>2020-08-03T12:47:32.000Z</time>
      </trkpt>
      <trkpt lat="49.41961" lon="1.72714">
        <ele>93</ele>
        <time>2020-08-03T12:47:33.000Z</time>
      </trkpt>
      <trkpt lat="49.4196" lon="1.72715">
        <ele>93</ele>
        <time>2020-08-03T12:47:34.000Z</time>
      </trkpt>
      <trkpt lat="49.41957" lon="1.7272">
        <ele>93.199996948242</ele>
        <time>2020-08-03T12:47:39.000Z</time>
      </trkpt>
      <trkpt lat="49.41951" lon="1.72721">
        <ele>93.400001525879</ele>
        <time>2020-08-03T12:47:44.000Z</time>
      </trkpt>
      <trkpt lat="49.41949" lon="1.72722">
        <ele>93.400001525879</ele>
        <time>2020-08-03T12:47:46.000Z</time>
      </trkpt>
      <trkpt lat="49.41947" lon="1.72723">
        <ele>93.400001525879</ele>
        <time>2020-08-03T12:47:48.000Z</time>
      </trkpt>
      <trkpt lat="49.41942" lon="1.72724">
        <ele>93.599998474121</ele>
        <time>2020-08-03T12:47:53.000Z</time>
      </trkpt>
      <trkpt lat="49.41941" lon="1.72723">
        <ele>93.599998474121</ele>
        <time>2020-08-03T12:47:54.000Z</time>
      </trkpt>
      <trkpt lat="49.41941" lon="1.72723">
        <ele>93.599998474121</ele>
        <time>2020-08-03T12:47:55.000Z</time>
      </trkpt>
      <trkpt lat="49.4194" lon="1.72723">
        <ele>93.599998474121</ele>
        <time>2020-08-03T12:47:56.000Z</time>
      </trkpt>
      <trkpt lat="49.41939" lon="1.72723">
        <ele>93.800003051758</ele>
        <time>2020-08-03T12:47:57.000Z</time>
      </trkpt>
      <trkpt lat="49.41937" lon="1.72724">
        <ele>93.800003051758</ele>
        <time>2020-08-03T12:47:59.000Z</time>
      </trkpt>
      <trkpt lat="49.41928" lon="1.72724">
        <ele>95.599998474121</ele>
        <time>2020-08-03T12:48:05.000Z</time>
      </trkpt>
      <trkpt lat="49.41926" lon="1.72724">
        <ele>97</ele>
        <time>2020-08-03T12:48:08.000Z</time>
      </trkpt>
      <trkpt lat="49.41921" lon="1.72724">
        <ele>97.599998474121</ele>
        <time>2020-08-03T12:48:12.000Z</time>
      </trkpt>
      <trkpt lat="49.41919" lon="1.72724">
        <ele>98</ele>
        <time>2020-08-03T12:48:14.000Z</time>
      </trkpt>
      <trkpt lat="49.41913" lon="1.72723">
        <ele>98.400001525879</ele>
        <time>2020-08-03T12:48:20.000Z</time>
      </trkpt>
      <trkpt lat="49.41913" lon="1.72723">
        <ele>98.400001525879</ele>
        <time>2020-08-03T12:48:21.000Z</time>
      </trkpt>
      <trkpt lat="49.41911" lon="1.72723">
        <ele>98.400001525879</ele>
        <time>2020-08-03T12:48:22.000Z</time>
      </trkpt>
      <trkpt lat="49.41905" lon="1.72719">
        <ele>98.400001525879</ele>
        <time>2020-08-03T12:48:29.000Z</time>
      </trkpt>
      <trkpt lat="49.41903" lon="1.72719">
        <ele>98.599998474121</ele>
        <time>2020-08-03T12:48:31.000Z</time>
      </trkpt>
      <trkpt lat="49.41903" lon="1.72719">
        <ele>98.599998474121</ele>
        <time>2020-08-03T12:48:33.000Z</time>
      </trkpt>
      <trkpt lat="49.41902" lon="1.72719">
        <ele>98.599998474121</ele>
        <time>2020-08-03T12:48:34.000Z</time>
      </trkpt>
      <trkpt lat="49.41902" lon="1.72719">
        <ele>98.599998474121</ele>
        <time>2020-08-03T12:48:35.000Z</time>
      </trkpt>
      <trkpt lat="49.41895" lon="1.72722">
        <ele>98.800003051758</ele>
        <time>2020-08-03T12:48:41.000Z</time>
      </trkpt>
      <trkpt lat="49.41892" lon="1.72722">
        <ele>99</ele>
        <time>2020-08-03T12:48:45.000Z</time>
      </trkpt>
      <trkpt lat="49.41888" lon="1.72724">
        <ele>99.599998474121</ele>
        <time>2020-08-03T12:48:50.000Z</time>
      </trkpt>
      <trkpt lat="49.41881" lon="1.72726">
        <ele>99.800003051758</ele>
        <time>2020-08-03T12:48:58.000Z</time>
      </trkpt>
      <trkpt lat="49.4188" lon="1.72727">
        <ele>99.800003051758</ele>
        <time>2020-08-03T12:48:59.000Z</time>
      </trkpt>
      <trkpt lat="49.41876" lon="1.7273">
        <ele>100</ele>
        <time>2020-08-03T12:49:02.000Z</time>
      </trkpt>
      <trkpt lat="49.41874" lon="1.72731">
        <ele>100.19999694824</ele>
        <time>2020-08-03T12:49:04.000Z</time>
      </trkpt>
      <trkpt lat="49.41872" lon="1.72733">
        <ele>100.59999847412</ele>
        <time>2020-08-03T12:49:06.000Z</time>
      </trkpt>
      <trkpt lat="49.41872" lon="1.72733">
        <ele>100.59999847412</ele>
        <time>2020-08-03T12:49:07.000Z</time>
      </trkpt>
      <trkpt lat="49.4187" lon="1.72737">
        <ele>100.80000305176</ele>
        <time>2020-08-03T12:49:10.000Z</time>
      </trkpt>
      <trkpt lat="49.41869" lon="1.72738">
        <ele>100.80000305176</ele>
        <time>2020-08-03T12:49:11.000Z</time>
      </trkpt>
      <trkpt lat="49.41868" lon="1.72741">
        <ele>101.19999694824</ele>
        <time>2020-08-03T12:49:13.000Z</time>
      </trkpt>
      <trkpt lat="49.41863" lon="1.7275">
        <ele>101.40000152588</ele>
        <time>2020-08-03T12:49:19.000Z</time>
      </trkpt>
      <trkpt lat="49.41859" lon="1.72754">
        <ele>102</ele>
        <time>2020-08-03T12:49:23.000Z</time>
      </trkpt>
      <trkpt lat="49.41858" lon="1.72755">
        <ele>102</ele>
        <time>2020-08-03T12:49:25.000Z</time>
      </trkpt>
      <trkpt lat="49.41856" lon="1.72758">
        <ele>102</ele>
        <time>2020-08-03T12:49:29.000Z</time>
      </trkpt>
      <trkpt lat="49.41854" lon="1.7276">
        <ele>102</ele>
        <time>2020-08-03T12:49:32.000Z</time>
      </trkpt>
      <trkpt lat="49.41852" lon="1.72767">
        <ele>102</ele>
        <time>2020-08-03T12:49:38.000Z</time>
      </trkpt>
      <trkpt lat="49.4185" lon="1.7277">
        <ele>102</ele>
        <time>2020-08-03T12:49:41.000Z</time>
      </trkpt>
      <trkpt lat="49.4185" lon="1.72772">
        <ele>102</ele>
        <time>2020-08-03T12:49:42.000Z</time>
      </trkpt>
      <trkpt lat="49.41847" lon="1.72778">
        <ele>102.19999694824</ele>
        <time>2020-08-03T12:49:47.000Z</time>
      </trkpt>
      <trkpt lat="49.41846" lon="1.72779">
        <ele>102.19999694824</ele>
        <time>2020-08-03T12:49:48.000Z</time>
      </trkpt>
      <trkpt lat="49.41846" lon="1.7278">
        <ele>102.19999694824</ele>
        <time>2020-08-03T12:49:49.000Z</time>
      </trkpt>
      <trkpt lat="49.41845" lon="1.72782">
        <ele>102.19999694824</ele>
        <time>2020-08-03T12:49:51.000Z</time>
      </trkpt>
      <trkpt lat="49.41843" lon="1.72786">
        <ele>102.40000152588</ele>
        <time>2020-08-03T12:49:55.000Z</time>
      </trkpt>
      <trkpt lat="49.41839" lon="1.72791">
        <ele>102.40000152588</ele>
        <time>2020-08-03T12:49:59.000Z</time>
      </trkpt>
      <trkpt lat="49.41838" lon="1.72793">
        <ele>102.40000152588</ele>
        <time>2020-08-03T12:50:01.000Z</time>
      </trkpt>
      <trkpt lat="49.41832" lon="1.728">
        <ele>102.80000305176</ele>
        <time>2020-08-03T12:50:08.000Z</time>
      </trkpt>
      <trkpt lat="49.41829" lon="1.72805">
        <ele>103</ele>
        <time>2020-08-03T12:50:13.000Z</time>
      </trkpt>
      <trkpt lat="49.41823" lon="1.72811">
        <ele>103.19999694824</ele>
        <time>2020-08-03T12:50:20.000Z</time>
      </trkpt>
      <trkpt lat="49.41821" lon="1.72812">
        <ele>103.19999694824</ele>
        <time>2020-08-03T12:50:22.000Z</time>
      </trkpt>
      <trkpt lat="49.4182" lon="1.72813">
        <ele>103.40000152588</ele>
        <time>2020-08-03T12:50:23.000Z</time>
      </trkpt>
      <trkpt lat="49.41819" lon="1.72814">
        <ele>103.40000152588</ele>
        <time>2020-08-03T12:50:25.000Z</time>
      </trkpt>
      <trkpt lat="49.41815" lon="1.72819">
        <ele>103.59999847412</ele>
        <time>2020-08-03T12:50:30.000Z</time>
      </trkpt>
      <trkpt lat="49.41813" lon="1.7282">
        <ele>103.80000305176</ele>
        <time>2020-08-03T12:50:32.000Z</time>
      </trkpt>
      <trkpt lat="49.41812" lon="1.7282">
        <ele>103.80000305176</ele>
        <time>2020-08-03T12:50:33.000Z</time>
      </trkpt>
      <trkpt lat="49.41808" lon="1.72823">
        <ele>104</ele>
        <time>2020-08-03T12:50:37.000Z</time>
      </trkpt>
      <trkpt lat="49.41806" lon="1.72826">
        <ele>104</ele>
        <time>2020-08-03T12:50:39.000Z</time>
      </trkpt>
      <trkpt lat="49.41803" lon="1.72829">
        <ele>104.19999694824</ele>
        <time>2020-08-03T12:50:42.000Z</time>
      </trkpt>
      <trkpt lat="49.418" lon="1.72832">
        <ele>104.40000152588</ele>
        <time>2020-08-03T12:50:45.000Z</time>
      </trkpt>
      <trkpt lat="49.41794" lon="1.72838">
        <ele>104.80000305176</ele>
        <time>2020-08-03T12:50:53.000Z</time>
      </trkpt>
      <trkpt lat="49.41792" lon="1.7284">
        <ele>105</ele>
        <time>2020-08-03T12:50:55.000Z</time>
      </trkpt>
      <trkpt lat="49.4179" lon="1.72841">
        <ele>105.19999694824</ele>
        <time>2020-08-03T12:50:58.000Z</time>
      </trkpt>
      <trkpt lat="49.41788" lon="1.72843">
        <ele>105.19999694824</ele>
        <time>2020-08-03T12:51:00.000Z</time>
      </trkpt>
      <trkpt lat="49.41788" lon="1.72843">
        <ele>105.19999694824</ele>
        <time>2020-08-03T12:51:01.000Z</time>
      </trkpt>
      <trkpt lat="49.41782" lon="1.7285">
        <ele>105.59999847412</ele>
        <time>2020-08-03T12:51:08.000Z</time>
      </trkpt>
      <trkpt lat="49.41779" lon="1.72852">
        <ele>105.80000305176</ele>
        <time>2020-08-03T12:51:11.000Z</time>
      </trkpt>
      <trkpt lat="49.41776" lon="1.72855">
        <ele>106</ele>
        <time>2020-08-03T12:51:15.000Z</time>
      </trkpt>
      <trkpt lat="49.41775" lon="1.72856">
        <ele>106.19999694824</ele>
        <time>2020-08-03T12:51:16.000Z</time>
      </trkpt>
      <trkpt lat="49.41774" lon="1.72857">
        <ele>106.19999694824</ele>
        <time>2020-08-03T12:51:18.000Z</time>
      </trkpt>
      <trkpt lat="49.41774" lon="1.72857">
        <ele>106.40000152588</ele>
        <time>2020-08-03T12:51:19.000Z</time>
      </trkpt>
      <trkpt lat="49.41774" lon="1.72858">
        <ele>106.40000152588</ele>
        <time>2020-08-03T12:51:20.000Z</time>
      </trkpt>
      <trkpt lat="49.41773" lon="1.72858">
        <ele>106.40000152588</ele>
        <time>2020-08-03T12:51:21.000Z</time>
      </trkpt>
      <trkpt lat="49.41773" lon="1.72859">
        <ele>106.59999847412</ele>
        <time>2020-08-03T12:51:22.000Z</time>
      </trkpt>
      <trkpt lat="49.41771" lon="1.72858">
        <ele>106.59999847412</ele>
        <time>2020-08-03T12:51:24.000Z</time>
      </trkpt>
      <trkpt lat="49.41771" lon="1.72858">
        <ele>106.80000305176</ele>
        <time>2020-08-03T12:51:26.000Z</time>
      </trkpt>
      <trkpt lat="49.41771" lon="1.72858">
        <ele>107</ele>
        <time>2020-08-03T12:51:30.000Z</time>
      </trkpt>
      <trkpt lat="49.41771" lon="1.72858">
        <ele>107</ele>
        <time>2020-08-03T12:51:31.000Z</time>
      </trkpt>
      <trkpt lat="49.41772" lon="1.72857">
        <ele>107.40000152588</ele>
        <time>2020-08-03T12:51:38.000Z</time>
      </trkpt>
      <trkpt lat="49.41772" lon="1.72857">
        <ele>107.40000152588</ele>
        <time>2020-08-03T12:51:39.000Z</time>
      </trkpt>
      <trkpt lat="49.41771" lon="1.72858">
        <ele>107.59999847412</ele>
        <time>2020-08-03T12:51:41.000Z</time>
      </trkpt>
      <trkpt lat="49.41771" lon="1.72857">
        <ele>107.80000305176</ele>
        <time>2020-08-03T12:51:47.000Z</time>
      </trkpt>
      <trkpt lat="49.41772" lon="1.72857">
        <ele>108</ele>
        <time>2020-08-03T12:51:52.000Z</time>
      </trkpt>
      <trkpt lat="49.41772" lon="1.72857">
        <ele>108</ele>
        <time>2020-08-03T12:51:53.000Z</time>
      </trkpt>
      <trkpt lat="49.41773" lon="1.72856">
        <ele>108.19999694824</ele>
        <time>2020-08-03T12:51:55.000Z</time>
      </trkpt>
      <trkpt lat="49.41773" lon="1.72857">
        <ele>108.19999694824</ele>
        <time>2020-08-03T12:51:56.000Z</time>
      </trkpt>
      <trkpt lat="49.41774" lon="1.72854">
        <ele>108.40000152588</ele>
        <time>2020-08-03T12:52:01.000Z</time>
      </trkpt>
      <trkpt lat="49.41774" lon="1.72855">
        <ele>108.40000152588</ele>
        <time>2020-08-03T12:52:04.000Z</time>
      </trkpt>
      <trkpt lat="49.41774" lon="1.72855">
        <ele>108.59999847412</ele>
        <time>2020-08-03T12:52:05.000Z</time>
      </trkpt>
      <trkpt lat="49.41774" lon="1.72855">
        <ele>108.80000305176</ele>
        <time>2020-08-03T12:52:11.000Z</time>
      </trkpt>
      <trkpt lat="49.41774" lon="1.72855">
        <ele>108.80000305176</ele>
        <time>2020-08-03T12:52:13.000Z</time>
      </trkpt>
      <trkpt lat="49.41773" lon="1.72854">
        <ele>109</ele>
        <time>2020-08-03T12:52:22.000Z</time>
      </trkpt>
      <trkpt lat="49.41772" lon="1.72854">
        <ele>109.19999694824</ele>
        <time>2020-08-03T12:52:24.000Z</time>
      </trkpt>
      <trkpt lat="49.41771" lon="1.72854">
        <ele>109.19999694824</ele>
        <time>2020-08-03T12:52:25.000Z</time>
      </trkpt>
      <trkpt lat="49.41769" lon="1.72856">
        <ele>109.19999694824</ele>
        <time>2020-08-03T12:52:29.000Z</time>
      </trkpt>
      <trkpt lat="49.41765" lon="1.7286">
        <ele>109.19999694824</ele>
        <time>2020-08-03T12:52:34.000Z</time>
      </trkpt>
      <trkpt lat="49.41764" lon="1.72861">
        <ele>109.19999694824</ele>
        <time>2020-08-03T12:52:35.000Z</time>
      </trkpt>
      <trkpt lat="49.41763" lon="1.72862">
        <ele>109.19999694824</ele>
        <time>2020-08-03T12:52:36.000Z</time>
      </trkpt>
      <trkpt lat="49.41763" lon="1.72865">
        <ele>109.19999694824</ele>
        <time>2020-08-03T12:52:38.000Z</time>
      </trkpt>
      <trkpt lat="49.4176" lon="1.72866">
        <ele>109.19999694824</ele>
        <time>2020-08-03T12:52:41.000Z</time>
      </trkpt>
      <trkpt lat="49.41758" lon="1.72868">
        <ele>109.19999694824</ele>
        <time>2020-08-03T12:52:45.000Z</time>
      </trkpt>
      <trkpt lat="49.41756" lon="1.72869">
        <ele>109.19999694824</ele>
        <time>2020-08-03T12:52:47.000Z</time>
      </trkpt>
      <trkpt lat="49.41754" lon="1.7287">
        <ele>109.19999694824</ele>
        <time>2020-08-03T12:52:49.000Z</time>
      </trkpt>
      <trkpt lat="49.41748" lon="1.72877">
        <ele>109.19999694824</ele>
        <time>2020-08-03T12:52:56.000Z</time>
      </trkpt>
      <trkpt lat="49.41745" lon="1.72879">
        <ele>109.19999694824</ele>
        <time>2020-08-03T12:52:59.000Z</time>
      </trkpt>
      <trkpt lat="49.41741" lon="1.72883">
        <ele>109.40000152588</ele>
        <time>2020-08-03T12:53:03.000Z</time>
      </trkpt>
      <trkpt lat="49.41739" lon="1.72885">
        <ele>109.40000152588</ele>
        <time>2020-08-03T12:53:05.000Z</time>
      </trkpt>
      <trkpt lat="49.41735" lon="1.72891">
        <ele>109.59999847412</ele>
        <time>2020-08-03T12:53:10.000Z</time>
      </trkpt>
      <trkpt lat="49.4173" lon="1.729">
        <ele>109.80000305176</ele>
        <time>2020-08-03T12:53:17.000Z</time>
      </trkpt>
      <trkpt lat="49.41726" lon="1.72909">
        <ele>110</ele>
        <time>2020-08-03T12:53:23.000Z</time>
      </trkpt>
      <trkpt lat="49.41723" lon="1.72917">
        <ele>110.19999694824</ele>
        <time>2020-08-03T12:53:28.000Z</time>
      </trkpt>
      <trkpt lat="49.41723" lon="1.72918">
        <ele>110.40000152588</ele>
        <time>2020-08-03T12:53:29.000Z</time>
      </trkpt>
      <trkpt lat="49.41722" lon="1.72919">
        <ele>112.59999847412</ele>
        <time>2020-08-03T12:53:31.000Z</time>
      </trkpt>
      <trkpt lat="49.41722" lon="1.7292">
        <ele>113.80000305176</ele>
        <time>2020-08-03T12:53:32.000Z</time>
      </trkpt>
      <trkpt lat="49.41721" lon="1.72922">
        <ele>115</ele>
        <time>2020-08-03T12:53:34.000Z</time>
      </trkpt>
      <trkpt lat="49.41721" lon="1.72922">
        <ele>115.19999694824</ele>
        <time>2020-08-03T12:53:35.000Z</time>
      </trkpt>
      <trkpt lat="49.4172" lon="1.72922">
        <ele>115.40000152588</ele>
        <time>2020-08-03T12:53:37.000Z</time>
      </trkpt>
      <trkpt lat="49.4172" lon="1.72922">
        <ele>115.40000152588</ele>
        <time>2020-08-03T12:53:38.000Z</time>
      </trkpt>
      <trkpt lat="49.41716" lon="1.72929">
        <ele>116</ele>
        <time>2020-08-03T12:53:44.000Z</time>
      </trkpt>
      <trkpt lat="49.41713" lon="1.72939">
        <ele>117.19999694824</ele>
        <time>2020-08-03T12:53:52.000Z</time>
      </trkpt>
      <trkpt lat="49.41712" lon="1.72942">
        <ele>117.40000152588</ele>
        <time>2020-08-03T12:53:54.000Z</time>
      </trkpt>
      <trkpt lat="49.41712" lon="1.72947">
        <ele>117.59999847412</ele>
        <time>2020-08-03T12:53:58.000Z</time>
      </trkpt>
      <trkpt lat="49.41712" lon="1.72949">
        <ele>117.80000305176</ele>
        <time>2020-08-03T12:54:00.000Z</time>
      </trkpt>
      <trkpt lat="49.41712" lon="1.7295">
        <ele>118</ele>
        <time>2020-08-03T12:54:02.000Z</time>
      </trkpt>
      <trkpt lat="49.41712" lon="1.72955">
        <ele>118.19999694824</ele>
        <time>2020-08-03T12:54:05.000Z</time>
      </trkpt>
      <trkpt lat="49.4171" lon="1.72958">
        <ele>118.80000305176</ele>
        <time>2020-08-03T12:54:09.000Z</time>
      </trkpt>
      <trkpt lat="49.4171" lon="1.7296">
        <ele>119</ele>
        <time>2020-08-03T12:54:11.000Z</time>
      </trkpt>
      <trkpt lat="49.41709" lon="1.72965">
        <ele>119.40000152588</ele>
        <time>2020-08-03T12:54:14.000Z</time>
      </trkpt>
      <trkpt lat="49.41708" lon="1.72967">
        <ele>119.40000152588</ele>
        <time>2020-08-03T12:54:15.000Z</time>
      </trkpt>
      <trkpt lat="49.41707" lon="1.72968">
        <ele>119.59999847412</ele>
        <time>2020-08-03T12:54:16.000Z</time>
      </trkpt>
      <trkpt lat="49.41703" lon="1.7298">
        <ele>120.40000152588</ele>
        <time>2020-08-03T12:54:23.000Z</time>
      </trkpt>
      <trkpt lat="49.41703" lon="1.72982">
        <ele>120.59999847412</ele>
        <time>2020-08-03T12:54:24.000Z</time>
      </trkpt>
      <trkpt lat="49.41702" lon="1.72985">
        <ele>121</ele>
        <time>2020-08-03T12:54:26.000Z</time>
      </trkpt>
      <trkpt lat="49.417" lon="1.7299">
        <ele>121.40000152588</ele>
        <time>2020-08-03T12:54:30.000Z</time>
      </trkpt>
      <trkpt lat="49.41699" lon="1.72991">
        <ele>121.59999847412</ele>
        <time>2020-08-03T12:54:31.000Z</time>
      </trkpt>
      <trkpt lat="49.41695" lon="1.72997">
        <ele>122.40000152588</ele>
        <time>2020-08-03T12:54:37.000Z</time>
      </trkpt>
      <trkpt lat="49.41693" lon="1.72999">
        <ele>122.59999847412</ele>
        <time>2020-08-03T12:54:39.000Z</time>
      </trkpt>
      <trkpt lat="49.41692" lon="1.73">
        <ele>123</ele>
        <time>2020-08-03T12:54:41.000Z</time>
      </trkpt>
      <trkpt lat="49.41692" lon="1.72999">
        <ele>123.40000152588</ele>
        <time>2020-08-03T12:54:44.000Z</time>
      </trkpt>
      <trkpt lat="49.41692" lon="1.72999">
        <ele>123.40000152588</ele>
        <time>2020-08-03T12:54:45.000Z</time>
      </trkpt>
      <trkpt lat="49.41692" lon="1.72998">
        <ele>123.40000152588</ele>
        <time>2020-08-03T12:54:46.000Z</time>
      </trkpt>
      <trkpt lat="49.41694" lon="1.72997">
        <ele>123.40000152588</ele>
        <time>2020-08-03T12:54:52.000Z</time>
      </trkpt>
      <trkpt lat="49.41693" lon="1.72996">
        <ele>123</ele>
        <time>2020-08-03T12:55:02.000Z</time>
      </trkpt>
      <trkpt lat="49.41694" lon="1.72999">
        <ele>122.80000305176</ele>
        <time>2020-08-03T12:55:08.000Z</time>
      </trkpt>
      <trkpt lat="49.41692" lon="1.73001">
        <ele>123</ele>
        <time>2020-08-03T12:55:11.000Z</time>
      </trkpt>
      <trkpt lat="49.4169" lon="1.73003">
        <ele>123.40000152588</ele>
        <time>2020-08-03T12:55:14.000Z</time>
      </trkpt>
      <trkpt lat="49.41685" lon="1.73008">
        <ele>124.40000152588</ele>
        <time>2020-08-03T12:55:21.000Z</time>
      </trkpt>
      <trkpt lat="49.41685" lon="1.73008">
        <ele>124.59999847412</ele>
        <time>2020-08-03T12:55:22.000Z</time>
      </trkpt>
      <trkpt lat="49.4168" lon="1.73013">
        <ele>125.40000152588</ele>
        <time>2020-08-03T12:55:29.000Z</time>
      </trkpt>
      <trkpt lat="49.41679" lon="1.73013">
        <ele>125.59999847412</ele>
        <time>2020-08-03T12:55:30.000Z</time>
      </trkpt>
      <trkpt lat="49.41678" lon="1.73014">
        <ele>125.80000305176</ele>
        <time>2020-08-03T12:55:31.000Z</time>
      </trkpt>
      <trkpt lat="49.41677" lon="1.73015">
        <ele>126.19999694824</ele>
        <time>2020-08-03T12:55:32.000Z</time>
      </trkpt>
      <trkpt lat="49.41676" lon="1.73016">
        <ele>126.40000152588</ele>
        <time>2020-08-03T12:55:33.000Z</time>
      </trkpt>
      <trkpt lat="49.41673" lon="1.73019">
        <ele>126.59999847412</ele>
        <time>2020-08-03T12:55:37.000Z</time>
      </trkpt>
      <trkpt lat="49.41673" lon="1.73019">
        <ele>126.59999847412</ele>
        <time>2020-08-03T12:55:38.000Z</time>
      </trkpt>
      <trkpt lat="49.41671" lon="1.73022">
        <ele>126.59999847412</ele>
        <time>2020-08-03T12:55:41.000Z</time>
      </trkpt>
      <trkpt lat="49.41667" lon="1.73026">
        <ele>126.59999847412</ele>
        <time>2020-08-03T12:55:45.000Z</time>
      </trkpt>
      <trkpt lat="49.41664" lon="1.73027">
        <ele>126.59999847412</ele>
        <time>2020-08-03T12:55:47.000Z</time>
      </trkpt>
      <trkpt lat="49.41664" lon="1.73027">
        <ele>126.59999847412</ele>
        <time>2020-08-03T12:55:48.000Z</time>
      </trkpt>
      <trkpt lat="49.41661" lon="1.73029">
        <ele>126.80000305176</ele>
        <time>2020-08-03T12:55:50.000Z</time>
      </trkpt>
      <trkpt lat="49.4166" lon="1.7303">
        <ele>126.80000305176</ele>
        <time>2020-08-03T12:55:52.000Z</time>
      </trkpt>
      <trkpt lat="49.41659" lon="1.73031">
        <ele>126.80000305176</ele>
        <time>2020-08-03T12:55:54.000Z</time>
      </trkpt>
      <trkpt lat="49.41659" lon="1.73031">
        <ele>126.80000305176</ele>
        <time>2020-08-03T12:55:56.000Z</time>
      </trkpt>
      <trkpt lat="49.41659" lon="1.73032">
        <ele>126.80000305176</ele>
        <time>2020-08-03T12:55:57.000Z</time>
      </trkpt>
      <trkpt lat="49.41657" lon="1.73035">
        <ele>127</ele>
        <time>2020-08-03T12:56:03.000Z</time>
      </trkpt>
      <trkpt lat="49.41654" lon="1.73037">
        <ele>127</ele>
        <time>2020-08-03T12:56:07.000Z</time>
      </trkpt>
      <trkpt lat="49.41653" lon="1.73038">
        <ele>127.19999694824</ele>
        <time>2020-08-03T12:56:08.000Z</time>
      </trkpt>
      <trkpt lat="49.41649" lon="1.7304">
        <ele>127.19999694824</ele>
        <time>2020-08-03T12:56:13.000Z</time>
      </trkpt>
      <trkpt lat="49.41648" lon="1.73041">
        <ele>127.40000152588</ele>
        <time>2020-08-03T12:56:15.000Z</time>
      </trkpt>
      <trkpt lat="49.41647" lon="1.73037">
        <ele>127.59999847412</ele>
        <time>2020-08-03T12:56:22.000Z</time>
      </trkpt>
      <trkpt lat="49.41647" lon="1.73036">
        <ele>127.80000305176</ele>
        <time>2020-08-03T12:56:27.000Z</time>
      </trkpt>
      <trkpt lat="49.41647" lon="1.73036">
        <ele>128</ele>
        <time>2020-08-03T12:56:29.000Z</time>
      </trkpt>
      <trkpt lat="49.41647" lon="1.73036">
        <ele>128.19999694824</ele>
        <time>2020-08-03T12:56:35.000Z</time>
      </trkpt>
      <trkpt lat="49.41647" lon="1.73036">
        <ele>128.19999694824</ele>
        <time>2020-08-03T12:56:36.000Z</time>
      </trkpt>
      <trkpt lat="49.41644" lon="1.73036">
        <ele>128.60000610352</ele>
        <time>2020-08-03T12:56:44.000Z</time>
      </trkpt>
      <trkpt lat="49.41644" lon="1.73037">
        <ele>128.60000610352</ele>
        <time>2020-08-03T12:56:45.000Z</time>
      </trkpt>
      <trkpt lat="49.4164" lon="1.73041">
        <ele>129</ele>
        <time>2020-08-03T12:56:50.000Z</time>
      </trkpt>
      <trkpt lat="49.41638" lon="1.73044">
        <ele>129</ele>
        <time>2020-08-03T12:56:51.000Z</time>
      </trkpt>
      <trkpt lat="49.41636" lon="1.7305">
        <ele>129.39999389648</ele>
        <time>2020-08-03T12:56:57.000Z</time>
      </trkpt>
      <trkpt lat="49.41635" lon="1.73051">
        <ele>129.39999389648</ele>
        <time>2020-08-03T12:56:58.000Z</time>
      </trkpt>
      <trkpt lat="49.41635" lon="1.73051">
        <ele>129.39999389648</ele>
        <time>2020-08-03T12:56:59.000Z</time>
      </trkpt>
      <trkpt lat="49.41634" lon="1.73052">
        <ele>129.60000610352</ele>
        <time>2020-08-03T12:57:00.000Z</time>
      </trkpt>
      <trkpt lat="49.41634" lon="1.73054">
        <ele>129.60000610352</ele>
        <time>2020-08-03T12:57:02.000Z</time>
      </trkpt>
      <trkpt lat="49.41634" lon="1.73057">
        <ele>129.80000305176</ele>
        <time>2020-08-03T12:57:04.000Z</time>
      </trkpt>
      <trkpt lat="49.41635" lon="1.73058">
        <ele>129.80000305176</ele>
        <time>2020-08-03T12:57:05.000Z</time>
      </trkpt>
      <trkpt lat="49.41635" lon="1.73061">
        <ele>130</ele>
        <time>2020-08-03T12:57:07.000Z</time>
      </trkpt>
      <trkpt lat="49.41637" lon="1.73065">
        <ele>130</ele>
        <time>2020-08-03T12:57:09.000Z</time>
      </trkpt>
      <trkpt lat="49.41637" lon="1.73068">
        <ele>133.19999694824</ele>
        <time>2020-08-03T12:57:11.000Z</time>
      </trkpt>
      <trkpt lat="49.41637" lon="1.73069">
        <ele>134.80000305176</ele>
        <time>2020-08-03T12:57:12.000Z</time>
      </trkpt>
      <trkpt lat="49.41637" lon="1.7307">
        <ele>135.80000305176</ele>
        <time>2020-08-03T12:57:13.000Z</time>
      </trkpt>
      <trkpt lat="49.41637" lon="1.73072">
        <ele>136.19999694824</ele>
        <time>2020-08-03T12:57:14.000Z</time>
      </trkpt>
      <trkpt lat="49.41636" lon="1.73073">
        <ele>136.39999389648</ele>
        <time>2020-08-03T12:57:15.000Z</time>
      </trkpt>
      <trkpt lat="49.41636" lon="1.73075">
        <ele>136.60000610352</ele>
        <time>2020-08-03T12:57:17.000Z</time>
      </trkpt>
      <trkpt lat="49.41635" lon="1.73076">
        <ele>137.19999694824</ele>
        <time>2020-08-03T12:57:19.000Z</time>
      </trkpt>
      <trkpt lat="49.41635" lon="1.73077">
        <ele>137.39999389648</ele>
        <time>2020-08-03T12:57:20.000Z</time>
      </trkpt>
      <trkpt lat="49.41634" lon="1.73078">
        <ele>137.80000305176</ele>
        <time>2020-08-03T12:57:22.000Z</time>
      </trkpt>
      <trkpt lat="49.41634" lon="1.7308">
        <ele>138.39999389648</ele>
        <time>2020-08-03T12:57:24.000Z</time>
      </trkpt>
      <trkpt lat="49.41634" lon="1.73081">
        <ele>138.60000610352</ele>
        <time>2020-08-03T12:57:25.000Z</time>
      </trkpt>
      <trkpt lat="49.41633" lon="1.73082">
        <ele>138.80000305176</ele>
        <time>2020-08-03T12:57:26.000Z</time>
      </trkpt>
      <trkpt lat="49.41628" lon="1.73088">
        <ele>139.39999389648</ele>
        <time>2020-08-03T12:57:30.000Z</time>
      </trkpt>
      <trkpt lat="49.41627" lon="1.73089">
        <ele>140</ele>
        <time>2020-08-03T12:57:33.000Z</time>
      </trkpt>
      <trkpt lat="49.41628" lon="1.7309">
        <ele>140</ele>
        <time>2020-08-03T12:57:34.000Z</time>
      </trkpt>
      <trkpt lat="49.41626" lon="1.73092">
        <ele>140.19999694824</ele>
        <time>2020-08-03T12:57:36.000Z</time>
      </trkpt>
      <trkpt lat="49.41624" lon="1.73094">
        <ele>140.39999389648</ele>
        <time>2020-08-03T12:57:39.000Z</time>
      </trkpt>
      <trkpt lat="49.41623" lon="1.73095">
        <ele>140.60000610352</ele>
        <time>2020-08-03T12:57:40.000Z</time>
      </trkpt>
      <trkpt lat="49.41623" lon="1.73098">
        <ele>141</ele>
        <time>2020-08-03T12:57:43.000Z</time>
      </trkpt>
      <trkpt lat="49.41623" lon="1.73101">
        <ele>141.19999694824</ele>
        <time>2020-08-03T12:57:46.000Z</time>
      </trkpt>
      <trkpt lat="49.41623" lon="1.73101">
        <ele>141.39999389648</ele>
        <time>2020-08-03T12:57:47.000Z</time>
      </trkpt>
      <trkpt lat="49.41623" lon="1.73103">
        <ele>141.60000610352</ele>
        <time>2020-08-03T12:57:48.000Z</time>
      </trkpt>
      <trkpt lat="49.41623" lon="1.73105">
        <ele>141.80000305176</ele>
        <time>2020-08-03T12:57:49.000Z</time>
      </trkpt>
      <trkpt lat="49.41623" lon="1.73107">
        <ele>142.19999694824</ele>
        <time>2020-08-03T12:57:51.000Z</time>
      </trkpt>
      <trkpt lat="49.41622" lon="1.7311">
        <ele>142.39999389648</ele>
        <time>2020-08-03T12:57:53.000Z</time>
      </trkpt>
      <trkpt lat="49.41622" lon="1.73111">
        <ele>142.60000610352</ele>
        <time>2020-08-03T12:57:54.000Z</time>
      </trkpt>
      <trkpt lat="49.41621" lon="1.73112">
        <ele>142.80000305176</ele>
        <time>2020-08-03T12:57:55.000Z</time>
      </trkpt>
      <trkpt lat="49.41621" lon="1.73119">
        <ele>143.60000610352</ele>
        <time>2020-08-03T12:57:59.000Z</time>
      </trkpt>
      <trkpt lat="49.41622" lon="1.73121">
        <ele>143.80000305176</ele>
        <time>2020-08-03T12:58:00.000Z</time>
      </trkpt>
      <trkpt lat="49.41625" lon="1.73124">
        <ele>144</ele>
        <time>2020-08-03T12:58:02.000Z</time>
      </trkpt>
      <trkpt lat="49.41626" lon="1.73126">
        <ele>144.19999694824</ele>
        <time>2020-08-03T12:58:03.000Z</time>
      </trkpt>
      <trkpt lat="49.41627" lon="1.7313">
        <ele>144.80000305176</ele>
        <time>2020-08-03T12:58:06.000Z</time>
      </trkpt>
      <trkpt lat="49.41629" lon="1.73135">
        <ele>145.60000610352</ele>
        <time>2020-08-03T12:58:10.000Z</time>
      </trkpt>
      <trkpt lat="49.4163" lon="1.73136">
        <ele>145.80000305176</ele>
        <time>2020-08-03T12:58:11.000Z</time>
      </trkpt>
      <trkpt lat="49.4163" lon="1.73137">
        <ele>145.80000305176</ele>
        <time>2020-08-03T12:58:12.000Z</time>
      </trkpt>
      <trkpt lat="49.41631" lon="1.73138">
        <ele>146.19999694824</ele>
        <time>2020-08-03T12:58:13.000Z</time>
      </trkpt>
      <trkpt lat="49.41631" lon="1.7314">
        <ele>146.60000610352</ele>
        <time>2020-08-03T12:58:15.000Z</time>
      </trkpt>
      <trkpt lat="49.4163" lon="1.73144">
        <ele>146.80000305176</ele>
        <time>2020-08-03T12:58:18.000Z</time>
      </trkpt>
      <trkpt lat="49.4163" lon="1.73145">
        <ele>146.80000305176</ele>
        <time>2020-08-03T12:58:19.000Z</time>
      </trkpt>
      <trkpt lat="49.4163" lon="1.73146">
        <ele>146.80000305176</ele>
        <time>2020-08-03T12:58:20.000Z</time>
      </trkpt>
      <trkpt lat="49.4163" lon="1.73147">
        <ele>147</ele>
        <time>2020-08-03T12:58:21.000Z</time>
      </trkpt>
      <trkpt lat="49.4163" lon="1.73149">
        <ele>147.39999389648</ele>
        <time>2020-08-03T12:58:22.000Z</time>
      </trkpt>
      <trkpt lat="49.4163" lon="1.73151">
        <ele>148</ele>
        <time>2020-08-03T12:58:24.000Z</time>
      </trkpt>
      <trkpt lat="49.4163" lon="1.73152">
        <ele>148.19999694824</ele>
        <time>2020-08-03T12:58:25.000Z</time>
      </trkpt>
      <trkpt lat="49.41629" lon="1.73153">
        <ele>148.19999694824</ele>
        <time>2020-08-03T12:58:26.000Z</time>
      </trkpt>
      <trkpt lat="49.41628" lon="1.73153">
        <ele>148.39999389648</ele>
        <time>2020-08-03T12:58:28.000Z</time>
      </trkpt>
      <trkpt lat="49.41627" lon="1.73153">
        <ele>148.39999389648</ele>
        <time>2020-08-03T12:58:30.000Z</time>
      </trkpt>
      <trkpt lat="49.41628" lon="1.73152">
        <ele>148.39999389648</ele>
        <time>2020-08-03T12:58:33.000Z</time>
      </trkpt>
      <trkpt lat="49.41627" lon="1.73151">
        <ele>148.39999389648</ele>
        <time>2020-08-03T12:58:37.000Z</time>
      </trkpt>
      <trkpt lat="49.41627" lon="1.73151">
        <ele>148.39999389648</ele>
        <time>2020-08-03T12:58:38.000Z</time>
      </trkpt>
      <trkpt lat="49.41627" lon="1.73151">
        <ele>148.39999389648</ele>
        <time>2020-08-03T12:58:39.000Z</time>
      </trkpt>
      <trkpt lat="49.41627" lon="1.73152">
        <ele>148.60000610352</ele>
        <time>2020-08-03T12:58:42.000Z</time>
      </trkpt>
      <trkpt lat="49.41627" lon="1.73153">
        <ele>148.60000610352</ele>
        <time>2020-08-03T12:58:44.000Z</time>
      </trkpt>
      <trkpt lat="49.41627" lon="1.73153">
        <ele>148.60000610352</ele>
        <time>2020-08-03T12:58:46.000Z</time>
      </trkpt>
      <trkpt lat="49.41627" lon="1.73154">
        <ele>148.60000610352</ele>
        <time>2020-08-03T12:58:51.000Z</time>
      </trkpt>
      <trkpt lat="49.41626" lon="1.73155">
        <ele>149.19999694824</ele>
        <time>2020-08-03T12:58:58.000Z</time>
      </trkpt>
      <trkpt lat="49.41626" lon="1.73159">
        <ele>149.19999694824</ele>
        <time>2020-08-03T12:59:03.000Z</time>
      </trkpt>
      <trkpt lat="49.41624" lon="1.73164">
        <ele>149.39999389648</ele>
        <time>2020-08-03T12:59:07.000Z</time>
      </trkpt>
      <trkpt lat="49.41621" lon="1.73172">
        <ele>150.19999694824</ele>
        <time>2020-08-03T12:59:13.000Z</time>
      </trkpt>
      <trkpt lat="49.41621" lon="1.73173">
        <ele>150.39999389648</ele>
        <time>2020-08-03T12:59:14.000Z</time>
      </trkpt>
      <trkpt lat="49.41623" lon="1.73177">
        <ele>150.60000610352</ele>
        <time>2020-08-03T12:59:17.000Z</time>
      </trkpt>
      <trkpt lat="49.41622" lon="1.73182">
        <ele>150.80000305176</ele>
        <time>2020-08-03T12:59:21.000Z</time>
      </trkpt>
      <trkpt lat="49.41621" lon="1.73184">
        <ele>151.39999389648</ele>
        <time>2020-08-03T12:59:24.000Z</time>
      </trkpt>
      <trkpt lat="49.41621" lon="1.73192">
        <ele>151.80000305176</ele>
        <time>2020-08-03T12:59:29.000Z</time>
      </trkpt>
      <trkpt lat="49.4162" lon="1.73196">
        <ele>152.19999694824</ele>
        <time>2020-08-03T12:59:32.000Z</time>
      </trkpt>
      <trkpt lat="49.41618" lon="1.732">
        <ele>152.39999389648</ele>
        <time>2020-08-03T12:59:36.000Z</time>
      </trkpt>
      <trkpt lat="49.41618" lon="1.73207">
        <ele>153.60000610352</ele>
        <time>2020-08-03T12:59:41.000Z</time>
      </trkpt>
      <trkpt lat="49.4162" lon="1.73209">
        <ele>153.60000610352</ele>
        <time>2020-08-03T12:59:43.000Z</time>
      </trkpt>
      <trkpt lat="49.4162" lon="1.73211">
        <ele>153.80000305176</ele>
        <time>2020-08-03T12:59:45.000Z</time>
      </trkpt>
      <trkpt lat="49.4162" lon="1.73216">
        <ele>154.19999694824</ele>
        <time>2020-08-03T12:59:49.000Z</time>
      </trkpt>
      <trkpt lat="49.4162" lon="1.73219">
        <ele>154.60000610352</ele>
        <time>2020-08-03T12:59:51.000Z</time>
      </trkpt>
      <trkpt lat="49.4162" lon="1.73219">
        <ele>154.80000305176</ele>
        <time>2020-08-03T12:59:52.000Z</time>
      </trkpt>
      <trkpt lat="49.4162" lon="1.73221">
        <ele>155.19999694824</ele>
        <time>2020-08-03T12:59:54.000Z</time>
      </trkpt>
      <trkpt lat="49.41621" lon="1.73223">
        <ele>155.60000610352</ele>
        <time>2020-08-03T12:59:56.000Z</time>
      </trkpt>
      <trkpt lat="49.41622" lon="1.73225">
        <ele>156</ele>
        <time>2020-08-03T12:59:58.000Z</time>
      </trkpt>
      <trkpt lat="49.41622" lon="1.73228">
        <ele>156.60000610352</ele>
        <time>2020-08-03T13:00:01.000Z</time>
      </trkpt>
      <trkpt lat="49.41624" lon="1.7323">
        <ele>156.80000305176</ele>
        <time>2020-08-03T13:00:02.000Z</time>
      </trkpt>
      <trkpt lat="49.41627" lon="1.73238">
        <ele>157.39999389648</ele>
        <time>2020-08-03T13:00:06.000Z</time>
      </trkpt>
      <trkpt lat="49.41629" lon="1.7324">
        <ele>157.60000610352</ele>
        <time>2020-08-03T13:00:08.000Z</time>
      </trkpt>
      <trkpt lat="49.41629" lon="1.7324">
        <ele>157.80000305176</ele>
        <time>2020-08-03T13:00:09.000Z</time>
      </trkpt>
      <trkpt lat="49.4163" lon="1.73241">
        <ele>158</ele>
        <time>2020-08-03T13:00:10.000Z</time>
      </trkpt>
      <trkpt lat="49.41635" lon="1.73246">
        <ele>158.19999694824</ele>
        <time>2020-08-03T13:00:15.000Z</time>
      </trkpt>
      <trkpt lat="49.41635" lon="1.73248">
        <ele>158.39999389648</ele>
        <time>2020-08-03T13:00:16.000Z</time>
      </trkpt>
      <trkpt lat="49.41633" lon="1.73251">
        <ele>158.80000305176</ele>
        <time>2020-08-03T13:00:19.000Z</time>
      </trkpt>
      <trkpt lat="49.41633" lon="1.73252">
        <ele>158.80000305176</ele>
        <time>2020-08-03T13:00:20.000Z</time>
      </trkpt>
      <trkpt lat="49.41632" lon="1.73252">
        <ele>159</ele>
        <time>2020-08-03T13:00:21.000Z</time>
      </trkpt>
      <trkpt lat="49.41632" lon="1.73255">
        <ele>159.19999694824</ele>
        <time>2020-08-03T13:00:23.000Z</time>
      </trkpt>
      <trkpt lat="49.41631" lon="1.73258">
        <ele>159.39999389648</ele>
        <time>2020-08-03T13:00:25.000Z</time>
      </trkpt>
      <trkpt lat="49.41631" lon="1.73263">
        <ele>160</ele>
        <time>2020-08-03T13:00:29.000Z</time>
      </trkpt>
      <trkpt lat="49.41631" lon="1.73264">
        <ele>160.39999389648</ele>
        <time>2020-08-03T13:00:31.000Z</time>
      </trkpt>
      <trkpt lat="49.4163" lon="1.73266">
        <ele>161</ele>
        <time>2020-08-03T13:00:36.000Z</time>
      </trkpt>
      <trkpt lat="49.41629" lon="1.73268">
        <ele>161.39999389648</ele>
        <time>2020-08-03T13:00:39.000Z</time>
      </trkpt>
      <trkpt lat="49.41627" lon="1.73275">
        <ele>161.80000305176</ele>
        <time>2020-08-03T13:00:45.000Z</time>
      </trkpt>
      <trkpt lat="49.41627" lon="1.73278">
        <ele>162</ele>
        <time>2020-08-03T13:00:47.000Z</time>
      </trkpt>
      <trkpt lat="49.41626" lon="1.7328">
        <ele>162.19999694824</ele>
        <time>2020-08-03T13:00:49.000Z</time>
      </trkpt>
      <trkpt lat="49.41627" lon="1.73281">
        <ele>162.39999389648</ele>
        <time>2020-08-03T13:00:50.000Z</time>
      </trkpt>
      <trkpt lat="49.41627" lon="1.73284">
        <ele>163.39999389648</ele>
        <time>2020-08-03T13:00:54.000Z</time>
      </trkpt>
      <trkpt lat="49.41628" lon="1.73288">
        <ele>164</ele>
        <time>2020-08-03T13:00:57.000Z</time>
      </trkpt>
      <trkpt lat="49.41628" lon="1.73289">
        <ele>164.19999694824</ele>
        <time>2020-08-03T13:00:58.000Z</time>
      </trkpt>
      <trkpt lat="49.41628" lon="1.73291">
        <ele>164.39999389648</ele>
        <time>2020-08-03T13:01:00.000Z</time>
      </trkpt>
      <trkpt lat="49.41631" lon="1.73297">
        <ele>165</ele>
        <time>2020-08-03T13:01:04.000Z</time>
      </trkpt>
      <trkpt lat="49.41629" lon="1.73299">
        <ele>165.39999389648</ele>
        <time>2020-08-03T13:01:07.000Z</time>
      </trkpt>
      <trkpt lat="49.41628" lon="1.73301">
        <ele>165.60000610352</ele>
        <time>2020-08-03T13:01:09.000Z</time>
      </trkpt>
      <trkpt lat="49.41627" lon="1.73302">
        <ele>165.80000305176</ele>
        <time>2020-08-03T13:01:10.000Z</time>
      </trkpt>
      <trkpt lat="49.41629" lon="1.73306">
        <ele>166</ele>
        <time>2020-08-03T13:01:12.000Z</time>
      </trkpt>
      <trkpt lat="49.41629" lon="1.73312">
        <ele>166.19999694824</ele>
        <time>2020-08-03T13:01:15.000Z</time>
      </trkpt>
      <trkpt lat="49.41629" lon="1.73314">
        <ele>166.39999389648</ele>
        <time>2020-08-03T13:01:17.000Z</time>
      </trkpt>
      <trkpt lat="49.4163" lon="1.73319">
        <ele>166.60000610352</ele>
        <time>2020-08-03T13:01:20.000Z</time>
      </trkpt>
      <trkpt lat="49.41632" lon="1.73321">
        <ele>167.19999694824</ele>
        <time>2020-08-03T13:01:22.000Z</time>
      </trkpt>
      <trkpt lat="49.41634" lon="1.73323">
        <ele>167.60000610352</ele>
        <time>2020-08-03T13:01:24.000Z</time>
      </trkpt>
      <trkpt lat="49.41635" lon="1.73324">
        <ele>167.80000305176</ele>
        <time>2020-08-03T13:01:25.000Z</time>
      </trkpt>
      <trkpt lat="49.41637" lon="1.73326">
        <ele>168.39999389648</ele>
        <time>2020-08-03T13:01:28.000Z</time>
      </trkpt>
      <trkpt lat="49.41639" lon="1.73329">
        <ele>168.80000305176</ele>
        <time>2020-08-03T13:01:31.000Z</time>
      </trkpt>
      <trkpt lat="49.41641" lon="1.73332">
        <ele>169.19999694824</ele>
        <time>2020-08-03T13:01:34.000Z</time>
      </trkpt>
      <trkpt lat="49.41644" lon="1.73335">
        <ele>169.60000610352</ele>
        <time>2020-08-03T13:01:37.000Z</time>
      </trkpt>
      <trkpt lat="49.41647" lon="1.73338">
        <ele>170</ele>
        <time>2020-08-03T13:01:41.000Z</time>
      </trkpt>
      <trkpt lat="49.41649" lon="1.73341">
        <ele>171</ele>
        <time>2020-08-03T13:01:45.000Z</time>
      </trkpt>
      <trkpt lat="49.4165" lon="1.73342">
        <ele>171</ele>
        <time>2020-08-03T13:01:46.000Z</time>
      </trkpt>
      <trkpt lat="49.41651" lon="1.73343">
        <ele>171.19999694824</ele>
        <time>2020-08-03T13:01:48.000Z</time>
      </trkpt>
      <trkpt lat="49.41656" lon="1.73349">
        <ele>171.60000610352</ele>
        <time>2020-08-03T13:01:54.000Z</time>
      </trkpt>
      <trkpt lat="49.41658" lon="1.73353">
        <ele>172.19999694824</ele>
        <time>2020-08-03T13:01:57.000Z</time>
      </trkpt>
      <trkpt lat="49.41658" lon="1.73354">
        <ele>172.39999389648</ele>
        <time>2020-08-03T13:01:58.000Z</time>
      </trkpt>
      <trkpt lat="49.41658" lon="1.73356">
        <ele>172.80000305176</ele>
        <time>2020-08-03T13:02:00.000Z</time>
      </trkpt>
      <trkpt lat="49.41659" lon="1.73358">
        <ele>173</ele>
        <time>2020-08-03T13:02:01.000Z</time>
      </trkpt>
      <trkpt lat="49.41659" lon="1.73359">
        <ele>173.19999694824</ele>
        <time>2020-08-03T13:02:02.000Z</time>
      </trkpt>
      <trkpt lat="49.41659" lon="1.73361">
        <ele>173.39999389648</ele>
        <time>2020-08-03T13:02:03.000Z</time>
      </trkpt>
      <trkpt lat="49.41659" lon="1.73365">
        <ele>173.80000305176</ele>
        <time>2020-08-03T13:02:06.000Z</time>
      </trkpt>
      <trkpt lat="49.4166" lon="1.73368">
        <ele>174.39999389648</ele>
        <time>2020-08-03T13:02:08.000Z</time>
      </trkpt>
      <trkpt lat="49.41661" lon="1.73369">
        <ele>174.60000610352</ele>
        <time>2020-08-03T13:02:10.000Z</time>
      </trkpt>
      <trkpt lat="49.41663" lon="1.73372">
        <ele>175</ele>
        <time>2020-08-03T13:02:12.000Z</time>
      </trkpt>
      <trkpt lat="49.41667" lon="1.73376">
        <ele>175.60000610352</ele>
        <time>2020-08-03T13:02:18.000Z</time>
      </trkpt>
      <trkpt lat="49.41668" lon="1.73376">
        <ele>175.80000305176</ele>
        <time>2020-08-03T13:02:19.000Z</time>
      </trkpt>
      <trkpt lat="49.41672" lon="1.73381">
        <ele>176.39999389648</ele>
        <time>2020-08-03T13:02:25.000Z</time>
      </trkpt>
      <trkpt lat="49.41673" lon="1.73382">
        <ele>176.39999389648</ele>
        <time>2020-08-03T13:02:26.000Z</time>
      </trkpt>
      <trkpt lat="49.41674" lon="1.73383">
        <ele>176.39999389648</ele>
        <time>2020-08-03T13:02:27.000Z</time>
      </trkpt>
      <trkpt lat="49.41678" lon="1.73387">
        <ele>176.80000305176</ele>
        <time>2020-08-03T13:02:31.000Z</time>
      </trkpt>
      <trkpt lat="49.41681" lon="1.73392">
        <ele>177.39999389648</ele>
        <time>2020-08-03T13:02:35.000Z</time>
      </trkpt>
      <trkpt lat="49.41682" lon="1.73393">
        <ele>177.39999389648</ele>
        <time>2020-08-03T13:02:36.000Z</time>
      </trkpt>
      <trkpt lat="49.41684" lon="1.734">
        <ele>177.80000305176</ele>
        <time>2020-08-03T13:02:40.000Z</time>
      </trkpt>
      <trkpt lat="49.41687" lon="1.73405">
        <ele>178</ele>
        <time>2020-08-03T13:02:44.000Z</time>
      </trkpt>
      <trkpt lat="49.41691" lon="1.73413">
        <ele>178.39999389648</ele>
        <time>2020-08-03T13:02:51.000Z</time>
      </trkpt>
      <trkpt lat="49.41695" lon="1.73421">
        <ele>178.60000610352</ele>
        <time>2020-08-03T13:02:59.000Z</time>
      </trkpt>
      <trkpt lat="49.417" lon="1.73432">
        <ele>178.60000610352</ele>
        <time>2020-08-03T13:03:06.000Z</time>
      </trkpt>
      <trkpt lat="49.41701" lon="1.73435">
        <ele>178.80000305176</ele>
        <time>2020-08-03T13:03:10.000Z</time>
      </trkpt>
      <trkpt lat="49.41701" lon="1.73435">
        <ele>179</ele>
        <time>2020-08-03T13:03:11.000Z</time>
      </trkpt>
      <trkpt lat="49.41701" lon="1.73435">
        <ele>179.39999389648</ele>
        <time>2020-08-03T13:03:12.000Z</time>
      </trkpt>
      <trkpt lat="49.41701" lon="1.73435">
        <ele>179.60000610352</ele>
        <time>2020-08-03T13:03:13.000Z</time>
      </trkpt>
      <trkpt lat="49.41701" lon="1.73435">
        <ele>179.80000305176</ele>
        <time>2020-08-03T13:03:14.000Z</time>
      </trkpt>
      <trkpt lat="49.417" lon="1.73436">
        <ele>180</ele>
        <time>2020-08-03T13:03:19.000Z</time>
      </trkpt>
      <trkpt lat="49.41699" lon="1.73437">
        <ele>179.80000305176</ele>
        <time>2020-08-03T13:03:27.000Z</time>
      </trkpt>
      <trkpt lat="49.41699" lon="1.73438">
        <ele>179.80000305176</ele>
        <time>2020-08-03T13:03:28.000Z</time>
      </trkpt>
      <trkpt lat="49.417" lon="1.7344">
        <ele>180.19999694824</ele>
        <time>2020-08-03T13:03:36.000Z</time>
      </trkpt>
      <trkpt lat="49.41702" lon="1.73438">
        <ele>180.19999694824</ele>
        <time>2020-08-03T13:03:45.000Z</time>
      </trkpt>
      <trkpt lat="49.41702" lon="1.73438">
        <ele>180.19999694824</ele>
        <time>2020-08-03T13:03:50.000Z</time>
      </trkpt>
      <trkpt lat="49.41702" lon="1.73439">
        <ele>180.19999694824</ele>
        <time>2020-08-03T13:03:52.000Z</time>
      </trkpt>
      <trkpt lat="49.417" lon="1.73439">
        <ele>180</ele>
        <time>2020-08-03T13:03:57.000Z</time>
      </trkpt>
      <trkpt lat="49.417" lon="1.73439">
        <ele>179.80000305176</ele>
        <time>2020-08-03T13:03:59.000Z</time>
      </trkpt>
      <trkpt lat="49.417" lon="1.73439">
        <ele>179.80000305176</ele>
        <time>2020-08-03T13:04:00.000Z</time>
      </trkpt>
      <trkpt lat="49.417" lon="1.73439">
        <ele>179.60000610352</ele>
        <time>2020-08-03T13:04:03.000Z</time>
      </trkpt>
      <trkpt lat="49.417" lon="1.73438">
        <ele>179.80000305176</ele>
        <time>2020-08-03T13:04:08.000Z</time>
      </trkpt>
      <trkpt lat="49.417" lon="1.73438">
        <ele>179.80000305176</ele>
        <time>2020-08-03T13:04:16.000Z</time>
      </trkpt>
      <trkpt lat="49.41701" lon="1.73438">
        <ele>180.19999694824</ele>
        <time>2020-08-03T13:04:23.000Z</time>
      </trkpt>
      <trkpt lat="49.41701" lon="1.73438">
        <ele>180.19999694824</ele>
        <time>2020-08-03T13:04:25.000Z</time>
      </trkpt>
      <trkpt lat="49.41702" lon="1.73438">
        <ele>179.80000305176</ele>
        <time>2020-08-03T13:04:31.000Z</time>
      </trkpt>
      <trkpt lat="49.41701" lon="1.7344">
        <ele>179.60000610352</ele>
        <time>2020-08-03T13:04:39.000Z</time>
      </trkpt>
      <trkpt lat="49.417" lon="1.73441">
        <ele>179.80000305176</ele>
        <time>2020-08-03T13:04:47.000Z</time>
      </trkpt>
      <trkpt lat="49.41699" lon="1.73441">
        <ele>179.60000610352</ele>
        <time>2020-08-03T13:04:55.000Z</time>
      </trkpt>
      <trkpt lat="49.41699" lon="1.73443">
        <ele>179.80000305176</ele>
        <time>2020-08-03T13:05:01.000Z</time>
      </trkpt>
      <trkpt lat="49.41699" lon="1.73444">
        <ele>179.80000305176</ele>
        <time>2020-08-03T13:05:03.000Z</time>
      </trkpt>
      <trkpt lat="49.41699" lon="1.73446">
        <ele>180</ele>
        <time>2020-08-03T13:05:05.000Z</time>
      </trkpt>
      <trkpt lat="49.417" lon="1.73451">
        <ele>180.80000305176</ele>
        <time>2020-08-03T13:05:09.000Z</time>
      </trkpt>
      <trkpt lat="49.41699" lon="1.73454">
        <ele>181.19999694824</ele>
        <time>2020-08-03T13:05:12.000Z</time>
      </trkpt>
      <trkpt lat="49.41697" lon="1.73461">
        <ele>182</ele>
        <time>2020-08-03T13:05:19.000Z</time>
      </trkpt>
      <trkpt lat="49.41697" lon="1.73462">
        <ele>182</ele>
        <time>2020-08-03T13:05:20.000Z</time>
      </trkpt>
      <trkpt lat="49.41697" lon="1.73464">
        <ele>182</ele>
        <time>2020-08-03T13:05:22.000Z</time>
      </trkpt>
      <trkpt lat="49.41698" lon="1.73466">
        <ele>182.39999389648</ele>
        <time>2020-08-03T13:05:27.000Z</time>
      </trkpt>
      <trkpt lat="49.41698" lon="1.73466">
        <ele>182.39999389648</ele>
        <time>2020-08-03T13:05:29.000Z</time>
      </trkpt>
      <trkpt lat="49.41699" lon="1.73468">
        <ele>182.60000610352</ele>
        <time>2020-08-03T13:05:34.000Z</time>
      </trkpt>
      <trkpt lat="49.41699" lon="1.73468">
        <ele>182.19999694824</ele>
        <time>2020-08-03T13:05:41.000Z</time>
      </trkpt>
      <trkpt lat="49.41699" lon="1.73467">
        <ele>182.19999694824</ele>
        <time>2020-08-03T13:05:43.000Z</time>
      </trkpt>
      <trkpt lat="49.417" lon="1.73466">
        <ele>182.19999694824</ele>
        <time>2020-08-03T13:05:50.000Z</time>
      </trkpt>
      <trkpt lat="49.41699" lon="1.73465">
        <ele>182.60000610352</ele>
        <time>2020-08-03T13:05:57.000Z</time>
      </trkpt>
      <trkpt lat="49.41699" lon="1.73464">
        <ele>182.60000610352</ele>
        <time>2020-08-03T13:06:00.000Z</time>
      </trkpt>
      <trkpt lat="49.41701" lon="1.73466">
        <ele>182.39999389648</ele>
        <time>2020-08-03T13:06:08.000Z</time>
      </trkpt>
      <trkpt lat="49.41704" lon="1.73468">
        <ele>182.39999389648</ele>
        <time>2020-08-03T13:06:13.000Z</time>
      </trkpt>
      <trkpt lat="49.41704" lon="1.73467">
        <ele>182.60000610352</ele>
        <time>2020-08-03T13:06:16.000Z</time>
      </trkpt>
      <trkpt lat="49.41704" lon="1.73467">
        <ele>182.60000610352</ele>
        <time>2020-08-03T13:06:18.000Z</time>
      </trkpt>
      <trkpt lat="49.41705" lon="1.73467">
        <ele>183</ele>
        <time>2020-08-03T13:06:22.000Z</time>
      </trkpt>
      <trkpt lat="49.41704" lon="1.73468">
        <ele>183</ele>
        <time>2020-08-03T13:06:24.000Z</time>
      </trkpt>
      <trkpt lat="49.41704" lon="1.73471">
        <ele>183</ele>
        <time>2020-08-03T13:06:33.000Z</time>
      </trkpt>
      <trkpt lat="49.41706" lon="1.73474">
        <ele>183.80000305176</ele>
        <time>2020-08-03T13:06:41.000Z</time>
      </trkpt>
      <trkpt lat="49.41705" lon="1.73475">
        <ele>184</ele>
        <time>2020-08-03T13:06:43.000Z</time>
      </trkpt>
      <trkpt lat="49.41705" lon="1.73475">
        <ele>184.19999694824</ele>
        <time>2020-08-03T13:06:45.000Z</time>
      </trkpt>
      <trkpt lat="49.41704" lon="1.73475">
        <ele>184.19999694824</ele>
        <time>2020-08-03T13:06:46.000Z</time>
      </trkpt>
      <trkpt lat="49.41704" lon="1.73478">
        <ele>184.19999694824</ele>
        <time>2020-08-03T13:06:53.000Z</time>
      </trkpt>
      <trkpt lat="49.41703" lon="1.73486">
        <ele>185.19999694824</ele>
        <time>2020-08-03T13:06:59.000Z</time>
      </trkpt>
      <trkpt lat="49.41702" lon="1.73489">
        <ele>185.39999389648</ele>
        <time>2020-08-03T13:07:01.000Z</time>
      </trkpt>
      <trkpt lat="49.41702" lon="1.73494">
        <ele>185.60000610352</ele>
        <time>2020-08-03T13:07:04.000Z</time>
      </trkpt>
      <trkpt lat="49.41702" lon="1.73498">
        <ele>185.80000305176</ele>
        <time>2020-08-03T13:07:05.000Z</time>
      </trkpt>
      <trkpt lat="49.41702" lon="1.73499">
        <ele>186</ele>
        <time>2020-08-03T13:07:07.000Z</time>
      </trkpt>
      <trkpt lat="49.41702" lon="1.73501">
        <ele>186.19999694824</ele>
        <time>2020-08-03T13:07:08.000Z</time>
      </trkpt>
      <trkpt lat="49.41702" lon="1.73505">
        <ele>186.60000610352</ele>
        <time>2020-08-03T13:07:11.000Z</time>
      </trkpt>
      <trkpt lat="49.41703" lon="1.73508">
        <ele>186.80000305176</ele>
        <time>2020-08-03T13:07:13.000Z</time>
      </trkpt>
      <trkpt lat="49.41704" lon="1.73511">
        <ele>187</ele>
        <time>2020-08-03T13:07:15.000Z</time>
      </trkpt>
      <trkpt lat="49.41705" lon="1.73513">
        <ele>187</ele>
        <time>2020-08-03T13:07:16.000Z</time>
      </trkpt>
      <trkpt lat="49.41707" lon="1.73517">
        <ele>187</ele>
        <time>2020-08-03T13:07:18.000Z</time>
      </trkpt>
      <trkpt lat="49.4171" lon="1.7352">
        <ele>187.19999694824</ele>
        <time>2020-08-03T13:07:20.000Z</time>
      </trkpt>
      <trkpt lat="49.41713" lon="1.73526">
        <ele>187.60000610352</ele>
        <time>2020-08-03T13:07:25.000Z</time>
      </trkpt>
      <trkpt lat="49.41715" lon="1.73527">
        <ele>187.80000305176</ele>
        <time>2020-08-03T13:07:27.000Z</time>
      </trkpt>
      <trkpt lat="49.4172" lon="1.73532">
        <ele>188</ele>
        <time>2020-08-03T13:07:32.000Z</time>
      </trkpt>
      <trkpt lat="49.41726" lon="1.73535">
        <ele>188</ele>
        <time>2020-08-03T13:07:38.000Z</time>
      </trkpt>
      <trkpt lat="49.41727" lon="1.73537">
        <ele>188</ele>
        <time>2020-08-03T13:07:40.000Z</time>
      </trkpt>
      <trkpt lat="49.41728" lon="1.73538">
        <ele>188</ele>
        <time>2020-08-03T13:07:41.000Z</time>
      </trkpt>
      <trkpt lat="49.41728" lon="1.73541">
        <ele>188.19999694824</ele>
        <time>2020-08-03T13:07:44.000Z</time>
      </trkpt>
      <trkpt lat="49.41729" lon="1.73543">
        <ele>188.39999389648</ele>
        <time>2020-08-03T13:07:46.000Z</time>
      </trkpt>
      <trkpt lat="49.41732" lon="1.7355">
        <ele>188.80000305176</ele>
        <time>2020-08-03T13:07:52.000Z</time>
      </trkpt>
      <trkpt lat="49.41733" lon="1.73552">
        <ele>188.80000305176</ele>
        <time>2020-08-03T13:07:54.000Z</time>
      </trkpt>
      <trkpt lat="49.41736" lon="1.73558">
        <ele>189</ele>
        <time>2020-08-03T13:07:58.000Z</time>
      </trkpt>
      <trkpt lat="49.41737" lon="1.73559">
        <ele>189.19999694824</ele>
        <time>2020-08-03T13:07:59.000Z</time>
      </trkpt>
      <trkpt lat="49.41741" lon="1.73563">
        <ele>189.19999694824</ele>
        <time>2020-08-03T13:08:03.000Z</time>
      </trkpt>
      <trkpt lat="49.41743" lon="1.73564">
        <ele>189.39999389648</ele>
        <time>2020-08-03T13:08:04.000Z</time>
      </trkpt>
      <trkpt lat="49.41748" lon="1.73564">
        <ele>189.39999389648</ele>
        <time>2020-08-03T13:08:07.000Z</time>
      </trkpt>
      <trkpt lat="49.41754" lon="1.73573">
        <ele>189.39999389648</ele>
        <time>2020-08-03T13:08:15.000Z</time>
      </trkpt>
      <trkpt lat="49.41761" lon="1.73579">
        <ele>189.60000610352</ele>
        <time>2020-08-03T13:08:21.000Z</time>
      </trkpt>
      <trkpt lat="49.41762" lon="1.7358">
        <ele>189.60000610352</ele>
        <time>2020-08-03T13:08:22.000Z</time>
      </trkpt>
      <trkpt lat="49.41768" lon="1.73588">
        <ele>189.39999389648</ele>
        <time>2020-08-03T13:08:29.000Z</time>
      </trkpt>
      <trkpt lat="49.41772" lon="1.73594">
        <ele>189.80000305176</ele>
        <time>2020-08-03T13:08:35.000Z</time>
      </trkpt>
      <trkpt lat="49.41777" lon="1.73602">
        <ele>189.80000305176</ele>
        <time>2020-08-03T13:08:42.000Z</time>
      </trkpt>
      <trkpt lat="49.41783" lon="1.73608">
        <ele>189.60000610352</ele>
        <time>2020-08-03T13:08:48.000Z</time>
      </trkpt>
      <trkpt lat="49.41784" lon="1.73609">
        <ele>189.60000610352</ele>
        <time>2020-08-03T13:08:49.000Z</time>
      </trkpt>
      <trkpt lat="49.41788" lon="1.73612">
        <ele>189.60000610352</ele>
        <time>2020-08-03T13:08:53.000Z</time>
      </trkpt>
      <trkpt lat="49.41791" lon="1.73612">
        <ele>189.39999389648</ele>
        <time>2020-08-03T13:08:56.000Z</time>
      </trkpt>
      <trkpt lat="49.41796" lon="1.73615">
        <ele>188.80000305176</ele>
        <time>2020-08-03T13:09:02.000Z</time>
      </trkpt>
      <trkpt lat="49.41797" lon="1.73616">
        <ele>188.80000305176</ele>
        <time>2020-08-03T13:09:04.000Z</time>
      </trkpt>
      <trkpt lat="49.41797" lon="1.73616">
        <ele>188.80000305176</ele>
        <time>2020-08-03T13:09:07.000Z</time>
      </trkpt>
      <trkpt lat="49.41797" lon="1.73617">
        <ele>188.80000305176</ele>
        <time>2020-08-03T13:09:11.000Z</time>
      </trkpt>
      <trkpt lat="49.41797" lon="1.73617">
        <ele>188.80000305176</ele>
        <time>2020-08-03T13:09:13.000Z</time>
      </trkpt>
      <trkpt lat="49.41798" lon="1.73616">
        <ele>188.80000305176</ele>
        <time>2020-08-03T13:09:20.000Z</time>
      </trkpt>
      <trkpt lat="49.41798" lon="1.73616">
        <ele>188.80000305176</ele>
        <time>2020-08-03T13:09:23.000Z</time>
      </trkpt>
      <trkpt lat="49.41798" lon="1.73616">
        <ele>189</ele>
        <time>2020-08-03T13:09:29.000Z</time>
      </trkpt>
      <trkpt lat="49.41798" lon="1.73616">
        <ele>189</ele>
        <time>2020-08-03T13:09:31.000Z</time>
      </trkpt>
      <trkpt lat="49.41798" lon="1.73617">
        <ele>189</ele>
        <time>2020-08-03T13:09:34.000Z</time>
      </trkpt>
      <trkpt lat="49.41797" lon="1.73617">
        <ele>188.80000305176</ele>
        <time>2020-08-03T13:09:40.000Z</time>
      </trkpt>
      <trkpt lat="49.41797" lon="1.73618">
        <ele>188.80000305176</ele>
        <time>2020-08-03T13:09:42.000Z</time>
      </trkpt>
      <trkpt lat="49.41796" lon="1.73618">
        <ele>188.80000305176</ele>
        <time>2020-08-03T13:09:46.000Z</time>
      </trkpt>
      <trkpt lat="49.41794" lon="1.73618">
        <ele>189</ele>
        <time>2020-08-03T13:09:51.000Z</time>
      </trkpt>
      <trkpt lat="49.41794" lon="1.73618">
        <ele>188.80000305176</ele>
        <time>2020-08-03T13:10:00.000Z</time>
      </trkpt>
      <trkpt lat="49.41794" lon="1.73618">
        <ele>189</ele>
        <time>2020-08-03T13:10:01.000Z</time>
      </trkpt>
      <trkpt lat="49.41794" lon="1.73619">
        <ele>189.39999389648</ele>
        <time>2020-08-03T13:10:08.000Z</time>
      </trkpt>
      <trkpt lat="49.41794" lon="1.73619">
        <ele>189</ele>
        <time>2020-08-03T13:10:14.000Z</time>
      </trkpt>
      <trkpt lat="49.41795" lon="1.7362">
        <ele>189</ele>
        <time>2020-08-03T13:10:16.000Z</time>
      </trkpt>
      <trkpt lat="49.41795" lon="1.7362">
        <ele>188.80000305176</ele>
        <time>2020-08-03T13:10:23.000Z</time>
      </trkpt>
      <trkpt lat="49.41795" lon="1.7362">
        <ele>188.80000305176</ele>
        <time>2020-08-03T13:10:25.000Z</time>
      </trkpt>
      <trkpt lat="49.41795" lon="1.7362">
        <ele>188.80000305176</ele>
        <time>2020-08-03T13:10:27.000Z</time>
      </trkpt>
      <trkpt lat="49.41796" lon="1.73618">
        <ele>189.19999694824</ele>
        <time>2020-08-03T13:10:34.000Z</time>
      </trkpt>
      <trkpt lat="49.41797" lon="1.7362">
        <ele>188.80000305176</ele>
        <time>2020-08-03T13:10:40.000Z</time>
      </trkpt>
      <trkpt lat="49.41797" lon="1.7362">
        <ele>188.80000305176</ele>
        <time>2020-08-03T13:10:44.000Z</time>
      </trkpt>
      <trkpt lat="49.41797" lon="1.73619">
        <ele>188.39999389648</ele>
        <time>2020-08-03T13:10:52.000Z</time>
      </trkpt>
      <trkpt lat="49.41797" lon="1.7362">
        <ele>188.60000610352</ele>
        <time>2020-08-03T13:10:56.000Z</time>
      </trkpt>
      <trkpt lat="49.41797" lon="1.7362">
        <ele>188.19999694824</ele>
        <time>2020-08-03T13:10:58.000Z</time>
      </trkpt>
      <trkpt lat="49.41797" lon="1.73619">
        <ele>188</ele>
        <time>2020-08-03T13:11:01.000Z</time>
      </trkpt>
      <trkpt lat="49.41797" lon="1.73619">
        <ele>188</ele>
        <time>2020-08-03T13:11:03.000Z</time>
      </trkpt>
      <trkpt lat="49.41797" lon="1.73619">
        <ele>188.39999389648</ele>
        <time>2020-08-03T13:11:10.000Z</time>
      </trkpt>
      <trkpt lat="49.41797" lon="1.7362">
        <ele>188.80000305176</ele>
        <time>2020-08-03T13:11:12.000Z</time>
      </trkpt>
      <trkpt lat="49.41796" lon="1.73622">
        <ele>188</ele>
        <time>2020-08-03T13:11:23.000Z</time>
      </trkpt>
      <trkpt lat="49.41797" lon="1.7362">
        <ele>188.80000305176</ele>
        <time>2020-08-03T13:11:31.000Z</time>
      </trkpt>
      <trkpt lat="49.41799" lon="1.73618">
        <ele>188.80000305176</ele>
        <time>2020-08-03T13:11:37.000Z</time>
      </trkpt>
      <trkpt lat="49.41798" lon="1.73619">
        <ele>188.80000305176</ele>
        <time>2020-08-03T13:11:40.000Z</time>
      </trkpt>
      <trkpt lat="49.41798" lon="1.73619">
        <ele>188.80000305176</ele>
        <time>2020-08-03T13:11:42.000Z</time>
      </trkpt>
      <trkpt lat="49.41798" lon="1.7362">
        <ele>188.80000305176</ele>
        <time>2020-08-03T13:11:46.000Z</time>
      </trkpt>
      <trkpt lat="49.41799" lon="1.73619">
        <ele>188.80000305176</ele>
        <time>2020-08-03T13:11:50.000Z</time>
      </trkpt>
      <trkpt lat="49.41798" lon="1.73619">
        <ele>188.80000305176</ele>
        <time>2020-08-03T13:11:59.000Z</time>
      </trkpt>
      <trkpt lat="49.41797" lon="1.73618">
        <ele>188.80000305176</ele>
        <time>2020-08-03T13:12:09.000Z</time>
      </trkpt>
      <trkpt lat="49.41797" lon="1.73619">
        <ele>188.80000305176</ele>
        <time>2020-08-03T13:12:14.000Z</time>
      </trkpt>
      <trkpt lat="49.41797" lon="1.73619">
        <ele>188.80000305176</ele>
        <time>2020-08-03T13:12:15.000Z</time>
      </trkpt>
      <trkpt lat="49.41797" lon="1.73619">
        <ele>188.80000305176</ele>
        <time>2020-08-03T13:12:17.000Z</time>
      </trkpt>
      <trkpt lat="49.41797" lon="1.73619">
        <ele>188.80000305176</ele>
        <time>2020-08-03T13:12:19.000Z</time>
      </trkpt>
      <trkpt lat="49.41796" lon="1.73619">
        <ele>188.80000305176</ele>
        <time>2020-08-03T13:12:27.000Z</time>
      </trkpt>
      <trkpt lat="49.41796" lon="1.73619">
        <ele>188.80000305176</ele>
        <time>2020-08-03T13:12:33.000Z</time>
      </trkpt>
      <trkpt lat="49.41795" lon="1.73619">
        <ele>188.80000305176</ele>
        <time>2020-08-03T13:12:35.000Z</time>
      </trkpt>
      <trkpt lat="49.41795" lon="1.73619">
        <ele>188.80000305176</ele>
        <time>2020-08-03T13:12:36.000Z</time>
      </trkpt>
      <trkpt lat="49.41795" lon="1.73618">
        <ele>188.80000305176</ele>
        <time>2020-08-03T13:12:38.000Z</time>
      </trkpt>
      <trkpt lat="49.41794" lon="1.73618">
        <ele>188.80000305176</ele>
        <time>2020-08-03T13:12:42.000Z</time>
      </trkpt>
      <trkpt lat="49.41794" lon="1.73619">
        <ele>188.80000305176</ele>
        <time>2020-08-03T13:12:44.000Z</time>
      </trkpt>
      <trkpt lat="49.41793" lon="1.7362">
        <ele>188.80000305176</ele>
        <time>2020-08-03T13:12:45.000Z</time>
      </trkpt>
      <trkpt lat="49.41793" lon="1.73622">
        <ele>188.80000305176</ele>
        <time>2020-08-03T13:12:50.000Z</time>
      </trkpt>
      <trkpt lat="49.41792" lon="1.73622">
        <ele>188.80000305176</ele>
        <time>2020-08-03T13:12:56.000Z</time>
      </trkpt>
      <trkpt lat="49.41792" lon="1.73622">
        <ele>188.80000305176</ele>
        <time>2020-08-03T13:12:58.000Z</time>
      </trkpt>
      <trkpt lat="49.41792" lon="1.73622">
        <ele>188.80000305176</ele>
        <time>2020-08-03T13:12:59.000Z</time>
      </trkpt>
      <trkpt lat="49.41792" lon="1.73621">
        <ele>188.80000305176</ele>
        <time>2020-08-03T13:13:01.000Z</time>
      </trkpt>
      <trkpt lat="49.41791" lon="1.7362">
        <ele>188.80000305176</ele>
        <time>2020-08-03T13:13:03.000Z</time>
      </trkpt>
      <trkpt lat="49.41788" lon="1.73619">
        <ele>188.80000305176</ele>
        <time>2020-08-03T13:13:05.000Z</time>
      </trkpt>
      <trkpt lat="49.41785" lon="1.73618">
        <ele>188.80000305176</ele>
        <time>2020-08-03T13:13:10.000Z</time>
      </trkpt>
      <trkpt lat="49.41783" lon="1.73617">
        <ele>189</ele>
        <time>2020-08-03T13:13:12.000Z</time>
      </trkpt>
      <trkpt lat="49.41781" lon="1.73616">
        <ele>189.60000610352</ele>
        <time>2020-08-03T13:13:13.000Z</time>
      </trkpt>
      <trkpt lat="49.4178" lon="1.73616">
        <ele>189.80000305176</ele>
        <time>2020-08-03T13:13:14.000Z</time>
      </trkpt>
      <trkpt lat="49.41779" lon="1.73615">
        <ele>189.80000305176</ele>
        <time>2020-08-03T13:13:16.000Z</time>
      </trkpt>
      <trkpt lat="49.41777" lon="1.73614">
        <ele>190</ele>
        <time>2020-08-03T13:13:18.000Z</time>
      </trkpt>
      <trkpt lat="49.41776" lon="1.73614">
        <ele>190.19999694824</ele>
        <time>2020-08-03T13:13:19.000Z</time>
      </trkpt>
      <trkpt lat="49.41774" lon="1.73614">
        <ele>190.19999694824</ele>
        <time>2020-08-03T13:13:21.000Z</time>
      </trkpt>
      <trkpt lat="49.41772" lon="1.73614">
        <ele>190.39999389648</ele>
        <time>2020-08-03T13:13:23.000Z</time>
      </trkpt>
      <trkpt lat="49.4177" lon="1.73616">
        <ele>190.39999389648</ele>
        <time>2020-08-03T13:13:26.000Z</time>
      </trkpt>
      <trkpt lat="49.41769" lon="1.73618">
        <ele>190.60000610352</ele>
        <time>2020-08-03T13:13:28.000Z</time>
      </trkpt>
      <trkpt lat="49.41769" lon="1.73619">
        <ele>190.60000610352</ele>
        <time>2020-08-03T13:13:29.000Z</time>
      </trkpt>
      <trkpt lat="49.41768" lon="1.73621">
        <ele>190.60000610352</ele>
        <time>2020-08-03T13:13:30.000Z</time>
      </trkpt>
      <trkpt lat="49.41768" lon="1.73622">
        <ele>190.80000305176</ele>
        <time>2020-08-03T13:13:31.000Z</time>
      </trkpt>
      <trkpt lat="49.4177" lon="1.73629">
        <ele>190.60000610352</ele>
        <time>2020-08-03T13:13:36.000Z</time>
      </trkpt>
      <trkpt lat="49.41771" lon="1.73636">
        <ele>190.80000305176</ele>
        <time>2020-08-03T13:13:41.000Z</time>
      </trkpt>
      <trkpt lat="49.41772" lon="1.73639">
        <ele>190.80000305176</ele>
        <time>2020-08-03T13:13:43.000Z</time>
      </trkpt>
      <trkpt lat="49.41773" lon="1.7364">
        <ele>190.80000305176</ele>
        <time>2020-08-03T13:13:45.000Z</time>
      </trkpt>
      <trkpt lat="49.41774" lon="1.73642">
        <ele>190.80000305176</ele>
        <time>2020-08-03T13:13:47.000Z</time>
      </trkpt>
      <trkpt lat="49.41773" lon="1.73646">
        <ele>190.80000305176</ele>
        <time>2020-08-03T13:13:50.000Z</time>
      </trkpt>
      <trkpt lat="49.41776" lon="1.73651">
        <ele>191.60000610352</ele>
        <time>2020-08-03T13:13:54.000Z</time>
      </trkpt>
      <trkpt lat="49.41778" lon="1.73654">
        <ele>191.80000305176</ele>
        <time>2020-08-03T13:13:56.000Z</time>
      </trkpt>
      <trkpt lat="49.4178" lon="1.73657">
        <ele>191.80000305176</ele>
        <time>2020-08-03T13:13:58.000Z</time>
      </trkpt>
      <trkpt lat="49.4178" lon="1.73663">
        <ele>192.39999389648</ele>
        <time>2020-08-03T13:14:01.000Z</time>
      </trkpt>
      <trkpt lat="49.41781" lon="1.73666">
        <ele>192.60000610352</ele>
        <time>2020-08-03T13:14:03.000Z</time>
      </trkpt>
      <trkpt lat="49.4178" lon="1.73668">
        <ele>192.80000305176</ele>
        <time>2020-08-03T13:14:04.000Z</time>
      </trkpt>
      <trkpt lat="49.4178" lon="1.7367">
        <ele>192.80000305176</ele>
        <time>2020-08-03T13:14:05.000Z</time>
      </trkpt>
      <trkpt lat="49.4178" lon="1.73672">
        <ele>192.80000305176</ele>
        <time>2020-08-03T13:14:06.000Z</time>
      </trkpt>
      <trkpt lat="49.41782" lon="1.73674">
        <ele>193</ele>
        <time>2020-08-03T13:14:07.000Z</time>
      </trkpt>
      <trkpt lat="49.4178" lon="1.73682">
        <ele>193.80000305176</ele>
        <time>2020-08-03T13:14:12.000Z</time>
      </trkpt>
      <trkpt lat="49.41779" lon="1.73683">
        <ele>194</ele>
        <time>2020-08-03T13:14:14.000Z</time>
      </trkpt>
      <trkpt lat="49.41779" lon="1.73683">
        <ele>194</ele>
        <time>2020-08-03T13:14:15.000Z</time>
      </trkpt>
      <trkpt lat="49.41777" lon="1.73683">
        <ele>193.80000305176</ele>
        <time>2020-08-03T13:14:18.000Z</time>
      </trkpt>
      <trkpt lat="49.41776" lon="1.73684">
        <ele>193.80000305176</ele>
        <time>2020-08-03T13:14:19.000Z</time>
      </trkpt>
      <trkpt lat="49.41776" lon="1.73685">
        <ele>193.80000305176</ele>
        <time>2020-08-03T13:14:20.000Z</time>
      </trkpt>
      <trkpt lat="49.41776" lon="1.73688">
        <ele>193.80000305176</ele>
        <time>2020-08-03T13:14:22.000Z</time>
      </trkpt>
      <trkpt lat="49.41774" lon="1.73692">
        <ele>194.39999389648</ele>
        <time>2020-08-03T13:14:26.000Z</time>
      </trkpt>
      <trkpt lat="49.41774" lon="1.73692">
        <ele>194.39999389648</ele>
        <time>2020-08-03T13:14:27.000Z</time>
      </trkpt>
      <trkpt lat="49.41772" lon="1.73693">
        <ele>194.80000305176</ele>
        <time>2020-08-03T13:14:31.000Z</time>
      </trkpt>
      <trkpt lat="49.41771" lon="1.73694">
        <ele>195.19999694824</ele>
        <time>2020-08-03T13:14:33.000Z</time>
      </trkpt>
      <trkpt lat="49.41769" lon="1.73697">
        <ele>195.19999694824</ele>
        <time>2020-08-03T13:14:36.000Z</time>
      </trkpt>
      <trkpt lat="49.41767" lon="1.73699">
        <ele>195.19999694824</ele>
        <time>2020-08-03T13:14:39.000Z</time>
      </trkpt>
      <trkpt lat="49.41762" lon="1.73706">
        <ele>195.19999694824</ele>
        <time>2020-08-03T13:14:46.000Z</time>
      </trkpt>
      <trkpt lat="49.41761" lon="1.73707">
        <ele>195.19999694824</ele>
        <time>2020-08-03T13:14:47.000Z</time>
      </trkpt>
      <trkpt lat="49.4176" lon="1.73709">
        <ele>195.19999694824</ele>
        <time>2020-08-03T13:14:49.000Z</time>
      </trkpt>
      <trkpt lat="49.41758" lon="1.73711">
        <ele>195.19999694824</ele>
        <time>2020-08-03T13:14:51.000Z</time>
      </trkpt>
      <trkpt lat="49.41755" lon="1.73715">
        <ele>195.39999389648</ele>
        <time>2020-08-03T13:14:55.000Z</time>
      </trkpt>
      <trkpt lat="49.41745" lon="1.73727">
        <ele>195.60000610352</ele>
        <time>2020-08-03T13:15:06.000Z</time>
      </trkpt>
      <trkpt lat="49.41741" lon="1.73729">
        <ele>195.80000305176</ele>
        <time>2020-08-03T13:15:12.000Z</time>
      </trkpt>
      <trkpt lat="49.41737" lon="1.73732">
        <ele>195.80000305176</ele>
        <time>2020-08-03T13:15:16.000Z</time>
      </trkpt>
      <trkpt lat="49.41735" lon="1.73734">
        <ele>196</ele>
        <time>2020-08-03T13:15:19.000Z</time>
      </trkpt>
      <trkpt lat="49.41732" lon="1.73736">
        <ele>196.19999694824</ele>
        <time>2020-08-03T13:15:22.000Z</time>
      </trkpt>
      <trkpt lat="49.41731" lon="1.73737">
        <ele>196.19999694824</ele>
        <time>2020-08-03T13:15:23.000Z</time>
      </trkpt>
      <trkpt lat="49.41723" lon="1.73746">
        <ele>195.80000305176</ele>
        <time>2020-08-03T13:15:33.000Z</time>
      </trkpt>
      <trkpt lat="49.41719" lon="1.73751">
        <ele>196.19999694824</ele>
        <time>2020-08-03T13:15:39.000Z</time>
      </trkpt>
      <trkpt lat="49.41717" lon="1.73752">
        <ele>196.19999694824</ele>
        <time>2020-08-03T13:15:41.000Z</time>
      </trkpt>
      <trkpt lat="49.41714" lon="1.73755">
        <ele>196.19999694824</ele>
        <time>2020-08-03T13:15:45.000Z</time>
      </trkpt>
      <trkpt lat="49.4171" lon="1.73758">
        <ele>196</ele>
        <time>2020-08-03T13:15:50.000Z</time>
      </trkpt>
      <trkpt lat="49.41704" lon="1.73765">
        <ele>196.19999694824</ele>
        <time>2020-08-03T13:15:58.000Z</time>
      </trkpt>
      <trkpt lat="49.41703" lon="1.73766">
        <ele>196.39999389648</ele>
        <time>2020-08-03T13:15:59.000Z</time>
      </trkpt>
      <trkpt lat="49.41695" lon="1.73777">
        <ele>196.80000305176</ele>
        <time>2020-08-03T13:16:10.000Z</time>
      </trkpt>
      <trkpt lat="49.41688" lon="1.73784">
        <ele>197</ele>
        <time>2020-08-03T13:16:17.000Z</time>
      </trkpt>
      <trkpt lat="49.41687" lon="1.73786">
        <ele>197</ele>
        <time>2020-08-03T13:16:19.000Z</time>
      </trkpt>
      <trkpt lat="49.4168" lon="1.73794">
        <ele>197.39999389648</ele>
        <time>2020-08-03T13:16:27.000Z</time>
      </trkpt>
      <trkpt lat="49.41678" lon="1.73796">
        <ele>197.39999389648</ele>
        <time>2020-08-03T13:16:29.000Z</time>
      </trkpt>
      <trkpt lat="49.41671" lon="1.73802">
        <ele>198</ele>
        <time>2020-08-03T13:16:37.000Z</time>
      </trkpt>
      <trkpt lat="49.41671" lon="1.73803">
        <ele>198</ele>
        <time>2020-08-03T13:16:38.000Z</time>
      </trkpt>
      <trkpt lat="49.41665" lon="1.73809">
        <ele>197.80000305176</ele>
        <time>2020-08-03T13:16:44.000Z</time>
      </trkpt>
      <trkpt lat="49.41665" lon="1.73809">
        <ele>197.80000305176</ele>
        <time>2020-08-03T13:16:45.000Z</time>
      </trkpt>
      <trkpt lat="49.41665" lon="1.73809">
        <ele>198</ele>
        <time>2020-08-03T13:16:46.000Z</time>
      </trkpt>
      <trkpt lat="49.41664" lon="1.73808">
        <ele>198</ele>
        <time>2020-08-03T13:16:48.000Z</time>
      </trkpt>
      <trkpt lat="49.41664" lon="1.73807">
        <ele>198</ele>
        <time>2020-08-03T13:16:49.000Z</time>
      </trkpt>
      <trkpt lat="49.41664" lon="1.73806">
        <ele>198</ele>
        <time>2020-08-03T13:16:51.000Z</time>
      </trkpt>
      <trkpt lat="49.41664" lon="1.73805">
        <ele>198</ele>
        <time>2020-08-03T13:16:53.000Z</time>
      </trkpt>
      <trkpt lat="49.41665" lon="1.73806">
        <ele>198.39999389648</ele>
        <time>2020-08-03T13:17:01.000Z</time>
      </trkpt>
      <trkpt lat="49.41662" lon="1.73805">
        <ele>198.39999389648</ele>
        <time>2020-08-03T13:17:05.000Z</time>
      </trkpt>
      <trkpt lat="49.41662" lon="1.73805">
        <ele>198.39999389648</ele>
        <time>2020-08-03T13:17:06.000Z</time>
      </trkpt>
      <trkpt lat="49.41662" lon="1.73804">
        <ele>198.39999389648</ele>
        <time>2020-08-03T13:17:07.000Z</time>
      </trkpt>
      <trkpt lat="49.41662" lon="1.73804">
        <ele>198.60000610352</ele>
        <time>2020-08-03T13:17:08.000Z</time>
      </trkpt>
      <trkpt lat="49.41662" lon="1.73804">
        <ele>198.39999389648</ele>
        <time>2020-08-03T13:17:09.000Z</time>
      </trkpt>
      <trkpt lat="49.41662" lon="1.73804">
        <ele>198.60000610352</ele>
        <time>2020-08-03T13:17:10.000Z</time>
      </trkpt>
      <trkpt lat="49.41662" lon="1.73803">
        <ele>198.39999389648</ele>
        <time>2020-08-03T13:17:12.000Z</time>
      </trkpt>
      <trkpt lat="49.41663" lon="1.73803">
        <ele>198.39999389648</ele>
        <time>2020-08-03T13:17:14.000Z</time>
      </trkpt>
      <trkpt lat="49.41662" lon="1.73804">
        <ele>198.39999389648</ele>
        <time>2020-08-03T13:17:17.000Z</time>
      </trkpt>
      <trkpt lat="49.4166" lon="1.73805">
        <ele>198.39999389648</ele>
        <time>2020-08-03T13:17:22.000Z</time>
      </trkpt>
      <trkpt lat="49.41659" lon="1.73808">
        <ele>198.60000610352</ele>
        <time>2020-08-03T13:17:23.000Z</time>
      </trkpt>
      <trkpt lat="49.41657" lon="1.73807">
        <ele>198.60000610352</ele>
        <time>2020-08-03T13:17:26.000Z</time>
      </trkpt>
      <trkpt lat="49.41656" lon="1.73804">
        <ele>198.60000610352</ele>
        <time>2020-08-03T13:17:28.000Z</time>
      </trkpt>
      <trkpt lat="49.41655" lon="1.73803">
        <ele>198.60000610352</ele>
        <time>2020-08-03T13:17:29.000Z</time>
      </trkpt>
      <trkpt lat="49.41652" lon="1.73799">
        <ele>198.39999389648</ele>
        <time>2020-08-03T13:17:33.000Z</time>
      </trkpt>
      <trkpt lat="49.41651" lon="1.73796">
        <ele>198.39999389648</ele>
        <time>2020-08-03T13:17:35.000Z</time>
      </trkpt>
      <trkpt lat="49.4165" lon="1.73795">
        <ele>198.19999694824</ele>
        <time>2020-08-03T13:17:36.000Z</time>
      </trkpt>
      <trkpt lat="49.41648" lon="1.73793">
        <ele>198.39999389648</ele>
        <time>2020-08-03T13:17:39.000Z</time>
      </trkpt>
      <trkpt lat="49.41643" lon="1.73791">
        <ele>198.39999389648</ele>
        <time>2020-08-03T13:17:43.000Z</time>
      </trkpt>
      <trkpt lat="49.41642" lon="1.73789">
        <ele>198.39999389648</ele>
        <time>2020-08-03T13:17:45.000Z</time>
      </trkpt>
      <trkpt lat="49.4164" lon="1.73787">
        <ele>198.19999694824</ele>
        <time>2020-08-03T13:17:48.000Z</time>
      </trkpt>
      <trkpt lat="49.41637" lon="1.73786">
        <ele>198.39999389648</ele>
        <time>2020-08-03T13:17:51.000Z</time>
      </trkpt>
      <trkpt lat="49.41633" lon="1.73784">
        <ele>198.39999389648</ele>
        <time>2020-08-03T13:17:54.000Z</time>
      </trkpt>
      <trkpt lat="49.41632" lon="1.73784">
        <ele>198.60000610352</ele>
        <time>2020-08-03T13:17:55.000Z</time>
      </trkpt>
      <trkpt lat="49.4163" lon="1.73782">
        <ele>198.60000610352</ele>
        <time>2020-08-03T13:17:57.000Z</time>
      </trkpt>
      <trkpt lat="49.41629" lon="1.73779">
        <ele>198.60000610352</ele>
        <time>2020-08-03T13:17:59.000Z</time>
      </trkpt>
      <trkpt lat="49.41623" lon="1.73774">
        <ele>198.39999389648</ele>
        <time>2020-08-03T13:18:06.000Z</time>
      </trkpt>
      <trkpt lat="49.41617" lon="1.7377">
        <ele>198.80000305176</ele>
        <time>2020-08-03T13:18:11.000Z</time>
      </trkpt>
      <trkpt lat="49.41617" lon="1.73769">
        <ele>198.80000305176</ele>
        <time>2020-08-03T13:18:12.000Z</time>
      </trkpt>
      <trkpt lat="49.41612" lon="1.73767">
        <ele>198.60000610352</ele>
        <time>2020-08-03T13:18:17.000Z</time>
      </trkpt>
      <trkpt lat="49.41609" lon="1.73765">
        <ele>198.60000610352</ele>
        <time>2020-08-03T13:18:20.000Z</time>
      </trkpt>
      <trkpt lat="49.41603" lon="1.73761">
        <ele>198.60000610352</ele>
        <time>2020-08-03T13:18:25.000Z</time>
      </trkpt>
      <trkpt lat="49.41603" lon="1.7376">
        <ele>198.60000610352</ele>
        <time>2020-08-03T13:18:26.000Z</time>
      </trkpt>
      <trkpt lat="49.41598" lon="1.73756">
        <ele>198.60000610352</ele>
        <time>2020-08-03T13:18:30.000Z</time>
      </trkpt>
      <trkpt lat="49.41596" lon="1.73754">
        <ele>198.80000305176</ele>
        <time>2020-08-03T13:18:32.000Z</time>
      </trkpt>
      <trkpt lat="49.41588" lon="1.73747">
        <ele>198.60000610352</ele>
        <time>2020-08-03T13:18:38.000Z</time>
      </trkpt>
      <trkpt lat="49.41584" lon="1.73745">
        <ele>198.60000610352</ele>
        <time>2020-08-03T13:18:43.000Z</time>
      </trkpt>
      <trkpt lat="49.41583" lon="1.73745">
        <ele>198.60000610352</ele>
        <time>2020-08-03T13:18:44.000Z</time>
      </trkpt>
      <trkpt lat="49.41579" lon="1.73741">
        <ele>198.39999389648</ele>
        <time>2020-08-03T13:18:48.000Z</time>
      </trkpt>
      <trkpt lat="49.41575" lon="1.73739">
        <ele>198.60000610352</ele>
        <time>2020-08-03T13:18:51.000Z</time>
      </trkpt>
      <trkpt lat="49.41567" lon="1.73733">
        <ele>198</ele>
        <time>2020-08-03T13:18:59.000Z</time>
      </trkpt>
      <trkpt lat="49.41559" lon="1.73728">
        <ele>197.80000305176</ele>
        <time>2020-08-03T13:19:07.000Z</time>
      </trkpt>
      <trkpt lat="49.41556" lon="1.73725">
        <ele>197.80000305176</ele>
        <time>2020-08-03T13:19:10.000Z</time>
      </trkpt>
      <trkpt lat="49.41551" lon="1.73722">
        <ele>197.60000610352</ele>
        <time>2020-08-03T13:19:14.000Z</time>
      </trkpt>
      <trkpt lat="49.41543" lon="1.73716">
        <ele>198</ele>
        <time>2020-08-03T13:19:20.000Z</time>
      </trkpt>
      <trkpt lat="49.41534" lon="1.7371">
        <ele>198.19999694824</ele>
        <time>2020-08-03T13:19:27.000Z</time>
      </trkpt>
      <trkpt lat="49.41532" lon="1.73708">
        <ele>198</ele>
        <time>2020-08-03T13:19:29.000Z</time>
      </trkpt>
      <trkpt lat="49.41527" lon="1.73704">
        <ele>197.80000305176</ele>
        <time>2020-08-03T13:19:33.000Z</time>
      </trkpt>
      <trkpt lat="49.41526" lon="1.73702">
        <ele>197.80000305176</ele>
        <time>2020-08-03T13:19:34.000Z</time>
      </trkpt>
      <trkpt lat="49.41521" lon="1.737">
        <ele>198</ele>
        <time>2020-08-03T13:19:40.000Z</time>
      </trkpt>
      <trkpt lat="49.41519" lon="1.73698">
        <ele>198</ele>
        <time>2020-08-03T13:19:42.000Z</time>
      </trkpt>
      <trkpt lat="49.41518" lon="1.73697">
        <ele>198</ele>
        <time>2020-08-03T13:19:43.000Z</time>
      </trkpt>
      <trkpt lat="49.41513" lon="1.73694">
        <ele>198.19999694824</ele>
        <time>2020-08-03T13:19:48.000Z</time>
      </trkpt>
      <trkpt lat="49.4151" lon="1.73693">
        <ele>198</ele>
        <time>2020-08-03T13:19:50.000Z</time>
      </trkpt>
      <trkpt lat="49.41504" lon="1.73689">
        <ele>198</ele>
        <time>2020-08-03T13:19:55.000Z</time>
      </trkpt>
      <trkpt lat="49.41503" lon="1.73688">
        <ele>197.80000305176</ele>
        <time>2020-08-03T13:19:56.000Z</time>
      </trkpt>
      <trkpt lat="49.41501" lon="1.73688">
        <ele>197.80000305176</ele>
        <time>2020-08-03T13:19:57.000Z</time>
      </trkpt>
      <trkpt lat="49.41499" lon="1.73686">
        <ele>197.80000305176</ele>
        <time>2020-08-03T13:19:59.000Z</time>
      </trkpt>
      <trkpt lat="49.41496" lon="1.73683">
        <ele>197.80000305176</ele>
        <time>2020-08-03T13:20:02.000Z</time>
      </trkpt>
      <trkpt lat="49.41489" lon="1.73677">
        <ele>198</ele>
        <time>2020-08-03T13:20:09.000Z</time>
      </trkpt>
      <trkpt lat="49.41489" lon="1.73676">
        <ele>198</ele>
        <time>2020-08-03T13:20:10.000Z</time>
      </trkpt>
      <trkpt lat="49.41487" lon="1.73676">
        <ele>198</ele>
        <time>2020-08-03T13:20:13.000Z</time>
      </trkpt>
      <trkpt lat="49.41484" lon="1.73674">
        <ele>198</ele>
        <time>2020-08-03T13:20:16.000Z</time>
      </trkpt>
      <trkpt lat="49.41478" lon="1.73668">
        <ele>197.80000305176</ele>
        <time>2020-08-03T13:20:22.000Z</time>
      </trkpt>
      <trkpt lat="49.41474" lon="1.73665">
        <ele>197.60000610352</ele>
        <time>2020-08-03T13:20:25.000Z</time>
      </trkpt>
      <trkpt lat="49.41465" lon="1.73659">
        <ele>197.39999389648</ele>
        <time>2020-08-03T13:20:32.000Z</time>
      </trkpt>
      <trkpt lat="49.41463" lon="1.73656">
        <ele>197.39999389648</ele>
        <time>2020-08-03T13:20:34.000Z</time>
      </trkpt>
      <trkpt lat="49.41457" lon="1.73651">
        <ele>197.39999389648</ele>
        <time>2020-08-03T13:20:41.000Z</time>
      </trkpt>
      <trkpt lat="49.41456" lon="1.73652">
        <ele>197.39999389648</ele>
        <time>2020-08-03T13:20:42.000Z</time>
      </trkpt>
      <trkpt lat="49.41456" lon="1.73651">
        <ele>197.60000610352</ele>
        <time>2020-08-03T13:20:43.000Z</time>
      </trkpt>
      <trkpt lat="49.41454" lon="1.73654">
        <ele>197.60000610352</ele>
        <time>2020-08-03T13:20:46.000Z</time>
      </trkpt>
      <trkpt lat="49.41454" lon="1.73655">
        <ele>197.80000305176</ele>
        <time>2020-08-03T13:20:48.000Z</time>
      </trkpt>
      <trkpt lat="49.41453" lon="1.73656">
        <ele>197.39999389648</ele>
        <time>2020-08-03T13:20:56.000Z</time>
      </trkpt>
      <trkpt lat="49.41452" lon="1.73656">
        <ele>197.39999389648</ele>
        <time>2020-08-03T13:20:57.000Z</time>
      </trkpt>
      <trkpt lat="49.41452" lon="1.73657">
        <ele>197.39999389648</ele>
        <time>2020-08-03T13:21:05.000Z</time>
      </trkpt>
      <trkpt lat="49.41452" lon="1.73657">
        <ele>197.39999389648</ele>
        <time>2020-08-03T13:21:07.000Z</time>
      </trkpt>
      <trkpt lat="49.41452" lon="1.73658">
        <ele>197.39999389648</ele>
        <time>2020-08-03T13:21:10.000Z</time>
      </trkpt>
      <trkpt lat="49.41452" lon="1.73658">
        <ele>197.39999389648</ele>
        <time>2020-08-03T13:21:16.000Z</time>
      </trkpt>
      <trkpt lat="49.41452" lon="1.73658">
        <ele>197.39999389648</ele>
        <time>2020-08-03T13:21:23.000Z</time>
      </trkpt>
      <trkpt lat="49.41451" lon="1.73658">
        <ele>197.39999389648</ele>
        <time>2020-08-03T13:21:26.000Z</time>
      </trkpt>
      <trkpt lat="49.41451" lon="1.73658">
        <ele>197.39999389648</ele>
        <time>2020-08-03T13:21:29.000Z</time>
      </trkpt>
      <trkpt lat="49.41451" lon="1.73658">
        <ele>197.39999389648</ele>
        <time>2020-08-03T13:21:32.000Z</time>
      </trkpt>
      <trkpt lat="49.41451" lon="1.73658">
        <ele>197.39999389648</ele>
        <time>2020-08-03T13:21:33.000Z</time>
      </trkpt>
      <trkpt lat="49.41445" lon="1.73665">
        <ele>197.39999389648</ele>
        <time>2020-08-03T13:21:39.000Z</time>
      </trkpt>
      <trkpt lat="49.41444" lon="1.73666">
        <ele>197.39999389648</ele>
        <time>2020-08-03T13:21:40.000Z</time>
      </trkpt>
      <trkpt lat="49.41443" lon="1.73667">
        <ele>197.39999389648</ele>
        <time>2020-08-03T13:21:41.000Z</time>
      </trkpt>
      <trkpt lat="49.41439" lon="1.73671">
        <ele>196.80000305176</ele>
        <time>2020-08-03T13:21:45.000Z</time>
      </trkpt>
      <trkpt lat="49.41437" lon="1.73677">
        <ele>196.60000610352</ele>
        <time>2020-08-03T13:21:49.000Z</time>
      </trkpt>
      <trkpt lat="49.41432" lon="1.73686">
        <ele>196.80000305176</ele>
        <time>2020-08-03T13:21:57.000Z</time>
      </trkpt>
      <trkpt lat="49.41428" lon="1.73696">
        <ele>196.60000610352</ele>
        <time>2020-08-03T13:22:04.000Z</time>
      </trkpt>
      <trkpt lat="49.41422" lon="1.73705">
        <ele>196.80000305176</ele>
        <time>2020-08-03T13:22:12.000Z</time>
      </trkpt>
      <trkpt lat="49.41421" lon="1.73706">
        <ele>196.80000305176</ele>
        <time>2020-08-03T13:22:13.000Z</time>
      </trkpt>
      <trkpt lat="49.41417" lon="1.73713">
        <ele>196.60000610352</ele>
        <time>2020-08-03T13:22:18.000Z</time>
      </trkpt>
      <trkpt lat="49.41416" lon="1.73714">
        <ele>196.60000610352</ele>
        <time>2020-08-03T13:22:19.000Z</time>
      </trkpt>
      <trkpt lat="49.41415" lon="1.73717">
        <ele>196.39999389648</ele>
        <time>2020-08-03T13:22:22.000Z</time>
      </trkpt>
      <trkpt lat="49.41414" lon="1.73717">
        <ele>196.39999389648</ele>
        <time>2020-08-03T13:22:25.000Z</time>
      </trkpt>
      <trkpt lat="49.41414" lon="1.73716">
        <ele>196.39999389648</ele>
        <time>2020-08-03T13:22:27.000Z</time>
      </trkpt>
      <trkpt lat="49.41413" lon="1.73719">
        <ele>196.19999694824</ele>
        <time>2020-08-03T13:22:30.000Z</time>
      </trkpt>
      <trkpt lat="49.4141" lon="1.73722">
        <ele>196.19999694824</ele>
        <time>2020-08-03T13:22:33.000Z</time>
      </trkpt>
      <trkpt lat="49.41407" lon="1.73728">
        <ele>195.80000305176</ele>
        <time>2020-08-03T13:22:38.000Z</time>
      </trkpt>
      <trkpt lat="49.41405" lon="1.7373">
        <ele>195.80000305176</ele>
        <time>2020-08-03T13:22:40.000Z</time>
      </trkpt>
      <trkpt lat="49.41401" lon="1.73734">
        <ele>195.39999389648</ele>
        <time>2020-08-03T13:22:45.000Z</time>
      </trkpt>
      <trkpt lat="49.41399" lon="1.73738">
        <ele>195.19999694824</ele>
        <time>2020-08-03T13:22:48.000Z</time>
      </trkpt>
      <trkpt lat="49.41398" lon="1.73739">
        <ele>195.19999694824</ele>
        <time>2020-08-03T13:22:49.000Z</time>
      </trkpt>
      <trkpt lat="49.41398" lon="1.73739">
        <ele>195.19999694824</ele>
        <time>2020-08-03T13:22:50.000Z</time>
      </trkpt>
      <trkpt lat="49.41397" lon="1.7374">
        <ele>195.19999694824</ele>
        <time>2020-08-03T13:22:51.000Z</time>
      </trkpt>
      <trkpt lat="49.41389" lon="1.73754">
        <ele>194.60000610352</ele>
        <time>2020-08-03T13:23:01.000Z</time>
      </trkpt>
      <trkpt lat="49.41385" lon="1.73761">
        <ele>194.39999389648</ele>
        <time>2020-08-03T13:23:07.000Z</time>
      </trkpt>
      <trkpt lat="49.41384" lon="1.73762">
        <ele>194.39999389648</ele>
        <time>2020-08-03T13:23:08.000Z</time>
      </trkpt>
      <trkpt lat="49.41383" lon="1.73763">
        <ele>194.39999389648</ele>
        <time>2020-08-03T13:23:09.000Z</time>
      </trkpt>
      <trkpt lat="49.41382" lon="1.73764">
        <ele>194.19999694824</ele>
        <time>2020-08-03T13:23:10.000Z</time>
      </trkpt>
      <trkpt lat="49.41378" lon="1.7377">
        <ele>194.19999694824</ele>
        <time>2020-08-03T13:23:13.000Z</time>
      </trkpt>
      <trkpt lat="49.41377" lon="1.73771">
        <ele>194.19999694824</ele>
        <time>2020-08-03T13:23:15.000Z</time>
      </trkpt>
      <trkpt lat="49.41373" lon="1.73777">
        <ele>193.80000305176</ele>
        <time>2020-08-03T13:23:20.000Z</time>
      </trkpt>
      <trkpt lat="49.41371" lon="1.73779">
        <ele>193.60000610352</ele>
        <time>2020-08-03T13:23:22.000Z</time>
      </trkpt>
      <trkpt lat="49.4137" lon="1.7378">
        <ele>193.60000610352</ele>
        <time>2020-08-03T13:23:23.000Z</time>
      </trkpt>
      <trkpt lat="49.41366" lon="1.73787">
        <ele>192.80000305176</ele>
        <time>2020-08-03T13:23:29.000Z</time>
      </trkpt>
      <trkpt lat="49.41366" lon="1.73787">
        <ele>192.80000305176</ele>
        <time>2020-08-03T13:23:30.000Z</time>
      </trkpt>
      <trkpt lat="49.41366" lon="1.73788">
        <ele>192.80000305176</ele>
        <time>2020-08-03T13:23:32.000Z</time>
      </trkpt>
      <trkpt lat="49.41363" lon="1.7379">
        <ele>192.80000305176</ele>
        <time>2020-08-03T13:23:35.000Z</time>
      </trkpt>
      <trkpt lat="49.41362" lon="1.73792">
        <ele>193</ele>
        <time>2020-08-03T13:23:36.000Z</time>
      </trkpt>
      <trkpt lat="49.41359" lon="1.73798">
        <ele>192.80000305176</ele>
        <time>2020-08-03T13:23:41.000Z</time>
      </trkpt>
      <trkpt lat="49.41358" lon="1.738">
        <ele>192.80000305176</ele>
        <time>2020-08-03T13:23:42.000Z</time>
      </trkpt>
      <trkpt lat="49.41358" lon="1.73801">
        <ele>192.80000305176</ele>
        <time>2020-08-03T13:23:43.000Z</time>
      </trkpt>
      <trkpt lat="49.41357" lon="1.73803">
        <ele>192.60000610352</ele>
        <time>2020-08-03T13:23:45.000Z</time>
      </trkpt>
      <trkpt lat="49.41356" lon="1.73804">
        <ele>192.60000610352</ele>
        <time>2020-08-03T13:23:46.000Z</time>
      </trkpt>
      <trkpt lat="49.41354" lon="1.73806">
        <ele>192.39999389648</ele>
        <time>2020-08-03T13:23:48.000Z</time>
      </trkpt>
      <trkpt lat="49.41348" lon="1.73817">
        <ele>191.80000305176</ele>
        <time>2020-08-03T13:23:57.000Z</time>
      </trkpt>
      <trkpt lat="49.41345" lon="1.73818">
        <ele>191.60000610352</ele>
        <time>2020-08-03T13:24:01.000Z</time>
      </trkpt>
      <trkpt lat="49.41342" lon="1.73823">
        <ele>191.80000305176</ele>
        <time>2020-08-03T13:24:05.000Z</time>
      </trkpt>
      <trkpt lat="49.4134" lon="1.73825">
        <ele>191.60000610352</ele>
        <time>2020-08-03T13:24:07.000Z</time>
      </trkpt>
      <trkpt lat="49.41336" lon="1.73833">
        <ele>190.80000305176</ele>
        <time>2020-08-03T13:24:12.000Z</time>
      </trkpt>
      <trkpt lat="49.41335" lon="1.73834">
        <ele>190.80000305176</ele>
        <time>2020-08-03T13:24:13.000Z</time>
      </trkpt>
      <trkpt lat="49.41332" lon="1.73836">
        <ele>190.60000610352</ele>
        <time>2020-08-03T13:24:15.000Z</time>
      </trkpt>
      <trkpt lat="49.41332" lon="1.73838">
        <ele>190.39999389648</ele>
        <time>2020-08-03T13:24:16.000Z</time>
      </trkpt>
      <trkpt lat="49.41331" lon="1.73839">
        <ele>190.19999694824</ele>
        <time>2020-08-03T13:24:17.000Z</time>
      </trkpt>
      <trkpt lat="49.41328" lon="1.73845">
        <ele>189.60000610352</ele>
        <time>2020-08-03T13:24:21.000Z</time>
      </trkpt>
      <trkpt lat="49.41328" lon="1.7385">
        <ele>189.60000610352</ele>
        <time>2020-08-03T13:24:24.000Z</time>
      </trkpt>
      <trkpt lat="49.41325" lon="1.73853">
        <ele>189.39999389648</ele>
        <time>2020-08-03T13:24:27.000Z</time>
      </trkpt>
      <trkpt lat="49.41324" lon="1.73853">
        <ele>189.39999389648</ele>
        <time>2020-08-03T13:24:28.000Z</time>
      </trkpt>
      <trkpt lat="49.41322" lon="1.73855">
        <ele>189.39999389648</ele>
        <time>2020-08-03T13:24:30.000Z</time>
      </trkpt>
      <trkpt lat="49.41321" lon="1.73858">
        <ele>189.19999694824</ele>
        <time>2020-08-03T13:24:32.000Z</time>
      </trkpt>
      <trkpt lat="49.41316" lon="1.73865">
        <ele>189</ele>
        <time>2020-08-03T13:24:39.000Z</time>
      </trkpt>
      <trkpt lat="49.41308" lon="1.73876">
        <ele>188.39999389648</ele>
        <time>2020-08-03T13:24:47.000Z</time>
      </trkpt>
      <trkpt lat="49.41305" lon="1.73879">
        <ele>188.39999389648</ele>
        <time>2020-08-03T13:24:49.000Z</time>
      </trkpt>
      <trkpt lat="49.41302" lon="1.73883">
        <ele>187.80000305176</ele>
        <time>2020-08-03T13:24:52.000Z</time>
      </trkpt>
      <trkpt lat="49.413" lon="1.73886">
        <ele>187.60000610352</ele>
        <time>2020-08-03T13:24:55.000Z</time>
      </trkpt>
      <trkpt lat="49.41297" lon="1.73891">
        <ele>187.60000610352</ele>
        <time>2020-08-03T13:24:59.000Z</time>
      </trkpt>
      <trkpt lat="49.41294" lon="1.73895">
        <ele>187.39999389648</ele>
        <time>2020-08-03T13:25:02.000Z</time>
      </trkpt>
      <trkpt lat="49.41293" lon="1.73896">
        <ele>187.19999694824</ele>
        <time>2020-08-03T13:25:03.000Z</time>
      </trkpt>
      <trkpt lat="49.41292" lon="1.73897">
        <ele>187.19999694824</ele>
        <time>2020-08-03T13:25:04.000Z</time>
      </trkpt>
      <trkpt lat="49.41284" lon="1.73905">
        <ele>186.19999694824</ele>
        <time>2020-08-03T13:25:12.000Z</time>
      </trkpt>
      <trkpt lat="49.41283" lon="1.73906">
        <ele>186.19999694824</ele>
        <time>2020-08-03T13:25:14.000Z</time>
      </trkpt>
      <trkpt lat="49.41275" lon="1.73911">
        <ele>186.80000305176</ele>
        <time>2020-08-03T13:25:23.000Z</time>
      </trkpt>
      <trkpt lat="49.41272" lon="1.73914">
        <ele>186.60000610352</ele>
        <time>2020-08-03T13:25:26.000Z</time>
      </trkpt>
      <trkpt lat="49.41268" lon="1.73918">
        <ele>186</ele>
        <time>2020-08-03T13:25:31.000Z</time>
      </trkpt>
      <trkpt lat="49.41267" lon="1.73918">
        <ele>186</ele>
        <time>2020-08-03T13:25:32.000Z</time>
      </trkpt>
      <trkpt lat="49.4126" lon="1.73924">
        <ele>185.80000305176</ele>
        <time>2020-08-03T13:25:39.000Z</time>
      </trkpt>
      <trkpt lat="49.41259" lon="1.73926">
        <ele>186</ele>
        <time>2020-08-03T13:25:41.000Z</time>
      </trkpt>
      <trkpt lat="49.41255" lon="1.73931">
        <ele>186.39999389648</ele>
        <time>2020-08-03T13:25:45.000Z</time>
      </trkpt>
      <trkpt lat="49.41253" lon="1.73932">
        <ele>186.39999389648</ele>
        <time>2020-08-03T13:25:47.000Z</time>
      </trkpt>
      <trkpt lat="49.41248" lon="1.73935">
        <ele>186.19999694824</ele>
        <time>2020-08-03T13:25:52.000Z</time>
      </trkpt>
      <trkpt lat="49.41238" lon="1.73941">
        <ele>185.60000610352</ele>
        <time>2020-08-03T13:26:00.000Z</time>
      </trkpt>
      <trkpt lat="49.41237" lon="1.73943">
        <ele>186</ele>
        <time>2020-08-03T13:26:02.000Z</time>
      </trkpt>
      <trkpt lat="49.41232" lon="1.73944">
        <ele>187</ele>
        <time>2020-08-03T13:26:07.000Z</time>
      </trkpt>
      <trkpt lat="49.41226" lon="1.73947">
        <ele>186.80000305176</ele>
        <time>2020-08-03T13:26:11.000Z</time>
      </trkpt>
      <trkpt lat="49.41224" lon="1.73948">
        <ele>186.80000305176</ele>
        <time>2020-08-03T13:26:13.000Z</time>
      </trkpt>
      <trkpt lat="49.41223" lon="1.73949">
        <ele>186.80000305176</ele>
        <time>2020-08-03T13:26:14.000Z</time>
      </trkpt>
      <trkpt lat="49.41221" lon="1.73949">
        <ele>186.80000305176</ele>
        <time>2020-08-03T13:26:16.000Z</time>
      </trkpt>
      <trkpt lat="49.41213" lon="1.73949">
        <ele>186.80000305176</ele>
        <time>2020-08-03T13:26:22.000Z</time>
      </trkpt>
      <trkpt lat="49.41207" lon="1.73949">
        <ele>185.80000305176</ele>
        <time>2020-08-03T13:26:30.000Z</time>
      </trkpt>
      <trkpt lat="49.41199" lon="1.73949">
        <ele>185.60000610352</ele>
        <time>2020-08-03T13:26:37.000Z</time>
      </trkpt>
      <trkpt lat="49.41194" lon="1.7395">
        <ele>185</ele>
        <time>2020-08-03T13:26:41.000Z</time>
      </trkpt>
      <trkpt lat="49.41192" lon="1.7395">
        <ele>184.80000305176</ele>
        <time>2020-08-03T13:26:43.000Z</time>
      </trkpt>
      <trkpt lat="49.41185" lon="1.73953">
        <ele>184.60000610352</ele>
        <time>2020-08-03T13:26:49.000Z</time>
      </trkpt>
      <trkpt lat="49.41183" lon="1.73953">
        <ele>184.60000610352</ele>
        <time>2020-08-03T13:26:50.000Z</time>
      </trkpt>
      <trkpt lat="49.41172" lon="1.73954">
        <ele>184</ele>
        <time>2020-08-03T13:26:59.000Z</time>
      </trkpt>
      <trkpt lat="49.41162" lon="1.73955">
        <ele>184</ele>
        <time>2020-08-03T13:27:08.000Z</time>
      </trkpt>
      <trkpt lat="49.41154" lon="1.73957">
        <ele>184.19999694824</ele>
        <time>2020-08-03T13:27:16.000Z</time>
      </trkpt>
      <trkpt lat="49.41148" lon="1.73958">
        <ele>184.39999389648</ele>
        <time>2020-08-03T13:27:22.000Z</time>
      </trkpt>
      <trkpt lat="49.41145" lon="1.73959">
        <ele>184.60000610352</ele>
        <time>2020-08-03T13:27:24.000Z</time>
      </trkpt>
      <trkpt lat="49.41134" lon="1.73963">
        <ele>184.80000305176</ele>
        <time>2020-08-03T13:27:34.000Z</time>
      </trkpt>
      <trkpt lat="49.41125" lon="1.73964">
        <ele>184.19999694824</ele>
        <time>2020-08-03T13:27:41.000Z</time>
      </trkpt>
      <trkpt lat="49.4112" lon="1.73966">
        <ele>184.80000305176</ele>
        <time>2020-08-03T13:27:47.000Z</time>
      </trkpt>
      <trkpt lat="49.41117" lon="1.73966">
        <ele>185</ele>
        <time>2020-08-03T13:27:50.000Z</time>
      </trkpt>
      <trkpt lat="49.41114" lon="1.73969">
        <ele>185</ele>
        <time>2020-08-03T13:27:53.000Z</time>
      </trkpt>
      <trkpt lat="49.41108" lon="1.73973">
        <ele>184.80000305176</ele>
        <time>2020-08-03T13:27:58.000Z</time>
      </trkpt>
      <trkpt lat="49.41099" lon="1.7398">
        <ele>184.80000305176</ele>
        <time>2020-08-03T13:28:06.000Z</time>
      </trkpt>
      <trkpt lat="49.41094" lon="1.73983">
        <ele>185</ele>
        <time>2020-08-03T13:28:11.000Z</time>
      </trkpt>
      <trkpt lat="49.41093" lon="1.73983">
        <ele>185</ele>
        <time>2020-08-03T13:28:12.000Z</time>
      </trkpt>
      <trkpt lat="49.41092" lon="1.73986">
        <ele>185.39999389648</ele>
        <time>2020-08-03T13:28:15.000Z</time>
      </trkpt>
      <trkpt lat="49.41091" lon="1.73985">
        <ele>185.60000610352</ele>
        <time>2020-08-03T13:28:20.000Z</time>
      </trkpt>
      <trkpt lat="49.41091" lon="1.73985">
        <ele>185.80000305176</ele>
        <time>2020-08-03T13:28:24.000Z</time>
      </trkpt>
      <trkpt lat="49.41091" lon="1.73985">
        <ele>186.19999694824</ele>
        <time>2020-08-03T13:28:28.000Z</time>
      </trkpt>
      <trkpt lat="49.41091" lon="1.73986">
        <ele>186.19999694824</ele>
        <time>2020-08-03T13:28:31.000Z</time>
      </trkpt>
      <trkpt lat="49.41092" lon="1.73986">
        <ele>185.80000305176</ele>
        <time>2020-08-03T13:28:34.000Z</time>
      </trkpt>
      <trkpt lat="49.41092" lon="1.73987">
        <ele>185.39999389648</ele>
        <time>2020-08-03T13:28:38.000Z</time>
      </trkpt>
      <trkpt lat="49.41087" lon="1.73994">
        <ele>185.60000610352</ele>
        <time>2020-08-03T13:28:45.000Z</time>
      </trkpt>
      <trkpt lat="49.41081" lon="1.74003">
        <ele>186.19999694824</ele>
        <time>2020-08-03T13:28:53.000Z</time>
      </trkpt>
      <trkpt lat="49.41076" lon="1.74011">
        <ele>185.60000610352</ele>
        <time>2020-08-03T13:29:00.000Z</time>
      </trkpt>
      <trkpt lat="49.41073" lon="1.74016">
        <ele>185.60000610352</ele>
        <time>2020-08-03T13:29:04.000Z</time>
      </trkpt>
      <trkpt lat="49.41071" lon="1.7402">
        <ele>186.19999694824</ele>
        <time>2020-08-03T13:29:07.000Z</time>
      </trkpt>
      <trkpt lat="49.4107" lon="1.74021">
        <ele>186.39999389648</ele>
        <time>2020-08-03T13:29:08.000Z</time>
      </trkpt>
      <trkpt lat="49.41068" lon="1.74024">
        <ele>186.39999389648</ele>
        <time>2020-08-03T13:29:09.000Z</time>
      </trkpt>
      <trkpt lat="49.41067" lon="1.74025">
        <ele>186.60000610352</ele>
        <time>2020-08-03T13:29:10.000Z</time>
      </trkpt>
      <trkpt lat="49.41066" lon="1.74026">
        <ele>186.80000305176</ele>
        <time>2020-08-03T13:29:12.000Z</time>
      </trkpt>
      <trkpt lat="49.41065" lon="1.7403">
        <ele>187</ele>
        <time>2020-08-03T13:29:14.000Z</time>
      </trkpt>
      <trkpt lat="49.41064" lon="1.74031">
        <ele>187</ele>
        <time>2020-08-03T13:29:15.000Z</time>
      </trkpt>
      <trkpt lat="49.41063" lon="1.74033">
        <ele>187.19999694824</ele>
        <time>2020-08-03T13:29:16.000Z</time>
      </trkpt>
      <trkpt lat="49.41061" lon="1.74036">
        <ele>187.39999389648</ele>
        <time>2020-08-03T13:29:18.000Z</time>
      </trkpt>
      <trkpt lat="49.41059" lon="1.74039">
        <ele>187.60000610352</ele>
        <time>2020-08-03T13:29:20.000Z</time>
      </trkpt>
      <trkpt lat="49.41057" lon="1.74044">
        <ele>187.60000610352</ele>
        <time>2020-08-03T13:29:24.000Z</time>
      </trkpt>
      <trkpt lat="49.41054" lon="1.74048">
        <ele>187.60000610352</ele>
        <time>2020-08-03T13:29:27.000Z</time>
      </trkpt>
      <trkpt lat="49.41051" lon="1.74053">
        <ele>187.80000305176</ele>
        <time>2020-08-03T13:29:31.000Z</time>
      </trkpt>
      <trkpt lat="49.4105" lon="1.74055">
        <ele>188.19999694824</ele>
        <time>2020-08-03T13:29:33.000Z</time>
      </trkpt>
      <trkpt lat="49.41049" lon="1.74056">
        <ele>188.19999694824</ele>
        <time>2020-08-03T13:29:34.000Z</time>
      </trkpt>
      <trkpt lat="49.41047" lon="1.74058">
        <ele>188.19999694824</ele>
        <time>2020-08-03T13:29:36.000Z</time>
      </trkpt>
      <trkpt lat="49.41041" lon="1.74066">
        <ele>188.19999694824</ele>
        <time>2020-08-03T13:29:43.000Z</time>
      </trkpt>
      <trkpt lat="49.41038" lon="1.74071">
        <ele>188.39999389648</ele>
        <time>2020-08-03T13:29:47.000Z</time>
      </trkpt>
      <trkpt lat="49.41034" lon="1.74074">
        <ele>188.80000305176</ele>
        <time>2020-08-03T13:29:50.000Z</time>
      </trkpt>
      <trkpt lat="49.41033" lon="1.74075">
        <ele>188.80000305176</ele>
        <time>2020-08-03T13:29:51.000Z</time>
      </trkpt>
      <trkpt lat="49.41032" lon="1.74076">
        <ele>188.80000305176</ele>
        <time>2020-08-03T13:29:52.000Z</time>
      </trkpt>
      <trkpt lat="49.41029" lon="1.74078">
        <ele>188.80000305176</ele>
        <time>2020-08-03T13:29:56.000Z</time>
      </trkpt>
      <trkpt lat="49.41029" lon="1.74077">
        <ele>188.80000305176</ele>
        <time>2020-08-03T13:29:57.000Z</time>
      </trkpt>
      <trkpt lat="49.41027" lon="1.74079">
        <ele>189.19999694824</ele>
        <time>2020-08-03T13:30:00.000Z</time>
      </trkpt>
      <trkpt lat="49.41026" lon="1.7408">
        <ele>189.19999694824</ele>
        <time>2020-08-03T13:30:01.000Z</time>
      </trkpt>
      <trkpt lat="49.41024" lon="1.74081">
        <ele>189.39999389648</ele>
        <time>2020-08-03T13:30:03.000Z</time>
      </trkpt>
      <trkpt lat="49.41018" lon="1.74086">
        <ele>189.39999389648</ele>
        <time>2020-08-03T13:30:09.000Z</time>
      </trkpt>
      <trkpt lat="49.41016" lon="1.74089">
        <ele>189.39999389648</ele>
        <time>2020-08-03T13:30:12.000Z</time>
      </trkpt>
      <trkpt lat="49.41011" lon="1.74095">
        <ele>189.80000305176</ele>
        <time>2020-08-03T13:30:18.000Z</time>
      </trkpt>
      <trkpt lat="49.41009" lon="1.74096">
        <ele>190</ele>
        <time>2020-08-03T13:30:20.000Z</time>
      </trkpt>
      <trkpt lat="49.41008" lon="1.74098">
        <ele>190</ele>
        <time>2020-08-03T13:30:22.000Z</time>
      </trkpt>
      <trkpt lat="49.41004" lon="1.74103">
        <ele>189.80000305176</ele>
        <time>2020-08-03T13:30:27.000Z</time>
      </trkpt>
      <trkpt lat="49.41003" lon="1.74104">
        <ele>189.60000610352</ele>
        <time>2020-08-03T13:30:28.000Z</time>
      </trkpt>
      <trkpt lat="49.40996" lon="1.74113">
        <ele>189.39999389648</ele>
        <time>2020-08-03T13:30:36.000Z</time>
      </trkpt>
      <trkpt lat="49.40991" lon="1.74121">
        <ele>189.39999389648</ele>
        <time>2020-08-03T13:30:43.000Z</time>
      </trkpt>
      <trkpt lat="49.40984" lon="1.74131">
        <ele>189.39999389648</ele>
        <time>2020-08-03T13:30:52.000Z</time>
      </trkpt>
      <trkpt lat="49.40983" lon="1.74134">
        <ele>189</ele>
        <time>2020-08-03T13:30:54.000Z</time>
      </trkpt>
      <trkpt lat="49.40978" lon="1.74141">
        <ele>188.80000305176</ele>
        <time>2020-08-03T13:31:00.000Z</time>
      </trkpt>
      <trkpt lat="49.4097" lon="1.74152">
        <ele>188.60000610352</ele>
        <time>2020-08-03T13:31:09.000Z</time>
      </trkpt>
      <trkpt lat="49.40968" lon="1.74155">
        <ele>188.60000610352</ele>
        <time>2020-08-03T13:31:12.000Z</time>
      </trkpt>
      <trkpt lat="49.40964" lon="1.74164">
        <ele>188.60000610352</ele>
        <time>2020-08-03T13:31:18.000Z</time>
      </trkpt>
      <trkpt lat="49.40964" lon="1.74165">
        <ele>188.60000610352</ele>
        <time>2020-08-03T13:31:19.000Z</time>
      </trkpt>
      <trkpt lat="49.40957" lon="1.74178">
        <ele>188.80000305176</ele>
        <time>2020-08-03T13:31:28.000Z</time>
      </trkpt>
      <trkpt lat="49.40956" lon="1.74179">
        <ele>188.60000610352</ele>
        <time>2020-08-03T13:31:29.000Z</time>
      </trkpt>
      <trkpt lat="49.40949" lon="1.74187">
        <ele>188.60000610352</ele>
        <time>2020-08-03T13:31:37.000Z</time>
      </trkpt>
      <trkpt lat="49.40943" lon="1.74195">
        <ele>188.19999694824</ele>
        <time>2020-08-03T13:31:43.000Z</time>
      </trkpt>
      <trkpt lat="49.4094" lon="1.74199">
        <ele>188.19999694824</ele>
        <time>2020-08-03T13:31:46.000Z</time>
      </trkpt>
      <trkpt lat="49.40937" lon="1.74203">
        <ele>187.60000610352</ele>
        <time>2020-08-03T13:31:51.000Z</time>
      </trkpt>
      <trkpt lat="49.40936" lon="1.74204">
        <ele>187.60000610352</ele>
        <time>2020-08-03T13:31:52.000Z</time>
      </trkpt>
      <trkpt lat="49.40935" lon="1.74207">
        <ele>187.39999389648</ele>
        <time>2020-08-03T13:31:54.000Z</time>
      </trkpt>
      <trkpt lat="49.40932" lon="1.74211">
        <ele>187.19999694824</ele>
        <time>2020-08-03T13:31:57.000Z</time>
      </trkpt>
      <trkpt lat="49.4093" lon="1.74214">
        <ele>187.19999694824</ele>
        <time>2020-08-03T13:31:59.000Z</time>
      </trkpt>
      <trkpt lat="49.40928" lon="1.74216">
        <ele>187.19999694824</ele>
        <time>2020-08-03T13:32:01.000Z</time>
      </trkpt>
      <trkpt lat="49.40926" lon="1.74219">
        <ele>187.19999694824</ele>
        <time>2020-08-03T13:32:04.000Z</time>
      </trkpt>
      <trkpt lat="49.40926" lon="1.74218">
        <ele>187.19999694824</ele>
        <time>2020-08-03T13:32:07.000Z</time>
      </trkpt>
      <trkpt lat="49.40928" lon="1.74219">
        <ele>186.80000305176</ele>
        <time>2020-08-03T13:32:17.000Z</time>
      </trkpt>
      <trkpt lat="49.40929" lon="1.7422">
        <ele>186.80000305176</ele>
        <time>2020-08-03T13:32:24.000Z</time>
      </trkpt>
      <trkpt lat="49.40929" lon="1.7422">
        <ele>186.80000305176</ele>
        <time>2020-08-03T13:32:25.000Z</time>
      </trkpt>
      <trkpt lat="49.40929" lon="1.7422">
        <ele>186.80000305176</ele>
        <time>2020-08-03T13:32:26.000Z</time>
      </trkpt>
      <trkpt lat="49.40928" lon="1.7422">
        <ele>186.80000305176</ele>
        <time>2020-08-03T13:32:27.000Z</time>
      </trkpt>
      <trkpt lat="49.40925" lon="1.74224">
        <ele>186.80000305176</ele>
        <time>2020-08-03T13:32:33.000Z</time>
      </trkpt>
      <trkpt lat="49.40921" lon="1.74229">
        <ele>186.80000305176</ele>
        <time>2020-08-03T13:32:37.000Z</time>
      </trkpt>
      <trkpt lat="49.40917" lon="1.74233">
        <ele>186.80000305176</ele>
        <time>2020-08-03T13:32:41.000Z</time>
      </trkpt>
      <trkpt lat="49.40913" lon="1.74237">
        <ele>186.19999694824</ele>
        <time>2020-08-03T13:32:46.000Z</time>
      </trkpt>
      <trkpt lat="49.40911" lon="1.7424">
        <ele>186</ele>
        <time>2020-08-03T13:32:48.000Z</time>
      </trkpt>
      <trkpt lat="49.40903" lon="1.74246">
        <ele>185.60000610352</ele>
        <time>2020-08-03T13:32:56.000Z</time>
      </trkpt>
      <trkpt lat="49.40897" lon="1.74254">
        <ele>185.19999694824</ele>
        <time>2020-08-03T13:33:04.000Z</time>
      </trkpt>
      <trkpt lat="49.40896" lon="1.74255">
        <ele>185.19999694824</ele>
        <time>2020-08-03T13:33:05.000Z</time>
      </trkpt>
      <trkpt lat="49.40895" lon="1.74256">
        <ele>185.19999694824</ele>
        <time>2020-08-03T13:33:06.000Z</time>
      </trkpt>
      <trkpt lat="49.40891" lon="1.74261">
        <ele>185</ele>
        <time>2020-08-03T13:33:10.000Z</time>
      </trkpt>
      <trkpt lat="49.4089" lon="1.74262">
        <ele>184.80000305176</ele>
        <time>2020-08-03T13:33:11.000Z</time>
      </trkpt>
      <trkpt lat="49.40885" lon="1.7427">
        <ele>184.60000610352</ele>
        <time>2020-08-03T13:33:17.000Z</time>
      </trkpt>
      <trkpt lat="49.40881" lon="1.74278">
        <ele>184</ele>
        <time>2020-08-03T13:33:23.000Z</time>
      </trkpt>
      <trkpt lat="49.40879" lon="1.74283">
        <ele>183.80000305176</ele>
        <time>2020-08-03T13:33:27.000Z</time>
      </trkpt>
      <trkpt lat="49.40873" lon="1.74289">
        <ele>183.19999694824</ele>
        <time>2020-08-03T13:33:33.000Z</time>
      </trkpt>
      <trkpt lat="49.40872" lon="1.7429">
        <ele>183</ele>
        <time>2020-08-03T13:33:34.000Z</time>
      </trkpt>
      <trkpt lat="49.40871" lon="1.74291">
        <ele>182.80000305176</ele>
        <time>2020-08-03T13:33:35.000Z</time>
      </trkpt>
      <trkpt lat="49.40868" lon="1.74297">
        <ele>182.60000610352</ele>
        <time>2020-08-03T13:33:40.000Z</time>
      </trkpt>
      <trkpt lat="49.40866" lon="1.74302">
        <ele>182.39999389648</ele>
        <time>2020-08-03T13:33:43.000Z</time>
      </trkpt>
      <trkpt lat="49.40864" lon="1.74305">
        <ele>182</ele>
        <time>2020-08-03T13:33:45.000Z</time>
      </trkpt>
      <trkpt lat="49.40863" lon="1.74306">
        <ele>182</ele>
        <time>2020-08-03T13:33:46.000Z</time>
      </trkpt>
      <trkpt lat="49.40862" lon="1.74307">
        <ele>181.60000610352</ele>
        <time>2020-08-03T13:33:48.000Z</time>
      </trkpt>
      <trkpt lat="49.40856" lon="1.74316">
        <ele>181.19999694824</ele>
        <time>2020-08-03T13:33:54.000Z</time>
      </trkpt>
      <trkpt lat="49.40853" lon="1.74319">
        <ele>181</ele>
        <time>2020-08-03T13:33:57.000Z</time>
      </trkpt>
      <trkpt lat="49.40848" lon="1.74324">
        <ele>180.80000305176</ele>
        <time>2020-08-03T13:34:02.000Z</time>
      </trkpt>
      <trkpt lat="49.40844" lon="1.74328">
        <ele>180.80000305176</ele>
        <time>2020-08-03T13:34:05.000Z</time>
      </trkpt>
      <trkpt lat="49.40843" lon="1.74329">
        <ele>180.60000610352</ele>
        <time>2020-08-03T13:34:07.000Z</time>
      </trkpt>
      <trkpt lat="49.40843" lon="1.74329">
        <ele>180.60000610352</ele>
        <time>2020-08-03T13:34:08.000Z</time>
      </trkpt>
      <trkpt lat="49.40838" lon="1.74338">
        <ele>179.80000305176</ele>
        <time>2020-08-03T13:34:14.000Z</time>
      </trkpt>
      <trkpt lat="49.40834" lon="1.74344">
        <ele>179.39999389648</ele>
        <time>2020-08-03T13:34:21.000Z</time>
      </trkpt>
      <trkpt lat="49.40828" lon="1.74351">
        <ele>178.80000305176</ele>
        <time>2020-08-03T13:34:26.000Z</time>
      </trkpt>
      <trkpt lat="49.40827" lon="1.74352">
        <ele>178.60000610352</ele>
        <time>2020-08-03T13:34:27.000Z</time>
      </trkpt>
      <trkpt lat="49.40827" lon="1.74354">
        <ele>178.60000610352</ele>
        <time>2020-08-03T13:34:29.000Z</time>
      </trkpt>
      <trkpt lat="49.40823" lon="1.74361">
        <ele>178.60000610352</ele>
        <time>2020-08-03T13:34:34.000Z</time>
      </trkpt>
      <trkpt lat="49.40822" lon="1.74364">
        <ele>178.80000305176</ele>
        <time>2020-08-03T13:34:36.000Z</time>
      </trkpt>
      <trkpt lat="49.40822" lon="1.74366">
        <ele>178.80000305176</ele>
        <time>2020-08-03T13:34:39.000Z</time>
      </trkpt>
      <trkpt lat="49.40823" lon="1.74366">
        <ele>178.80000305176</ele>
        <time>2020-08-03T13:34:40.000Z</time>
      </trkpt>
      <trkpt lat="49.40823" lon="1.74367">
        <ele>178.80000305176</ele>
        <time>2020-08-03T13:34:41.000Z</time>
      </trkpt>
      <trkpt lat="49.40822" lon="1.74368">
        <ele>178.80000305176</ele>
        <time>2020-08-03T13:34:43.000Z</time>
      </trkpt>
      <trkpt lat="49.40821" lon="1.74368">
        <ele>178.80000305176</ele>
        <time>2020-08-03T13:34:48.000Z</time>
      </trkpt>
      <trkpt lat="49.40823" lon="1.74368">
        <ele>178.80000305176</ele>
        <time>2020-08-03T13:34:50.000Z</time>
      </trkpt>
      <trkpt lat="49.40823" lon="1.74368">
        <ele>179</ele>
        <time>2020-08-03T13:34:52.000Z</time>
      </trkpt>
      <trkpt lat="49.40824" lon="1.74368">
        <ele>179.19999694824</ele>
        <time>2020-08-03T13:34:57.000Z</time>
      </trkpt>
      <trkpt lat="49.40824" lon="1.74368">
        <ele>179.19999694824</ele>
        <time>2020-08-03T13:35:00.000Z</time>
      </trkpt>
      <trkpt lat="49.40824" lon="1.74366">
        <ele>179.19999694824</ele>
        <time>2020-08-03T13:35:06.000Z</time>
      </trkpt>
      <trkpt lat="49.40824" lon="1.74364">
        <ele>179.19999694824</ele>
        <time>2020-08-03T13:35:09.000Z</time>
      </trkpt>
      <trkpt lat="49.40824" lon="1.74363">
        <ele>179.19999694824</ele>
        <time>2020-08-03T13:35:10.000Z</time>
      </trkpt>
      <trkpt lat="49.40823" lon="1.74362">
        <ele>179.19999694824</ele>
        <time>2020-08-03T13:35:11.000Z</time>
      </trkpt>
      <trkpt lat="49.40823" lon="1.74362">
        <ele>179</ele>
        <time>2020-08-03T13:35:14.000Z</time>
      </trkpt>
      <trkpt lat="49.40822" lon="1.74361">
        <ele>178.80000305176</ele>
        <time>2020-08-03T13:35:18.000Z</time>
      </trkpt>
      <trkpt lat="49.40822" lon="1.74361">
        <ele>178.60000610352</ele>
        <time>2020-08-03T13:35:23.000Z</time>
      </trkpt>
      <trkpt lat="49.40822" lon="1.7436">
        <ele>178.39999389648</ele>
        <time>2020-08-03T13:35:30.000Z</time>
      </trkpt>
      <trkpt lat="49.40823" lon="1.74362">
        <ele>177.80000305176</ele>
        <time>2020-08-03T13:35:35.000Z</time>
      </trkpt>
      <trkpt lat="49.40824" lon="1.74362">
        <ele>177.80000305176</ele>
        <time>2020-08-03T13:35:37.000Z</time>
      </trkpt>
      <trkpt lat="49.40825" lon="1.74362">
        <ele>178.60000610352</ele>
        <time>2020-08-03T13:35:47.000Z</time>
      </trkpt>
      <trkpt lat="49.40825" lon="1.74357">
        <ele>178.60000610352</ele>
        <time>2020-08-03T13:35:57.000Z</time>
      </trkpt>
      <trkpt lat="49.40826" lon="1.74359">
        <ele>178.60000610352</ele>
        <time>2020-08-03T13:36:05.000Z</time>
      </trkpt>
      <trkpt lat="49.40826" lon="1.74364">
        <ele>178.60000610352</ele>
        <time>2020-08-03T13:36:15.000Z</time>
      </trkpt>
      <trkpt lat="49.40823" lon="1.74366">
        <ele>178.60000610352</ele>
        <time>2020-08-03T13:36:21.000Z</time>
      </trkpt>
      <trkpt lat="49.40823" lon="1.74364">
        <ele>178.60000610352</ele>
        <time>2020-08-03T13:36:22.000Z</time>
      </trkpt>
      <trkpt lat="49.40824" lon="1.74362">
        <ele>178.60000610352</ele>
        <time>2020-08-03T13:36:24.000Z</time>
      </trkpt>
      <trkpt lat="49.40825" lon="1.74365">
        <ele>178.60000610352</ele>
        <time>2020-08-03T13:36:27.000Z</time>
      </trkpt>
      <trkpt lat="49.40824" lon="1.74367">
        <ele>178.60000610352</ele>
        <time>2020-08-03T13:36:30.000Z</time>
      </trkpt>
      <trkpt lat="49.40824" lon="1.74368">
        <ele>178.60000610352</ele>
        <time>2020-08-03T13:36:33.000Z</time>
      </trkpt>
      <trkpt lat="49.40824" lon="1.74369">
        <ele>178.60000610352</ele>
        <time>2020-08-03T13:36:39.000Z</time>
      </trkpt>
      <trkpt lat="49.40825" lon="1.74371">
        <ele>178.60000610352</ele>
        <time>2020-08-03T13:36:47.000Z</time>
      </trkpt>
      <trkpt lat="49.40826" lon="1.74372">
        <ele>178.60000610352</ele>
        <time>2020-08-03T13:36:48.000Z</time>
      </trkpt>
      <trkpt lat="49.40829" lon="1.74381">
        <ele>178.60000610352</ele>
        <time>2020-08-03T13:36:52.000Z</time>
      </trkpt>
      <trkpt lat="49.40832" lon="1.74387">
        <ele>178.60000610352</ele>
        <time>2020-08-03T13:36:55.000Z</time>
      </trkpt>
      <trkpt lat="49.40839" lon="1.74396">
        <ele>178.60000610352</ele>
        <time>2020-08-03T13:37:02.000Z</time>
      </trkpt>
      <trkpt lat="49.40842" lon="1.744">
        <ele>178.80000305176</ele>
        <time>2020-08-03T13:37:06.000Z</time>
      </trkpt>
      <trkpt lat="49.40843" lon="1.74407">
        <ele>179.19999694824</ele>
        <time>2020-08-03T13:37:10.000Z</time>
      </trkpt>
      <trkpt lat="49.4085" lon="1.74413">
        <ele>179</ele>
        <time>2020-08-03T13:37:16.000Z</time>
      </trkpt>
      <trkpt lat="49.40853" lon="1.74414">
        <ele>179.19999694824</ele>
        <time>2020-08-03T13:37:20.000Z</time>
      </trkpt>
      <trkpt lat="49.40854" lon="1.74414">
        <ele>179.39999389648</ele>
        <time>2020-08-03T13:37:22.000Z</time>
      </trkpt>
      <trkpt lat="49.40851" lon="1.74414">
        <ele>179.19999694824</ele>
        <time>2020-08-03T13:37:28.000Z</time>
      </trkpt>
      <trkpt lat="49.40846" lon="1.74415">
        <ele>178.80000305176</ele>
        <time>2020-08-03T13:37:35.000Z</time>
      </trkpt>
      <trkpt lat="49.40845" lon="1.74415">
        <ele>178.80000305176</ele>
        <time>2020-08-03T13:37:36.000Z</time>
      </trkpt>
      <trkpt lat="49.40844" lon="1.74415">
        <ele>178.60000610352</ele>
        <time>2020-08-03T13:37:38.000Z</time>
      </trkpt>
      <trkpt lat="49.40845" lon="1.74416">
        <ele>178.80000305176</ele>
        <time>2020-08-03T13:37:44.000Z</time>
      </trkpt>
      <trkpt lat="49.40852" lon="1.7442">
        <ele>178.60000610352</ele>
        <time>2020-08-03T13:37:52.000Z</time>
      </trkpt>
      <trkpt lat="49.40855" lon="1.74418">
        <ele>179.19999694824</ele>
        <time>2020-08-03T13:38:00.000Z</time>
      </trkpt>
      <trkpt lat="49.40856" lon="1.74417">
        <ele>179.19999694824</ele>
        <time>2020-08-03T13:38:05.000Z</time>
      </trkpt>
      <trkpt lat="49.40856" lon="1.74416">
        <ele>179.19999694824</ele>
        <time>2020-08-03T13:38:10.000Z</time>
      </trkpt>
      <trkpt lat="49.40856" lon="1.74412">
        <ele>179</ele>
        <time>2020-08-03T13:38:17.000Z</time>
      </trkpt>
      <trkpt lat="49.40856" lon="1.74412">
        <ele>179</ele>
        <time>2020-08-03T13:38:18.000Z</time>
      </trkpt>
      <trkpt lat="49.40858" lon="1.74415">
        <ele>179.19999694824</ele>
        <time>2020-08-03T13:38:21.000Z</time>
      </trkpt>
      <trkpt lat="49.4086" lon="1.74417">
        <ele>179.39999389648</ele>
        <time>2020-08-03T13:38:23.000Z</time>
      </trkpt>
      <trkpt lat="49.4086" lon="1.74421">
        <ele>179.60000610352</ele>
        <time>2020-08-03T13:38:26.000Z</time>
      </trkpt>
      <trkpt lat="49.4086" lon="1.74422">
        <ele>179.60000610352</ele>
        <time>2020-08-03T13:38:27.000Z</time>
      </trkpt>
      <trkpt lat="49.40859" lon="1.74427">
        <ele>179.60000610352</ele>
        <time>2020-08-03T13:38:30.000Z</time>
      </trkpt>
      <trkpt lat="49.40859" lon="1.74429">
        <ele>179.60000610352</ele>
        <time>2020-08-03T13:38:32.000Z</time>
      </trkpt>
      <trkpt lat="49.40859" lon="1.7443">
        <ele>179.60000610352</ele>
        <time>2020-08-03T13:38:33.000Z</time>
      </trkpt>
      <trkpt lat="49.40858" lon="1.74433">
        <ele>179.60000610352</ele>
        <time>2020-08-03T13:38:35.000Z</time>
      </trkpt>
      <trkpt lat="49.40861" lon="1.7444">
        <ele>179.80000305176</ele>
        <time>2020-08-03T13:38:40.000Z</time>
      </trkpt>
      <trkpt lat="49.40864" lon="1.74444">
        <ele>181.19999694824</ele>
        <time>2020-08-03T13:38:43.000Z</time>
      </trkpt>
      <trkpt lat="49.40868" lon="1.74455">
        <ele>181</ele>
        <time>2020-08-03T13:38:50.000Z</time>
      </trkpt>
      <trkpt lat="49.40872" lon="1.74466">
        <ele>180.80000305176</ele>
        <time>2020-08-03T13:38:58.000Z</time>
      </trkpt>
      <trkpt lat="49.40874" lon="1.74467">
        <ele>180.80000305176</ele>
        <time>2020-08-03T13:39:00.000Z</time>
      </trkpt>
      <trkpt lat="49.40875" lon="1.74468">
        <ele>181</ele>
        <time>2020-08-03T13:39:02.000Z</time>
      </trkpt>
      <trkpt lat="49.40877" lon="1.74473">
        <ele>181</ele>
        <time>2020-08-03T13:39:05.000Z</time>
      </trkpt>
      <trkpt lat="49.40882" lon="1.74477">
        <ele>181.39999389648</ele>
        <time>2020-08-03T13:39:08.000Z</time>
      </trkpt>
      <trkpt lat="49.40885" lon="1.7448">
        <ele>181.60000610352</ele>
        <time>2020-08-03T13:39:10.000Z</time>
      </trkpt>
      <trkpt lat="49.40886" lon="1.74482">
        <ele>181.60000610352</ele>
        <time>2020-08-03T13:39:11.000Z</time>
      </trkpt>
      <trkpt lat="49.40886" lon="1.74494">
        <ele>181.80000305176</ele>
        <time>2020-08-03T13:39:19.000Z</time>
      </trkpt>
      <trkpt lat="49.40887" lon="1.74498">
        <ele>182.19999694824</ele>
        <time>2020-08-03T13:39:22.000Z</time>
      </trkpt>
      <trkpt lat="49.40888" lon="1.745">
        <ele>182.19999694824</ele>
        <time>2020-08-03T13:39:23.000Z</time>
      </trkpt>
      <trkpt lat="49.4089" lon="1.74505">
        <ele>182.39999389648</ele>
        <time>2020-08-03T13:39:26.000Z</time>
      </trkpt>
      <trkpt lat="49.40892" lon="1.74516">
        <ele>182.39999389648</ele>
        <time>2020-08-03T13:39:33.000Z</time>
      </trkpt>
      <trkpt lat="49.40892" lon="1.74517">
        <ele>182.39999389648</ele>
        <time>2020-08-03T13:39:34.000Z</time>
      </trkpt>
      <trkpt lat="49.40896" lon="1.74526">
        <ele>183.39999389648</ele>
        <time>2020-08-03T13:39:40.000Z</time>
      </trkpt>
      <trkpt lat="49.40897" lon="1.74528">
        <ele>183.60000610352</ele>
        <time>2020-08-03T13:39:41.000Z</time>
      </trkpt>
      <trkpt lat="49.40897" lon="1.74532">
        <ele>184</ele>
        <time>2020-08-03T13:39:43.000Z</time>
      </trkpt>
      <trkpt lat="49.40896" lon="1.74537">
        <ele>184.39999389648</ele>
        <time>2020-08-03T13:39:45.000Z</time>
      </trkpt>
      <trkpt lat="49.40896" lon="1.74539">
        <ele>184.39999389648</ele>
        <time>2020-08-03T13:39:46.000Z</time>
      </trkpt>
      <trkpt lat="49.40904" lon="1.74548">
        <ele>184.80000305176</ele>
        <time>2020-08-03T13:39:52.000Z</time>
      </trkpt>
      <trkpt lat="49.40911" lon="1.74556">
        <ele>185</ele>
        <time>2020-08-03T13:39:59.000Z</time>
      </trkpt>
      <trkpt lat="49.40914" lon="1.7456">
        <ele>185.19999694824</ele>
        <time>2020-08-03T13:40:02.000Z</time>
      </trkpt>
      <trkpt lat="49.40918" lon="1.74564">
        <ele>185</ele>
        <time>2020-08-03T13:40:07.000Z</time>
      </trkpt>
      <trkpt lat="49.40918" lon="1.74563">
        <ele>185.19999694824</ele>
        <time>2020-08-03T13:40:15.000Z</time>
      </trkpt>
      <trkpt lat="49.40918" lon="1.74563">
        <ele>185</ele>
        <time>2020-08-03T13:40:18.000Z</time>
      </trkpt>
      <trkpt lat="49.4092" lon="1.74569">
        <ele>184.80000305176</ele>
        <time>2020-08-03T13:40:25.000Z</time>
      </trkpt>
      <trkpt lat="49.40923" lon="1.74574">
        <ele>184.80000305176</ele>
        <time>2020-08-03T13:40:29.000Z</time>
      </trkpt>
      <trkpt lat="49.40925" lon="1.74577">
        <ele>184.80000305176</ele>
        <time>2020-08-03T13:40:32.000Z</time>
      </trkpt>
      <trkpt lat="49.40926" lon="1.74579">
        <ele>184.80000305176</ele>
        <time>2020-08-03T13:40:36.000Z</time>
      </trkpt>
      <trkpt lat="49.40926" lon="1.74579">
        <ele>184.80000305176</ele>
        <time>2020-08-03T13:40:37.000Z</time>
      </trkpt>
      <trkpt lat="49.40928" lon="1.74585">
        <ele>184.60000610352</ele>
        <time>2020-08-03T13:40:43.000Z</time>
      </trkpt>
      <trkpt lat="49.40934" lon="1.74602">
        <ele>184.80000305176</ele>
        <time>2020-08-03T13:40:54.000Z</time>
      </trkpt>
      <trkpt lat="49.40937" lon="1.7461">
        <ele>185</ele>
        <time>2020-08-03T13:41:00.000Z</time>
      </trkpt>
      <trkpt lat="49.40943" lon="1.74621">
        <ele>185.39999389648</ele>
        <time>2020-08-03T13:41:07.000Z</time>
      </trkpt>
      <trkpt lat="49.40947" lon="1.74631">
        <ele>185.19999694824</ele>
        <time>2020-08-03T13:41:14.000Z</time>
      </trkpt>
      <trkpt lat="49.40947" lon="1.74632">
        <ele>185.19999694824</ele>
        <time>2020-08-03T13:41:15.000Z</time>
      </trkpt>
      <trkpt lat="49.40948" lon="1.74636">
        <ele>185.39999389648</ele>
        <time>2020-08-03T13:41:18.000Z</time>
      </trkpt>
      <trkpt lat="49.40952" lon="1.74646">
        <ele>185.19999694824</ele>
        <time>2020-08-03T13:41:24.000Z</time>
      </trkpt>
      <trkpt lat="49.40954" lon="1.7465">
        <ele>185.60000610352</ele>
        <time>2020-08-03T13:41:28.000Z</time>
      </trkpt>
      <trkpt lat="49.40955" lon="1.74654">
        <ele>185.60000610352</ele>
        <time>2020-08-03T13:41:30.000Z</time>
      </trkpt>
      <trkpt lat="49.40956" lon="1.74656">
        <ele>185.39999389648</ele>
        <time>2020-08-03T13:41:31.000Z</time>
      </trkpt>
      <trkpt lat="49.40957" lon="1.74658">
        <ele>185.39999389648</ele>
        <time>2020-08-03T13:41:33.000Z</time>
      </trkpt>
      <trkpt lat="49.4096" lon="1.74664">
        <ele>186.39999389648</ele>
        <time>2020-08-03T13:41:37.000Z</time>
      </trkpt>
      <trkpt lat="49.40961" lon="1.74665">
        <ele>186.60000610352</ele>
        <time>2020-08-03T13:41:38.000Z</time>
      </trkpt>
      <trkpt lat="49.40963" lon="1.7467">
        <ele>185.60000610352</ele>
        <time>2020-08-03T13:41:42.000Z</time>
      </trkpt>
      <trkpt lat="49.40963" lon="1.74671">
        <ele>185.19999694824</ele>
        <time>2020-08-03T13:41:43.000Z</time>
      </trkpt>
      <trkpt lat="49.40966" lon="1.74675">
        <ele>185.39999389648</ele>
        <time>2020-08-03T13:41:46.000Z</time>
      </trkpt>
      <trkpt lat="49.40968" lon="1.7468">
        <ele>186</ele>
        <time>2020-08-03T13:41:49.000Z</time>
      </trkpt>
      <trkpt lat="49.40969" lon="1.74684">
        <ele>186.39999389648</ele>
        <time>2020-08-03T13:41:52.000Z</time>
      </trkpt>
      <trkpt lat="49.40972" lon="1.7469">
        <ele>186.19999694824</ele>
        <time>2020-08-03T13:41:56.000Z</time>
      </trkpt>
      <trkpt lat="49.40976" lon="1.74699">
        <ele>187.39999389648</ele>
        <time>2020-08-03T13:42:02.000Z</time>
      </trkpt>
      <trkpt lat="49.40976" lon="1.747">
        <ele>187.60000610352</ele>
        <time>2020-08-03T13:42:03.000Z</time>
      </trkpt>
      <trkpt lat="49.40979" lon="1.74709">
        <ele>187.39999389648</ele>
        <time>2020-08-03T13:42:10.000Z</time>
      </trkpt>
      <trkpt lat="49.40984" lon="1.74717">
        <ele>187.39999389648</ele>
        <time>2020-08-03T13:42:16.000Z</time>
      </trkpt>
      <trkpt lat="49.40986" lon="1.74722">
        <ele>187.39999389648</ele>
        <time>2020-08-03T13:42:19.000Z</time>
      </trkpt>
      <trkpt lat="49.40988" lon="1.74725">
        <ele>187.60000610352</ele>
        <time>2020-08-03T13:42:22.000Z</time>
      </trkpt>
      <trkpt lat="49.40988" lon="1.74727">
        <ele>187.60000610352</ele>
        <time>2020-08-03T13:42:23.000Z</time>
      </trkpt>
      <trkpt lat="49.40989" lon="1.74728">
        <ele>187.60000610352</ele>
        <time>2020-08-03T13:42:24.000Z</time>
      </trkpt>
      <trkpt lat="49.4099" lon="1.7473">
        <ele>187.60000610352</ele>
        <time>2020-08-03T13:42:25.000Z</time>
      </trkpt>
      <trkpt lat="49.40991" lon="1.74734">
        <ele>187.60000610352</ele>
        <time>2020-08-03T13:42:28.000Z</time>
      </trkpt>
      <trkpt lat="49.40993" lon="1.7474">
        <ele>188</ele>
        <time>2020-08-03T13:42:32.000Z</time>
      </trkpt>
      <trkpt lat="49.40994" lon="1.74746">
        <ele>188.19999694824</ele>
        <time>2020-08-03T13:42:36.000Z</time>
      </trkpt>
      <trkpt lat="49.40996" lon="1.7475">
        <ele>188.60000610352</ele>
        <time>2020-08-03T13:42:40.000Z</time>
      </trkpt>
      <trkpt lat="49.40998" lon="1.74752">
        <ele>188.80000305176</ele>
        <time>2020-08-03T13:42:42.000Z</time>
      </trkpt>
      <trkpt lat="49.41" lon="1.74758">
        <ele>188.39999389648</ele>
        <time>2020-08-03T13:42:47.000Z</time>
      </trkpt>
      <trkpt lat="49.41003" lon="1.74766">
        <ele>188.39999389648</ele>
        <time>2020-08-03T13:42:53.000Z</time>
      </trkpt>
      <trkpt lat="49.41004" lon="1.74769">
        <ele>188.60000610352</ele>
        <time>2020-08-03T13:42:55.000Z</time>
      </trkpt>
      <trkpt lat="49.41004" lon="1.7477">
        <ele>188.60000610352</ele>
        <time>2020-08-03T13:42:56.000Z</time>
      </trkpt>
      <trkpt lat="49.41007" lon="1.74778">
        <ele>189.80000305176</ele>
        <time>2020-08-03T13:43:02.000Z</time>
      </trkpt>
      <trkpt lat="49.41009" lon="1.74782">
        <ele>190.39999389648</ele>
        <time>2020-08-03T13:43:05.000Z</time>
      </trkpt>
      <trkpt lat="49.41012" lon="1.74785">
        <ele>190.19999694824</ele>
        <time>2020-08-03T13:43:08.000Z</time>
      </trkpt>
      <trkpt lat="49.41012" lon="1.74785">
        <ele>189.80000305176</ele>
        <time>2020-08-03T13:43:11.000Z</time>
      </trkpt>
      <trkpt lat="49.41012" lon="1.74786">
        <ele>189.60000610352</ele>
        <time>2020-08-03T13:43:13.000Z</time>
      </trkpt>
      <trkpt lat="49.41013" lon="1.74789">
        <ele>189.80000305176</ele>
        <time>2020-08-03T13:43:20.000Z</time>
      </trkpt>
      <trkpt lat="49.41017" lon="1.74803">
        <ele>190.19999694824</ele>
        <time>2020-08-03T13:43:29.000Z</time>
      </trkpt>
      <trkpt lat="49.4102" lon="1.7481">
        <ele>190.39999389648</ele>
        <time>2020-08-03T13:43:34.000Z</time>
      </trkpt>
      <trkpt lat="49.41021" lon="1.74816">
        <ele>190.39999389648</ele>
        <time>2020-08-03T13:43:38.000Z</time>
      </trkpt>
      <trkpt lat="49.41022" lon="1.7482">
        <ele>190.80000305176</ele>
        <time>2020-08-03T13:43:41.000Z</time>
      </trkpt>
      <trkpt lat="49.41022" lon="1.74823">
        <ele>191</ele>
        <time>2020-08-03T13:43:43.000Z</time>
      </trkpt>
      <trkpt lat="49.41023" lon="1.74825">
        <ele>191</ele>
        <time>2020-08-03T13:43:44.000Z</time>
      </trkpt>
      <trkpt lat="49.41023" lon="1.74826">
        <ele>191.19999694824</ele>
        <time>2020-08-03T13:43:45.000Z</time>
      </trkpt>
      <trkpt lat="49.41023" lon="1.74828">
        <ele>191.19999694824</ele>
        <time>2020-08-03T13:43:46.000Z</time>
      </trkpt>
      <trkpt lat="49.41023" lon="1.74831">
        <ele>191.19999694824</ele>
        <time>2020-08-03T13:43:48.000Z</time>
      </trkpt>
      <trkpt lat="49.41024" lon="1.74833">
        <ele>191.60000610352</ele>
        <time>2020-08-03T13:43:50.000Z</time>
      </trkpt>
      <trkpt lat="49.41024" lon="1.74835">
        <ele>191.60000610352</ele>
        <time>2020-08-03T13:43:51.000Z</time>
      </trkpt>
      <trkpt lat="49.41025" lon="1.74836">
        <ele>191.80000305176</ele>
        <time>2020-08-03T13:43:52.000Z</time>
      </trkpt>
      <trkpt lat="49.41024" lon="1.74837">
        <ele>192.19999694824</ele>
        <time>2020-08-03T13:43:53.000Z</time>
      </trkpt>
      <trkpt lat="49.41025" lon="1.7484">
        <ele>192.19999694824</ele>
        <time>2020-08-03T13:43:55.000Z</time>
      </trkpt>
      <trkpt lat="49.41027" lon="1.74848">
        <ele>192</ele>
        <time>2020-08-03T13:44:01.000Z</time>
      </trkpt>
      <trkpt lat="49.41027" lon="1.74856">
        <ele>192.19999694824</ele>
        <time>2020-08-03T13:44:07.000Z</time>
      </trkpt>
      <trkpt lat="49.41028" lon="1.74857">
        <ele>192.19999694824</ele>
        <time>2020-08-03T13:44:08.000Z</time>
      </trkpt>
      <trkpt lat="49.41028" lon="1.74862">
        <ele>191.80000305176</ele>
        <time>2020-08-03T13:44:12.000Z</time>
      </trkpt>
      <trkpt lat="49.41029" lon="1.74868">
        <ele>191.80000305176</ele>
        <time>2020-08-03T13:44:16.000Z</time>
      </trkpt>
      <trkpt lat="49.4103" lon="1.74873">
        <ele>191.60000610352</ele>
        <time>2020-08-03T13:44:19.000Z</time>
      </trkpt>
      <trkpt lat="49.4103" lon="1.74881">
        <ele>191.80000305176</ele>
        <time>2020-08-03T13:44:25.000Z</time>
      </trkpt>
      <trkpt lat="49.4103" lon="1.74882">
        <ele>191.80000305176</ele>
        <time>2020-08-03T13:44:26.000Z</time>
      </trkpt>
      <trkpt lat="49.4103" lon="1.74883">
        <ele>192</ele>
        <time>2020-08-03T13:44:28.000Z</time>
      </trkpt>
      <trkpt lat="49.4103" lon="1.74883">
        <ele>192.19999694824</ele>
        <time>2020-08-03T13:44:29.000Z</time>
      </trkpt>
      <trkpt lat="49.41031" lon="1.74882">
        <ele>192.19999694824</ele>
        <time>2020-08-03T13:44:31.000Z</time>
      </trkpt>
      <trkpt lat="49.41031" lon="1.74883">
        <ele>192.19999694824</ele>
        <time>2020-08-03T13:44:37.000Z</time>
      </trkpt>
      <trkpt lat="49.41031" lon="1.74884">
        <ele>192.39999389648</ele>
        <time>2020-08-03T13:44:41.000Z</time>
      </trkpt>
      <trkpt lat="49.41032" lon="1.74883">
        <ele>192.19999694824</ele>
        <time>2020-08-03T13:44:47.000Z</time>
      </trkpt>
      <trkpt lat="49.41031" lon="1.74883">
        <ele>192</ele>
        <time>2020-08-03T13:44:51.000Z</time>
      </trkpt>
      <trkpt lat="49.41031" lon="1.74884">
        <ele>192</ele>
        <time>2020-08-03T13:44:54.000Z</time>
      </trkpt>
      <trkpt lat="49.41031" lon="1.74884">
        <ele>192.39999389648</ele>
        <time>2020-08-03T13:44:58.000Z</time>
      </trkpt>
      <trkpt lat="49.41031" lon="1.74883">
        <ele>192.60000610352</ele>
        <time>2020-08-03T13:45:01.000Z</time>
      </trkpt>
      <trkpt lat="49.41031" lon="1.74883">
        <ele>192.60000610352</ele>
        <time>2020-08-03T13:45:02.000Z</time>
      </trkpt>
      <trkpt lat="49.41031" lon="1.74885">
        <ele>192.39999389648</ele>
        <time>2020-08-03T13:45:04.000Z</time>
      </trkpt>
      <trkpt lat="49.4103" lon="1.74892">
        <ele>192.39999389648</ele>
        <time>2020-08-03T13:45:08.000Z</time>
      </trkpt>
      <trkpt lat="49.4103" lon="1.74904">
        <ele>192.80000305176</ele>
        <time>2020-08-03T13:45:15.000Z</time>
      </trkpt>
      <trkpt lat="49.41031" lon="1.74906">
        <ele>193</ele>
        <time>2020-08-03T13:45:16.000Z</time>
      </trkpt>
      <trkpt lat="49.41031" lon="1.74908">
        <ele>193</ele>
        <time>2020-08-03T13:45:17.000Z</time>
      </trkpt>
      <trkpt lat="49.41032" lon="1.74922">
        <ele>192.80000305176</ele>
        <time>2020-08-03T13:45:25.000Z</time>
      </trkpt>
      <trkpt lat="49.41031" lon="1.74937">
        <ele>193</ele>
        <time>2020-08-03T13:45:34.000Z</time>
      </trkpt>
      <trkpt lat="49.41032" lon="1.74947">
        <ele>193.39999389648</ele>
        <time>2020-08-03T13:45:40.000Z</time>
      </trkpt>
      <trkpt lat="49.41032" lon="1.74949">
        <ele>193.39999389648</ele>
        <time>2020-08-03T13:45:41.000Z</time>
      </trkpt>
      <trkpt lat="49.41032" lon="1.74959">
        <ele>194</ele>
        <time>2020-08-03T13:45:47.000Z</time>
      </trkpt>
      <trkpt lat="49.41031" lon="1.74963">
        <ele>194.19999694824</ele>
        <time>2020-08-03T13:45:49.000Z</time>
      </trkpt>
      <trkpt lat="49.41031" lon="1.74964">
        <ele>194.19999694824</ele>
        <time>2020-08-03T13:45:50.000Z</time>
      </trkpt>
      <trkpt lat="49.41031" lon="1.74966">
        <ele>194.19999694824</ele>
        <time>2020-08-03T13:45:51.000Z</time>
      </trkpt>
      <trkpt lat="49.41032" lon="1.74968">
        <ele>194.39999389648</ele>
        <time>2020-08-03T13:45:52.000Z</time>
      </trkpt>
      <trkpt lat="49.41032" lon="1.74974">
        <ele>194.39999389648</ele>
        <time>2020-08-03T13:45:56.000Z</time>
      </trkpt>
      <trkpt lat="49.41032" lon="1.74976">
        <ele>194.39999389648</ele>
        <time>2020-08-03T13:45:57.000Z</time>
      </trkpt>
      <trkpt lat="49.41032" lon="1.74978">
        <ele>194.39999389648</ele>
        <time>2020-08-03T13:45:59.000Z</time>
      </trkpt>
      <trkpt lat="49.41032" lon="1.7498">
        <ele>194.60000610352</ele>
        <time>2020-08-03T13:46:01.000Z</time>
      </trkpt>
      <trkpt lat="49.41032" lon="1.74985">
        <ele>194.60000610352</ele>
        <time>2020-08-03T13:46:04.000Z</time>
      </trkpt>
      <trkpt lat="49.41032" lon="1.74995">
        <ele>194.80000305176</ele>
        <time>2020-08-03T13:46:10.000Z</time>
      </trkpt>
      <trkpt lat="49.41031" lon="1.74998">
        <ele>194.80000305176</ele>
        <time>2020-08-03T13:46:12.000Z</time>
      </trkpt>
      <trkpt lat="49.41032" lon="1.75002">
        <ele>195</ele>
        <time>2020-08-03T13:46:14.000Z</time>
      </trkpt>
      <trkpt lat="49.41031" lon="1.75008">
        <ele>194.80000305176</ele>
        <time>2020-08-03T13:46:18.000Z</time>
      </trkpt>
      <trkpt lat="49.41031" lon="1.75011">
        <ele>194.80000305176</ele>
        <time>2020-08-03T13:46:20.000Z</time>
      </trkpt>
      <trkpt lat="49.41031" lon="1.75019">
        <ele>195.19999694824</ele>
        <time>2020-08-03T13:46:25.000Z</time>
      </trkpt>
      <trkpt lat="49.41031" lon="1.75022">
        <ele>195.19999694824</ele>
        <time>2020-08-03T13:46:27.000Z</time>
      </trkpt>
      <trkpt lat="49.4103" lon="1.75027">
        <ele>195.60000610352</ele>
        <time>2020-08-03T13:46:30.000Z</time>
      </trkpt>
      <trkpt lat="49.4103" lon="1.75041">
        <ele>196</ele>
        <time>2020-08-03T13:46:38.000Z</time>
      </trkpt>
      <trkpt lat="49.4103" lon="1.75043">
        <ele>196</ele>
        <time>2020-08-03T13:46:39.000Z</time>
      </trkpt>
      <trkpt lat="49.4103" lon="1.75044">
        <ele>196</ele>
        <time>2020-08-03T13:46:40.000Z</time>
      </trkpt>
      <trkpt lat="49.41029" lon="1.75059">
        <ele>195.60000610352</ele>
        <time>2020-08-03T13:46:49.000Z</time>
      </trkpt>
      <trkpt lat="49.41029" lon="1.75061">
        <ele>195.39999389648</ele>
        <time>2020-08-03T13:46:50.000Z</time>
      </trkpt>
      <trkpt lat="49.41028" lon="1.75071">
        <ele>195.60000610352</ele>
        <time>2020-08-03T13:46:57.000Z</time>
      </trkpt>
      <trkpt lat="49.41027" lon="1.7508">
        <ele>195.80000305176</ele>
        <time>2020-08-03T13:47:02.000Z</time>
      </trkpt>
      <trkpt lat="49.41026" lon="1.75085">
        <ele>195.80000305176</ele>
        <time>2020-08-03T13:47:05.000Z</time>
      </trkpt>
      <trkpt lat="49.41026" lon="1.75088">
        <ele>195.80000305176</ele>
        <time>2020-08-03T13:47:06.000Z</time>
      </trkpt>
      <trkpt lat="49.41026" lon="1.7509">
        <ele>195.80000305176</ele>
        <time>2020-08-03T13:47:07.000Z</time>
      </trkpt>
      <trkpt lat="49.41026" lon="1.75096">
        <ele>195.80000305176</ele>
        <time>2020-08-03T13:47:11.000Z</time>
      </trkpt>
      <trkpt lat="49.41026" lon="1.75101">
        <ele>195.60000610352</ele>
        <time>2020-08-03T13:47:15.000Z</time>
      </trkpt>
      <trkpt lat="49.41026" lon="1.75102">
        <ele>195.60000610352</ele>
        <time>2020-08-03T13:47:16.000Z</time>
      </trkpt>
      <trkpt lat="49.41026" lon="1.75102">
        <ele>195.60000610352</ele>
        <time>2020-08-03T13:47:17.000Z</time>
      </trkpt>
      <trkpt lat="49.41026" lon="1.75102">
        <ele>195.60000610352</ele>
        <time>2020-08-03T13:47:18.000Z</time>
      </trkpt>
      <trkpt lat="49.41025" lon="1.75103">
        <ele>195.60000610352</ele>
        <time>2020-08-03T13:47:25.000Z</time>
      </trkpt>
      <trkpt lat="49.41025" lon="1.75105">
        <ele>195.60000610352</ele>
        <time>2020-08-03T13:47:33.000Z</time>
      </trkpt>
      <trkpt lat="49.41024" lon="1.7511">
        <ele>195.60000610352</ele>
        <time>2020-08-03T13:47:37.000Z</time>
      </trkpt>
      <trkpt lat="49.41024" lon="1.75115">
        <ele>195.80000305176</ele>
        <time>2020-08-03T13:47:40.000Z</time>
      </trkpt>
      <trkpt lat="49.41024" lon="1.75118">
        <ele>195.80000305176</ele>
        <time>2020-08-03T13:47:42.000Z</time>
      </trkpt>
      <trkpt lat="49.41024" lon="1.75126">
        <ele>196.19999694824</ele>
        <time>2020-08-03T13:47:47.000Z</time>
      </trkpt>
      <trkpt lat="49.41024" lon="1.75133">
        <ele>196.39999389648</ele>
        <time>2020-08-03T13:47:52.000Z</time>
      </trkpt>
      <trkpt lat="49.41024" lon="1.75139">
        <ele>196.39999389648</ele>
        <time>2020-08-03T13:47:55.000Z</time>
      </trkpt>
      <trkpt lat="49.41024" lon="1.75146">
        <ele>196</ele>
        <time>2020-08-03T13:47:59.000Z</time>
      </trkpt>
      <trkpt lat="49.41023" lon="1.75151">
        <ele>195.80000305176</ele>
        <time>2020-08-03T13:48:02.000Z</time>
      </trkpt>
      <trkpt lat="49.41023" lon="1.75157">
        <ele>196</ele>
        <time>2020-08-03T13:48:05.000Z</time>
      </trkpt>
      <trkpt lat="49.41023" lon="1.75167">
        <ele>195.80000305176</ele>
        <time>2020-08-03T13:48:10.000Z</time>
      </trkpt>
      <trkpt lat="49.41023" lon="1.7518">
        <ele>196.60000610352</ele>
        <time>2020-08-03T13:48:18.000Z</time>
      </trkpt>
      <trkpt lat="49.41023" lon="1.75188">
        <ele>196.60000610352</ele>
        <time>2020-08-03T13:48:23.000Z</time>
      </trkpt>
      <trkpt lat="49.41023" lon="1.75194">
        <ele>196.60000610352</ele>
        <time>2020-08-03T13:48:26.000Z</time>
      </trkpt>
      <trkpt lat="49.41023" lon="1.75212">
        <ele>196</ele>
        <time>2020-08-03T13:48:36.000Z</time>
      </trkpt>
      <trkpt lat="49.41022" lon="1.75222">
        <ele>194.80000305176</ele>
        <time>2020-08-03T13:48:42.000Z</time>
      </trkpt>
      <trkpt lat="49.41022" lon="1.75228">
        <ele>194.39999389648</ele>
        <time>2020-08-03T13:48:46.000Z</time>
      </trkpt>
      <trkpt lat="49.41023" lon="1.75232">
        <ele>194.39999389648</ele>
        <time>2020-08-03T13:48:49.000Z</time>
      </trkpt>
      <trkpt lat="49.41022" lon="1.75238">
        <ele>194.39999389648</ele>
        <time>2020-08-03T13:48:52.000Z</time>
      </trkpt>
      <trkpt lat="49.41022" lon="1.75244">
        <ele>194.80000305176</ele>
        <time>2020-08-03T13:48:56.000Z</time>
      </trkpt>
      <trkpt lat="49.41021" lon="1.75256">
        <ele>194.60000610352</ele>
        <time>2020-08-03T13:49:03.000Z</time>
      </trkpt>
      <trkpt lat="49.41021" lon="1.75262">
        <ele>194.39999389648</ele>
        <time>2020-08-03T13:49:06.000Z</time>
      </trkpt>
      <trkpt lat="49.41021" lon="1.75264">
        <ele>194.39999389648</ele>
        <time>2020-08-03T13:49:07.000Z</time>
      </trkpt>
      <trkpt lat="49.4102" lon="1.75268">
        <ele>194.19999694824</ele>
        <time>2020-08-03T13:49:09.000Z</time>
      </trkpt>
      <trkpt lat="49.4102" lon="1.7527">
        <ele>194.19999694824</ele>
        <time>2020-08-03T13:49:10.000Z</time>
      </trkpt>
      <trkpt lat="49.41019" lon="1.75283">
        <ele>194</ele>
        <time>2020-08-03T13:49:17.000Z</time>
      </trkpt>
      <trkpt lat="49.41019" lon="1.75285">
        <ele>193.80000305176</ele>
        <time>2020-08-03T13:49:18.000Z</time>
      </trkpt>
      <trkpt lat="49.41019" lon="1.75287">
        <ele>193.80000305176</ele>
        <time>2020-08-03T13:49:19.000Z</time>
      </trkpt>
      <trkpt lat="49.41019" lon="1.75303">
        <ele>193.39999389648</ele>
        <time>2020-08-03T13:49:27.000Z</time>
      </trkpt>
      <trkpt lat="49.41019" lon="1.75317">
        <ele>193.39999389648</ele>
        <time>2020-08-03T13:49:35.000Z</time>
      </trkpt>
      <trkpt lat="49.41019" lon="1.75334">
        <ele>193</ele>
        <time>2020-08-03T13:49:44.000Z</time>
      </trkpt>
      <trkpt lat="49.41019" lon="1.75337">
        <ele>192.80000305176</ele>
        <time>2020-08-03T13:49:45.000Z</time>
      </trkpt>
      <trkpt lat="49.41017" lon="1.75347">
        <ele>192.80000305176</ele>
        <time>2020-08-03T13:49:51.000Z</time>
      </trkpt>
      <trkpt lat="49.41017" lon="1.75362">
        <ele>191.80000305176</ele>
        <time>2020-08-03T13:49:58.000Z</time>
      </trkpt>
      <trkpt lat="49.41016" lon="1.7536">
        <ele>191.80000305176</ele>
        <time>2020-08-03T13:49:59.000Z</time>
      </trkpt>
      <trkpt lat="49.41015" lon="1.75373">
        <ele>192.39999389648</ele>
        <time>2020-08-03T13:50:06.000Z</time>
      </trkpt>
      <trkpt lat="49.41015" lon="1.75385">
        <ele>192.19999694824</ele>
        <time>2020-08-03T13:50:12.000Z</time>
      </trkpt>
      <trkpt lat="49.41013" lon="1.75392">
        <ele>191.80000305176</ele>
        <time>2020-08-03T13:50:16.000Z</time>
      </trkpt>
      <trkpt lat="49.41012" lon="1.75404">
        <ele>191.80000305176</ele>
        <time>2020-08-03T13:50:23.000Z</time>
      </trkpt>
      <trkpt lat="49.41011" lon="1.75406">
        <ele>191.80000305176</ele>
        <time>2020-08-03T13:50:24.000Z</time>
      </trkpt>
      <trkpt lat="49.41012" lon="1.75407">
        <ele>192</ele>
        <time>2020-08-03T13:50:25.000Z</time>
      </trkpt>
      <trkpt lat="49.4101" lon="1.75419">
        <ele>192</ele>
        <time>2020-08-03T13:50:31.000Z</time>
      </trkpt>
      <trkpt lat="49.41011" lon="1.75423">
        <ele>191.60000610352</ele>
        <time>2020-08-03T13:50:34.000Z</time>
      </trkpt>
      <trkpt lat="49.41012" lon="1.75428">
        <ele>191.39999389648</ele>
        <time>2020-08-03T13:50:37.000Z</time>
      </trkpt>
      <trkpt lat="49.41013" lon="1.75429">
        <ele>191.19999694824</ele>
        <time>2020-08-03T13:50:38.000Z</time>
      </trkpt>
      <trkpt lat="49.41015" lon="1.75437">
        <ele>191.80000305176</ele>
        <time>2020-08-03T13:50:43.000Z</time>
      </trkpt>
      <trkpt lat="49.41015" lon="1.75438">
        <ele>192</ele>
        <time>2020-08-03T13:50:44.000Z</time>
      </trkpt>
      <trkpt lat="49.41015" lon="1.75439">
        <ele>192</ele>
        <time>2020-08-03T13:50:45.000Z</time>
      </trkpt>
      <trkpt lat="49.41015" lon="1.75442">
        <ele>191.60000610352</ele>
        <time>2020-08-03T13:50:51.000Z</time>
      </trkpt>
      <trkpt lat="49.41013" lon="1.75448">
        <ele>191.60000610352</ele>
        <time>2020-08-03T13:50:57.000Z</time>
      </trkpt>
      <trkpt lat="49.41015" lon="1.75456">
        <ele>191.80000305176</ele>
        <time>2020-08-03T13:51:02.000Z</time>
      </trkpt>
      <trkpt lat="49.41014" lon="1.75457">
        <ele>191.60000610352</ele>
        <time>2020-08-03T13:51:03.000Z</time>
      </trkpt>
      <trkpt lat="49.41012" lon="1.75471">
        <ele>191.39999389648</ele>
        <time>2020-08-03T13:51:11.000Z</time>
      </trkpt>
      <trkpt lat="49.41011" lon="1.75473">
        <ele>191.39999389648</ele>
        <time>2020-08-03T13:51:14.000Z</time>
      </trkpt>
      <trkpt lat="49.4101" lon="1.75473">
        <ele>191.19999694824</ele>
        <time>2020-08-03T13:51:17.000Z</time>
      </trkpt>
      <trkpt lat="49.4101" lon="1.75473">
        <ele>191.19999694824</ele>
        <time>2020-08-03T13:51:23.000Z</time>
      </trkpt>
      <trkpt lat="49.4101" lon="1.75473">
        <ele>191.19999694824</ele>
        <time>2020-08-03T13:51:26.000Z</time>
      </trkpt>
      <trkpt lat="49.4101" lon="1.75476">
        <ele>191.39999389648</ele>
        <time>2020-08-03T13:51:33.000Z</time>
      </trkpt>
      <trkpt lat="49.41009" lon="1.75484">
        <ele>191</ele>
        <time>2020-08-03T13:51:40.000Z</time>
      </trkpt>
      <trkpt lat="49.41008" lon="1.75488">
        <ele>191</ele>
        <time>2020-08-03T13:51:48.000Z</time>
      </trkpt>
      <trkpt lat="49.41008" lon="1.75488">
        <ele>190.80000305176</ele>
        <time>2020-08-03T13:51:51.000Z</time>
      </trkpt>
      <trkpt lat="49.41007" lon="1.7549">
        <ele>190.60000610352</ele>
        <time>2020-08-03T13:51:54.000Z</time>
      </trkpt>
      <trkpt lat="49.41007" lon="1.75491">
        <ele>190.60000610352</ele>
        <time>2020-08-03T13:51:57.000Z</time>
      </trkpt>
      <trkpt lat="49.41007" lon="1.75494">
        <ele>190.60000610352</ele>
        <time>2020-08-03T13:52:02.000Z</time>
      </trkpt>
      <trkpt lat="49.41006" lon="1.75503">
        <ele>190.19999694824</ele>
        <time>2020-08-03T13:52:09.000Z</time>
      </trkpt>
      <trkpt lat="49.41004" lon="1.75515">
        <ele>189.80000305176</ele>
        <time>2020-08-03T13:52:16.000Z</time>
      </trkpt>
      <trkpt lat="49.41003" lon="1.7552">
        <ele>189.80000305176</ele>
        <time>2020-08-03T13:52:18.000Z</time>
      </trkpt>
      <trkpt lat="49.41002" lon="1.75522">
        <ele>189.80000305176</ele>
        <time>2020-08-03T13:52:19.000Z</time>
      </trkpt>
      <trkpt lat="49.41003" lon="1.75524">
        <ele>189.80000305176</ele>
        <time>2020-08-03T13:52:20.000Z</time>
      </trkpt>
      <trkpt lat="49.41003" lon="1.75532">
        <ele>189.80000305176</ele>
        <time>2020-08-03T13:52:25.000Z</time>
      </trkpt>
      <trkpt lat="49.40999" lon="1.75544">
        <ele>189.80000305176</ele>
        <time>2020-08-03T13:52:33.000Z</time>
      </trkpt>
      <trkpt lat="49.40998" lon="1.75554">
        <ele>189.60000610352</ele>
        <time>2020-08-03T13:52:40.000Z</time>
      </trkpt>
      <trkpt lat="49.40998" lon="1.75557">
        <ele>189.60000610352</ele>
        <time>2020-08-03T13:52:42.000Z</time>
      </trkpt>
      <trkpt lat="49.40997" lon="1.75558">
        <ele>189.39999389648</ele>
        <time>2020-08-03T13:52:43.000Z</time>
      </trkpt>
      <trkpt lat="49.40997" lon="1.7556">
        <ele>189.39999389648</ele>
        <time>2020-08-03T13:52:44.000Z</time>
      </trkpt>
      <trkpt lat="49.40997" lon="1.75563">
        <ele>189.39999389648</ele>
        <time>2020-08-03T13:52:46.000Z</time>
      </trkpt>
      <trkpt lat="49.40998" lon="1.75565">
        <ele>189.39999389648</ele>
        <time>2020-08-03T13:52:48.000Z</time>
      </trkpt>
      <trkpt lat="49.40995" lon="1.75575">
        <ele>189</ele>
        <time>2020-08-03T13:52:55.000Z</time>
      </trkpt>
      <trkpt lat="49.40994" lon="1.75587">
        <ele>188.80000305176</ele>
        <time>2020-08-03T13:53:02.000Z</time>
      </trkpt>
      <trkpt lat="49.40994" lon="1.7559">
        <ele>188.60000610352</ele>
        <time>2020-08-03T13:53:04.000Z</time>
      </trkpt>
      <trkpt lat="49.40992" lon="1.75597">
        <ele>188.60000610352</ele>
        <time>2020-08-03T13:53:08.000Z</time>
      </trkpt>
      <trkpt lat="49.4099" lon="1.75607">
        <ele>188.39999389648</ele>
        <time>2020-08-03T13:53:14.000Z</time>
      </trkpt>
      <trkpt lat="49.4099" lon="1.75609">
        <ele>188.39999389648</ele>
        <time>2020-08-03T13:53:15.000Z</time>
      </trkpt>
      <trkpt lat="49.40989" lon="1.75611">
        <ele>188.19999694824</ele>
        <time>2020-08-03T13:53:16.000Z</time>
      </trkpt>
      <trkpt lat="49.40987" lon="1.75617">
        <ele>187.60000610352</ele>
        <time>2020-08-03T13:53:20.000Z</time>
      </trkpt>
      <trkpt lat="49.40985" lon="1.75622">
        <ele>187.39999389648</ele>
        <time>2020-08-03T13:53:23.000Z</time>
      </trkpt>
      <trkpt lat="49.40985" lon="1.75624">
        <ele>187.39999389648</ele>
        <time>2020-08-03T13:53:24.000Z</time>
      </trkpt>
      <trkpt lat="49.40985" lon="1.75635">
        <ele>187.19999694824</ele>
        <time>2020-08-03T13:53:30.000Z</time>
      </trkpt>
      <trkpt lat="49.40986" lon="1.75636">
        <ele>187</ele>
        <time>2020-08-03T13:53:32.000Z</time>
      </trkpt>
      <trkpt lat="49.40986" lon="1.75644">
        <ele>186.80000305176</ele>
        <time>2020-08-03T13:53:37.000Z</time>
      </trkpt>
      <trkpt lat="49.40985" lon="1.75645">
        <ele>186.80000305176</ele>
        <time>2020-08-03T13:53:38.000Z</time>
      </trkpt>
      <trkpt lat="49.40985" lon="1.75648">
        <ele>186.80000305176</ele>
        <time>2020-08-03T13:53:40.000Z</time>
      </trkpt>
      <trkpt lat="49.40985" lon="1.75652">
        <ele>186.60000610352</ele>
        <time>2020-08-03T13:53:41.000Z</time>
      </trkpt>
      <trkpt lat="49.40984" lon="1.75655">
        <ele>186.60000610352</ele>
        <time>2020-08-03T13:53:44.000Z</time>
      </trkpt>
      <trkpt lat="49.40984" lon="1.75656">
        <ele>186.60000610352</ele>
        <time>2020-08-03T13:53:45.000Z</time>
      </trkpt>
      <trkpt lat="49.40984" lon="1.75658">
        <ele>186.60000610352</ele>
        <time>2020-08-03T13:53:46.000Z</time>
      </trkpt>
      <trkpt lat="49.40983" lon="1.75663">
        <ele>186.39999389648</ele>
        <time>2020-08-03T13:53:49.000Z</time>
      </trkpt>
      <trkpt lat="49.40983" lon="1.75675">
        <ele>185.80000305176</ele>
        <time>2020-08-03T13:53:57.000Z</time>
      </trkpt>
      <trkpt lat="49.40983" lon="1.75676">
        <ele>185.80000305176</ele>
        <time>2020-08-03T13:53:58.000Z</time>
      </trkpt>
      <trkpt lat="49.40983" lon="1.75676">
        <ele>185.80000305176</ele>
        <time>2020-08-03T13:54:00.000Z</time>
      </trkpt>
      <trkpt lat="49.40983" lon="1.75679">
        <ele>185.60000610352</ele>
        <time>2020-08-03T13:54:03.000Z</time>
      </trkpt>
      <trkpt lat="49.40983" lon="1.7568">
        <ele>185.60000610352</ele>
        <time>2020-08-03T13:54:04.000Z</time>
      </trkpt>
      <trkpt lat="49.40983" lon="1.75691">
        <ele>185.39999389648</ele>
        <time>2020-08-03T13:54:10.000Z</time>
      </trkpt>
      <trkpt lat="49.40984" lon="1.75695">
        <ele>185.39999389648</ele>
        <time>2020-08-03T13:54:12.000Z</time>
      </trkpt>
      <trkpt lat="49.40986" lon="1.75702">
        <ele>185.19999694824</ele>
        <time>2020-08-03T13:54:16.000Z</time>
      </trkpt>
      <trkpt lat="49.40988" lon="1.75716">
        <ele>184.60000610352</ele>
        <time>2020-08-03T13:54:25.000Z</time>
      </trkpt>
      <trkpt lat="49.40988" lon="1.75719">
        <ele>184.60000610352</ele>
        <time>2020-08-03T13:54:27.000Z</time>
      </trkpt>
      <trkpt lat="49.40988" lon="1.75722">
        <ele>184.39999389648</ele>
        <time>2020-08-03T13:54:29.000Z</time>
      </trkpt>
      <trkpt lat="49.40989" lon="1.75726">
        <ele>184.19999694824</ele>
        <time>2020-08-03T13:54:32.000Z</time>
      </trkpt>
      <trkpt lat="49.4099" lon="1.75738">
        <ele>184</ele>
        <time>2020-08-03T13:54:39.000Z</time>
      </trkpt>
      <trkpt lat="49.4099" lon="1.7574">
        <ele>184</ele>
        <time>2020-08-03T13:54:40.000Z</time>
      </trkpt>
      <trkpt lat="49.40993" lon="1.75758">
        <ele>184.39999389648</ele>
        <time>2020-08-03T13:54:49.000Z</time>
      </trkpt>
      <trkpt lat="49.40998" lon="1.75771">
        <ele>184</ele>
        <time>2020-08-03T13:54:57.000Z</time>
      </trkpt>
      <trkpt lat="49.40999" lon="1.75782">
        <ele>183.60000610352</ele>
        <time>2020-08-03T13:55:04.000Z</time>
      </trkpt>
      <trkpt lat="49.40998" lon="1.75786">
        <ele>183.80000305176</ele>
        <time>2020-08-03T13:55:06.000Z</time>
      </trkpt>
      <trkpt lat="49.40998" lon="1.75802">
        <ele>183.60000610352</ele>
        <time>2020-08-03T13:55:16.000Z</time>
      </trkpt>
      <trkpt lat="49.40997" lon="1.75807">
        <ele>183.60000610352</ele>
        <time>2020-08-03T13:55:19.000Z</time>
      </trkpt>
      <trkpt lat="49.40997" lon="1.75813">
        <ele>183.39999389648</ele>
        <time>2020-08-03T13:55:23.000Z</time>
      </trkpt>
      <trkpt lat="49.40997" lon="1.75825">
        <ele>183</ele>
        <time>2020-08-03T13:55:30.000Z</time>
      </trkpt>
      <trkpt lat="49.40998" lon="1.75831">
        <ele>183</ele>
        <time>2020-08-03T13:55:32.000Z</time>
      </trkpt>
      <trkpt lat="49.40997" lon="1.75847">
        <ele>182.60000610352</ele>
        <time>2020-08-03T13:55:42.000Z</time>
      </trkpt>
      <trkpt lat="49.40995" lon="1.75862">
        <ele>182.60000610352</ele>
        <time>2020-08-03T13:55:50.000Z</time>
      </trkpt>
      <trkpt lat="49.40997" lon="1.75872">
        <ele>182.39999389648</ele>
        <time>2020-08-03T13:55:56.000Z</time>
      </trkpt>
      <trkpt lat="49.40997" lon="1.75878">
        <ele>182.39999389648</ele>
        <time>2020-08-03T13:55:59.000Z</time>
      </trkpt>
      <trkpt lat="49.40997" lon="1.75884">
        <ele>182.19999694824</ele>
        <time>2020-08-03T13:56:02.000Z</time>
      </trkpt>
      <trkpt lat="49.40996" lon="1.75895">
        <ele>182.19999694824</ele>
        <time>2020-08-03T13:56:09.000Z</time>
      </trkpt>
      <trkpt lat="49.40995" lon="1.759">
        <ele>182</ele>
        <time>2020-08-03T13:56:12.000Z</time>
      </trkpt>
      <trkpt lat="49.40996" lon="1.75909">
        <ele>182</ele>
        <time>2020-08-03T13:56:17.000Z</time>
      </trkpt>
      <trkpt lat="49.40994" lon="1.75922">
        <ele>181.80000305176</ele>
        <time>2020-08-03T13:56:25.000Z</time>
      </trkpt>
      <trkpt lat="49.40994" lon="1.75938">
        <ele>181.60000610352</ele>
        <time>2020-08-03T13:56:34.000Z</time>
      </trkpt>
      <trkpt lat="49.40996" lon="1.75945">
        <ele>181.80000305176</ele>
        <time>2020-08-03T13:56:39.000Z</time>
      </trkpt>
      <trkpt lat="49.40996" lon="1.75944">
        <ele>181.80000305176</ele>
        <time>2020-08-03T13:56:41.000Z</time>
      </trkpt>
      <trkpt lat="49.40996" lon="1.75944">
        <ele>181.80000305176</ele>
        <time>2020-08-03T13:56:42.000Z</time>
      </trkpt>
      <trkpt lat="49.40995" lon="1.75945">
        <ele>181.80000305176</ele>
        <time>2020-08-03T13:56:47.000Z</time>
      </trkpt>
      <trkpt lat="49.40994" lon="1.75945">
        <ele>181.80000305176</ele>
        <time>2020-08-03T13:56:48.000Z</time>
      </trkpt>
      <trkpt lat="49.40996" lon="1.75946">
        <ele>181.80000305176</ele>
        <time>2020-08-03T13:56:54.000Z</time>
      </trkpt>
      <trkpt lat="49.40995" lon="1.75945">
        <ele>181.60000610352</ele>
        <time>2020-08-03T13:57:00.000Z</time>
      </trkpt>
      <trkpt lat="49.40998" lon="1.75945">
        <ele>181.60000610352</ele>
        <time>2020-08-03T13:57:07.000Z</time>
      </trkpt>
      <trkpt lat="49.41004" lon="1.75942">
        <ele>181.60000610352</ele>
        <time>2020-08-03T13:57:13.000Z</time>
      </trkpt>
      <trkpt lat="49.41006" lon="1.7594">
        <ele>181.60000610352</ele>
        <time>2020-08-03T13:57:15.000Z</time>
      </trkpt>
      <trkpt lat="49.41008" lon="1.75938">
        <ele>181.39999389648</ele>
        <time>2020-08-03T13:57:17.000Z</time>
      </trkpt>
      <trkpt lat="49.4101" lon="1.75937">
        <ele>181.39999389648</ele>
        <time>2020-08-03T13:57:19.000Z</time>
      </trkpt>
      <trkpt lat="49.41011" lon="1.75938">
        <ele>181.39999389648</ele>
        <time>2020-08-03T13:57:20.000Z</time>
      </trkpt>
      <trkpt lat="49.41012" lon="1.75938">
        <ele>181.19999694824</ele>
        <time>2020-08-03T13:57:22.000Z</time>
      </trkpt>
      <trkpt lat="49.41016" lon="1.75935">
        <ele>181.39999389648</ele>
        <time>2020-08-03T13:57:27.000Z</time>
      </trkpt>
      <trkpt lat="49.41026" lon="1.75928">
        <ele>181.60000610352</ele>
        <time>2020-08-03T13:57:36.000Z</time>
      </trkpt>
      <trkpt lat="49.41029" lon="1.75927">
        <ele>181.39999389648</ele>
        <time>2020-08-03T13:57:39.000Z</time>
      </trkpt>
      <trkpt lat="49.4103" lon="1.75927">
        <ele>181.60000610352</ele>
        <time>2020-08-03T13:57:40.000Z</time>
      </trkpt>
      <trkpt lat="49.41034" lon="1.75926">
        <ele>181.60000610352</ele>
        <time>2020-08-03T13:57:44.000Z</time>
      </trkpt>
      <trkpt lat="49.41042" lon="1.75926">
        <ele>182</ele>
        <time>2020-08-03T13:57:51.000Z</time>
      </trkpt>
      <trkpt lat="49.41047" lon="1.75926">
        <ele>182.39999389648</ele>
        <time>2020-08-03T13:57:56.000Z</time>
      </trkpt>
      <trkpt lat="49.41046" lon="1.75926">
        <ele>182.39999389648</ele>
        <time>2020-08-03T13:57:57.000Z</time>
      </trkpt>
      <trkpt lat="49.41048" lon="1.75926">
        <ele>182.39999389648</ele>
        <time>2020-08-03T13:58:00.000Z</time>
      </trkpt>
      <trkpt lat="49.41048" lon="1.75926">
        <ele>182.39999389648</ele>
        <time>2020-08-03T13:58:01.000Z</time>
      </trkpt>
      <trkpt lat="49.41051" lon="1.75927">
        <ele>182.39999389648</ele>
        <time>2020-08-03T13:58:04.000Z</time>
      </trkpt>
      <trkpt lat="49.41055" lon="1.75921">
        <ele>182.60000610352</ele>
        <time>2020-08-03T13:58:08.000Z</time>
      </trkpt>
      <trkpt lat="49.41056" lon="1.75918">
        <ele>182.80000305176</ele>
        <time>2020-08-03T13:58:10.000Z</time>
      </trkpt>
      <trkpt lat="49.41057" lon="1.75916">
        <ele>183</ele>
        <time>2020-08-03T13:58:11.000Z</time>
      </trkpt>
      <trkpt lat="49.41059" lon="1.75912">
        <ele>183.19999694824</ele>
        <time>2020-08-03T13:58:14.000Z</time>
      </trkpt>
      <trkpt lat="49.41061" lon="1.75911">
        <ele>183.60000610352</ele>
        <time>2020-08-03T13:58:17.000Z</time>
      </trkpt>
      <trkpt lat="49.41063" lon="1.75909">
        <ele>183.80000305176</ele>
        <time>2020-08-03T13:58:20.000Z</time>
      </trkpt>
      <trkpt lat="49.41065" lon="1.75909">
        <ele>183.80000305176</ele>
        <time>2020-08-03T13:58:22.000Z</time>
      </trkpt>
      <trkpt lat="49.41066" lon="1.75909">
        <ele>184</ele>
        <time>2020-08-03T13:58:24.000Z</time>
      </trkpt>
      <trkpt lat="49.41068" lon="1.75908">
        <ele>184</ele>
        <time>2020-08-03T13:58:26.000Z</time>
      </trkpt>
      <trkpt lat="49.41069" lon="1.75908">
        <ele>184</ele>
        <time>2020-08-03T13:58:27.000Z</time>
      </trkpt>
      <trkpt lat="49.41071" lon="1.75907">
        <ele>184</ele>
        <time>2020-08-03T13:58:29.000Z</time>
      </trkpt>
      <trkpt lat="49.41074" lon="1.75906">
        <ele>184.19999694824</ele>
        <time>2020-08-03T13:58:32.000Z</time>
      </trkpt>
      <trkpt lat="49.4108" lon="1.75906">
        <ele>184.19999694824</ele>
        <time>2020-08-03T13:58:37.000Z</time>
      </trkpt>
      <trkpt lat="49.41088" lon="1.75907">
        <ele>184.80000305176</ele>
        <time>2020-08-03T13:58:42.000Z</time>
      </trkpt>
      <trkpt lat="49.41091" lon="1.75907">
        <ele>184.80000305176</ele>
        <time>2020-08-03T13:58:44.000Z</time>
      </trkpt>
      <trkpt lat="49.41103" lon="1.75906">
        <ele>184.60000610352</ele>
        <time>2020-08-03T13:58:52.000Z</time>
      </trkpt>
      <trkpt lat="49.41111" lon="1.75909">
        <ele>184.80000305176</ele>
        <time>2020-08-03T13:59:00.000Z</time>
      </trkpt>
      <trkpt lat="49.41112" lon="1.75909">
        <ele>184.60000610352</ele>
        <time>2020-08-03T13:59:01.000Z</time>
      </trkpt>
      <trkpt lat="49.41115" lon="1.7591">
        <ele>184.39999389648</ele>
        <time>2020-08-03T13:59:05.000Z</time>
      </trkpt>
      <trkpt lat="49.41114" lon="1.7591">
        <ele>184.39999389648</ele>
        <time>2020-08-03T13:59:07.000Z</time>
      </trkpt>
      <trkpt lat="49.41112" lon="1.7591">
        <ele>184.80000305176</ele>
        <time>2020-08-03T13:59:12.000Z</time>
      </trkpt>
      <trkpt lat="49.41111" lon="1.7591">
        <ele>184.60000610352</ele>
        <time>2020-08-03T13:59:15.000Z</time>
      </trkpt>
      <trkpt lat="49.4111" lon="1.75908">
        <ele>184.80000305176</ele>
        <time>2020-08-03T13:59:22.000Z</time>
      </trkpt>
      <trkpt lat="49.4111" lon="1.75908">
        <ele>184.80000305176</ele>
        <time>2020-08-03T13:59:24.000Z</time>
      </trkpt>
      <trkpt lat="49.4111" lon="1.75907">
        <ele>184.60000610352</ele>
        <time>2020-08-03T13:59:29.000Z</time>
      </trkpt>
      <trkpt lat="49.41111" lon="1.75907">
        <ele>184.80000305176</ele>
        <time>2020-08-03T13:59:31.000Z</time>
      </trkpt>
      <trkpt lat="49.41111" lon="1.75907">
        <ele>184.60000610352</ele>
        <time>2020-08-03T13:59:33.000Z</time>
      </trkpt>
      <trkpt lat="49.41112" lon="1.75906">
        <ele>184.60000610352</ele>
        <time>2020-08-03T13:59:35.000Z</time>
      </trkpt>
      <trkpt lat="49.41115" lon="1.75906">
        <ele>185.19999694824</ele>
        <time>2020-08-03T13:59:38.000Z</time>
      </trkpt>
      <trkpt lat="49.41116" lon="1.75906">
        <ele>185.39999389648</ele>
        <time>2020-08-03T13:59:39.000Z</time>
      </trkpt>
      <trkpt lat="49.41117" lon="1.75906">
        <ele>185.60000610352</ele>
        <time>2020-08-03T13:59:42.000Z</time>
      </trkpt>
      <trkpt lat="49.41117" lon="1.75906">
        <ele>185.39999389648</ele>
        <time>2020-08-03T13:59:43.000Z</time>
      </trkpt>
      <trkpt lat="49.41117" lon="1.75907">
        <ele>185</ele>
        <time>2020-08-03T13:59:49.000Z</time>
      </trkpt>
      <trkpt lat="49.4112" lon="1.75907">
        <ele>185.19999694824</ele>
        <time>2020-08-03T13:59:53.000Z</time>
      </trkpt>
      <trkpt lat="49.41127" lon="1.75908">
        <ele>185.60000610352</ele>
        <time>2020-08-03T13:59:59.000Z</time>
      </trkpt>
      <trkpt lat="49.41129" lon="1.75907">
        <ele>185.80000305176</ele>
        <time>2020-08-03T14:00:00.000Z</time>
      </trkpt>
      <trkpt lat="49.41136" lon="1.75906">
        <ele>186.60000610352</ele>
        <time>2020-08-03T14:00:05.000Z</time>
      </trkpt>
      <trkpt lat="49.41138" lon="1.75906">
        <ele>186.60000610352</ele>
        <time>2020-08-03T14:00:06.000Z</time>
      </trkpt>
      <trkpt lat="49.41142" lon="1.75904">
        <ele>186.80000305176</ele>
        <time>2020-08-03T14:00:10.000Z</time>
      </trkpt>
      <trkpt lat="49.41146" lon="1.75902">
        <ele>187</ele>
        <time>2020-08-03T14:00:13.000Z</time>
      </trkpt>
      <trkpt lat="49.41153" lon="1.75901">
        <ele>187.80000305176</ele>
        <time>2020-08-03T14:00:20.000Z</time>
      </trkpt>
      <trkpt lat="49.41154" lon="1.75901">
        <ele>188</ele>
        <time>2020-08-03T14:00:21.000Z</time>
      </trkpt>
      <trkpt lat="49.41157" lon="1.759">
        <ele>188.39999389648</ele>
        <time>2020-08-03T14:00:25.000Z</time>
      </trkpt>
      <trkpt lat="49.41158" lon="1.759">
        <ele>188.39999389648</ele>
        <time>2020-08-03T14:00:27.000Z</time>
      </trkpt>
      <trkpt lat="49.41159" lon="1.759">
        <ele>188.39999389648</ele>
        <time>2020-08-03T14:00:28.000Z</time>
      </trkpt>
      <trkpt lat="49.41168" lon="1.75898">
        <ele>189.19999694824</ele>
        <time>2020-08-03T14:00:36.000Z</time>
      </trkpt>
      <trkpt lat="49.4117" lon="1.75897">
        <ele>189.60000610352</ele>
        <time>2020-08-03T14:00:38.000Z</time>
      </trkpt>
      <trkpt lat="49.41173" lon="1.75897">
        <ele>190.19999694824</ele>
        <time>2020-08-03T14:00:40.000Z</time>
      </trkpt>
      <trkpt lat="49.41178" lon="1.75896">
        <ele>190.60000610352</ele>
        <time>2020-08-03T14:00:45.000Z</time>
      </trkpt>
      <trkpt lat="49.41187" lon="1.75896">
        <ele>190.39999389648</ele>
        <time>2020-08-03T14:00:53.000Z</time>
      </trkpt>
      <trkpt lat="49.41189" lon="1.75897">
        <ele>190.60000610352</ele>
        <time>2020-08-03T14:00:56.000Z</time>
      </trkpt>
      <trkpt lat="49.41189" lon="1.75897">
        <ele>190.60000610352</ele>
        <time>2020-08-03T14:00:57.000Z</time>
      </trkpt>
      <trkpt lat="49.41188" lon="1.75897">
        <ele>190.39999389648</ele>
        <time>2020-08-03T14:00:58.000Z</time>
      </trkpt>
      <trkpt lat="49.41188" lon="1.75897">
        <ele>190.39999389648</ele>
        <time>2020-08-03T14:00:59.000Z</time>
      </trkpt>
      <trkpt lat="49.41195" lon="1.75896">
        <ele>190.39999389648</ele>
        <time>2020-08-03T14:01:05.000Z</time>
      </trkpt>
      <trkpt lat="49.41196" lon="1.75896">
        <ele>190.39999389648</ele>
        <time>2020-08-03T14:01:06.000Z</time>
      </trkpt>
      <trkpt lat="49.41196" lon="1.75896">
        <ele>190.39999389648</ele>
        <time>2020-08-03T14:01:07.000Z</time>
      </trkpt>
      <trkpt lat="49.41199" lon="1.75896">
        <ele>191.19999694824</ele>
        <time>2020-08-03T14:01:11.000Z</time>
      </trkpt>
      <trkpt lat="49.412" lon="1.75896">
        <ele>191.19999694824</ele>
        <time>2020-08-03T14:01:12.000Z</time>
      </trkpt>
      <trkpt lat="49.41201" lon="1.75896">
        <ele>191.19999694824</ele>
        <time>2020-08-03T14:01:13.000Z</time>
      </trkpt>
      <trkpt lat="49.41207" lon="1.75896">
        <ele>191.39999389648</ele>
        <time>2020-08-03T14:01:20.000Z</time>
      </trkpt>
      <trkpt lat="49.41209" lon="1.75897">
        <ele>191.60000610352</ele>
        <time>2020-08-03T14:01:22.000Z</time>
      </trkpt>
      <trkpt lat="49.41214" lon="1.75897">
        <ele>191.80000305176</ele>
        <time>2020-08-03T14:01:26.000Z</time>
      </trkpt>
      <trkpt lat="49.41216" lon="1.75897">
        <ele>192</ele>
        <time>2020-08-03T14:01:29.000Z</time>
      </trkpt>
      <trkpt lat="49.41218" lon="1.75897">
        <ele>192.39999389648</ele>
        <time>2020-08-03T14:01:30.000Z</time>
      </trkpt>
      <trkpt lat="49.41225" lon="1.75896">
        <ele>193.39999389648</ele>
        <time>2020-08-03T14:01:37.000Z</time>
      </trkpt>
      <trkpt lat="49.41226" lon="1.75896">
        <ele>193.39999389648</ele>
        <time>2020-08-03T14:01:38.000Z</time>
      </trkpt>
      <trkpt lat="49.41227" lon="1.75896">
        <ele>193.39999389648</ele>
        <time>2020-08-03T14:01:39.000Z</time>
      </trkpt>
      <trkpt lat="49.41236" lon="1.75897">
        <ele>193</ele>
        <time>2020-08-03T14:01:48.000Z</time>
      </trkpt>
      <trkpt lat="49.41243" lon="1.75896">
        <ele>193.19999694824</ele>
        <time>2020-08-03T14:01:54.000Z</time>
      </trkpt>
      <trkpt lat="49.41251" lon="1.75896">
        <ele>193.60000610352</ele>
        <time>2020-08-03T14:02:00.000Z</time>
      </trkpt>
      <trkpt lat="49.41256" lon="1.75895">
        <ele>193.80000305176</ele>
        <time>2020-08-03T14:02:04.000Z</time>
      </trkpt>
      <trkpt lat="49.41258" lon="1.75895">
        <ele>193.80000305176</ele>
        <time>2020-08-03T14:02:06.000Z</time>
      </trkpt>
      <trkpt lat="49.41261" lon="1.75896">
        <ele>193.39999389648</ele>
        <time>2020-08-03T14:02:09.000Z</time>
      </trkpt>
      <trkpt lat="49.41267" lon="1.759">
        <ele>194</ele>
        <time>2020-08-03T14:02:15.000Z</time>
      </trkpt>
      <trkpt lat="49.41268" lon="1.759">
        <ele>194</ele>
        <time>2020-08-03T14:02:16.000Z</time>
      </trkpt>
      <trkpt lat="49.41269" lon="1.75902">
        <ele>194.39999389648</ele>
        <time>2020-08-03T14:02:19.000Z</time>
      </trkpt>
      <trkpt lat="49.4127" lon="1.75902">
        <ele>194.39999389648</ele>
        <time>2020-08-03T14:02:20.000Z</time>
      </trkpt>
      <trkpt lat="49.41272" lon="1.75903">
        <ele>194.80000305176</ele>
        <time>2020-08-03T14:02:22.000Z</time>
      </trkpt>
      <trkpt lat="49.41279" lon="1.75905">
        <ele>194.39999389648</ele>
        <time>2020-08-03T14:02:28.000Z</time>
      </trkpt>
      <trkpt lat="49.41281" lon="1.75905">
        <ele>194.39999389648</ele>
        <time>2020-08-03T14:02:30.000Z</time>
      </trkpt>
      <trkpt lat="49.41282" lon="1.75906">
        <ele>194.80000305176</ele>
        <time>2020-08-03T14:02:32.000Z</time>
      </trkpt>
      <trkpt lat="49.41283" lon="1.75907">
        <ele>195.39999389648</ele>
        <time>2020-08-03T14:02:34.000Z</time>
      </trkpt>
      <trkpt lat="49.41284" lon="1.75907">
        <ele>195.60000610352</ele>
        <time>2020-08-03T14:02:35.000Z</time>
      </trkpt>
      <trkpt lat="49.41291" lon="1.7591">
        <ele>194.80000305176</ele>
        <time>2020-08-03T14:02:42.000Z</time>
      </trkpt>
      <trkpt lat="49.41294" lon="1.75911">
        <ele>194.19999694824</ele>
        <time>2020-08-03T14:02:45.000Z</time>
      </trkpt>
      <trkpt lat="49.41295" lon="1.75911">
        <ele>194</ele>
        <time>2020-08-03T14:02:46.000Z</time>
      </trkpt>
      <trkpt lat="49.41301" lon="1.75913">
        <ele>194</ele>
        <time>2020-08-03T14:02:52.000Z</time>
      </trkpt>
      <trkpt lat="49.41303" lon="1.75915">
        <ele>194</ele>
        <time>2020-08-03T14:02:54.000Z</time>
      </trkpt>
      <trkpt lat="49.4131" lon="1.75918">
        <ele>194.80000305176</ele>
        <time>2020-08-03T14:03:00.000Z</time>
      </trkpt>
      <trkpt lat="49.41318" lon="1.75921">
        <ele>194.80000305176</ele>
        <time>2020-08-03T14:03:07.000Z</time>
      </trkpt>
      <trkpt lat="49.41319" lon="1.75922">
        <ele>194.80000305176</ele>
        <time>2020-08-03T14:03:08.000Z</time>
      </trkpt>
      <trkpt lat="49.41322" lon="1.75923">
        <ele>195.39999389648</ele>
        <time>2020-08-03T14:03:12.000Z</time>
      </trkpt>
      <trkpt lat="49.41322" lon="1.75924">
        <ele>195.80000305176</ele>
        <time>2020-08-03T14:03:13.000Z</time>
      </trkpt>
      <trkpt lat="49.41322" lon="1.75924">
        <ele>195.80000305176</ele>
        <time>2020-08-03T14:03:14.000Z</time>
      </trkpt>
      <trkpt lat="49.41323" lon="1.75925">
        <ele>195.80000305176</ele>
        <time>2020-08-03T14:03:17.000Z</time>
      </trkpt>
      <trkpt lat="49.41326" lon="1.75926">
        <ele>195.80000305176</ele>
        <time>2020-08-03T14:03:20.000Z</time>
      </trkpt>
      <trkpt lat="49.41334" lon="1.7593">
        <ele>195.39999389648</ele>
        <time>2020-08-03T14:03:27.000Z</time>
      </trkpt>
      <trkpt lat="49.4134" lon="1.75933">
        <ele>196</ele>
        <time>2020-08-03T14:03:34.000Z</time>
      </trkpt>
      <trkpt lat="49.41343" lon="1.75935">
        <ele>196.60000610352</ele>
        <time>2020-08-03T14:03:37.000Z</time>
      </trkpt>
      <trkpt lat="49.41348" lon="1.75937">
        <ele>195.19999694824</ele>
        <time>2020-08-03T14:03:42.000Z</time>
      </trkpt>
      <trkpt lat="49.41349" lon="1.75937">
        <ele>194.80000305176</ele>
        <time>2020-08-03T14:03:43.000Z</time>
      </trkpt>
      <trkpt lat="49.41355" lon="1.7594">
        <ele>194.60000610352</ele>
        <time>2020-08-03T14:03:49.000Z</time>
      </trkpt>
      <trkpt lat="49.41365" lon="1.75945">
        <ele>195.19999694824</ele>
        <time>2020-08-03T14:03:57.000Z</time>
      </trkpt>
      <trkpt lat="49.41369" lon="1.75948">
        <ele>195</ele>
        <time>2020-08-03T14:04:01.000Z</time>
      </trkpt>
      <trkpt lat="49.4137" lon="1.75948">
        <ele>195</ele>
        <time>2020-08-03T14:04:02.000Z</time>
      </trkpt>
      <trkpt lat="49.41373" lon="1.7595">
        <ele>195</ele>
        <time>2020-08-03T14:04:05.000Z</time>
      </trkpt>
      <trkpt lat="49.41379" lon="1.75952">
        <ele>194</ele>
        <time>2020-08-03T14:04:10.000Z</time>
      </trkpt>
      <trkpt lat="49.41383" lon="1.75953">
        <ele>194</ele>
        <time>2020-08-03T14:04:13.000Z</time>
      </trkpt>
      <trkpt lat="49.41386" lon="1.75955">
        <ele>195.39999389648</ele>
        <time>2020-08-03T14:04:17.000Z</time>
      </trkpt>
      <trkpt lat="49.41388" lon="1.75956">
        <ele>195.60000610352</ele>
        <time>2020-08-03T14:04:19.000Z</time>
      </trkpt>
      <trkpt lat="49.41389" lon="1.75956">
        <ele>195.60000610352</ele>
        <time>2020-08-03T14:04:20.000Z</time>
      </trkpt>
      <trkpt lat="49.4139" lon="1.75957">
        <ele>195.39999389648</ele>
        <time>2020-08-03T14:04:22.000Z</time>
      </trkpt>
      <trkpt lat="49.41394" lon="1.75959">
        <ele>195</ele>
        <time>2020-08-03T14:04:26.000Z</time>
      </trkpt>
      <trkpt lat="49.41396" lon="1.75959">
        <ele>194.80000305176</ele>
        <time>2020-08-03T14:04:28.000Z</time>
      </trkpt>
      <trkpt lat="49.41402" lon="1.75961">
        <ele>195.60000610352</ele>
        <time>2020-08-03T14:04:33.000Z</time>
      </trkpt>
      <trkpt lat="49.41404" lon="1.75962">
        <ele>195.80000305176</ele>
        <time>2020-08-03T14:04:35.000Z</time>
      </trkpt>
      <trkpt lat="49.41411" lon="1.75968">
        <ele>195.19999694824</ele>
        <time>2020-08-03T14:04:42.000Z</time>
      </trkpt>
      <trkpt lat="49.41412" lon="1.75968">
        <ele>195.19999694824</ele>
        <time>2020-08-03T14:04:43.000Z</time>
      </trkpt>
      <trkpt lat="49.41419" lon="1.75976">
        <ele>195</ele>
        <time>2020-08-03T14:04:52.000Z</time>
      </trkpt>
      <trkpt lat="49.41423" lon="1.75979">
        <ele>194.80000305176</ele>
        <time>2020-08-03T14:04:56.000Z</time>
      </trkpt>
      <trkpt lat="49.41426" lon="1.75982">
        <ele>194.80000305176</ele>
        <time>2020-08-03T14:04:59.000Z</time>
      </trkpt>
      <trkpt lat="49.41433" lon="1.7599">
        <ele>195.80000305176</ele>
        <time>2020-08-03T14:05:07.000Z</time>
      </trkpt>
      <trkpt lat="49.41434" lon="1.75992">
        <ele>195.80000305176</ele>
        <time>2020-08-03T14:05:09.000Z</time>
      </trkpt>
      <trkpt lat="49.41441" lon="1.76001">
        <ele>194.60000610352</ele>
        <time>2020-08-03T14:05:17.000Z</time>
      </trkpt>
      <trkpt lat="49.41446" lon="1.76008">
        <ele>194.39999389648</ele>
        <time>2020-08-03T14:05:23.000Z</time>
      </trkpt>
      <trkpt lat="49.41447" lon="1.76009">
        <ele>194.39999389648</ele>
        <time>2020-08-03T14:05:24.000Z</time>
      </trkpt>
      <trkpt lat="49.41447" lon="1.76009">
        <ele>194.19999694824</ele>
        <time>2020-08-03T14:05:25.000Z</time>
      </trkpt>
      <trkpt lat="49.41452" lon="1.76014">
        <ele>194</ele>
        <time>2020-08-03T14:05:31.000Z</time>
      </trkpt>
      <trkpt lat="49.41452" lon="1.76015">
        <ele>193.80000305176</ele>
        <time>2020-08-03T14:05:32.000Z</time>
      </trkpt>
      <trkpt lat="49.41453" lon="1.76016">
        <ele>193.80000305176</ele>
        <time>2020-08-03T14:05:33.000Z</time>
      </trkpt>
      <trkpt lat="49.41452" lon="1.76017">
        <ele>193.80000305176</ele>
        <time>2020-08-03T14:05:38.000Z</time>
      </trkpt>
      <trkpt lat="49.41452" lon="1.76017">
        <ele>193.80000305176</ele>
        <time>2020-08-03T14:05:40.000Z</time>
      </trkpt>
      <trkpt lat="49.41452" lon="1.76017">
        <ele>193.80000305176</ele>
        <time>2020-08-03T14:05:42.000Z</time>
      </trkpt>
      <trkpt lat="49.41452" lon="1.76017">
        <ele>194</ele>
        <time>2020-08-03T14:05:43.000Z</time>
      </trkpt>
      <trkpt lat="49.41452" lon="1.76017">
        <ele>194</ele>
        <time>2020-08-03T14:05:44.000Z</time>
      </trkpt>
      <trkpt lat="49.41451" lon="1.76017">
        <ele>194.19999694824</ele>
        <time>2020-08-03T14:05:48.000Z</time>
      </trkpt>
      <trkpt lat="49.41452" lon="1.76017">
        <ele>193.60000610352</ele>
        <time>2020-08-03T14:05:55.000Z</time>
      </trkpt>
      <trkpt lat="49.41452" lon="1.76017">
        <ele>193.60000610352</ele>
        <time>2020-08-03T14:06:03.000Z</time>
      </trkpt>
      <trkpt lat="49.41451" lon="1.76018">
        <ele>193.60000610352</ele>
        <time>2020-08-03T14:06:06.000Z</time>
      </trkpt>
      <trkpt lat="49.41451" lon="1.76018">
        <ele>193.60000610352</ele>
        <time>2020-08-03T14:06:08.000Z</time>
      </trkpt>
      <trkpt lat="49.41451" lon="1.76017">
        <ele>193.60000610352</ele>
        <time>2020-08-03T14:06:10.000Z</time>
      </trkpt>
      <trkpt lat="49.41451" lon="1.76016">
        <ele>193.60000610352</ele>
        <time>2020-08-03T14:06:11.000Z</time>
      </trkpt>
      <trkpt lat="49.41451" lon="1.76013">
        <ele>193.19999694824</ele>
        <time>2020-08-03T14:06:19.000Z</time>
      </trkpt>
      <trkpt lat="49.41456" lon="1.76017">
        <ele>193.19999694824</ele>
        <time>2020-08-03T14:06:24.000Z</time>
      </trkpt>
      <trkpt lat="49.41456" lon="1.76019">
        <ele>193.19999694824</ele>
        <time>2020-08-03T14:06:25.000Z</time>
      </trkpt>
      <trkpt lat="49.41462" lon="1.76027">
        <ele>192.80000305176</ele>
        <time>2020-08-03T14:06:33.000Z</time>
      </trkpt>
      <trkpt lat="49.41466" lon="1.76031">
        <ele>192.60000610352</ele>
        <time>2020-08-03T14:06:37.000Z</time>
      </trkpt>
      <trkpt lat="49.41469" lon="1.76036">
        <ele>192</ele>
        <time>2020-08-03T14:06:40.000Z</time>
      </trkpt>
      <trkpt lat="49.4147" lon="1.76037">
        <ele>192</ele>
        <time>2020-08-03T14:06:41.000Z</time>
      </trkpt>
      <trkpt lat="49.41478" lon="1.76045">
        <ele>191.80000305176</ele>
        <time>2020-08-03T14:06:49.000Z</time>
      </trkpt>
      <trkpt lat="49.4148" lon="1.76047">
        <ele>191.80000305176</ele>
        <time>2020-08-03T14:06:51.000Z</time>
      </trkpt>
      <trkpt lat="49.41485" lon="1.76051">
        <ele>191.80000305176</ele>
        <time>2020-08-03T14:06:55.000Z</time>
      </trkpt>
      <trkpt lat="49.41486" lon="1.76052">
        <ele>191.60000610352</ele>
        <time>2020-08-03T14:06:56.000Z</time>
      </trkpt>
      <trkpt lat="49.4149" lon="1.76054">
        <ele>191</ele>
        <time>2020-08-03T14:07:00.000Z</time>
      </trkpt>
      <trkpt lat="49.41491" lon="1.76054">
        <ele>190.80000305176</ele>
        <time>2020-08-03T14:07:01.000Z</time>
      </trkpt>
      <trkpt lat="49.41493" lon="1.76056">
        <ele>190.60000610352</ele>
        <time>2020-08-03T14:07:03.000Z</time>
      </trkpt>
      <trkpt lat="49.41499" lon="1.7606">
        <ele>190.39999389648</ele>
        <time>2020-08-03T14:07:09.000Z</time>
      </trkpt>
      <trkpt lat="49.41502" lon="1.76063">
        <ele>190</ele>
        <time>2020-08-03T14:07:13.000Z</time>
      </trkpt>
      <trkpt lat="49.41504" lon="1.76065">
        <ele>189.39999389648</ele>
        <time>2020-08-03T14:07:15.000Z</time>
      </trkpt>
      <trkpt lat="49.41506" lon="1.76068">
        <ele>189.39999389648</ele>
        <time>2020-08-03T14:07:17.000Z</time>
      </trkpt>
      <trkpt lat="49.41509" lon="1.76071">
        <ele>189.39999389648</ele>
        <time>2020-08-03T14:07:20.000Z</time>
      </trkpt>
      <trkpt lat="49.41517" lon="1.76073">
        <ele>188.80000305176</ele>
        <time>2020-08-03T14:07:24.000Z</time>
      </trkpt>
      <trkpt lat="49.41521" lon="1.76074">
        <ele>187.80000305176</ele>
        <time>2020-08-03T14:07:30.000Z</time>
      </trkpt>
      <trkpt lat="49.41522" lon="1.76075">
        <ele>187.60000610352</ele>
        <time>2020-08-03T14:07:31.000Z</time>
      </trkpt>
      <trkpt lat="49.41525" lon="1.76076">
        <ele>186.60000610352</ele>
        <time>2020-08-03T14:07:35.000Z</time>
      </trkpt>
      <trkpt lat="49.41527" lon="1.76078">
        <ele>186.19999694824</ele>
        <time>2020-08-03T14:07:38.000Z</time>
      </trkpt>
      <trkpt lat="49.41532" lon="1.76079">
        <ele>185.60000610352</ele>
        <time>2020-08-03T14:07:42.000Z</time>
      </trkpt>
      <trkpt lat="49.41533" lon="1.76079">
        <ele>185.39999389648</ele>
        <time>2020-08-03T14:07:43.000Z</time>
      </trkpt>
      <trkpt lat="49.41536" lon="1.7608">
        <ele>185</ele>
        <time>2020-08-03T14:07:46.000Z</time>
      </trkpt>
      <trkpt lat="49.41545" lon="1.76079">
        <ele>184.19999694824</ele>
        <time>2020-08-03T14:07:53.000Z</time>
      </trkpt>
      <trkpt lat="49.41549" lon="1.7608">
        <ele>183.60000610352</ele>
        <time>2020-08-03T14:07:57.000Z</time>
      </trkpt>
      <trkpt lat="49.41554" lon="1.76081">
        <ele>183.19999694824</ele>
        <time>2020-08-03T14:08:01.000Z</time>
      </trkpt>
      <trkpt lat="49.41556" lon="1.76081">
        <ele>183.19999694824</ele>
        <time>2020-08-03T14:08:03.000Z</time>
      </trkpt>
      <trkpt lat="49.41558" lon="1.7608">
        <ele>183.60000610352</ele>
        <time>2020-08-03T14:08:05.000Z</time>
      </trkpt>
      <trkpt lat="49.41561" lon="1.7608">
        <ele>183.39999389648</ele>
        <time>2020-08-03T14:08:08.000Z</time>
      </trkpt>
      <trkpt lat="49.41565" lon="1.76081">
        <ele>183</ele>
        <time>2020-08-03T14:08:14.000Z</time>
      </trkpt>
      <trkpt lat="49.41567" lon="1.76081">
        <ele>183</ele>
        <time>2020-08-03T14:08:16.000Z</time>
      </trkpt>
      <trkpt lat="49.41567" lon="1.76081">
        <ele>183</ele>
        <time>2020-08-03T14:08:17.000Z</time>
      </trkpt>
      <trkpt lat="49.41574" lon="1.76081">
        <ele>182.39999389648</ele>
        <time>2020-08-03T14:08:23.000Z</time>
      </trkpt>
      <trkpt lat="49.41579" lon="1.76083">
        <ele>182.39999389648</ele>
        <time>2020-08-03T14:08:29.000Z</time>
      </trkpt>
      <trkpt lat="49.41589" lon="1.76085">
        <ele>182.60000610352</ele>
        <time>2020-08-03T14:08:37.000Z</time>
      </trkpt>
      <trkpt lat="49.41598" lon="1.76088">
        <ele>182.80000305176</ele>
        <time>2020-08-03T14:08:45.000Z</time>
      </trkpt>
      <trkpt lat="49.416" lon="1.76089">
        <ele>182.60000610352</ele>
        <time>2020-08-03T14:08:47.000Z</time>
      </trkpt>
      <trkpt lat="49.41604" lon="1.76092">
        <ele>182.39999389648</ele>
        <time>2020-08-03T14:08:51.000Z</time>
      </trkpt>
      <trkpt lat="49.41605" lon="1.76092">
        <ele>182.39999389648</ele>
        <time>2020-08-03T14:08:52.000Z</time>
      </trkpt>
      <trkpt lat="49.41608" lon="1.76094">
        <ele>182.39999389648</ele>
        <time>2020-08-03T14:08:55.000Z</time>
      </trkpt>
      <trkpt lat="49.41613" lon="1.76096">
        <ele>182.60000610352</ele>
        <time>2020-08-03T14:08:59.000Z</time>
      </trkpt>
      <trkpt lat="49.41614" lon="1.76097">
        <ele>182.60000610352</ele>
        <time>2020-08-03T14:09:00.000Z</time>
      </trkpt>
      <trkpt lat="49.41618" lon="1.76099">
        <ele>183</ele>
        <time>2020-08-03T14:09:04.000Z</time>
      </trkpt>
      <trkpt lat="49.41622" lon="1.76102">
        <ele>183.39999389648</ele>
        <time>2020-08-03T14:09:09.000Z</time>
      </trkpt>
      <trkpt lat="49.41629" lon="1.76106">
        <ele>183.39999389648</ele>
        <time>2020-08-03T14:09:15.000Z</time>
      </trkpt>
      <trkpt lat="49.41631" lon="1.76108">
        <ele>183.39999389648</ele>
        <time>2020-08-03T14:09:17.000Z</time>
      </trkpt>
      <trkpt lat="49.41632" lon="1.76109">
        <ele>183.39999389648</ele>
        <time>2020-08-03T14:09:18.000Z</time>
      </trkpt>
      <trkpt lat="49.41639" lon="1.76114">
        <ele>184.39999389648</ele>
        <time>2020-08-03T14:09:26.000Z</time>
      </trkpt>
      <trkpt lat="49.41642" lon="1.76116">
        <ele>184.80000305176</ele>
        <time>2020-08-03T14:09:31.000Z</time>
      </trkpt>
      <trkpt lat="49.41645" lon="1.76119">
        <ele>185.39999389648</ele>
        <time>2020-08-03T14:09:34.000Z</time>
      </trkpt>
      <trkpt lat="49.41645" lon="1.76119">
        <ele>185.39999389648</ele>
        <time>2020-08-03T14:09:35.000Z</time>
      </trkpt>
      <trkpt lat="49.41647" lon="1.76121">
        <ele>185.60000610352</ele>
        <time>2020-08-03T14:09:37.000Z</time>
      </trkpt>
      <trkpt lat="49.41652" lon="1.76122">
        <ele>186.19999694824</ele>
        <time>2020-08-03T14:09:41.000Z</time>
      </trkpt>
      <trkpt lat="49.41662" lon="1.76129">
        <ele>186.39999389648</ele>
        <time>2020-08-03T14:09:51.000Z</time>
      </trkpt>
      <trkpt lat="49.41663" lon="1.7613">
        <ele>186.60000610352</ele>
        <time>2020-08-03T14:09:52.000Z</time>
      </trkpt>
      <trkpt lat="49.41667" lon="1.7613">
        <ele>187.39999389648</ele>
        <time>2020-08-03T14:09:57.000Z</time>
      </trkpt>
      <trkpt lat="49.41667" lon="1.76129">
        <ele>187.80000305176</ele>
        <time>2020-08-03T14:10:00.000Z</time>
      </trkpt>
      <trkpt lat="49.41667" lon="1.76128">
        <ele>188.19999694824</ele>
        <time>2020-08-03T14:10:03.000Z</time>
      </trkpt>
      <trkpt lat="49.41668" lon="1.76123">
        <ele>188.19999694824</ele>
        <time>2020-08-03T14:10:11.000Z</time>
      </trkpt>
      <trkpt lat="49.41669" lon="1.76119">
        <ele>188.60000610352</ele>
        <time>2020-08-03T14:10:13.000Z</time>
      </trkpt>
      <trkpt lat="49.41669" lon="1.76118">
        <ele>188.80000305176</ele>
        <time>2020-08-03T14:10:14.000Z</time>
      </trkpt>
      <trkpt lat="49.4167" lon="1.76115">
        <ele>188.80000305176</ele>
        <time>2020-08-03T14:10:16.000Z</time>
      </trkpt>
      <trkpt lat="49.41671" lon="1.76112">
        <ele>188.80000305176</ele>
        <time>2020-08-03T14:10:18.000Z</time>
      </trkpt>
      <trkpt lat="49.41676" lon="1.761">
        <ele>189</ele>
        <time>2020-08-03T14:10:26.000Z</time>
      </trkpt>
      <trkpt lat="49.41679" lon="1.76097">
        <ele>188.80000305176</ele>
        <time>2020-08-03T14:10:31.000Z</time>
      </trkpt>
      <trkpt lat="49.41678" lon="1.76096">
        <ele>188.80000305176</ele>
        <time>2020-08-03T14:10:33.000Z</time>
      </trkpt>
      <trkpt lat="49.41679" lon="1.76094">
        <ele>189</ele>
        <time>2020-08-03T14:10:35.000Z</time>
      </trkpt>
      <trkpt lat="49.41681" lon="1.76087">
        <ele>189</ele>
        <time>2020-08-03T14:10:39.000Z</time>
      </trkpt>
      <trkpt lat="49.41684" lon="1.76073">
        <ele>189.19999694824</ele>
        <time>2020-08-03T14:10:48.000Z</time>
      </trkpt>
      <trkpt lat="49.41684" lon="1.76072">
        <ele>189</ele>
        <time>2020-08-03T14:10:49.000Z</time>
      </trkpt>
      <trkpt lat="49.41685" lon="1.76072">
        <ele>189</ele>
        <time>2020-08-03T14:10:50.000Z</time>
      </trkpt>
      <trkpt lat="49.41685" lon="1.76071">
        <ele>188.60000610352</ele>
        <time>2020-08-03T14:10:52.000Z</time>
      </trkpt>
      <trkpt lat="49.41685" lon="1.76071">
        <ele>188.60000610352</ele>
        <time>2020-08-03T14:10:53.000Z</time>
      </trkpt>
      <trkpt lat="49.41685" lon="1.76071">
        <ele>188.60000610352</ele>
        <time>2020-08-03T14:10:56.000Z</time>
      </trkpt>
      <trkpt lat="49.41686" lon="1.76071">
        <ele>188.80000305176</ele>
        <time>2020-08-03T14:10:58.000Z</time>
      </trkpt>
      <trkpt lat="49.41688" lon="1.76069">
        <ele>188.80000305176</ele>
        <time>2020-08-03T14:11:00.000Z</time>
      </trkpt>
      <trkpt lat="49.41688" lon="1.76068">
        <ele>188.80000305176</ele>
        <time>2020-08-03T14:11:01.000Z</time>
      </trkpt>
      <trkpt lat="49.41689" lon="1.76066">
        <ele>189</ele>
        <time>2020-08-03T14:11:03.000Z</time>
      </trkpt>
      <trkpt lat="49.4169" lon="1.76063">
        <ele>189.19999694824</ele>
        <time>2020-08-03T14:11:05.000Z</time>
      </trkpt>
      <trkpt lat="49.41691" lon="1.76057">
        <ele>189.60000610352</ele>
        <time>2020-08-03T14:11:09.000Z</time>
      </trkpt>
      <trkpt lat="49.41692" lon="1.76054">
        <ele>189.60000610352</ele>
        <time>2020-08-03T14:11:13.000Z</time>
      </trkpt>
      <trkpt lat="49.41692" lon="1.76054">
        <ele>189.60000610352</ele>
        <time>2020-08-03T14:11:15.000Z</time>
      </trkpt>
      <trkpt lat="49.41692" lon="1.76054">
        <ele>189.39999389648</ele>
        <time>2020-08-03T14:11:17.000Z</time>
      </trkpt>
      <trkpt lat="49.41692" lon="1.76053">
        <ele>189.39999389648</ele>
        <time>2020-08-03T14:11:19.000Z</time>
      </trkpt>
      <trkpt lat="49.41692" lon="1.76051">
        <ele>189.39999389648</ele>
        <time>2020-08-03T14:11:22.000Z</time>
      </trkpt>
      <trkpt lat="49.41695" lon="1.76043">
        <ele>189.80000305176</ele>
        <time>2020-08-03T14:11:26.000Z</time>
      </trkpt>
      <trkpt lat="49.41696" lon="1.7604">
        <ele>189.80000305176</ele>
        <time>2020-08-03T14:11:29.000Z</time>
      </trkpt>
      <trkpt lat="49.41696" lon="1.76039">
        <ele>189.80000305176</ele>
        <time>2020-08-03T14:11:30.000Z</time>
      </trkpt>
      <trkpt lat="49.41701" lon="1.76025">
        <ele>190.39999389648</ele>
        <time>2020-08-03T14:11:39.000Z</time>
      </trkpt>
      <trkpt lat="49.41702" lon="1.7602">
        <ele>190.39999389648</ele>
        <time>2020-08-03T14:11:42.000Z</time>
      </trkpt>
      <trkpt lat="49.41704" lon="1.76013">
        <ele>190.39999389648</ele>
        <time>2020-08-03T14:11:46.000Z</time>
      </trkpt>
      <trkpt lat="49.41705" lon="1.76009">
        <ele>190.60000610352</ele>
        <time>2020-08-03T14:11:49.000Z</time>
      </trkpt>
      <trkpt lat="49.41706" lon="1.76">
        <ele>190.60000610352</ele>
        <time>2020-08-03T14:11:54.000Z</time>
      </trkpt>
      <trkpt lat="49.41709" lon="1.75985">
        <ele>190.80000305176</ele>
        <time>2020-08-03T14:12:03.000Z</time>
      </trkpt>
      <trkpt lat="49.4171" lon="1.75984">
        <ele>190.80000305176</ele>
        <time>2020-08-03T14:12:04.000Z</time>
      </trkpt>
      <trkpt lat="49.41713" lon="1.75965">
        <ele>191.19999694824</ele>
        <time>2020-08-03T14:12:15.000Z</time>
      </trkpt>
      <trkpt lat="49.41714" lon="1.7596">
        <ele>191</ele>
        <time>2020-08-03T14:12:18.000Z</time>
      </trkpt>
      <trkpt lat="49.41714" lon="1.75959">
        <ele>191</ele>
        <time>2020-08-03T14:12:19.000Z</time>
      </trkpt>
      <trkpt lat="49.41715" lon="1.75956">
        <ele>191.19999694824</ele>
        <time>2020-08-03T14:12:21.000Z</time>
      </trkpt>
      <trkpt lat="49.41716" lon="1.75949">
        <ele>191.60000610352</ele>
        <time>2020-08-03T14:12:26.000Z</time>
      </trkpt>
      <trkpt lat="49.41716" lon="1.75945">
        <ele>191.80000305176</ele>
        <time>2020-08-03T14:12:28.000Z</time>
      </trkpt>
      <trkpt lat="49.41716" lon="1.75943">
        <ele>191.80000305176</ele>
        <time>2020-08-03T14:12:29.000Z</time>
      </trkpt>
      <trkpt lat="49.4172" lon="1.75933">
        <ele>192.19999694824</ele>
        <time>2020-08-03T14:12:35.000Z</time>
      </trkpt>
      <trkpt lat="49.4172" lon="1.75918">
        <ele>192.60000610352</ele>
        <time>2020-08-03T14:12:43.000Z</time>
      </trkpt>
      <trkpt lat="49.41724" lon="1.75905">
        <ele>193</ele>
        <time>2020-08-03T14:12:52.000Z</time>
      </trkpt>
      <trkpt lat="49.41724" lon="1.75893">
        <ele>193.19999694824</ele>
        <time>2020-08-03T14:12:58.000Z</time>
      </trkpt>
      <trkpt lat="49.41724" lon="1.75891">
        <ele>193.19999694824</ele>
        <time>2020-08-03T14:12:59.000Z</time>
      </trkpt>
      <trkpt lat="49.41724" lon="1.75883">
        <ele>193.19999694824</ele>
        <time>2020-08-03T14:13:04.000Z</time>
      </trkpt>
      <trkpt lat="49.41724" lon="1.75882">
        <ele>193</ele>
        <time>2020-08-03T14:13:06.000Z</time>
      </trkpt>
      <trkpt lat="49.41724" lon="1.75879">
        <ele>192.80000305176</ele>
        <time>2020-08-03T14:13:08.000Z</time>
      </trkpt>
      <trkpt lat="49.41724" lon="1.75877">
        <ele>192.60000610352</ele>
        <time>2020-08-03T14:13:11.000Z</time>
      </trkpt>
      <trkpt lat="49.41723" lon="1.75872">
        <ele>192.80000305176</ele>
        <time>2020-08-03T14:13:14.000Z</time>
      </trkpt>
      <trkpt lat="49.41723" lon="1.75871">
        <ele>192.80000305176</ele>
        <time>2020-08-03T14:13:15.000Z</time>
      </trkpt>
      <trkpt lat="49.41722" lon="1.75869">
        <ele>193.19999694824</ele>
        <time>2020-08-03T14:13:17.000Z</time>
      </trkpt>
      <trkpt lat="49.41719" lon="1.75863">
        <ele>193.60000610352</ele>
        <time>2020-08-03T14:13:20.000Z</time>
      </trkpt>
      <trkpt lat="49.41717" lon="1.75858">
        <ele>193.80000305176</ele>
        <time>2020-08-03T14:13:23.000Z</time>
      </trkpt>
      <trkpt lat="49.41716" lon="1.75855">
        <ele>194</ele>
        <time>2020-08-03T14:13:25.000Z</time>
      </trkpt>
      <trkpt lat="49.41714" lon="1.75852">
        <ele>194</ele>
        <time>2020-08-03T14:13:27.000Z</time>
      </trkpt>
      <trkpt lat="49.41714" lon="1.75851">
        <ele>193.80000305176</ele>
        <time>2020-08-03T14:13:28.000Z</time>
      </trkpt>
      <trkpt lat="49.4171" lon="1.75844">
        <ele>194.19999694824</ele>
        <time>2020-08-03T14:13:35.000Z</time>
      </trkpt>
      <trkpt lat="49.41704" lon="1.75834">
        <ele>194.80000305176</ele>
        <time>2020-08-03T14:13:43.000Z</time>
      </trkpt>
      <trkpt lat="49.41697" lon="1.75826">
        <ele>195</ele>
        <time>2020-08-03T14:13:49.000Z</time>
      </trkpt>
      <trkpt lat="49.41691" lon="1.75816">
        <ele>195.80000305176</ele>
        <time>2020-08-03T14:13:56.000Z</time>
      </trkpt>
      <trkpt lat="49.41688" lon="1.75809">
        <ele>196</ele>
        <time>2020-08-03T14:14:00.000Z</time>
      </trkpt>
      <trkpt lat="49.41685" lon="1.75805">
        <ele>196</ele>
        <time>2020-08-03T14:14:03.000Z</time>
      </trkpt>
      <trkpt lat="49.41679" lon="1.75797">
        <ele>196</ele>
        <time>2020-08-03T14:14:09.000Z</time>
      </trkpt>
      <trkpt lat="49.41674" lon="1.75787">
        <ele>195.60000610352</ele>
        <time>2020-08-03T14:14:16.000Z</time>
      </trkpt>
      <trkpt lat="49.41673" lon="1.75784">
        <ele>195.60000610352</ele>
        <time>2020-08-03T14:14:18.000Z</time>
      </trkpt>
      <trkpt lat="49.4167" lon="1.75777">
        <ele>195.80000305176</ele>
        <time>2020-08-03T14:14:23.000Z</time>
      </trkpt>
      <trkpt lat="49.41666" lon="1.75764">
        <ele>195.80000305176</ele>
        <time>2020-08-03T14:14:32.000Z</time>
      </trkpt>
      <trkpt lat="49.41663" lon="1.75754">
        <ele>195.60000610352</ele>
        <time>2020-08-03T14:14:38.000Z</time>
      </trkpt>
      <trkpt lat="49.41658" lon="1.75742">
        <ele>195.80000305176</ele>
        <time>2020-08-03T14:14:45.000Z</time>
      </trkpt>
      <trkpt lat="49.41658" lon="1.75741">
        <ele>195.80000305176</ele>
        <time>2020-08-03T14:14:46.000Z</time>
      </trkpt>
      <trkpt lat="49.41653" lon="1.75726">
        <ele>196.60000610352</ele>
        <time>2020-08-03T14:14:54.000Z</time>
      </trkpt>
      <trkpt lat="49.41651" lon="1.7572">
        <ele>196.39999389648</ele>
        <time>2020-08-03T14:14:58.000Z</time>
      </trkpt>
      <trkpt lat="49.4165" lon="1.75715">
        <ele>196.39999389648</ele>
        <time>2020-08-03T14:15:01.000Z</time>
      </trkpt>
      <trkpt lat="49.41649" lon="1.75705">
        <ele>196.80000305176</ele>
        <time>2020-08-03T14:15:07.000Z</time>
      </trkpt>
      <trkpt lat="49.41649" lon="1.75703">
        <ele>197</ele>
        <time>2020-08-03T14:15:08.000Z</time>
      </trkpt>
      <trkpt lat="49.41648" lon="1.75697">
        <ele>197.19999694824</ele>
        <time>2020-08-03T14:15:12.000Z</time>
      </trkpt>
      <trkpt lat="49.41647" lon="1.75695">
        <ele>197.19999694824</ele>
        <time>2020-08-03T14:15:13.000Z</time>
      </trkpt>
      <trkpt lat="49.41647" lon="1.75688">
        <ele>197.19999694824</ele>
        <time>2020-08-03T14:15:17.000Z</time>
      </trkpt>
      <trkpt lat="49.41647" lon="1.75684">
        <ele>197.19999694824</ele>
        <time>2020-08-03T14:15:19.000Z</time>
      </trkpt>
      <trkpt lat="49.41646" lon="1.7568">
        <ele>197.39999389648</ele>
        <time>2020-08-03T14:15:21.000Z</time>
      </trkpt>
      <trkpt lat="49.41646" lon="1.75679">
        <ele>197.39999389648</ele>
        <time>2020-08-03T14:15:22.000Z</time>
      </trkpt>
      <trkpt lat="49.41645" lon="1.75677">
        <ele>197.39999389648</ele>
        <time>2020-08-03T14:15:23.000Z</time>
      </trkpt>
      <trkpt lat="49.41647" lon="1.75673">
        <ele>197.60000610352</ele>
        <time>2020-08-03T14:15:26.000Z</time>
      </trkpt>
      <trkpt lat="49.41647" lon="1.75668">
        <ele>197.80000305176</ele>
        <time>2020-08-03T14:15:29.000Z</time>
      </trkpt>
      <trkpt lat="49.41646" lon="1.75665">
        <ele>198</ele>
        <time>2020-08-03T14:15:32.000Z</time>
      </trkpt>
      <trkpt lat="49.41646" lon="1.75665">
        <ele>198</ele>
        <time>2020-08-03T14:15:34.000Z</time>
      </trkpt>
      <trkpt lat="49.41646" lon="1.75665">
        <ele>198</ele>
        <time>2020-08-03T14:15:39.000Z</time>
      </trkpt>
      <trkpt lat="49.41647" lon="1.75664">
        <ele>198</ele>
        <time>2020-08-03T14:15:41.000Z</time>
      </trkpt>
      <trkpt lat="49.41647" lon="1.75664">
        <ele>198</ele>
        <time>2020-08-03T14:15:42.000Z</time>
      </trkpt>
      <trkpt lat="49.41648" lon="1.75663">
        <ele>198.19999694824</ele>
        <time>2020-08-03T14:15:43.000Z</time>
      </trkpt>
      <trkpt lat="49.41648" lon="1.7566">
        <ele>198.19999694824</ele>
        <time>2020-08-03T14:15:44.000Z</time>
      </trkpt>
      <trkpt lat="49.41648" lon="1.75655">
        <ele>198.39999389648</ele>
        <time>2020-08-03T14:15:48.000Z</time>
      </trkpt>
      <trkpt lat="49.41648" lon="1.75654">
        <ele>198.39999389648</ele>
        <time>2020-08-03T14:15:49.000Z</time>
      </trkpt>
      <trkpt lat="49.41649" lon="1.75651">
        <ele>198.39999389648</ele>
        <time>2020-08-03T14:15:52.000Z</time>
      </trkpt>
      <trkpt lat="49.41649" lon="1.75651">
        <ele>198.19999694824</ele>
        <time>2020-08-03T14:15:54.000Z</time>
      </trkpt>
      <trkpt lat="49.41646" lon="1.7565">
        <ele>197.60000610352</ele>
        <time>2020-08-03T14:16:01.000Z</time>
      </trkpt>
      <trkpt lat="49.41644" lon="1.75643">
        <ele>198.39999389648</ele>
        <time>2020-08-03T14:16:07.000Z</time>
      </trkpt>
      <trkpt lat="49.41645" lon="1.7563">
        <ele>198.19999694824</ele>
        <time>2020-08-03T14:16:14.000Z</time>
      </trkpt>
      <trkpt lat="49.41643" lon="1.75616">
        <ele>198.80000305176</ele>
        <time>2020-08-03T14:16:22.000Z</time>
      </trkpt>
      <trkpt lat="49.41643" lon="1.75614">
        <ele>198.80000305176</ele>
        <time>2020-08-03T14:16:23.000Z</time>
      </trkpt>
      <trkpt lat="49.41643" lon="1.75611">
        <ele>199</ele>
        <time>2020-08-03T14:16:25.000Z</time>
      </trkpt>
      <trkpt lat="49.41644" lon="1.756">
        <ele>199</ele>
        <time>2020-08-03T14:16:31.000Z</time>
      </trkpt>
      <trkpt lat="49.41644" lon="1.75587">
        <ele>199</ele>
        <time>2020-08-03T14:16:39.000Z</time>
      </trkpt>
      <trkpt lat="49.41644" lon="1.75583">
        <ele>199.19999694824</ele>
        <time>2020-08-03T14:16:42.000Z</time>
      </trkpt>
      <trkpt lat="49.41644" lon="1.75573">
        <ele>199.60000610352</ele>
        <time>2020-08-03T14:16:48.000Z</time>
      </trkpt>
      <trkpt lat="49.41643" lon="1.75571">
        <ele>199.60000610352</ele>
        <time>2020-08-03T14:16:49.000Z</time>
      </trkpt>
      <trkpt lat="49.41642" lon="1.75563">
        <ele>199.60000610352</ele>
        <time>2020-08-03T14:16:53.000Z</time>
      </trkpt>
      <trkpt lat="49.41642" lon="1.75556">
        <ele>199.60000610352</ele>
        <time>2020-08-03T14:16:57.000Z</time>
      </trkpt>
      <trkpt lat="49.41643" lon="1.75554">
        <ele>199.60000610352</ele>
        <time>2020-08-03T14:16:58.000Z</time>
      </trkpt>
      <trkpt lat="49.41643" lon="1.75552">
        <ele>199.80000305176</ele>
        <time>2020-08-03T14:17:01.000Z</time>
      </trkpt>
      <trkpt lat="49.41643" lon="1.75552">
        <ele>199.80000305176</ele>
        <time>2020-08-03T14:17:03.000Z</time>
      </trkpt>
      <trkpt lat="49.41643" lon="1.75552">
        <ele>200</ele>
        <time>2020-08-03T14:17:04.000Z</time>
      </trkpt>
      <trkpt lat="49.41644" lon="1.75551">
        <ele>200</ele>
        <time>2020-08-03T14:17:06.000Z</time>
      </trkpt>
      <trkpt lat="49.41643" lon="1.75548">
        <ele>200</ele>
        <time>2020-08-03T14:17:08.000Z</time>
      </trkpt>
      <trkpt lat="49.41644" lon="1.75546">
        <ele>200</ele>
        <time>2020-08-03T14:17:09.000Z</time>
      </trkpt>
      <trkpt lat="49.41644" lon="1.75541">
        <ele>200.19999694824</ele>
        <time>2020-08-03T14:17:12.000Z</time>
      </trkpt>
      <trkpt lat="49.41643" lon="1.75535">
        <ele>200.39999389648</ele>
        <time>2020-08-03T14:17:15.000Z</time>
      </trkpt>
      <trkpt lat="49.41642" lon="1.75533">
        <ele>200.39999389648</ele>
        <time>2020-08-03T14:17:16.000Z</time>
      </trkpt>
      <trkpt lat="49.41642" lon="1.75528">
        <ele>200.39999389648</ele>
        <time>2020-08-03T14:17:18.000Z</time>
      </trkpt>
      <trkpt lat="49.41641" lon="1.75522">
        <ele>200.39999389648</ele>
        <time>2020-08-03T14:17:22.000Z</time>
      </trkpt>
      <trkpt lat="49.4164" lon="1.75506">
        <ele>201.19999694824</ele>
        <time>2020-08-03T14:17:31.000Z</time>
      </trkpt>
      <trkpt lat="49.4164" lon="1.75504">
        <ele>201.39999389648</ele>
        <time>2020-08-03T14:17:32.000Z</time>
      </trkpt>
      <trkpt lat="49.4164" lon="1.75499">
        <ele>201.60000610352</ele>
        <time>2020-08-03T14:17:35.000Z</time>
      </trkpt>
      <trkpt lat="49.41641" lon="1.75497">
        <ele>201.60000610352</ele>
        <time>2020-08-03T14:17:37.000Z</time>
      </trkpt>
      <trkpt lat="49.41641" lon="1.75495">
        <ele>201.60000610352</ele>
        <time>2020-08-03T14:17:38.000Z</time>
      </trkpt>
      <trkpt lat="49.41643" lon="1.75484">
        <ele>201.39999389648</ele>
        <time>2020-08-03T14:17:44.000Z</time>
      </trkpt>
      <trkpt lat="49.41638" lon="1.75466">
        <ele>201.60000610352</ele>
        <time>2020-08-03T14:17:52.000Z</time>
      </trkpt>
      <trkpt lat="49.41637" lon="1.75465">
        <ele>201.60000610352</ele>
        <time>2020-08-03T14:17:53.000Z</time>
      </trkpt>
      <trkpt lat="49.41638" lon="1.75458">
        <ele>201.39999389648</ele>
        <time>2020-08-03T14:17:58.000Z</time>
      </trkpt>
      <trkpt lat="49.41637" lon="1.75455">
        <ele>201.19999694824</ele>
        <time>2020-08-03T14:18:00.000Z</time>
      </trkpt>
      <trkpt lat="49.41637" lon="1.75453">
        <ele>201.19999694824</ele>
        <time>2020-08-03T14:18:01.000Z</time>
      </trkpt>
      <trkpt lat="49.41638" lon="1.75444">
        <ele>201.60000610352</ele>
        <time>2020-08-03T14:18:07.000Z</time>
      </trkpt>
      <trkpt lat="49.41641" lon="1.75432">
        <ele>201.60000610352</ele>
        <time>2020-08-03T14:18:15.000Z</time>
      </trkpt>
      <trkpt lat="49.41642" lon="1.75417">
        <ele>202</ele>
        <time>2020-08-03T14:18:23.000Z</time>
      </trkpt>
      <trkpt lat="49.41642" lon="1.75401">
        <ele>202</ele>
        <time>2020-08-03T14:18:32.000Z</time>
      </trkpt>
      <trkpt lat="49.41642" lon="1.75399">
        <ele>202</ele>
        <time>2020-08-03T14:18:33.000Z</time>
      </trkpt>
      <trkpt lat="49.41641" lon="1.75393">
        <ele>202</ele>
        <time>2020-08-03T14:18:36.000Z</time>
      </trkpt>
      <trkpt lat="49.41642" lon="1.75392">
        <ele>202</ele>
        <time>2020-08-03T14:18:37.000Z</time>
      </trkpt>
      <trkpt lat="49.41642" lon="1.75392">
        <ele>202</ele>
        <time>2020-08-03T14:18:38.000Z</time>
      </trkpt>
      <trkpt lat="49.41644" lon="1.75394">
        <ele>201.80000305176</ele>
        <time>2020-08-03T14:18:47.000Z</time>
      </trkpt>
      <trkpt lat="49.41644" lon="1.75395">
        <ele>201.60000610352</ele>
        <time>2020-08-03T14:18:50.000Z</time>
      </trkpt>
      <trkpt lat="49.41644" lon="1.75394">
        <ele>201.80000305176</ele>
        <time>2020-08-03T14:18:55.000Z</time>
      </trkpt>
      <trkpt lat="49.41644" lon="1.75394">
        <ele>202</ele>
        <time>2020-08-03T14:18:58.000Z</time>
      </trkpt>
      <trkpt lat="49.41644" lon="1.75394">
        <ele>201.80000305176</ele>
        <time>2020-08-03T14:19:02.000Z</time>
      </trkpt>
      <trkpt lat="49.41645" lon="1.75395">
        <ele>201.60000610352</ele>
        <time>2020-08-03T14:19:04.000Z</time>
      </trkpt>
      <trkpt lat="49.41645" lon="1.75395">
        <ele>201.39999389648</ele>
        <time>2020-08-03T14:19:07.000Z</time>
      </trkpt>
      <trkpt lat="49.41646" lon="1.75395">
        <ele>201.60000610352</ele>
        <time>2020-08-03T14:19:13.000Z</time>
      </trkpt>
      <trkpt lat="49.41646" lon="1.75387">
        <ele>202.39999389648</ele>
        <time>2020-08-03T14:19:20.000Z</time>
      </trkpt>
      <trkpt lat="49.41646" lon="1.75383">
        <ele>202.39999389648</ele>
        <time>2020-08-03T14:19:22.000Z</time>
      </trkpt>
      <trkpt lat="49.41646" lon="1.75377">
        <ele>202.39999389648</ele>
        <time>2020-08-03T14:19:26.000Z</time>
      </trkpt>
      <trkpt lat="49.41646" lon="1.75367">
        <ele>202.19999694824</ele>
        <time>2020-08-03T14:19:33.000Z</time>
      </trkpt>
      <trkpt lat="49.41646" lon="1.75363">
        <ele>202.19999694824</ele>
        <time>2020-08-03T14:19:35.000Z</time>
      </trkpt>
      <trkpt lat="49.41646" lon="1.75353">
        <ele>202.39999389648</ele>
        <time>2020-08-03T14:19:40.000Z</time>
      </trkpt>
      <trkpt lat="49.41647" lon="1.75351">
        <ele>202.39999389648</ele>
        <time>2020-08-03T14:19:41.000Z</time>
      </trkpt>
      <trkpt lat="49.41648" lon="1.75344">
        <ele>202.39999389648</ele>
        <time>2020-08-03T14:19:45.000Z</time>
      </trkpt>
      <trkpt lat="49.4165" lon="1.75335">
        <ele>202.60000610352</ele>
        <time>2020-08-03T14:19:50.000Z</time>
      </trkpt>
      <trkpt lat="49.41651" lon="1.75329">
        <ele>202.60000610352</ele>
        <time>2020-08-03T14:19:53.000Z</time>
      </trkpt>
      <trkpt lat="49.41653" lon="1.75325">
        <ele>202.60000610352</ele>
        <time>2020-08-03T14:19:55.000Z</time>
      </trkpt>
      <trkpt lat="49.41653" lon="1.75324">
        <ele>202.80000305176</ele>
        <time>2020-08-03T14:19:56.000Z</time>
      </trkpt>
      <trkpt lat="49.41653" lon="1.75324">
        <ele>202.80000305176</ele>
        <time>2020-08-03T14:19:57.000Z</time>
      </trkpt>
      <trkpt lat="49.41654" lon="1.7532">
        <ele>203</ele>
        <time>2020-08-03T14:19:59.000Z</time>
      </trkpt>
      <trkpt lat="49.41654" lon="1.75316">
        <ele>203.19999694824</ele>
        <time>2020-08-03T14:20:02.000Z</time>
      </trkpt>
      <trkpt lat="49.41654" lon="1.75308">
        <ele>203</ele>
        <time>2020-08-03T14:20:07.000Z</time>
      </trkpt>
      <trkpt lat="49.41656" lon="1.75305">
        <ele>203.19999694824</ele>
        <time>2020-08-03T14:20:09.000Z</time>
      </trkpt>
      <trkpt lat="49.41657" lon="1.75294">
        <ele>203.39999389648</ele>
        <time>2020-08-03T14:20:15.000Z</time>
      </trkpt>
      <trkpt lat="49.41657" lon="1.75292">
        <ele>203.60000610352</ele>
        <time>2020-08-03T14:20:16.000Z</time>
      </trkpt>
      <trkpt lat="49.41656" lon="1.75278">
        <ele>204</ele>
        <time>2020-08-03T14:20:22.000Z</time>
      </trkpt>
      <trkpt lat="49.41656" lon="1.75274">
        <ele>204</ele>
        <time>2020-08-03T14:20:24.000Z</time>
      </trkpt>
      <trkpt lat="49.41658" lon="1.75266">
        <ele>203.80000305176</ele>
        <time>2020-08-03T14:20:28.000Z</time>
      </trkpt>
      <trkpt lat="49.4166" lon="1.75254">
        <ele>204.60000610352</ele>
        <time>2020-08-03T14:20:35.000Z</time>
      </trkpt>
      <trkpt lat="49.41659" lon="1.75252">
        <ele>204.60000610352</ele>
        <time>2020-08-03T14:20:36.000Z</time>
      </trkpt>
      <trkpt lat="49.41661" lon="1.75242">
        <ele>205.19999694824</ele>
        <time>2020-08-03T14:20:42.000Z</time>
      </trkpt>
      <trkpt lat="49.41661" lon="1.7524">
        <ele>205</ele>
        <time>2020-08-03T14:20:43.000Z</time>
      </trkpt>
      <trkpt lat="49.41664" lon="1.75229">
        <ele>204.60000610352</ele>
        <time>2020-08-03T14:20:48.000Z</time>
      </trkpt>
      <trkpt lat="49.41663" lon="1.75226">
        <ele>204.60000610352</ele>
        <time>2020-08-03T14:20:50.000Z</time>
      </trkpt>
      <trkpt lat="49.41664" lon="1.75218">
        <ele>205.80000305176</ele>
        <time>2020-08-03T14:20:54.000Z</time>
      </trkpt>
      <trkpt lat="49.41666" lon="1.75213">
        <ele>206.19999694824</ele>
        <time>2020-08-03T14:20:57.000Z</time>
      </trkpt>
      <trkpt lat="49.41666" lon="1.752">
        <ele>206.19999694824</ele>
        <time>2020-08-03T14:21:02.000Z</time>
      </trkpt>
      <trkpt lat="49.41667" lon="1.75198">
        <ele>206.19999694824</ele>
        <time>2020-08-03T14:21:03.000Z</time>
      </trkpt>
      <trkpt lat="49.41667" lon="1.75195">
        <ele>206.39999389648</ele>
        <time>2020-08-03T14:21:05.000Z</time>
      </trkpt>
      <trkpt lat="49.41666" lon="1.75182">
        <ele>206</ele>
        <time>2020-08-03T14:21:10.000Z</time>
      </trkpt>
      <trkpt lat="49.41665" lon="1.7517">
        <ele>206.39999389648</ele>
        <time>2020-08-03T14:21:16.000Z</time>
      </trkpt>
      <trkpt lat="49.41665" lon="1.75168">
        <ele>206.39999389648</ele>
        <time>2020-08-03T14:21:18.000Z</time>
      </trkpt>
      <trkpt lat="49.41666" lon="1.75159">
        <ele>206.39999389648</ele>
        <time>2020-08-03T14:21:24.000Z</time>
      </trkpt>
      <trkpt lat="49.41666" lon="1.75157">
        <ele>206.39999389648</ele>
        <time>2020-08-03T14:21:25.000Z</time>
      </trkpt>
      <trkpt lat="49.41666" lon="1.75155">
        <ele>206.39999389648</ele>
        <time>2020-08-03T14:21:26.000Z</time>
      </trkpt>
      <trkpt lat="49.41667" lon="1.75148">
        <ele>205.39999389648</ele>
        <time>2020-08-03T14:21:29.000Z</time>
      </trkpt>
      <trkpt lat="49.41669" lon="1.75144">
        <ele>204.80000305176</ele>
        <time>2020-08-03T14:21:31.000Z</time>
      </trkpt>
      <trkpt lat="49.41669" lon="1.75141">
        <ele>204.39999389648</ele>
        <time>2020-08-03T14:21:33.000Z</time>
      </trkpt>
      <trkpt lat="49.4167" lon="1.75134">
        <ele>204.60000610352</ele>
        <time>2020-08-03T14:21:37.000Z</time>
      </trkpt>
      <trkpt lat="49.41671" lon="1.75131">
        <ele>204.39999389648</ele>
        <time>2020-08-03T14:21:39.000Z</time>
      </trkpt>
      <trkpt lat="49.41672" lon="1.75129">
        <ele>204.60000610352</ele>
        <time>2020-08-03T14:21:40.000Z</time>
      </trkpt>
      <trkpt lat="49.41674" lon="1.75122">
        <ele>204.80000305176</ele>
        <time>2020-08-03T14:21:44.000Z</time>
      </trkpt>
      <trkpt lat="49.41674" lon="1.75118">
        <ele>205</ele>
        <time>2020-08-03T14:21:46.000Z</time>
      </trkpt>
      <trkpt lat="49.41677" lon="1.7511">
        <ele>204.80000305176</ele>
        <time>2020-08-03T14:21:52.000Z</time>
      </trkpt>
      <trkpt lat="49.41677" lon="1.7511">
        <ele>204.80000305176</ele>
        <time>2020-08-03T14:21:53.000Z</time>
      </trkpt>
      <trkpt lat="49.41678" lon="1.7511">
        <ele>204.80000305176</ele>
        <time>2020-08-03T14:21:54.000Z</time>
      </trkpt>
      <trkpt lat="49.41679" lon="1.75106">
        <ele>205</ele>
        <time>2020-08-03T14:21:58.000Z</time>
      </trkpt>
      <trkpt lat="49.41679" lon="1.75102">
        <ele>205</ele>
        <time>2020-08-03T14:22:00.000Z</time>
      </trkpt>
      <trkpt lat="49.4168" lon="1.751">
        <ele>205</ele>
        <time>2020-08-03T14:22:02.000Z</time>
      </trkpt>
      <trkpt lat="49.41682" lon="1.75091">
        <ele>205.80000305176</ele>
        <time>2020-08-03T14:22:08.000Z</time>
      </trkpt>
      <trkpt lat="49.41684" lon="1.75085">
        <ele>206</ele>
        <time>2020-08-03T14:22:11.000Z</time>
      </trkpt>
      <trkpt lat="49.41688" lon="1.75081">
        <ele>206</ele>
        <time>2020-08-03T14:22:15.000Z</time>
      </trkpt>
      <trkpt lat="49.41691" lon="1.75077">
        <ele>206</ele>
        <time>2020-08-03T14:22:18.000Z</time>
      </trkpt>
      <trkpt lat="49.41695" lon="1.75074">
        <ele>204.60000610352</ele>
        <time>2020-08-03T14:22:22.000Z</time>
      </trkpt>
      <trkpt lat="49.41697" lon="1.75073">
        <ele>204.60000610352</ele>
        <time>2020-08-03T14:22:24.000Z</time>
      </trkpt>
      <trkpt lat="49.41699" lon="1.75071">
        <ele>205.19999694824</ele>
        <time>2020-08-03T14:22:26.000Z</time>
      </trkpt>
      <trkpt lat="49.417" lon="1.75071">
        <ele>205.60000610352</ele>
        <time>2020-08-03T14:22:27.000Z</time>
      </trkpt>
      <trkpt lat="49.41702" lon="1.75069">
        <ele>205.80000305176</ele>
        <time>2020-08-03T14:22:29.000Z</time>
      </trkpt>
      <trkpt lat="49.41705" lon="1.75069">
        <ele>205</ele>
        <time>2020-08-03T14:22:32.000Z</time>
      </trkpt>
      <trkpt lat="49.41705" lon="1.75069">
        <ele>204.80000305176</ele>
        <time>2020-08-03T14:22:33.000Z</time>
      </trkpt>
      <trkpt lat="49.41706" lon="1.75069">
        <ele>204.80000305176</ele>
        <time>2020-08-03T14:22:35.000Z</time>
      </trkpt>
      <trkpt lat="49.41705" lon="1.7507">
        <ele>205</ele>
        <time>2020-08-03T14:22:37.000Z</time>
      </trkpt>
      <trkpt lat="49.41705" lon="1.7507">
        <ele>205.39999389648</ele>
        <time>2020-08-03T14:22:39.000Z</time>
      </trkpt>
      <trkpt lat="49.41706" lon="1.7507">
        <ele>205.39999389648</ele>
        <time>2020-08-03T14:22:44.000Z</time>
      </trkpt>
      <trkpt lat="49.41706" lon="1.7507">
        <ele>205</ele>
        <time>2020-08-03T14:22:47.000Z</time>
      </trkpt>
      <trkpt lat="49.41712" lon="1.75068">
        <ele>205.60000610352</ele>
        <time>2020-08-03T14:22:52.000Z</time>
      </trkpt>
      <trkpt lat="49.41714" lon="1.75066">
        <ele>205.60000610352</ele>
        <time>2020-08-03T14:22:54.000Z</time>
      </trkpt>
      <trkpt lat="49.41718" lon="1.75062">
        <ele>205</ele>
        <time>2020-08-03T14:22:58.000Z</time>
      </trkpt>
      <trkpt lat="49.41722" lon="1.75059">
        <ele>205</ele>
        <time>2020-08-03T14:23:02.000Z</time>
      </trkpt>
      <trkpt lat="49.41731" lon="1.75055">
        <ele>206.39999389648</ele>
        <time>2020-08-03T14:23:09.000Z</time>
      </trkpt>
      <trkpt lat="49.41734" lon="1.75053">
        <ele>206</ele>
        <time>2020-08-03T14:23:12.000Z</time>
      </trkpt>
      <trkpt lat="49.41744" lon="1.75051">
        <ele>206</ele>
        <time>2020-08-03T14:23:20.000Z</time>
      </trkpt>
      <trkpt lat="49.41746" lon="1.7505">
        <ele>206</ele>
        <time>2020-08-03T14:23:21.000Z</time>
      </trkpt>
      <trkpt lat="49.41755" lon="1.7505">
        <ele>206.39999389648</ele>
        <time>2020-08-03T14:23:28.000Z</time>
      </trkpt>
      <trkpt lat="49.41757" lon="1.75049">
        <ele>206.19999694824</ele>
        <time>2020-08-03T14:23:30.000Z</time>
      </trkpt>
      <trkpt lat="49.41762" lon="1.75049">
        <ele>205.60000610352</ele>
        <time>2020-08-03T14:23:36.000Z</time>
      </trkpt>
      <trkpt lat="49.41769" lon="1.7505">
        <ele>206.39999389648</ele>
        <time>2020-08-03T14:23:43.000Z</time>
      </trkpt>
      <trkpt lat="49.4178" lon="1.75052">
        <ele>206</ele>
        <time>2020-08-03T14:23:52.000Z</time>
      </trkpt>
      <trkpt lat="49.41782" lon="1.75053">
        <ele>206</ele>
        <time>2020-08-03T14:23:54.000Z</time>
      </trkpt>
      <trkpt lat="49.4179" lon="1.75054">
        <ele>206.80000305176</ele>
        <time>2020-08-03T14:24:02.000Z</time>
      </trkpt>
      <trkpt lat="49.418" lon="1.75057">
        <ele>206.19999694824</ele>
        <time>2020-08-03T14:24:09.000Z</time>
      </trkpt>
      <trkpt lat="49.41809" lon="1.7506">
        <ele>207.19999694824</ele>
        <time>2020-08-03T14:24:19.000Z</time>
      </trkpt>
      <trkpt lat="49.41815" lon="1.7506">
        <ele>207.39999389648</ele>
        <time>2020-08-03T14:24:24.000Z</time>
      </trkpt>
      <trkpt lat="49.41816" lon="1.75061">
        <ele>207.60000610352</ele>
        <time>2020-08-03T14:24:25.000Z</time>
      </trkpt>
      <trkpt lat="49.41818" lon="1.75061">
        <ele>207.80000305176</ele>
        <time>2020-08-03T14:24:27.000Z</time>
      </trkpt>
      <trkpt lat="49.41821" lon="1.75062">
        <ele>207.60000610352</ele>
        <time>2020-08-03T14:24:29.000Z</time>
      </trkpt>
      <trkpt lat="49.41829" lon="1.75065">
        <ele>207.60000610352</ele>
        <time>2020-08-03T14:24:36.000Z</time>
      </trkpt>
      <trkpt lat="49.41831" lon="1.75065">
        <ele>207</ele>
        <time>2020-08-03T14:24:39.000Z</time>
      </trkpt>
      <trkpt lat="49.41833" lon="1.75065">
        <ele>206.80000305176</ele>
        <time>2020-08-03T14:24:40.000Z</time>
      </trkpt>
      <trkpt lat="49.41834" lon="1.75066">
        <ele>206.19999694824</ele>
        <time>2020-08-03T14:24:43.000Z</time>
      </trkpt>
      <trkpt lat="49.41835" lon="1.75066">
        <ele>206.19999694824</ele>
        <time>2020-08-03T14:24:44.000Z</time>
      </trkpt>
      <trkpt lat="49.41835" lon="1.75064">
        <ele>206.39999389648</ele>
        <time>2020-08-03T14:24:51.000Z</time>
      </trkpt>
      <trkpt lat="49.41837" lon="1.75064">
        <ele>206.60000610352</ele>
        <time>2020-08-03T14:24:58.000Z</time>
      </trkpt>
      <trkpt lat="49.41839" lon="1.75065">
        <ele>206.60000610352</ele>
        <time>2020-08-03T14:25:00.000Z</time>
      </trkpt>
      <trkpt lat="49.41841" lon="1.75066">
        <ele>206.80000305176</ele>
        <time>2020-08-03T14:25:03.000Z</time>
      </trkpt>
      <trkpt lat="49.41842" lon="1.75065">
        <ele>206.80000305176</ele>
        <time>2020-08-03T14:25:04.000Z</time>
      </trkpt>
      <trkpt lat="49.41844" lon="1.75066">
        <ele>206.80000305176</ele>
        <time>2020-08-03T14:25:06.000Z</time>
      </trkpt>
      <trkpt lat="49.41844" lon="1.75066">
        <ele>206.80000305176</ele>
        <time>2020-08-03T14:25:07.000Z</time>
      </trkpt>
      <trkpt lat="49.41845" lon="1.75067">
        <ele>206.80000305176</ele>
        <time>2020-08-03T14:25:08.000Z</time>
      </trkpt>
      <trkpt lat="49.41849" lon="1.75071">
        <ele>206.39999389648</ele>
        <time>2020-08-03T14:25:11.000Z</time>
      </trkpt>
      <trkpt lat="49.4185" lon="1.75071">
        <ele>206.39999389648</ele>
        <time>2020-08-03T14:25:13.000Z</time>
      </trkpt>
      <trkpt lat="49.41855" lon="1.75072">
        <ele>207</ele>
        <time>2020-08-03T14:25:17.000Z</time>
      </trkpt>
      <trkpt lat="49.41866" lon="1.75072">
        <ele>207.19999694824</ele>
        <time>2020-08-03T14:25:25.000Z</time>
      </trkpt>
      <trkpt lat="49.41876" lon="1.75073">
        <ele>207.39999389648</ele>
        <time>2020-08-03T14:25:33.000Z</time>
      </trkpt>
      <trkpt lat="49.41886" lon="1.75074">
        <ele>207.60000610352</ele>
        <time>2020-08-03T14:25:41.000Z</time>
      </trkpt>
      <trkpt lat="49.41895" lon="1.75076">
        <ele>207.60000610352</ele>
        <time>2020-08-03T14:25:48.000Z</time>
      </trkpt>
      <trkpt lat="49.41897" lon="1.75077">
        <ele>207.60000610352</ele>
        <time>2020-08-03T14:25:49.000Z</time>
      </trkpt>
      <trkpt lat="49.41897" lon="1.75077">
        <ele>207.60000610352</ele>
        <time>2020-08-03T14:25:50.000Z</time>
      </trkpt>
      <trkpt lat="49.419" lon="1.75079">
        <ele>207.60000610352</ele>
        <time>2020-08-03T14:25:52.000Z</time>
      </trkpt>
      <trkpt lat="49.41904" lon="1.7508">
        <ele>207.80000305176</ele>
        <time>2020-08-03T14:25:56.000Z</time>
      </trkpt>
      <trkpt lat="49.41913" lon="1.75082">
        <ele>207.39999389648</ele>
        <time>2020-08-03T14:26:03.000Z</time>
      </trkpt>
      <trkpt lat="49.41918" lon="1.75082">
        <ele>207.60000610352</ele>
        <time>2020-08-03T14:26:07.000Z</time>
      </trkpt>
      <trkpt lat="49.4192" lon="1.75082">
        <ele>207.39999389648</ele>
        <time>2020-08-03T14:26:10.000Z</time>
      </trkpt>
      <trkpt lat="49.41925" lon="1.75085">
        <ele>206.80000305176</ele>
        <time>2020-08-03T14:26:14.000Z</time>
      </trkpt>
      <trkpt lat="49.41927" lon="1.75086">
        <ele>206.19999694824</ele>
        <time>2020-08-03T14:26:17.000Z</time>
      </trkpt>
      <trkpt lat="49.41929" lon="1.75087">
        <ele>205.60000610352</ele>
        <time>2020-08-03T14:26:19.000Z</time>
      </trkpt>
      <trkpt lat="49.41931" lon="1.75087">
        <ele>205.39999389648</ele>
        <time>2020-08-03T14:26:20.000Z</time>
      </trkpt>
      <trkpt lat="49.41933" lon="1.75089">
        <ele>205.60000610352</ele>
        <time>2020-08-03T14:26:22.000Z</time>
      </trkpt>
      <trkpt lat="49.4194" lon="1.75093">
        <ele>206</ele>
        <time>2020-08-03T14:26:29.000Z</time>
      </trkpt>
      <trkpt lat="49.41949" lon="1.75099">
        <ele>206.39999389648</ele>
        <time>2020-08-03T14:26:37.000Z</time>
      </trkpt>
      <trkpt lat="49.4195" lon="1.751">
        <ele>206.39999389648</ele>
        <time>2020-08-03T14:26:38.000Z</time>
      </trkpt>
      <trkpt lat="49.41955" lon="1.75104">
        <ele>206.60000610352</ele>
        <time>2020-08-03T14:26:42.000Z</time>
      </trkpt>
      <trkpt lat="49.41958" lon="1.75107">
        <ele>206.60000610352</ele>
        <time>2020-08-03T14:26:45.000Z</time>
      </trkpt>
      <trkpt lat="49.41959" lon="1.75108">
        <ele>206.60000610352</ele>
        <time>2020-08-03T14:26:46.000Z</time>
      </trkpt>
      <trkpt lat="49.41961" lon="1.75109">
        <ele>206.80000305176</ele>
        <time>2020-08-03T14:26:48.000Z</time>
      </trkpt>
      <trkpt lat="49.41967" lon="1.75116">
        <ele>207.39999389648</ele>
        <time>2020-08-03T14:26:54.000Z</time>
      </trkpt>
      <trkpt lat="49.41974" lon="1.75121">
        <ele>206.80000305176</ele>
        <time>2020-08-03T14:27:00.000Z</time>
      </trkpt>
      <trkpt lat="49.41977" lon="1.75122">
        <ele>206.80000305176</ele>
        <time>2020-08-03T14:27:02.000Z</time>
      </trkpt>
      <trkpt lat="49.41982" lon="1.75126">
        <ele>206.60000610352</ele>
        <time>2020-08-03T14:27:06.000Z</time>
      </trkpt>
      <trkpt lat="49.41986" lon="1.75129">
        <ele>206.60000610352</ele>
        <time>2020-08-03T14:27:10.000Z</time>
      </trkpt>
      <trkpt lat="49.41994" lon="1.75139">
        <ele>207</ele>
        <time>2020-08-03T14:27:19.000Z</time>
      </trkpt>
      <trkpt lat="49.42003" lon="1.75149">
        <ele>206.80000305176</ele>
        <time>2020-08-03T14:27:28.000Z</time>
      </trkpt>
      <trkpt lat="49.42012" lon="1.75158">
        <ele>206.39999389648</ele>
        <time>2020-08-03T14:27:37.000Z</time>
      </trkpt>
      <trkpt lat="49.42013" lon="1.75159">
        <ele>206.60000610352</ele>
        <time>2020-08-03T14:27:38.000Z</time>
      </trkpt>
      <trkpt lat="49.42023" lon="1.75167">
        <ele>206.80000305176</ele>
        <time>2020-08-03T14:27:47.000Z</time>
      </trkpt>
      <trkpt lat="49.42031" lon="1.75176">
        <ele>207</ele>
        <time>2020-08-03T14:27:56.000Z</time>
      </trkpt>
      <trkpt lat="49.42035" lon="1.7518">
        <ele>207</ele>
        <time>2020-08-03T14:28:00.000Z</time>
      </trkpt>
      <trkpt lat="49.42039" lon="1.75184">
        <ele>206.19999694824</ele>
        <time>2020-08-03T14:28:04.000Z</time>
      </trkpt>
      <trkpt lat="49.42046" lon="1.75191">
        <ele>206.80000305176</ele>
        <time>2020-08-03T14:28:11.000Z</time>
      </trkpt>
      <trkpt lat="49.42054" lon="1.75197">
        <ele>207.19999694824</ele>
        <time>2020-08-03T14:28:18.000Z</time>
      </trkpt>
      <trkpt lat="49.42058" lon="1.75202">
        <ele>207</ele>
        <time>2020-08-03T14:28:21.000Z</time>
      </trkpt>
      <trkpt lat="49.4206" lon="1.75204">
        <ele>207</ele>
        <time>2020-08-03T14:28:24.000Z</time>
      </trkpt>
      <trkpt lat="49.42061" lon="1.75205">
        <ele>206.80000305176</ele>
        <time>2020-08-03T14:28:25.000Z</time>
      </trkpt>
      <trkpt lat="49.42068" lon="1.75212">
        <ele>206.80000305176</ele>
        <time>2020-08-03T14:28:32.000Z</time>
      </trkpt>
      <trkpt lat="49.42073" lon="1.75218">
        <ele>206.60000610352</ele>
        <time>2020-08-03T14:28:40.000Z</time>
      </trkpt>
      <trkpt lat="49.42081" lon="1.75225">
        <ele>207</ele>
        <time>2020-08-03T14:28:47.000Z</time>
      </trkpt>
      <trkpt lat="49.42088" lon="1.7523">
        <ele>206.39999389648</ele>
        <time>2020-08-03T14:28:54.000Z</time>
      </trkpt>
      <trkpt lat="49.42089" lon="1.75231">
        <ele>206.39999389648</ele>
        <time>2020-08-03T14:28:55.000Z</time>
      </trkpt>
      <trkpt lat="49.42093" lon="1.75237">
        <ele>206.39999389648</ele>
        <time>2020-08-03T14:29:00.000Z</time>
      </trkpt>
      <trkpt lat="49.42093" lon="1.75238">
        <ele>206.39999389648</ele>
        <time>2020-08-03T14:29:01.000Z</time>
      </trkpt>
      <trkpt lat="49.42095" lon="1.7524">
        <ele>206.39999389648</ele>
        <time>2020-08-03T14:29:04.000Z</time>
      </trkpt>
      <trkpt lat="49.42095" lon="1.7524">
        <ele>206.39999389648</ele>
        <time>2020-08-03T14:29:06.000Z</time>
      </trkpt>
      <trkpt lat="49.42096" lon="1.75241">
        <ele>206.39999389648</ele>
        <time>2020-08-03T14:29:08.000Z</time>
      </trkpt>
      <trkpt lat="49.42097" lon="1.75242">
        <ele>206.39999389648</ele>
        <time>2020-08-03T14:29:09.000Z</time>
      </trkpt>
      <trkpt lat="49.42098" lon="1.75244">
        <ele>206.60000610352</ele>
        <time>2020-08-03T14:29:10.000Z</time>
      </trkpt>
      <trkpt lat="49.421" lon="1.75248">
        <ele>207</ele>
        <time>2020-08-03T14:29:14.000Z</time>
      </trkpt>
      <trkpt lat="49.42101" lon="1.75254">
        <ele>207.39999389648</ele>
        <time>2020-08-03T14:29:18.000Z</time>
      </trkpt>
      <trkpt lat="49.42102" lon="1.75261">
        <ele>207.60000610352</ele>
        <time>2020-08-03T14:29:23.000Z</time>
      </trkpt>
      <trkpt lat="49.42101" lon="1.75263">
        <ele>207.60000610352</ele>
        <time>2020-08-03T14:29:24.000Z</time>
      </trkpt>
      <trkpt lat="49.421" lon="1.75274">
        <ele>207.60000610352</ele>
        <time>2020-08-03T14:29:30.000Z</time>
      </trkpt>
      <trkpt lat="49.42101" lon="1.75291">
        <ele>207.39999389648</ele>
        <time>2020-08-03T14:29:39.000Z</time>
      </trkpt>
      <trkpt lat="49.421" lon="1.75303">
        <ele>207.39999389648</ele>
        <time>2020-08-03T14:29:46.000Z</time>
      </trkpt>
      <trkpt lat="49.42101" lon="1.75317">
        <ele>206.60000610352</ele>
        <time>2020-08-03T14:29:54.000Z</time>
      </trkpt>
      <trkpt lat="49.42101" lon="1.75319">
        <ele>206.60000610352</ele>
        <time>2020-08-03T14:29:55.000Z</time>
      </trkpt>
      <trkpt lat="49.42101" lon="1.7532">
        <ele>206.60000610352</ele>
        <time>2020-08-03T14:29:56.000Z</time>
      </trkpt>
      <trkpt lat="49.42101" lon="1.75323">
        <ele>206.60000610352</ele>
        <time>2020-08-03T14:29:58.000Z</time>
      </trkpt>
      <trkpt lat="49.421" lon="1.75324">
        <ele>206.60000610352</ele>
        <time>2020-08-03T14:29:59.000Z</time>
      </trkpt>
      <trkpt lat="49.42099" lon="1.75325">
        <ele>206.60000610352</ele>
        <time>2020-08-03T14:30:00.000Z</time>
      </trkpt>
      <trkpt lat="49.42095" lon="1.75331">
        <ele>206.60000610352</ele>
        <time>2020-08-03T14:30:04.000Z</time>
      </trkpt>
      <trkpt lat="49.42094" lon="1.75336">
        <ele>206.39999389648</ele>
        <time>2020-08-03T14:30:07.000Z</time>
      </trkpt>
      <trkpt lat="49.42094" lon="1.75345">
        <ele>206.19999694824</ele>
        <time>2020-08-03T14:30:13.000Z</time>
      </trkpt>
      <trkpt lat="49.42095" lon="1.75355">
        <ele>206.19999694824</ele>
        <time>2020-08-03T14:30:18.000Z</time>
      </trkpt>
      <trkpt lat="49.42095" lon="1.75357">
        <ele>206.19999694824</ele>
        <time>2020-08-03T14:30:19.000Z</time>
      </trkpt>
      <trkpt lat="49.42094" lon="1.75362">
        <ele>206</ele>
        <time>2020-08-03T14:30:23.000Z</time>
      </trkpt>
      <trkpt lat="49.42093" lon="1.75365">
        <ele>205.80000305176</ele>
        <time>2020-08-03T14:30:25.000Z</time>
      </trkpt>
      <trkpt lat="49.42094" lon="1.7537">
        <ele>205.80000305176</ele>
        <time>2020-08-03T14:30:27.000Z</time>
      </trkpt>
      <trkpt lat="49.42095" lon="1.75374">
        <ele>205.60000610352</ele>
        <time>2020-08-03T14:30:30.000Z</time>
      </trkpt>
      <trkpt lat="49.42097" lon="1.75379">
        <ele>205.60000610352</ele>
        <time>2020-08-03T14:30:32.000Z</time>
      </trkpt>
      <trkpt lat="49.42097" lon="1.75382">
        <ele>205.60000610352</ele>
        <time>2020-08-03T14:30:33.000Z</time>
      </trkpt>
      <trkpt lat="49.42098" lon="1.75388">
        <ele>205.60000610352</ele>
        <time>2020-08-03T14:30:36.000Z</time>
      </trkpt>
      <trkpt lat="49.42098" lon="1.75392">
        <ele>205.39999389648</ele>
        <time>2020-08-03T14:30:39.000Z</time>
      </trkpt>
      <trkpt lat="49.42103" lon="1.75401">
        <ele>205</ele>
        <time>2020-08-03T14:30:46.000Z</time>
      </trkpt>
      <trkpt lat="49.42112" lon="1.75405">
        <ele>205</ele>
        <time>2020-08-03T14:30:53.000Z</time>
      </trkpt>
      <trkpt lat="49.42113" lon="1.75406">
        <ele>205.19999694824</ele>
        <time>2020-08-03T14:30:54.000Z</time>
      </trkpt>
      <trkpt lat="49.42114" lon="1.75408">
        <ele>205.19999694824</ele>
        <time>2020-08-03T14:30:56.000Z</time>
      </trkpt>
      <trkpt lat="49.4212" lon="1.75412">
        <ele>205.39999389648</ele>
        <time>2020-08-03T14:31:03.000Z</time>
      </trkpt>
      <trkpt lat="49.42124" lon="1.75417">
        <ele>206</ele>
        <time>2020-08-03T14:31:09.000Z</time>
      </trkpt>
      <trkpt lat="49.42126" lon="1.7542">
        <ele>205.80000305176</ele>
        <time>2020-08-03T14:31:11.000Z</time>
      </trkpt>
      <trkpt lat="49.42127" lon="1.75422">
        <ele>205.80000305176</ele>
        <time>2020-08-03T14:31:13.000Z</time>
      </trkpt>
      <trkpt lat="49.42131" lon="1.75426">
        <ele>205.39999389648</ele>
        <time>2020-08-03T14:31:17.000Z</time>
      </trkpt>
      <trkpt lat="49.42131" lon="1.75427">
        <ele>205.19999694824</ele>
        <time>2020-08-03T14:31:18.000Z</time>
      </trkpt>
      <trkpt lat="49.42134" lon="1.75431">
        <ele>204.60000610352</ele>
        <time>2020-08-03T14:31:22.000Z</time>
      </trkpt>
      <trkpt lat="49.42135" lon="1.75432">
        <ele>204.60000610352</ele>
        <time>2020-08-03T14:31:23.000Z</time>
      </trkpt>
      <trkpt lat="49.4214" lon="1.75439">
        <ele>204.80000305176</ele>
        <time>2020-08-03T14:31:29.000Z</time>
      </trkpt>
      <trkpt lat="49.42142" lon="1.75441">
        <ele>204.60000610352</ele>
        <time>2020-08-03T14:31:32.000Z</time>
      </trkpt>
      <trkpt lat="49.42145" lon="1.75444">
        <ele>204.39999389648</ele>
        <time>2020-08-03T14:31:35.000Z</time>
      </trkpt>
      <trkpt lat="49.42147" lon="1.75447">
        <ele>204.39999389648</ele>
        <time>2020-08-03T14:31:37.000Z</time>
      </trkpt>
      <trkpt lat="49.42153" lon="1.75452">
        <ele>204.19999694824</ele>
        <time>2020-08-03T14:31:44.000Z</time>
      </trkpt>
      <trkpt lat="49.42162" lon="1.75456">
        <ele>204.19999694824</ele>
        <time>2020-08-03T14:31:51.000Z</time>
      </trkpt>
      <trkpt lat="49.42165" lon="1.75457">
        <ele>204</ele>
        <time>2020-08-03T14:31:53.000Z</time>
      </trkpt>
      <trkpt lat="49.42174" lon="1.75461">
        <ele>203.80000305176</ele>
        <time>2020-08-03T14:32:01.000Z</time>
      </trkpt>
      <trkpt lat="49.42178" lon="1.75462">
        <ele>203.60000610352</ele>
        <time>2020-08-03T14:32:04.000Z</time>
      </trkpt>
      <trkpt lat="49.42183" lon="1.75461">
        <ele>203.19999694824</ele>
        <time>2020-08-03T14:32:07.000Z</time>
      </trkpt>
      <trkpt lat="49.42185" lon="1.75461">
        <ele>203.19999694824</ele>
        <time>2020-08-03T14:32:09.000Z</time>
      </trkpt>
      <trkpt lat="49.42193" lon="1.75462">
        <ele>202.80000305176</ele>
        <time>2020-08-03T14:32:16.000Z</time>
      </trkpt>
      <trkpt lat="49.42199" lon="1.75466">
        <ele>202.60000610352</ele>
        <time>2020-08-03T14:32:25.000Z</time>
      </trkpt>
      <trkpt lat="49.422" lon="1.75467">
        <ele>202.60000610352</ele>
        <time>2020-08-03T14:32:27.000Z</time>
      </trkpt>
      <trkpt lat="49.42201" lon="1.75468">
        <ele>202.60000610352</ele>
        <time>2020-08-03T14:32:29.000Z</time>
      </trkpt>
      <trkpt lat="49.42201" lon="1.75469">
        <ele>202.80000305176</ele>
        <time>2020-08-03T14:32:30.000Z</time>
      </trkpt>
      <trkpt lat="49.42201" lon="1.7547">
        <ele>202.60000610352</ele>
        <time>2020-08-03T14:32:31.000Z</time>
      </trkpt>
      <trkpt lat="49.42204" lon="1.75476">
        <ele>202.39999389648</ele>
        <time>2020-08-03T14:32:36.000Z</time>
      </trkpt>
      <trkpt lat="49.42206" lon="1.75478">
        <ele>202.39999389648</ele>
        <time>2020-08-03T14:32:38.000Z</time>
      </trkpt>
      <trkpt lat="49.42207" lon="1.7548">
        <ele>202.39999389648</ele>
        <time>2020-08-03T14:32:40.000Z</time>
      </trkpt>
      <trkpt lat="49.42212" lon="1.75485">
        <ele>202.19999694824</ele>
        <time>2020-08-03T14:32:45.000Z</time>
      </trkpt>
      <trkpt lat="49.42219" lon="1.75489">
        <ele>201.60000610352</ele>
        <time>2020-08-03T14:32:52.000Z</time>
      </trkpt>
      <trkpt lat="49.4222" lon="1.75489">
        <ele>201.60000610352</ele>
        <time>2020-08-03T14:32:53.000Z</time>
      </trkpt>
      <trkpt lat="49.4223" lon="1.75495">
        <ele>201.60000610352</ele>
        <time>2020-08-03T14:33:00.000Z</time>
      </trkpt>
      <trkpt lat="49.42234" lon="1.75498">
        <ele>201.60000610352</ele>
        <time>2020-08-03T14:33:03.000Z</time>
      </trkpt>
      <trkpt lat="49.42238" lon="1.75502">
        <ele>201.80000305176</ele>
        <time>2020-08-03T14:33:06.000Z</time>
      </trkpt>
      <trkpt lat="49.42239" lon="1.75504">
        <ele>201.80000305176</ele>
        <time>2020-08-03T14:33:07.000Z</time>
      </trkpt>
      <trkpt lat="49.42245" lon="1.75512">
        <ele>201.60000610352</ele>
        <time>2020-08-03T14:33:14.000Z</time>
      </trkpt>
      <trkpt lat="49.42252" lon="1.75517">
        <ele>201.60000610352</ele>
        <time>2020-08-03T14:33:19.000Z</time>
      </trkpt>
      <trkpt lat="49.42253" lon="1.75519">
        <ele>201.39999389648</ele>
        <time>2020-08-03T14:33:21.000Z</time>
      </trkpt>
      <trkpt lat="49.4226" lon="1.75524">
        <ele>201.39999389648</ele>
        <time>2020-08-03T14:33:26.000Z</time>
      </trkpt>
      <trkpt lat="49.42269" lon="1.75532">
        <ele>201.60000610352</ele>
        <time>2020-08-03T14:33:34.000Z</time>
      </trkpt>
      <trkpt lat="49.42276" lon="1.75536">
        <ele>202</ele>
        <time>2020-08-03T14:33:40.000Z</time>
      </trkpt>
      <trkpt lat="49.42277" lon="1.75536">
        <ele>202</ele>
        <time>2020-08-03T14:33:41.000Z</time>
      </trkpt>
      <trkpt lat="49.42286" lon="1.75542">
        <ele>201.39999389648</ele>
        <time>2020-08-03T14:33:49.000Z</time>
      </trkpt>
      <trkpt lat="49.42289" lon="1.75544">
        <ele>201.80000305176</ele>
        <time>2020-08-03T14:33:51.000Z</time>
      </trkpt>
      <trkpt lat="49.42293" lon="1.75547">
        <ele>201.60000610352</ele>
        <time>2020-08-03T14:33:55.000Z</time>
      </trkpt>
      <trkpt lat="49.42294" lon="1.75547">
        <ele>201.60000610352</ele>
        <time>2020-08-03T14:33:56.000Z</time>
      </trkpt>
      <trkpt lat="49.42302" lon="1.75546">
        <ele>201.39999389648</ele>
        <time>2020-08-03T14:34:04.000Z</time>
      </trkpt>
      <trkpt lat="49.42303" lon="1.75546">
        <ele>201.60000610352</ele>
        <time>2020-08-03T14:34:05.000Z</time>
      </trkpt>
      <trkpt lat="49.42303" lon="1.75547">
        <ele>201.60000610352</ele>
        <time>2020-08-03T14:34:07.000Z</time>
      </trkpt>
      <trkpt lat="49.42303" lon="1.75549">
        <ele>201.80000305176</ele>
        <time>2020-08-03T14:34:09.000Z</time>
      </trkpt>
      <trkpt lat="49.42303" lon="1.75549">
        <ele>201.80000305176</ele>
        <time>2020-08-03T14:34:11.000Z</time>
      </trkpt>
      <trkpt lat="49.42303" lon="1.7555">
        <ele>201.80000305176</ele>
        <time>2020-08-03T14:34:12.000Z</time>
      </trkpt>
      <trkpt lat="49.42303" lon="1.7555">
        <ele>201.80000305176</ele>
        <time>2020-08-03T14:34:13.000Z</time>
      </trkpt>
      <trkpt lat="49.42304" lon="1.7555">
        <ele>201.80000305176</ele>
        <time>2020-08-03T14:34:14.000Z</time>
      </trkpt>
      <trkpt lat="49.42304" lon="1.75551">
        <ele>201.60000610352</ele>
        <time>2020-08-03T14:34:17.000Z</time>
      </trkpt>
      <trkpt lat="49.42303" lon="1.75551">
        <ele>201.60000610352</ele>
        <time>2020-08-03T14:34:19.000Z</time>
      </trkpt>
      <trkpt lat="49.42302" lon="1.75551">
        <ele>201.60000610352</ele>
        <time>2020-08-03T14:34:20.000Z</time>
      </trkpt>
      <trkpt lat="49.42299" lon="1.75551">
        <ele>201.60000610352</ele>
        <time>2020-08-03T14:34:25.000Z</time>
      </trkpt>
      <trkpt lat="49.42299" lon="1.75552">
        <ele>201.80000305176</ele>
        <time>2020-08-03T14:34:26.000Z</time>
      </trkpt>
      <trkpt lat="49.42299" lon="1.75553">
        <ele>201.80000305176</ele>
        <time>2020-08-03T14:34:29.000Z</time>
      </trkpt>
      <trkpt lat="49.423" lon="1.75553">
        <ele>201.60000610352</ele>
        <time>2020-08-03T14:34:33.000Z</time>
      </trkpt>
      <trkpt lat="49.42301" lon="1.75554">
        <ele>201</ele>
        <time>2020-08-03T14:34:42.000Z</time>
      </trkpt>
      <trkpt lat="49.42301" lon="1.75554">
        <ele>200.80000305176</ele>
        <time>2020-08-03T14:34:44.000Z</time>
      </trkpt>
      <trkpt lat="49.42303" lon="1.75548">
        <ele>201.19999694824</ele>
        <time>2020-08-03T14:51:49.000Z</time>
      </trkpt>
      <trkpt lat="49.42304" lon="1.75547">
        <ele>201.19999694824</ele>
        <time>2020-08-03T14:51:50.000Z</time>
      </trkpt>
      <trkpt lat="49.42304" lon="1.75545">
        <ele>201</ele>
        <time>2020-08-03T14:51:52.000Z</time>
      </trkpt>
      <trkpt lat="49.42304" lon="1.75544">
        <ele>201</ele>
        <time>2020-08-03T14:51:53.000Z</time>
      </trkpt>
      <trkpt lat="49.4231" lon="1.75538">
        <ele>201.19999694824</ele>
        <time>2020-08-03T14:51:59.000Z</time>
      </trkpt>
      <trkpt lat="49.42311" lon="1.75537">
        <ele>201.39999389648</ele>
        <time>2020-08-03T14:52:01.000Z</time>
      </trkpt>
      <trkpt lat="49.42312" lon="1.75535">
        <ele>201.19999694824</ele>
        <time>2020-08-03T14:52:03.000Z</time>
      </trkpt>
      <trkpt lat="49.42314" lon="1.75533">
        <ele>201.39999389648</ele>
        <time>2020-08-03T14:52:05.000Z</time>
      </trkpt>
      <trkpt lat="49.42315" lon="1.75532">
        <ele>201.39999389648</ele>
        <time>2020-08-03T14:52:07.000Z</time>
      </trkpt>
      <trkpt lat="49.42317" lon="1.75522">
        <ele>202</ele>
        <time>2020-08-03T14:52:14.000Z</time>
      </trkpt>
      <trkpt lat="49.42318" lon="1.7552">
        <ele>202.19999694824</ele>
        <time>2020-08-03T14:52:16.000Z</time>
      </trkpt>
      <trkpt lat="49.42321" lon="1.75513">
        <ele>202.19999694824</ele>
        <time>2020-08-03T14:52:21.000Z</time>
      </trkpt>
      <trkpt lat="49.42322" lon="1.75506">
        <ele>202.39999389648</ele>
        <time>2020-08-03T14:52:25.000Z</time>
      </trkpt>
      <trkpt lat="49.42324" lon="1.755">
        <ele>202.80000305176</ele>
        <time>2020-08-03T14:52:28.000Z</time>
      </trkpt>
      <trkpt lat="49.42328" lon="1.75491">
        <ele>202.80000305176</ele>
        <time>2020-08-03T14:52:35.000Z</time>
      </trkpt>
      <trkpt lat="49.42328" lon="1.75487">
        <ele>202.80000305176</ele>
        <time>2020-08-03T14:52:37.000Z</time>
      </trkpt>
      <trkpt lat="49.4233" lon="1.75474">
        <ele>202.80000305176</ele>
        <time>2020-08-03T14:52:45.000Z</time>
      </trkpt>
      <trkpt lat="49.42331" lon="1.7547">
        <ele>203</ele>
        <time>2020-08-03T14:52:48.000Z</time>
      </trkpt>
      <trkpt lat="49.42332" lon="1.75467">
        <ele>203</ele>
        <time>2020-08-03T14:52:52.000Z</time>
      </trkpt>
      <trkpt lat="49.42333" lon="1.75466">
        <ele>203</ele>
        <time>2020-08-03T14:52:53.000Z</time>
      </trkpt>
      <trkpt lat="49.42336" lon="1.75454">
        <ele>203</ele>
        <time>2020-08-03T14:53:02.000Z</time>
      </trkpt>
      <trkpt lat="49.42336" lon="1.75452">
        <ele>203.19999694824</ele>
        <time>2020-08-03T14:53:03.000Z</time>
      </trkpt>
      <trkpt lat="49.42338" lon="1.75444">
        <ele>203.39999389648</ele>
        <time>2020-08-03T14:53:09.000Z</time>
      </trkpt>
      <trkpt lat="49.42337" lon="1.75442">
        <ele>203.39999389648</ele>
        <time>2020-08-03T14:53:10.000Z</time>
      </trkpt>
      <trkpt lat="49.42335" lon="1.75426">
        <ele>203.60000610352</ele>
        <time>2020-08-03T14:53:18.000Z</time>
      </trkpt>
      <trkpt lat="49.42335" lon="1.75416">
        <ele>203.39999389648</ele>
        <time>2020-08-03T14:53:23.000Z</time>
      </trkpt>
      <trkpt lat="49.42335" lon="1.75411">
        <ele>203.60000610352</ele>
        <time>2020-08-03T14:53:27.000Z</time>
      </trkpt>
      <trkpt lat="49.42336" lon="1.75409">
        <ele>203.60000610352</ele>
        <time>2020-08-03T14:53:28.000Z</time>
      </trkpt>
      <trkpt lat="49.4234" lon="1.75402">
        <ele>203.60000610352</ele>
        <time>2020-08-03T14:53:33.000Z</time>
      </trkpt>
      <trkpt lat="49.42344" lon="1.75399">
        <ele>203.80000305176</ele>
        <time>2020-08-03T14:53:37.000Z</time>
      </trkpt>
      <trkpt lat="49.42354" lon="1.75393">
        <ele>203.60000610352</ele>
        <time>2020-08-03T14:53:47.000Z</time>
      </trkpt>
      <trkpt lat="49.42355" lon="1.75393">
        <ele>203.60000610352</ele>
        <time>2020-08-03T14:53:48.000Z</time>
      </trkpt>
      <trkpt lat="49.42358" lon="1.75388">
        <ele>203.39999389648</ele>
        <time>2020-08-03T14:53:52.000Z</time>
      </trkpt>
      <trkpt lat="49.42361" lon="1.75385">
        <ele>203.39999389648</ele>
        <time>2020-08-03T14:53:55.000Z</time>
      </trkpt>
      <trkpt lat="49.42364" lon="1.75383">
        <ele>203.39999389648</ele>
        <time>2020-08-03T14:53:57.000Z</time>
      </trkpt>
      <trkpt lat="49.42365" lon="1.75383">
        <ele>203.39999389648</ele>
        <time>2020-08-03T14:53:58.000Z</time>
      </trkpt>
      <trkpt lat="49.4237" lon="1.7538">
        <ele>204</ele>
        <time>2020-08-03T14:54:03.000Z</time>
      </trkpt>
      <trkpt lat="49.42377" lon="1.75375">
        <ele>204</ele>
        <time>2020-08-03T14:54:10.000Z</time>
      </trkpt>
      <trkpt lat="49.4238" lon="1.75372">
        <ele>204.19999694824</ele>
        <time>2020-08-03T14:54:13.000Z</time>
      </trkpt>
      <trkpt lat="49.42383" lon="1.75369">
        <ele>204.39999389648</ele>
        <time>2020-08-03T14:54:17.000Z</time>
      </trkpt>
      <trkpt lat="49.42384" lon="1.75368">
        <ele>204.39999389648</ele>
        <time>2020-08-03T14:54:18.000Z</time>
      </trkpt>
      <trkpt lat="49.42385" lon="1.75367">
        <ele>204.39999389648</ele>
        <time>2020-08-03T14:54:19.000Z</time>
      </trkpt>
      <trkpt lat="49.42387" lon="1.75355">
        <ele>204.39999389648</ele>
        <time>2020-08-03T14:54:25.000Z</time>
      </trkpt>
      <trkpt lat="49.4239" lon="1.75349">
        <ele>204.19999694824</ele>
        <time>2020-08-03T14:54:29.000Z</time>
      </trkpt>
      <trkpt lat="49.42394" lon="1.75345">
        <ele>204.19999694824</ele>
        <time>2020-08-03T14:54:32.000Z</time>
      </trkpt>
      <trkpt lat="49.42395" lon="1.75343">
        <ele>204.19999694824</ele>
        <time>2020-08-03T14:54:33.000Z</time>
      </trkpt>
      <trkpt lat="49.42397" lon="1.75337">
        <ele>204.39999389648</ele>
        <time>2020-08-03T14:54:38.000Z</time>
      </trkpt>
      <trkpt lat="49.42398" lon="1.75334">
        <ele>204.60000610352</ele>
        <time>2020-08-03T14:54:40.000Z</time>
      </trkpt>
      <trkpt lat="49.42403" lon="1.75325">
        <ele>204.39999389648</ele>
        <time>2020-08-03T14:54:48.000Z</time>
      </trkpt>
      <trkpt lat="49.42403" lon="1.75325">
        <ele>204.19999694824</ele>
        <time>2020-08-03T14:54:52.000Z</time>
      </trkpt>
      <trkpt lat="49.42403" lon="1.75326">
        <ele>204</ele>
        <time>2020-08-03T14:54:56.000Z</time>
      </trkpt>
      <trkpt lat="49.42403" lon="1.75326">
        <ele>203.80000305176</ele>
        <time>2020-08-03T14:55:00.000Z</time>
      </trkpt>
      <trkpt lat="49.42403" lon="1.75323">
        <ele>204</ele>
        <time>2020-08-03T14:55:05.000Z</time>
      </trkpt>
      <trkpt lat="49.42404" lon="1.7532">
        <ele>204.19999694824</ele>
        <time>2020-08-03T14:55:08.000Z</time>
      </trkpt>
      <trkpt lat="49.42403" lon="1.7532">
        <ele>204.19999694824</ele>
        <time>2020-08-03T14:55:12.000Z</time>
      </trkpt>
      <trkpt lat="49.42403" lon="1.75321">
        <ele>204.19999694824</ele>
        <time>2020-08-03T14:55:13.000Z</time>
      </trkpt>
      <trkpt lat="49.42406" lon="1.75316">
        <ele>204.39999389648</ele>
        <time>2020-08-03T14:55:18.000Z</time>
      </trkpt>
      <trkpt lat="49.42409" lon="1.75313">
        <ele>204.39999389648</ele>
        <time>2020-08-03T14:55:21.000Z</time>
      </trkpt>
      <trkpt lat="49.42415" lon="1.75307">
        <ele>204.80000305176</ele>
        <time>2020-08-03T14:55:27.000Z</time>
      </trkpt>
      <trkpt lat="49.4242" lon="1.753">
        <ele>204.39999389648</ele>
        <time>2020-08-03T14:55:35.000Z</time>
      </trkpt>
      <trkpt lat="49.4242" lon="1.75299">
        <ele>204.60000610352</ele>
        <time>2020-08-03T14:55:36.000Z</time>
      </trkpt>
      <trkpt lat="49.42419" lon="1.75298">
        <ele>204.80000305176</ele>
        <time>2020-08-03T14:55:38.000Z</time>
      </trkpt>
      <trkpt lat="49.42419" lon="1.75298">
        <ele>204.80000305176</ele>
        <time>2020-08-03T14:55:39.000Z</time>
      </trkpt>
      <trkpt lat="49.4242" lon="1.75297">
        <ele>204.80000305176</ele>
        <time>2020-08-03T14:55:40.000Z</time>
      </trkpt>
      <trkpt lat="49.42422" lon="1.75296">
        <ele>204.80000305176</ele>
        <time>2020-08-03T14:55:43.000Z</time>
      </trkpt>
      <trkpt lat="49.42426" lon="1.75286">
        <ele>205</ele>
        <time>2020-08-03T14:55:50.000Z</time>
      </trkpt>
      <trkpt lat="49.42426" lon="1.75284">
        <ele>205</ele>
        <time>2020-08-03T14:55:51.000Z</time>
      </trkpt>
      <trkpt lat="49.42432" lon="1.75276">
        <ele>204.60000610352</ele>
        <time>2020-08-03T14:55:59.000Z</time>
      </trkpt>
      <trkpt lat="49.42435" lon="1.7527">
        <ele>204.39999389648</ele>
        <time>2020-08-03T14:56:04.000Z</time>
      </trkpt>
      <trkpt lat="49.42436" lon="1.75268">
        <ele>204.39999389648</ele>
        <time>2020-08-03T14:56:05.000Z</time>
      </trkpt>
      <trkpt lat="49.42436" lon="1.75265">
        <ele>204.39999389648</ele>
        <time>2020-08-03T14:56:07.000Z</time>
      </trkpt>
      <trkpt lat="49.42437" lon="1.75264">
        <ele>204.39999389648</ele>
        <time>2020-08-03T14:56:08.000Z</time>
      </trkpt>
      <trkpt lat="49.42441" lon="1.75255">
        <ele>204.60000610352</ele>
        <time>2020-08-03T14:56:15.000Z</time>
      </trkpt>
      <trkpt lat="49.4244" lon="1.75254">
        <ele>204.60000610352</ele>
        <time>2020-08-03T14:56:16.000Z</time>
      </trkpt>
      <trkpt lat="49.42446" lon="1.75242">
        <ele>204.80000305176</ele>
        <time>2020-08-03T14:56:25.000Z</time>
      </trkpt>
      <trkpt lat="49.42448" lon="1.75232">
        <ele>204.60000610352</ele>
        <time>2020-08-03T14:56:31.000Z</time>
      </trkpt>
      <trkpt lat="49.42448" lon="1.75232">
        <ele>204.60000610352</ele>
        <time>2020-08-03T14:56:33.000Z</time>
      </trkpt>
      <trkpt lat="49.42448" lon="1.75231">
        <ele>204.60000610352</ele>
        <time>2020-08-03T14:56:34.000Z</time>
      </trkpt>
      <trkpt lat="49.42452" lon="1.75224">
        <ele>204.39999389648</ele>
        <time>2020-08-03T14:56:40.000Z</time>
      </trkpt>
      <trkpt lat="49.42454" lon="1.75216">
        <ele>204.60000610352</ele>
        <time>2020-08-03T14:56:48.000Z</time>
      </trkpt>
      <trkpt lat="49.42462" lon="1.75206">
        <ele>204.39999389648</ele>
        <time>2020-08-03T14:56:56.000Z</time>
      </trkpt>
      <trkpt lat="49.42465" lon="1.75201">
        <ele>204.19999694824</ele>
        <time>2020-08-03T14:56:59.000Z</time>
      </trkpt>
      <trkpt lat="49.42469" lon="1.75194">
        <ele>204.19999694824</ele>
        <time>2020-08-03T14:57:04.000Z</time>
      </trkpt>
      <trkpt lat="49.42478" lon="1.75186">
        <ele>204.60000610352</ele>
        <time>2020-08-03T14:57:12.000Z</time>
      </trkpt>
      <trkpt lat="49.42484" lon="1.75177">
        <ele>204.19999694824</ele>
        <time>2020-08-03T14:57:20.000Z</time>
      </trkpt>
      <trkpt lat="49.42484" lon="1.75177">
        <ele>204.19999694824</ele>
        <time>2020-08-03T14:57:21.000Z</time>
      </trkpt>
      <trkpt lat="49.42485" lon="1.75175">
        <ele>204.19999694824</ele>
        <time>2020-08-03T14:57:24.000Z</time>
      </trkpt>
      <trkpt lat="49.42484" lon="1.75171">
        <ele>204.19999694824</ele>
        <time>2020-08-03T14:57:27.000Z</time>
      </trkpt>
      <trkpt lat="49.42483" lon="1.75169">
        <ele>204</ele>
        <time>2020-08-03T14:57:29.000Z</time>
      </trkpt>
      <trkpt lat="49.42483" lon="1.75168">
        <ele>204</ele>
        <time>2020-08-03T14:57:31.000Z</time>
      </trkpt>
      <trkpt lat="49.42483" lon="1.75168">
        <ele>203.60000610352</ele>
        <time>2020-08-03T14:57:34.000Z</time>
      </trkpt>
      <trkpt lat="49.42482" lon="1.75166">
        <ele>203.60000610352</ele>
        <time>2020-08-03T14:57:36.000Z</time>
      </trkpt>
      <trkpt lat="49.42481" lon="1.75164">
        <ele>203.60000610352</ele>
        <time>2020-08-03T14:57:41.000Z</time>
      </trkpt>
      <trkpt lat="49.4248" lon="1.75163">
        <ele>203.60000610352</ele>
        <time>2020-08-03T14:57:42.000Z</time>
      </trkpt>
      <trkpt lat="49.4248" lon="1.75163">
        <ele>203.60000610352</ele>
        <time>2020-08-03T14:57:43.000Z</time>
      </trkpt>
      <trkpt lat="49.42479" lon="1.75163">
        <ele>203.60000610352</ele>
        <time>2020-08-03T14:57:44.000Z</time>
      </trkpt>
      <trkpt lat="49.42478" lon="1.75159">
        <ele>203.60000610352</ele>
        <time>2020-08-03T14:57:48.000Z</time>
      </trkpt>
      <trkpt lat="49.42476" lon="1.75155">
        <ele>203.60000610352</ele>
        <time>2020-08-03T14:57:52.000Z</time>
      </trkpt>
      <trkpt lat="49.42476" lon="1.75153">
        <ele>203.60000610352</ele>
        <time>2020-08-03T14:57:53.000Z</time>
      </trkpt>
      <trkpt lat="49.42469" lon="1.75139">
        <ele>203.80000305176</ele>
        <time>2020-08-03T14:58:01.000Z</time>
      </trkpt>
      <trkpt lat="49.42467" lon="1.75138">
        <ele>203.80000305176</ele>
        <time>2020-08-03T14:58:03.000Z</time>
      </trkpt>
      <trkpt lat="49.42466" lon="1.75137">
        <ele>203.80000305176</ele>
        <time>2020-08-03T14:58:05.000Z</time>
      </trkpt>
      <trkpt lat="49.42465" lon="1.75135">
        <ele>203.60000610352</ele>
        <time>2020-08-03T14:58:07.000Z</time>
      </trkpt>
      <trkpt lat="49.42462" lon="1.75126">
        <ele>203.39999389648</ele>
        <time>2020-08-03T14:58:13.000Z</time>
      </trkpt>
      <trkpt lat="49.4246" lon="1.75123">
        <ele>203.39999389648</ele>
        <time>2020-08-03T14:58:15.000Z</time>
      </trkpt>
      <trkpt lat="49.42458" lon="1.75117">
        <ele>203.60000610352</ele>
        <time>2020-08-03T14:58:19.000Z</time>
      </trkpt>
      <trkpt lat="49.42456" lon="1.75113">
        <ele>203.39999389648</ele>
        <time>2020-08-03T14:58:22.000Z</time>
      </trkpt>
      <trkpt lat="49.42456" lon="1.75111">
        <ele>203.19999694824</ele>
        <time>2020-08-03T14:58:24.000Z</time>
      </trkpt>
      <trkpt lat="49.42454" lon="1.75107">
        <ele>203</ele>
        <time>2020-08-03T14:58:27.000Z</time>
      </trkpt>
      <trkpt lat="49.42453" lon="1.75101">
        <ele>203</ele>
        <time>2020-08-03T14:58:30.000Z</time>
      </trkpt>
      <trkpt lat="49.42453" lon="1.751">
        <ele>203</ele>
        <time>2020-08-03T14:58:32.000Z</time>
      </trkpt>
      <trkpt lat="49.42452" lon="1.75096">
        <ele>203</ele>
        <time>2020-08-03T14:58:36.000Z</time>
      </trkpt>
      <trkpt lat="49.42452" lon="1.75095">
        <ele>202.80000305176</ele>
        <time>2020-08-03T14:58:37.000Z</time>
      </trkpt>
      <trkpt lat="49.42451" lon="1.75092">
        <ele>202.60000610352</ele>
        <time>2020-08-03T14:58:39.000Z</time>
      </trkpt>
      <trkpt lat="49.42449" lon="1.75088">
        <ele>202.39999389648</ele>
        <time>2020-08-03T14:58:41.000Z</time>
      </trkpt>
      <trkpt lat="49.42449" lon="1.75087">
        <ele>202.39999389648</ele>
        <time>2020-08-03T14:58:42.000Z</time>
      </trkpt>
      <trkpt lat="49.42448" lon="1.75085">
        <ele>202.39999389648</ele>
        <time>2020-08-03T14:58:43.000Z</time>
      </trkpt>
      <trkpt lat="49.42447" lon="1.75083">
        <ele>202.39999389648</ele>
        <time>2020-08-03T14:58:45.000Z</time>
      </trkpt>
      <trkpt lat="49.42445" lon="1.75076">
        <ele>202.39999389648</ele>
        <time>2020-08-03T14:58:50.000Z</time>
      </trkpt>
      <trkpt lat="49.42444" lon="1.75073">
        <ele>202.19999694824</ele>
        <time>2020-08-03T14:58:52.000Z</time>
      </trkpt>
      <trkpt lat="49.42444" lon="1.7507">
        <ele>202.19999694824</ele>
        <time>2020-08-03T14:58:54.000Z</time>
      </trkpt>
      <trkpt lat="49.42443" lon="1.75067">
        <ele>202</ele>
        <time>2020-08-03T14:58:56.000Z</time>
      </trkpt>
      <trkpt lat="49.42443" lon="1.75064">
        <ele>202</ele>
        <time>2020-08-03T14:58:58.000Z</time>
      </trkpt>
      <trkpt lat="49.42442" lon="1.7506">
        <ele>201.80000305176</ele>
        <time>2020-08-03T14:59:00.000Z</time>
      </trkpt>
      <trkpt lat="49.42442" lon="1.75059">
        <ele>201.60000610352</ele>
        <time>2020-08-03T14:59:01.000Z</time>
      </trkpt>
      <trkpt lat="49.42441" lon="1.75057">
        <ele>201.60000610352</ele>
        <time>2020-08-03T14:59:02.000Z</time>
      </trkpt>
      <trkpt lat="49.4244" lon="1.75046">
        <ele>201.60000610352</ele>
        <time>2020-08-03T14:59:08.000Z</time>
      </trkpt>
      <trkpt lat="49.4244" lon="1.75043">
        <ele>201.39999389648</ele>
        <time>2020-08-03T14:59:10.000Z</time>
      </trkpt>
      <trkpt lat="49.42439" lon="1.75038">
        <ele>201.19999694824</ele>
        <time>2020-08-03T14:59:13.000Z</time>
      </trkpt>
      <trkpt lat="49.42439" lon="1.75032">
        <ele>201</ele>
        <time>2020-08-03T14:59:17.000Z</time>
      </trkpt>
      <trkpt lat="49.42437" lon="1.75021">
        <ele>200.80000305176</ele>
        <time>2020-08-03T14:59:25.000Z</time>
      </trkpt>
      <trkpt lat="49.42435" lon="1.75014">
        <ele>200.39999389648</ele>
        <time>2020-08-03T14:59:31.000Z</time>
      </trkpt>
      <trkpt lat="49.42435" lon="1.75014">
        <ele>200.39999389648</ele>
        <time>2020-08-03T14:59:32.000Z</time>
      </trkpt>
      <trkpt lat="49.42434" lon="1.7501">
        <ele>200.19999694824</ele>
        <time>2020-08-03T14:59:35.000Z</time>
      </trkpt>
      <trkpt lat="49.42432" lon="1.75007">
        <ele>200</ele>
        <time>2020-08-03T14:59:39.000Z</time>
      </trkpt>
      <trkpt lat="49.42432" lon="1.75006">
        <ele>199.60000610352</ele>
        <time>2020-08-03T14:59:41.000Z</time>
      </trkpt>
      <trkpt lat="49.42433" lon="1.75004">
        <ele>199.60000610352</ele>
        <time>2020-08-03T14:59:43.000Z</time>
      </trkpt>
      <trkpt lat="49.42428" lon="1.74988">
        <ele>199.39999389648</ele>
        <time>2020-08-03T14:59:47.000Z</time>
      </trkpt>
      <trkpt lat="49.42426" lon="1.74985">
        <ele>199.19999694824</ele>
        <time>2020-08-03T14:59:48.000Z</time>
      </trkpt>
      <trkpt lat="49.42429" lon="1.74982">
        <ele>199</ele>
        <time>2020-08-03T14:59:51.000Z</time>
      </trkpt>
      <trkpt lat="49.4243" lon="1.74981">
        <ele>199</ele>
        <time>2020-08-03T14:59:52.000Z</time>
      </trkpt>
      <trkpt lat="49.42431" lon="1.74979">
        <ele>199</ele>
        <time>2020-08-03T14:59:53.000Z</time>
      </trkpt>
      <trkpt lat="49.42432" lon="1.74977">
        <ele>199</ele>
        <time>2020-08-03T14:59:54.000Z</time>
      </trkpt>
      <trkpt lat="49.42426" lon="1.74978">
        <ele>199</ele>
        <time>2020-08-03T14:59:57.000Z</time>
      </trkpt>
      <trkpt lat="49.42426" lon="1.74973">
        <ele>199</ele>
        <time>2020-08-03T14:59:58.000Z</time>
      </trkpt>
      <trkpt lat="49.42426" lon="1.7497">
        <ele>198.60000610352</ele>
        <time>2020-08-03T15:00:01.000Z</time>
      </trkpt>
      <trkpt lat="49.42427" lon="1.7497">
        <ele>198.39999389648</ele>
        <time>2020-08-03T15:00:02.000Z</time>
      </trkpt>
      <trkpt lat="49.42427" lon="1.7497">
        <ele>198.19999694824</ele>
        <time>2020-08-03T15:00:03.000Z</time>
      </trkpt>
      <trkpt lat="49.42427" lon="1.74965">
        <ele>197.80000305176</ele>
        <time>2020-08-03T15:00:08.000Z</time>
      </trkpt>
      <trkpt lat="49.42427" lon="1.74964">
        <ele>197.80000305176</ele>
        <time>2020-08-03T15:00:09.000Z</time>
      </trkpt>
      <trkpt lat="49.42425" lon="1.74963">
        <ele>197.60000610352</ele>
        <time>2020-08-03T15:00:11.000Z</time>
      </trkpt>
      <trkpt lat="49.42427" lon="1.74957">
        <ele>197.39999389648</ele>
        <time>2020-08-03T15:00:14.000Z</time>
      </trkpt>
      <trkpt lat="49.42427" lon="1.7496">
        <ele>197.39999389648</ele>
        <time>2020-08-03T15:00:15.000Z</time>
      </trkpt>
      <trkpt lat="49.42418" lon="1.74961">
        <ele>197.39999389648</ele>
        <time>2020-08-03T15:00:17.000Z</time>
      </trkpt>
      <trkpt lat="49.42419" lon="1.74959">
        <ele>197.39999389648</ele>
        <time>2020-08-03T15:00:19.000Z</time>
      </trkpt>
      <trkpt lat="49.4242" lon="1.74957">
        <ele>197.39999389648</ele>
        <time>2020-08-03T15:00:20.000Z</time>
      </trkpt>
      <trkpt lat="49.42422" lon="1.74955">
        <ele>197.60000610352</ele>
        <time>2020-08-03T15:00:22.000Z</time>
      </trkpt>
      <trkpt lat="49.42424" lon="1.74953">
        <ele>197.60000610352</ele>
        <time>2020-08-03T15:00:25.000Z</time>
      </trkpt>
      <trkpt lat="49.42427" lon="1.74945">
        <ele>197.19999694824</ele>
        <time>2020-08-03T15:00:31.000Z</time>
      </trkpt>
      <trkpt lat="49.42428" lon="1.74941">
        <ele>197</ele>
        <time>2020-08-03T15:00:33.000Z</time>
      </trkpt>
      <trkpt lat="49.4243" lon="1.74926">
        <ele>196.60000610352</ele>
        <time>2020-08-03T15:00:39.000Z</time>
      </trkpt>
      <trkpt lat="49.42431" lon="1.7492">
        <ele>196.39999389648</ele>
        <time>2020-08-03T15:00:41.000Z</time>
      </trkpt>
      <trkpt lat="49.4243" lon="1.74916">
        <ele>196.19999694824</ele>
        <time>2020-08-03T15:00:43.000Z</time>
      </trkpt>
      <trkpt lat="49.42431" lon="1.74911">
        <ele>195.80000305176</ele>
        <time>2020-08-03T15:00:47.000Z</time>
      </trkpt>
      <trkpt lat="49.42431" lon="1.74913">
        <ele>195.80000305176</ele>
        <time>2020-08-03T15:00:48.000Z</time>
      </trkpt>
      <trkpt lat="49.42431" lon="1.74913">
        <ele>195.80000305176</ele>
        <time>2020-08-03T15:00:49.000Z</time>
      </trkpt>
      <trkpt lat="49.4243" lon="1.74909">
        <ele>195.60000610352</ele>
        <time>2020-08-03T15:00:52.000Z</time>
      </trkpt>
      <trkpt lat="49.42429" lon="1.74903">
        <ele>195.39999389648</ele>
        <time>2020-08-03T15:00:56.000Z</time>
      </trkpt>
      <trkpt lat="49.4243" lon="1.74902">
        <ele>195.19999694824</ele>
        <time>2020-08-03T15:00:57.000Z</time>
      </trkpt>
      <trkpt lat="49.42432" lon="1.74897">
        <ele>195.19999694824</ele>
        <time>2020-08-03T15:01:00.000Z</time>
      </trkpt>
      <trkpt lat="49.42433" lon="1.74896">
        <ele>195.19999694824</ele>
        <time>2020-08-03T15:01:02.000Z</time>
      </trkpt>
      <trkpt lat="49.42432" lon="1.74896">
        <ele>195.19999694824</ele>
        <time>2020-08-03T15:01:03.000Z</time>
      </trkpt>
      <trkpt lat="49.42435" lon="1.74898">
        <ele>195.19999694824</ele>
        <time>2020-08-03T15:01:05.000Z</time>
      </trkpt>
      <trkpt lat="49.42435" lon="1.74891">
        <ele>195.19999694824</ele>
        <time>2020-08-03T15:01:09.000Z</time>
      </trkpt>
      <trkpt lat="49.42435" lon="1.74889">
        <ele>195.19999694824</ele>
        <time>2020-08-03T15:01:10.000Z</time>
      </trkpt>
      <trkpt lat="49.42435" lon="1.74886">
        <ele>195</ele>
        <time>2020-08-03T15:01:11.000Z</time>
      </trkpt>
      <trkpt lat="49.42434" lon="1.7489">
        <ele>194.80000305176</ele>
        <time>2020-08-03T15:01:13.000Z</time>
      </trkpt>
      <trkpt lat="49.42434" lon="1.74891">
        <ele>194.60000610352</ele>
        <time>2020-08-03T15:01:15.000Z</time>
      </trkpt>
      <trkpt lat="49.42434" lon="1.7489">
        <ele>194.60000610352</ele>
        <time>2020-08-03T15:01:16.000Z</time>
      </trkpt>
      <trkpt lat="49.42434" lon="1.74888">
        <ele>194.60000610352</ele>
        <time>2020-08-03T15:01:17.000Z</time>
      </trkpt>
      <trkpt lat="49.42433" lon="1.74887">
        <ele>194.80000305176</ele>
        <time>2020-08-03T15:01:19.000Z</time>
      </trkpt>
      <trkpt lat="49.42433" lon="1.74885">
        <ele>194.80000305176</ele>
        <time>2020-08-03T15:01:20.000Z</time>
      </trkpt>
      <trkpt lat="49.42433" lon="1.74877">
        <ele>194.60000610352</ele>
        <time>2020-08-03T15:01:24.000Z</time>
      </trkpt>
      <trkpt lat="49.42433" lon="1.74871">
        <ele>194.39999389648</ele>
        <time>2020-08-03T15:01:28.000Z</time>
      </trkpt>
      <trkpt lat="49.42433" lon="1.74865">
        <ele>194.19999694824</ele>
        <time>2020-08-03T15:01:31.000Z</time>
      </trkpt>
      <trkpt lat="49.42435" lon="1.7486">
        <ele>194.19999694824</ele>
        <time>2020-08-03T15:01:34.000Z</time>
      </trkpt>
      <trkpt lat="49.42435" lon="1.74859">
        <ele>194.19999694824</ele>
        <time>2020-08-03T15:01:35.000Z</time>
      </trkpt>
      <trkpt lat="49.42435" lon="1.74858">
        <ele>194.19999694824</ele>
        <time>2020-08-03T15:01:36.000Z</time>
      </trkpt>
      <trkpt lat="49.42435" lon="1.74857">
        <ele>194.19999694824</ele>
        <time>2020-08-03T15:01:37.000Z</time>
      </trkpt>
      <trkpt lat="49.42435" lon="1.74855">
        <ele>194.19999694824</ele>
        <time>2020-08-03T15:01:38.000Z</time>
      </trkpt>
      <trkpt lat="49.42435" lon="1.74852">
        <ele>194</ele>
        <time>2020-08-03T15:01:40.000Z</time>
      </trkpt>
      <trkpt lat="49.42436" lon="1.74836">
        <ele>193.80000305176</ele>
        <time>2020-08-03T15:01:48.000Z</time>
      </trkpt>
      <trkpt lat="49.42436" lon="1.74836">
        <ele>193.80000305176</ele>
        <time>2020-08-03T15:01:49.000Z</time>
      </trkpt>
      <trkpt lat="49.42436" lon="1.74836">
        <ele>193.60000610352</ele>
        <time>2020-08-03T15:01:50.000Z</time>
      </trkpt>
      <trkpt lat="49.42437" lon="1.74834">
        <ele>193.60000610352</ele>
        <time>2020-08-03T15:01:52.000Z</time>
      </trkpt>
      <trkpt lat="49.42438" lon="1.74832">
        <ele>193.39999389648</ele>
        <time>2020-08-03T15:01:54.000Z</time>
      </trkpt>
      <trkpt lat="49.42438" lon="1.7483">
        <ele>193.39999389648</ele>
        <time>2020-08-03T15:01:56.000Z</time>
      </trkpt>
      <trkpt lat="49.42439" lon="1.74823">
        <ele>193.19999694824</ele>
        <time>2020-08-03T15:02:01.000Z</time>
      </trkpt>
      <trkpt lat="49.42439" lon="1.7482">
        <ele>193</ele>
        <time>2020-08-03T15:02:03.000Z</time>
      </trkpt>
      <trkpt lat="49.4244" lon="1.74819">
        <ele>193</ele>
        <time>2020-08-03T15:02:04.000Z</time>
      </trkpt>
      <trkpt lat="49.42441" lon="1.74806">
        <ele>193</ele>
        <time>2020-08-03T15:02:11.000Z</time>
      </trkpt>
      <trkpt lat="49.42442" lon="1.74801">
        <ele>192.80000305176</ele>
        <time>2020-08-03T15:02:14.000Z</time>
      </trkpt>
      <trkpt lat="49.42443" lon="1.74796">
        <ele>192.19999694824</ele>
        <time>2020-08-03T15:02:17.000Z</time>
      </trkpt>
      <trkpt lat="49.42443" lon="1.74793">
        <ele>192.19999694824</ele>
        <time>2020-08-03T15:02:19.000Z</time>
      </trkpt>
      <trkpt lat="49.42443" lon="1.74792">
        <ele>192</ele>
        <time>2020-08-03T15:02:21.000Z</time>
      </trkpt>
      <trkpt lat="49.42444" lon="1.74792">
        <ele>191.80000305176</ele>
        <time>2020-08-03T15:02:23.000Z</time>
      </trkpt>
      <trkpt lat="49.42445" lon="1.74791">
        <ele>191.80000305176</ele>
        <time>2020-08-03T15:02:24.000Z</time>
      </trkpt>
      <trkpt lat="49.42445" lon="1.74788">
        <ele>191.80000305176</ele>
        <time>2020-08-03T15:02:26.000Z</time>
      </trkpt>
      <trkpt lat="49.42445" lon="1.74788">
        <ele>191.80000305176</ele>
        <time>2020-08-03T15:02:27.000Z</time>
      </trkpt>
      <trkpt lat="49.42445" lon="1.74786">
        <ele>191.60000610352</ele>
        <time>2020-08-03T15:02:29.000Z</time>
      </trkpt>
      <trkpt lat="49.42445" lon="1.74783">
        <ele>191.60000610352</ele>
        <time>2020-08-03T15:02:33.000Z</time>
      </trkpt>
      <trkpt lat="49.42446" lon="1.74781">
        <ele>191.39999389648</ele>
        <time>2020-08-03T15:02:34.000Z</time>
      </trkpt>
      <trkpt lat="49.42444" lon="1.74776">
        <ele>191.19999694824</ele>
        <time>2020-08-03T15:02:40.000Z</time>
      </trkpt>
      <trkpt lat="49.42444" lon="1.74775">
        <ele>191.39999389648</ele>
        <time>2020-08-03T15:02:41.000Z</time>
      </trkpt>
      <trkpt lat="49.42444" lon="1.74773">
        <ele>191.39999389648</ele>
        <time>2020-08-03T15:02:42.000Z</time>
      </trkpt>
      <trkpt lat="49.42445" lon="1.74765">
        <ele>191.19999694824</ele>
        <time>2020-08-03T15:02:49.000Z</time>
      </trkpt>
      <trkpt lat="49.42446" lon="1.74759">
        <ele>190.80000305176</ele>
        <time>2020-08-03T15:02:52.000Z</time>
      </trkpt>
      <trkpt lat="49.42446" lon="1.74754">
        <ele>190.80000305176</ele>
        <time>2020-08-03T15:02:54.000Z</time>
      </trkpt>
      <trkpt lat="49.42446" lon="1.7475">
        <ele>190.80000305176</ele>
        <time>2020-08-03T15:02:56.000Z</time>
      </trkpt>
      <trkpt lat="49.42447" lon="1.74747">
        <ele>190.80000305176</ele>
        <time>2020-08-03T15:02:58.000Z</time>
      </trkpt>
      <trkpt lat="49.42449" lon="1.74737">
        <ele>190.60000610352</ele>
        <time>2020-08-03T15:03:03.000Z</time>
      </trkpt>
      <trkpt lat="49.4245" lon="1.74729">
        <ele>190.39999389648</ele>
        <time>2020-08-03T15:03:07.000Z</time>
      </trkpt>
      <trkpt lat="49.42451" lon="1.74725">
        <ele>190.19999694824</ele>
        <time>2020-08-03T15:03:09.000Z</time>
      </trkpt>
      <trkpt lat="49.42452" lon="1.74724">
        <ele>190.19999694824</ele>
        <time>2020-08-03T15:03:10.000Z</time>
      </trkpt>
      <trkpt lat="49.42454" lon="1.74718">
        <ele>189.80000305176</ele>
        <time>2020-08-03T15:03:15.000Z</time>
      </trkpt>
      <trkpt lat="49.42455" lon="1.74715">
        <ele>189.39999389648</ele>
        <time>2020-08-03T15:03:17.000Z</time>
      </trkpt>
      <trkpt lat="49.42459" lon="1.74702">
        <ele>189</ele>
        <time>2020-08-03T15:03:25.000Z</time>
      </trkpt>
      <trkpt lat="49.42463" lon="1.74694">
        <ele>188.60000610352</ele>
        <time>2020-08-03T15:03:30.000Z</time>
      </trkpt>
      <trkpt lat="49.42466" lon="1.74686">
        <ele>188.19999694824</ele>
        <time>2020-08-03T15:03:34.000Z</time>
      </trkpt>
      <trkpt lat="49.42467" lon="1.74685">
        <ele>188.19999694824</ele>
        <time>2020-08-03T15:03:35.000Z</time>
      </trkpt>
      <trkpt lat="49.42469" lon="1.74676">
        <ele>188</ele>
        <time>2020-08-03T15:03:42.000Z</time>
      </trkpt>
      <trkpt lat="49.4247" lon="1.74673">
        <ele>187.80000305176</ele>
        <time>2020-08-03T15:03:44.000Z</time>
      </trkpt>
      <trkpt lat="49.42471" lon="1.74671">
        <ele>187.60000610352</ele>
        <time>2020-08-03T15:03:46.000Z</time>
      </trkpt>
      <trkpt lat="49.42473" lon="1.74666">
        <ele>187.39999389648</ele>
        <time>2020-08-03T15:03:50.000Z</time>
      </trkpt>
      <trkpt lat="49.42475" lon="1.74665">
        <ele>187.19999694824</ele>
        <time>2020-08-03T15:03:52.000Z</time>
      </trkpt>
      <trkpt lat="49.42482" lon="1.74659">
        <ele>186.80000305176</ele>
        <time>2020-08-03T15:03:58.000Z</time>
      </trkpt>
      <trkpt lat="49.42486" lon="1.74654">
        <ele>186.39999389648</ele>
        <time>2020-08-03T15:04:03.000Z</time>
      </trkpt>
      <trkpt lat="49.42487" lon="1.74653">
        <ele>186.19999694824</ele>
        <time>2020-08-03T15:04:04.000Z</time>
      </trkpt>
      <trkpt lat="49.42497" lon="1.74649">
        <ele>186.19999694824</ele>
        <time>2020-08-03T15:04:12.000Z</time>
      </trkpt>
      <trkpt lat="49.425" lon="1.74643">
        <ele>186.19999694824</ele>
        <time>2020-08-03T15:04:16.000Z</time>
      </trkpt>
      <trkpt lat="49.42503" lon="1.74642">
        <ele>186.19999694824</ele>
        <time>2020-08-03T15:04:18.000Z</time>
      </trkpt>
      <trkpt lat="49.42504" lon="1.74641">
        <ele>186.19999694824</ele>
        <time>2020-08-03T15:04:19.000Z</time>
      </trkpt>
      <trkpt lat="49.42505" lon="1.74639">
        <ele>186.19999694824</ele>
        <time>2020-08-03T15:04:20.000Z</time>
      </trkpt>
      <trkpt lat="49.42508" lon="1.74634">
        <ele>185.60000610352</ele>
        <time>2020-08-03T15:04:23.000Z</time>
      </trkpt>
      <trkpt lat="49.4251" lon="1.74631">
        <ele>185.19999694824</ele>
        <time>2020-08-03T15:04:27.000Z</time>
      </trkpt>
      <trkpt lat="49.42513" lon="1.74624">
        <ele>185</ele>
        <time>2020-08-03T15:04:32.000Z</time>
      </trkpt>
      <trkpt lat="49.42513" lon="1.74623">
        <ele>185</ele>
        <time>2020-08-03T15:04:34.000Z</time>
      </trkpt>
      <trkpt lat="49.42513" lon="1.74622">
        <ele>185</ele>
        <time>2020-08-03T15:04:37.000Z</time>
      </trkpt>
      <trkpt lat="49.42514" lon="1.74622">
        <ele>185</ele>
        <time>2020-08-03T15:04:38.000Z</time>
      </trkpt>
      <trkpt lat="49.42514" lon="1.74618">
        <ele>185</ele>
        <time>2020-08-03T15:04:42.000Z</time>
      </trkpt>
      <trkpt lat="49.42515" lon="1.74615">
        <ele>184.60000610352</ele>
        <time>2020-08-03T15:04:46.000Z</time>
      </trkpt>
      <trkpt lat="49.42511" lon="1.74612">
        <ele>184.39999389648</ele>
        <time>2020-08-03T15:04:50.000Z</time>
      </trkpt>
      <trkpt lat="49.42515" lon="1.74615">
        <ele>184.39999389648</ele>
        <time>2020-08-03T15:04:53.000Z</time>
      </trkpt>
      <trkpt lat="49.42518" lon="1.74616">
        <ele>184.19999694824</ele>
        <time>2020-08-03T15:04:56.000Z</time>
      </trkpt>
      <trkpt lat="49.42519" lon="1.74615">
        <ele>184</ele>
        <time>2020-08-03T15:04:57.000Z</time>
      </trkpt>
      <trkpt lat="49.42519" lon="1.74614">
        <ele>184</ele>
        <time>2020-08-03T15:04:58.000Z</time>
      </trkpt>
      <trkpt lat="49.42527" lon="1.74623">
        <ele>183.60000610352</ele>
        <time>2020-08-03T15:05:01.000Z</time>
      </trkpt>
      <trkpt lat="49.42529" lon="1.74619">
        <ele>183.60000610352</ele>
        <time>2020-08-03T15:05:04.000Z</time>
      </trkpt>
      <trkpt lat="49.4253" lon="1.74618">
        <ele>183.60000610352</ele>
        <time>2020-08-03T15:05:05.000Z</time>
      </trkpt>
      <trkpt lat="49.42532" lon="1.74616">
        <ele>183.39999389648</ele>
        <time>2020-08-03T15:05:08.000Z</time>
      </trkpt>
      <trkpt lat="49.42533" lon="1.74616">
        <ele>183.39999389648</ele>
        <time>2020-08-03T15:05:10.000Z</time>
      </trkpt>
      <trkpt lat="49.42533" lon="1.74609">
        <ele>183.39999389648</ele>
        <time>2020-08-03T15:05:12.000Z</time>
      </trkpt>
      <trkpt lat="49.42533" lon="1.74609">
        <ele>183.39999389648</ele>
        <time>2020-08-03T15:05:13.000Z</time>
      </trkpt>
      <trkpt lat="49.42533" lon="1.74605">
        <ele>183.39999389648</ele>
        <time>2020-08-03T15:05:17.000Z</time>
      </trkpt>
      <trkpt lat="49.42531" lon="1.74605">
        <ele>183.60000610352</ele>
        <time>2020-08-03T15:05:20.000Z</time>
      </trkpt>
      <trkpt lat="49.42531" lon="1.74605">
        <ele>183.39999389648</ele>
        <time>2020-08-03T15:05:22.000Z</time>
      </trkpt>
      <trkpt lat="49.42535" lon="1.74605">
        <ele>183.39999389648</ele>
        <time>2020-08-03T15:05:23.000Z</time>
      </trkpt>
      <trkpt lat="49.42535" lon="1.74605">
        <ele>183.39999389648</ele>
        <time>2020-08-03T15:05:24.000Z</time>
      </trkpt>
      <trkpt lat="49.42536" lon="1.74607">
        <ele>183.19999694824</ele>
        <time>2020-08-03T15:05:27.000Z</time>
      </trkpt>
      <trkpt lat="49.42536" lon="1.74608">
        <ele>183.19999694824</ele>
        <time>2020-08-03T15:05:30.000Z</time>
      </trkpt>
      <trkpt lat="49.4254" lon="1.746">
        <ele>183</ele>
        <time>2020-08-03T15:05:38.000Z</time>
      </trkpt>
      <trkpt lat="49.42546" lon="1.74591">
        <ele>182.60000610352</ele>
        <time>2020-08-03T15:05:47.000Z</time>
      </trkpt>
      <trkpt lat="49.42546" lon="1.7459">
        <ele>182.60000610352</ele>
        <time>2020-08-03T15:05:48.000Z</time>
      </trkpt>
      <trkpt lat="49.42547" lon="1.74589">
        <ele>182.60000610352</ele>
        <time>2020-08-03T15:05:49.000Z</time>
      </trkpt>
      <trkpt lat="49.42549" lon="1.74584">
        <ele>182.39999389648</ele>
        <time>2020-08-03T15:05:52.000Z</time>
      </trkpt>
      <trkpt lat="49.42554" lon="1.74581">
        <ele>182.39999389648</ele>
        <time>2020-08-03T15:05:55.000Z</time>
      </trkpt>
      <trkpt lat="49.42559" lon="1.74578">
        <ele>182.19999694824</ele>
        <time>2020-08-03T15:06:00.000Z</time>
      </trkpt>
      <trkpt lat="49.4256" lon="1.74579">
        <ele>182.19999694824</ele>
        <time>2020-08-03T15:06:01.000Z</time>
      </trkpt>
      <trkpt lat="49.42562" lon="1.74579">
        <ele>182</ele>
        <time>2020-08-03T15:06:03.000Z</time>
      </trkpt>
      <trkpt lat="49.4257" lon="1.74575">
        <ele>181.39999389648</ele>
        <time>2020-08-03T15:06:11.000Z</time>
      </trkpt>
      <trkpt lat="49.42571" lon="1.74574">
        <ele>181.39999389648</ele>
        <time>2020-08-03T15:06:12.000Z</time>
      </trkpt>
      <trkpt lat="49.42577" lon="1.74569">
        <ele>181.39999389648</ele>
        <time>2020-08-03T15:06:18.000Z</time>
      </trkpt>
      <trkpt lat="49.42579" lon="1.74569">
        <ele>181.19999694824</ele>
        <time>2020-08-03T15:06:20.000Z</time>
      </trkpt>
      <trkpt lat="49.42582" lon="1.74565">
        <ele>181</ele>
        <time>2020-08-03T15:06:21.000Z</time>
      </trkpt>
      <trkpt lat="49.42589" lon="1.74556">
        <ele>180.39999389648</ele>
        <time>2020-08-03T15:06:30.000Z</time>
      </trkpt>
      <trkpt lat="49.42593" lon="1.74549">
        <ele>180</ele>
        <time>2020-08-03T15:06:38.000Z</time>
      </trkpt>
      <trkpt lat="49.42594" lon="1.74547">
        <ele>179.80000305176</ele>
        <time>2020-08-03T15:06:40.000Z</time>
      </trkpt>
      <trkpt lat="49.42595" lon="1.74544">
        <ele>179.80000305176</ele>
        <time>2020-08-03T15:06:42.000Z</time>
      </trkpt>
      <trkpt lat="49.42598" lon="1.74542">
        <ele>179.80000305176</ele>
        <time>2020-08-03T15:06:45.000Z</time>
      </trkpt>
      <trkpt lat="49.42602" lon="1.74538">
        <ele>179.60000610352</ele>
        <time>2020-08-03T15:06:50.000Z</time>
      </trkpt>
      <trkpt lat="49.42605" lon="1.74533">
        <ele>179.19999694824</ele>
        <time>2020-08-03T15:06:54.000Z</time>
      </trkpt>
      <trkpt lat="49.42606" lon="1.74532">
        <ele>179.19999694824</ele>
        <time>2020-08-03T15:06:55.000Z</time>
      </trkpt>
      <trkpt lat="49.42607" lon="1.74532">
        <ele>179</ele>
        <time>2020-08-03T15:06:57.000Z</time>
      </trkpt>
      <trkpt lat="49.42607" lon="1.74531">
        <ele>178.80000305176</ele>
        <time>2020-08-03T15:06:58.000Z</time>
      </trkpt>
      <trkpt lat="49.4261" lon="1.74529">
        <ele>178.80000305176</ele>
        <time>2020-08-03T15:07:01.000Z</time>
      </trkpt>
      <trkpt lat="49.4261" lon="1.74528">
        <ele>178.80000305176</ele>
        <time>2020-08-03T15:07:02.000Z</time>
      </trkpt>
      <trkpt lat="49.42613" lon="1.74526">
        <ele>178.80000305176</ele>
        <time>2020-08-03T15:07:05.000Z</time>
      </trkpt>
      <trkpt lat="49.42615" lon="1.74525">
        <ele>178.39999389648</ele>
        <time>2020-08-03T15:07:07.000Z</time>
      </trkpt>
      <trkpt lat="49.42616" lon="1.74523">
        <ele>178.39999389648</ele>
        <time>2020-08-03T15:07:09.000Z</time>
      </trkpt>
      <trkpt lat="49.42617" lon="1.74521">
        <ele>178.19999694824</ele>
        <time>2020-08-03T15:07:11.000Z</time>
      </trkpt>
      <trkpt lat="49.42619" lon="1.7452">
        <ele>178.19999694824</ele>
        <time>2020-08-03T15:07:13.000Z</time>
      </trkpt>
      <trkpt lat="49.4262" lon="1.74519">
        <ele>178.19999694824</ele>
        <time>2020-08-03T15:07:14.000Z</time>
      </trkpt>
      <trkpt lat="49.42623" lon="1.74515">
        <ele>177.80000305176</ele>
        <time>2020-08-03T15:07:17.000Z</time>
      </trkpt>
      <trkpt lat="49.42629" lon="1.74508">
        <ele>177.19999694824</ele>
        <time>2020-08-03T15:07:23.000Z</time>
      </trkpt>
      <trkpt lat="49.42631" lon="1.74505">
        <ele>177</ele>
        <time>2020-08-03T15:07:25.000Z</time>
      </trkpt>
      <trkpt lat="49.42633" lon="1.745">
        <ele>176.80000305176</ele>
        <time>2020-08-03T15:07:28.000Z</time>
      </trkpt>
      <trkpt lat="49.42638" lon="1.74494">
        <ele>176.60000610352</ele>
        <time>2020-08-03T15:07:32.000Z</time>
      </trkpt>
      <trkpt lat="49.42642" lon="1.7449">
        <ele>176.60000610352</ele>
        <time>2020-08-03T15:07:37.000Z</time>
      </trkpt>
      <trkpt lat="49.42644" lon="1.74488">
        <ele>176.19999694824</ele>
        <time>2020-08-03T15:07:40.000Z</time>
      </trkpt>
      <trkpt lat="49.42646" lon="1.74487">
        <ele>176.19999694824</ele>
        <time>2020-08-03T15:07:41.000Z</time>
      </trkpt>
      <trkpt lat="49.42644" lon="1.74488">
        <ele>176.39999389648</ele>
        <time>2020-08-03T15:07:45.000Z</time>
      </trkpt>
      <trkpt lat="49.42646" lon="1.74488">
        <ele>176.39999389648</ele>
        <time>2020-08-03T15:07:48.000Z</time>
      </trkpt>
      <trkpt lat="49.42646" lon="1.74488">
        <ele>176.39999389648</ele>
        <time>2020-08-03T15:07:49.000Z</time>
      </trkpt>
      <trkpt lat="49.42648" lon="1.74488">
        <ele>176.19999694824</ele>
        <time>2020-08-03T15:07:54.000Z</time>
      </trkpt>
      <trkpt lat="49.42649" lon="1.74486">
        <ele>176.39999389648</ele>
        <time>2020-08-03T15:07:58.000Z</time>
      </trkpt>
      <trkpt lat="49.42654" lon="1.74486">
        <ele>177.19999694824</ele>
        <time>2020-08-03T15:08:02.000Z</time>
      </trkpt>
      <trkpt lat="49.42656" lon="1.74485">
        <ele>177.39999389648</ele>
        <time>2020-08-03T15:08:05.000Z</time>
      </trkpt>
      <trkpt lat="49.42656" lon="1.74486">
        <ele>177.60000610352</ele>
        <time>2020-08-03T15:08:07.000Z</time>
      </trkpt>
      <trkpt lat="49.42657" lon="1.74487">
        <ele>177.60000610352</ele>
        <time>2020-08-03T15:08:09.000Z</time>
      </trkpt>
      <trkpt lat="49.42657" lon="1.74483">
        <ele>177.80000305176</ele>
        <time>2020-08-03T15:08:14.000Z</time>
      </trkpt>
      <trkpt lat="49.42657" lon="1.74482">
        <ele>177.80000305176</ele>
        <time>2020-08-03T15:08:18.000Z</time>
      </trkpt>
      <trkpt lat="49.42657" lon="1.74479">
        <ele>178</ele>
        <time>2020-08-03T15:08:22.000Z</time>
      </trkpt>
      <trkpt lat="49.42657" lon="1.74481">
        <ele>177.60000610352</ele>
        <time>2020-08-03T15:08:29.000Z</time>
      </trkpt>
      <trkpt lat="49.42657" lon="1.74481">
        <ele>177.60000610352</ele>
        <time>2020-08-03T15:08:30.000Z</time>
      </trkpt>
      <trkpt lat="49.42657" lon="1.7448">
        <ele>177.60000610352</ele>
        <time>2020-08-03T15:08:31.000Z</time>
      </trkpt>
      <trkpt lat="49.42658" lon="1.74482">
        <ele>177.60000610352</ele>
        <time>2020-08-03T15:08:38.000Z</time>
      </trkpt>
      <trkpt lat="49.42659" lon="1.74481">
        <ele>178</ele>
        <time>2020-08-03T15:08:44.000Z</time>
      </trkpt>
      <trkpt lat="49.4266" lon="1.7448">
        <ele>177.80000305176</ele>
        <time>2020-08-03T15:08:46.000Z</time>
      </trkpt>
      <trkpt lat="49.42662" lon="1.74483">
        <ele>177.80000305176</ele>
        <time>2020-08-03T15:08:49.000Z</time>
      </trkpt>
      <trkpt lat="49.42662" lon="1.74485">
        <ele>177.80000305176</ele>
        <time>2020-08-03T15:08:51.000Z</time>
      </trkpt>
      <trkpt lat="49.42662" lon="1.74478">
        <ele>178.60000610352</ele>
        <time>2020-08-03T15:08:59.000Z</time>
      </trkpt>
      <trkpt lat="49.42663" lon="1.74478">
        <ele>178.60000610352</ele>
        <time>2020-08-03T15:09:00.000Z</time>
      </trkpt>
      <trkpt lat="49.42665" lon="1.74477">
        <ele>179</ele>
        <time>2020-08-03T15:09:02.000Z</time>
      </trkpt>
      <trkpt lat="49.42667" lon="1.74477">
        <ele>179.39999389648</ele>
        <time>2020-08-03T15:09:05.000Z</time>
      </trkpt>
      <trkpt lat="49.42668" lon="1.74475">
        <ele>179.39999389648</ele>
        <time>2020-08-03T15:09:07.000Z</time>
      </trkpt>
      <trkpt lat="49.42668" lon="1.74474">
        <ele>179.39999389648</ele>
        <time>2020-08-03T15:09:08.000Z</time>
      </trkpt>
      <trkpt lat="49.42669" lon="1.74472">
        <ele>179.60000610352</ele>
        <time>2020-08-03T15:09:10.000Z</time>
      </trkpt>
      <trkpt lat="49.42673" lon="1.7447">
        <ele>179.80000305176</ele>
        <time>2020-08-03T15:09:14.000Z</time>
      </trkpt>
      <trkpt lat="49.42674" lon="1.74469">
        <ele>180</ele>
        <time>2020-08-03T15:09:15.000Z</time>
      </trkpt>
      <trkpt lat="49.42676" lon="1.74468">
        <ele>180</ele>
        <time>2020-08-03T15:09:16.000Z</time>
      </trkpt>
      <trkpt lat="49.4268" lon="1.74467">
        <ele>180.80000305176</ele>
        <time>2020-08-03T15:09:20.000Z</time>
      </trkpt>
      <trkpt lat="49.42681" lon="1.74466">
        <ele>181</ele>
        <time>2020-08-03T15:09:22.000Z</time>
      </trkpt>
      <trkpt lat="49.42682" lon="1.74465">
        <ele>181.19999694824</ele>
        <time>2020-08-03T15:09:23.000Z</time>
      </trkpt>
      <trkpt lat="49.42684" lon="1.74464">
        <ele>181.39999389648</ele>
        <time>2020-08-03T15:09:25.000Z</time>
      </trkpt>
      <trkpt lat="49.42686" lon="1.74462">
        <ele>181.60000610352</ele>
        <time>2020-08-03T15:09:28.000Z</time>
      </trkpt>
      <trkpt lat="49.42688" lon="1.74455">
        <ele>181.80000305176</ele>
        <time>2020-08-03T15:09:32.000Z</time>
      </trkpt>
      <trkpt lat="49.42694" lon="1.74454">
        <ele>181.60000610352</ele>
        <time>2020-08-03T15:09:38.000Z</time>
      </trkpt>
      <trkpt lat="49.42696" lon="1.74454">
        <ele>181.60000610352</ele>
        <time>2020-08-03T15:09:40.000Z</time>
      </trkpt>
      <trkpt lat="49.42698" lon="1.74455">
        <ele>181.80000305176</ele>
        <time>2020-08-03T15:09:43.000Z</time>
      </trkpt>
      <trkpt lat="49.42698" lon="1.74454">
        <ele>181.60000610352</ele>
        <time>2020-08-03T15:09:45.000Z</time>
      </trkpt>
      <trkpt lat="49.42697" lon="1.74453">
        <ele>181.60000610352</ele>
        <time>2020-08-03T15:09:47.000Z</time>
      </trkpt>
      <trkpt lat="49.42699" lon="1.74452">
        <ele>181.60000610352</ele>
        <time>2020-08-03T15:09:49.000Z</time>
      </trkpt>
      <trkpt lat="49.427" lon="1.74452">
        <ele>181.39999389648</ele>
        <time>2020-08-03T15:09:52.000Z</time>
      </trkpt>
      <trkpt lat="49.42699" lon="1.74452">
        <ele>181.39999389648</ele>
        <time>2020-08-03T15:09:54.000Z</time>
      </trkpt>
      <trkpt lat="49.42699" lon="1.74452">
        <ele>181.39999389648</ele>
        <time>2020-08-03T15:09:55.000Z</time>
      </trkpt>
      <trkpt lat="49.42699" lon="1.74451">
        <ele>181.39999389648</ele>
        <time>2020-08-03T15:09:56.000Z</time>
      </trkpt>
      <trkpt lat="49.42699" lon="1.7445">
        <ele>181.39999389648</ele>
        <time>2020-08-03T15:09:57.000Z</time>
      </trkpt>
      <trkpt lat="49.427" lon="1.74449">
        <ele>181.60000610352</ele>
        <time>2020-08-03T15:09:59.000Z</time>
      </trkpt>
      <trkpt lat="49.42701" lon="1.74447">
        <ele>182</ele>
        <time>2020-08-03T15:10:03.000Z</time>
      </trkpt>
      <trkpt lat="49.42702" lon="1.74447">
        <ele>182.19999694824</ele>
        <time>2020-08-03T15:10:04.000Z</time>
      </trkpt>
      <trkpt lat="49.42702" lon="1.74445">
        <ele>182.39999389648</ele>
        <time>2020-08-03T15:10:05.000Z</time>
      </trkpt>
      <trkpt lat="49.42702" lon="1.74444">
        <ele>182.60000610352</ele>
        <time>2020-08-03T15:10:06.000Z</time>
      </trkpt>
      <trkpt lat="49.42702" lon="1.74442">
        <ele>182.60000610352</ele>
        <time>2020-08-03T15:10:07.000Z</time>
      </trkpt>
      <trkpt lat="49.42702" lon="1.74439">
        <ele>183</ele>
        <time>2020-08-03T15:10:09.000Z</time>
      </trkpt>
      <trkpt lat="49.42703" lon="1.74438">
        <ele>183.39999389648</ele>
        <time>2020-08-03T15:10:11.000Z</time>
      </trkpt>
      <trkpt lat="49.42703" lon="1.74438">
        <ele>183.39999389648</ele>
        <time>2020-08-03T15:10:13.000Z</time>
      </trkpt>
      <trkpt lat="49.42704" lon="1.74438">
        <ele>183.39999389648</ele>
        <time>2020-08-03T15:10:14.000Z</time>
      </trkpt>
      <trkpt lat="49.42705" lon="1.74438">
        <ele>183.39999389648</ele>
        <time>2020-08-03T15:10:15.000Z</time>
      </trkpt>
      <trkpt lat="49.42707" lon="1.74441">
        <ele>183.39999389648</ele>
        <time>2020-08-03T15:10:17.000Z</time>
      </trkpt>
      <trkpt lat="49.42709" lon="1.74442">
        <ele>183.80000305176</ele>
        <time>2020-08-03T15:10:19.000Z</time>
      </trkpt>
      <trkpt lat="49.4271" lon="1.74443">
        <ele>183.80000305176</ele>
        <time>2020-08-03T15:10:20.000Z</time>
      </trkpt>
      <trkpt lat="49.42711" lon="1.74443">
        <ele>184</ele>
        <time>2020-08-03T15:10:21.000Z</time>
      </trkpt>
      <trkpt lat="49.42712" lon="1.74443">
        <ele>184</ele>
        <time>2020-08-03T15:10:22.000Z</time>
      </trkpt>
      <trkpt lat="49.42715" lon="1.74442">
        <ele>184.39999389648</ele>
        <time>2020-08-03T15:10:24.000Z</time>
      </trkpt>
      <trkpt lat="49.42718" lon="1.7444">
        <ele>184.60000610352</ele>
        <time>2020-08-03T15:10:25.000Z</time>
      </trkpt>
      <trkpt lat="49.42719" lon="1.74439">
        <ele>184.80000305176</ele>
        <time>2020-08-03T15:10:26.000Z</time>
      </trkpt>
      <trkpt lat="49.42719" lon="1.74439">
        <ele>185</ele>
        <time>2020-08-03T15:10:27.000Z</time>
      </trkpt>
      <trkpt lat="49.42719" lon="1.74438">
        <ele>185</ele>
        <time>2020-08-03T15:10:28.000Z</time>
      </trkpt>
      <trkpt lat="49.42721" lon="1.74436">
        <ele>185.19999694824</ele>
        <time>2020-08-03T15:10:30.000Z</time>
      </trkpt>
      <trkpt lat="49.42721" lon="1.74435">
        <ele>185.39999389648</ele>
        <time>2020-08-03T15:10:31.000Z</time>
      </trkpt>
      <trkpt lat="49.42726" lon="1.74433">
        <ele>185.60000610352</ele>
        <time>2020-08-03T15:10:36.000Z</time>
      </trkpt>
      <trkpt lat="49.42727" lon="1.74433">
        <ele>185.60000610352</ele>
        <time>2020-08-03T15:10:37.000Z</time>
      </trkpt>
      <trkpt lat="49.42727" lon="1.74432">
        <ele>185.80000305176</ele>
        <time>2020-08-03T15:10:38.000Z</time>
      </trkpt>
      <trkpt lat="49.42731" lon="1.7443">
        <ele>186</ele>
        <time>2020-08-03T15:10:42.000Z</time>
      </trkpt>
      <trkpt lat="49.42732" lon="1.74426">
        <ele>186.39999389648</ele>
        <time>2020-08-03T15:10:46.000Z</time>
      </trkpt>
      <trkpt lat="49.42733" lon="1.74424">
        <ele>186.60000610352</ele>
        <time>2020-08-03T15:10:48.000Z</time>
      </trkpt>
      <trkpt lat="49.42734" lon="1.74422">
        <ele>186.80000305176</ele>
        <time>2020-08-03T15:10:50.000Z</time>
      </trkpt>
      <trkpt lat="49.42735" lon="1.7442">
        <ele>186.60000610352</ele>
        <time>2020-08-03T15:10:53.000Z</time>
      </trkpt>
      <trkpt lat="49.42738" lon="1.74416">
        <ele>186.60000610352</ele>
        <time>2020-08-03T15:10:56.000Z</time>
      </trkpt>
      <trkpt lat="49.42739" lon="1.74414">
        <ele>186.60000610352</ele>
        <time>2020-08-03T15:10:58.000Z</time>
      </trkpt>
      <trkpt lat="49.4274" lon="1.74414">
        <ele>186.80000305176</ele>
        <time>2020-08-03T15:10:59.000Z</time>
      </trkpt>
      <trkpt lat="49.42742" lon="1.74412">
        <ele>186.80000305176</ele>
        <time>2020-08-03T15:11:01.000Z</time>
      </trkpt>
      <trkpt lat="49.42744" lon="1.74411">
        <ele>187.19999694824</ele>
        <time>2020-08-03T15:11:05.000Z</time>
      </trkpt>
      <trkpt lat="49.42746" lon="1.7441">
        <ele>187.39999389648</ele>
        <time>2020-08-03T15:11:07.000Z</time>
      </trkpt>
      <trkpt lat="49.42749" lon="1.7441">
        <ele>187.80000305176</ele>
        <time>2020-08-03T15:11:09.000Z</time>
      </trkpt>
      <trkpt lat="49.42751" lon="1.74411">
        <ele>188.19999694824</ele>
        <time>2020-08-03T15:11:11.000Z</time>
      </trkpt>
      <trkpt lat="49.42753" lon="1.7441">
        <ele>188.80000305176</ele>
        <time>2020-08-03T15:11:13.000Z</time>
      </trkpt>
      <trkpt lat="49.42756" lon="1.74408">
        <ele>189.80000305176</ele>
        <time>2020-08-03T15:11:17.000Z</time>
      </trkpt>
      <trkpt lat="49.42757" lon="1.74408">
        <ele>190</ele>
        <time>2020-08-03T15:11:18.000Z</time>
      </trkpt>
      <trkpt lat="49.42758" lon="1.74406">
        <ele>190.39999389648</ele>
        <time>2020-08-03T15:11:20.000Z</time>
      </trkpt>
      <trkpt lat="49.42759" lon="1.74405">
        <ele>190.60000610352</ele>
        <time>2020-08-03T15:11:21.000Z</time>
      </trkpt>
      <trkpt lat="49.4276" lon="1.74404">
        <ele>190.80000305176</ele>
        <time>2020-08-03T15:11:22.000Z</time>
      </trkpt>
      <trkpt lat="49.42761" lon="1.74404">
        <ele>191.19999694824</ele>
        <time>2020-08-03T15:11:23.000Z</time>
      </trkpt>
      <trkpt lat="49.42763" lon="1.74405">
        <ele>191.80000305176</ele>
        <time>2020-08-03T15:11:26.000Z</time>
      </trkpt>
      <trkpt lat="49.42764" lon="1.74404">
        <ele>192.39999389648</ele>
        <time>2020-08-03T15:11:28.000Z</time>
      </trkpt>
      <trkpt lat="49.42764" lon="1.74404">
        <ele>192.60000610352</ele>
        <time>2020-08-03T15:11:29.000Z</time>
      </trkpt>
      <trkpt lat="49.42766" lon="1.74404">
        <ele>193</ele>
        <time>2020-08-03T15:11:31.000Z</time>
      </trkpt>
      <trkpt lat="49.42767" lon="1.74404">
        <ele>193.39999389648</ele>
        <time>2020-08-03T15:11:33.000Z</time>
      </trkpt>
      <trkpt lat="49.42768" lon="1.74405">
        <ele>193.60000610352</ele>
        <time>2020-08-03T15:11:34.000Z</time>
      </trkpt>
      <trkpt lat="49.42765" lon="1.74405">
        <ele>193.60000610352</ele>
        <time>2020-08-03T15:11:37.000Z</time>
      </trkpt>
      <trkpt lat="49.42765" lon="1.74405">
        <ele>193.60000610352</ele>
        <time>2020-08-03T15:11:38.000Z</time>
      </trkpt>
      <trkpt lat="49.42769" lon="1.74401">
        <ele>193.80000305176</ele>
        <time>2020-08-03T15:11:46.000Z</time>
      </trkpt>
      <trkpt lat="49.4277" lon="1.744">
        <ele>194</ele>
        <time>2020-08-03T15:11:47.000Z</time>
      </trkpt>
      <trkpt lat="49.42772" lon="1.74395">
        <ele>194.19999694824</ele>
        <time>2020-08-03T15:11:49.000Z</time>
      </trkpt>
      <trkpt lat="49.42774" lon="1.74393">
        <ele>194.39999389648</ele>
        <time>2020-08-03T15:11:51.000Z</time>
      </trkpt>
      <trkpt lat="49.42775" lon="1.74392">
        <ele>194.60000610352</ele>
        <time>2020-08-03T15:11:53.000Z</time>
      </trkpt>
      <trkpt lat="49.42776" lon="1.74392">
        <ele>194.60000610352</ele>
        <time>2020-08-03T15:11:54.000Z</time>
      </trkpt>
      <trkpt lat="49.42776" lon="1.74391">
        <ele>194.60000610352</ele>
        <time>2020-08-03T15:11:55.000Z</time>
      </trkpt>
      <trkpt lat="49.42776" lon="1.74391">
        <ele>194.60000610352</ele>
        <time>2020-08-03T15:11:56.000Z</time>
      </trkpt>
      <trkpt lat="49.42776" lon="1.7439">
        <ele>194.60000610352</ele>
        <time>2020-08-03T15:11:58.000Z</time>
      </trkpt>
      <trkpt lat="49.42778" lon="1.7439">
        <ele>194.39999389648</ele>
        <time>2020-08-03T15:12:03.000Z</time>
      </trkpt>
      <trkpt lat="49.42779" lon="1.74389">
        <ele>194.39999389648</ele>
        <time>2020-08-03T15:12:06.000Z</time>
      </trkpt>
      <trkpt lat="49.42778" lon="1.7439">
        <ele>194.19999694824</ele>
        <time>2020-08-03T15:12:11.000Z</time>
      </trkpt>
      <trkpt lat="49.42778" lon="1.74384">
        <ele>194.60000610352</ele>
        <time>2020-08-03T15:12:18.000Z</time>
      </trkpt>
      <trkpt lat="49.42779" lon="1.74383">
        <ele>194.60000610352</ele>
        <time>2020-08-03T15:12:19.000Z</time>
      </trkpt>
      <trkpt lat="49.42781" lon="1.74381">
        <ele>195.39999389648</ele>
        <time>2020-08-03T15:12:25.000Z</time>
      </trkpt>
      <trkpt lat="49.42781" lon="1.7438">
        <ele>195.60000610352</ele>
        <time>2020-08-03T15:12:26.000Z</time>
      </trkpt>
      <trkpt lat="49.42782" lon="1.74379">
        <ele>195.60000610352</ele>
        <time>2020-08-03T15:12:27.000Z</time>
      </trkpt>
      <trkpt lat="49.42782" lon="1.74378">
        <ele>196.19999694824</ele>
        <time>2020-08-03T15:12:29.000Z</time>
      </trkpt>
      <trkpt lat="49.42784" lon="1.74377">
        <ele>196.60000610352</ele>
        <time>2020-08-03T15:12:31.000Z</time>
      </trkpt>
      <trkpt lat="49.42786" lon="1.74376">
        <ele>197</ele>
        <time>2020-08-03T15:12:33.000Z</time>
      </trkpt>
      <trkpt lat="49.42791" lon="1.74374">
        <ele>197.80000305176</ele>
        <time>2020-08-03T15:12:37.000Z</time>
      </trkpt>
      <trkpt lat="49.42791" lon="1.74374">
        <ele>197.80000305176</ele>
        <time>2020-08-03T15:12:38.000Z</time>
      </trkpt>
      <trkpt lat="49.42793" lon="1.7437">
        <ele>198</ele>
        <time>2020-08-03T15:12:41.000Z</time>
      </trkpt>
      <trkpt lat="49.42793" lon="1.74369">
        <ele>198.60000610352</ele>
        <time>2020-08-03T15:12:46.000Z</time>
      </trkpt>
      <trkpt lat="49.42793" lon="1.7437">
        <ele>198.60000610352</ele>
        <time>2020-08-03T15:12:50.000Z</time>
      </trkpt>
      <trkpt lat="49.4279" lon="1.74371">
        <ele>198.39999389648</ele>
        <time>2020-08-03T15:12:52.000Z</time>
      </trkpt>
      <trkpt lat="49.4279" lon="1.74372">
        <ele>198.19999694824</ele>
        <time>2020-08-03T15:12:54.000Z</time>
      </trkpt>
      <trkpt lat="49.42788" lon="1.74372">
        <ele>197.80000305176</ele>
        <time>2020-08-03T15:12:56.000Z</time>
      </trkpt>
      <trkpt lat="49.42789" lon="1.74373">
        <ele>197.80000305176</ele>
        <time>2020-08-03T15:12:57.000Z</time>
      </trkpt>
      <trkpt lat="49.4279" lon="1.74375">
        <ele>197.60000610352</ele>
        <time>2020-08-03T15:13:00.000Z</time>
      </trkpt>
      <trkpt lat="49.42791" lon="1.74377">
        <ele>198</ele>
        <time>2020-08-03T15:13:03.000Z</time>
      </trkpt>
      <trkpt lat="49.42792" lon="1.74379">
        <ele>198</ele>
        <time>2020-08-03T15:13:09.000Z</time>
      </trkpt>
      <trkpt lat="49.42791" lon="1.74371">
        <ele>198.19999694824</ele>
        <time>2020-08-03T15:13:14.000Z</time>
      </trkpt>
      <trkpt lat="49.42791" lon="1.74368">
        <ele>198.19999694824</ele>
        <time>2020-08-03T15:13:16.000Z</time>
      </trkpt>
      <trkpt lat="49.42791" lon="1.74367">
        <ele>198.19999694824</ele>
        <time>2020-08-03T15:13:17.000Z</time>
      </trkpt>
      <trkpt lat="49.42791" lon="1.74363">
        <ele>198.19999694824</ele>
        <time>2020-08-03T15:13:20.000Z</time>
      </trkpt>
      <trkpt lat="49.42791" lon="1.7436">
        <ele>198</ele>
        <time>2020-08-03T15:13:23.000Z</time>
      </trkpt>
      <trkpt lat="49.42795" lon="1.74356">
        <ele>197.80000305176</ele>
        <time>2020-08-03T15:13:29.000Z</time>
      </trkpt>
      <trkpt lat="49.42796" lon="1.74355">
        <ele>198</ele>
        <time>2020-08-03T15:13:30.000Z</time>
      </trkpt>
      <trkpt lat="49.42798" lon="1.74351">
        <ele>198</ele>
        <time>2020-08-03T15:13:33.000Z</time>
      </trkpt>
      <trkpt lat="49.428" lon="1.74346">
        <ele>198</ele>
        <time>2020-08-03T15:13:37.000Z</time>
      </trkpt>
      <trkpt lat="49.428" lon="1.74342">
        <ele>198</ele>
        <time>2020-08-03T15:13:39.000Z</time>
      </trkpt>
      <trkpt lat="49.428" lon="1.74341">
        <ele>198</ele>
        <time>2020-08-03T15:13:40.000Z</time>
      </trkpt>
      <trkpt lat="49.42799" lon="1.74337">
        <ele>198</ele>
        <time>2020-08-03T15:13:42.000Z</time>
      </trkpt>
      <trkpt lat="49.428" lon="1.74333">
        <ele>198.19999694824</ele>
        <time>2020-08-03T15:13:44.000Z</time>
      </trkpt>
      <trkpt lat="49.428" lon="1.74331">
        <ele>198.39999389648</ele>
        <time>2020-08-03T15:13:46.000Z</time>
      </trkpt>
      <trkpt lat="49.428" lon="1.74328">
        <ele>198.39999389648</ele>
        <time>2020-08-03T15:13:48.000Z</time>
      </trkpt>
      <trkpt lat="49.42801" lon="1.74323">
        <ele>198.19999694824</ele>
        <time>2020-08-03T15:13:52.000Z</time>
      </trkpt>
      <trkpt lat="49.42804" lon="1.74321">
        <ele>197.80000305176</ele>
        <time>2020-08-03T15:13:55.000Z</time>
      </trkpt>
      <trkpt lat="49.42806" lon="1.74315">
        <ele>197.80000305176</ele>
        <time>2020-08-03T15:13:58.000Z</time>
      </trkpt>
      <trkpt lat="49.42807" lon="1.74312">
        <ele>198.19999694824</ele>
        <time>2020-08-03T15:14:01.000Z</time>
      </trkpt>
      <trkpt lat="49.42806" lon="1.74311">
        <ele>198.19999694824</ele>
        <time>2020-08-03T15:14:02.000Z</time>
      </trkpt>
      <trkpt lat="49.42806" lon="1.74311">
        <ele>198.19999694824</ele>
        <time>2020-08-03T15:14:03.000Z</time>
      </trkpt>
      <trkpt lat="49.42808" lon="1.7431">
        <ele>198.39999389648</ele>
        <time>2020-08-03T15:14:07.000Z</time>
      </trkpt>
      <trkpt lat="49.42807" lon="1.74315">
        <ele>198.60000610352</ele>
        <time>2020-08-03T15:14:10.000Z</time>
      </trkpt>
      <trkpt lat="49.42808" lon="1.74316">
        <ele>198.80000305176</ele>
        <time>2020-08-03T15:14:11.000Z</time>
      </trkpt>
      <trkpt lat="49.42809" lon="1.74316">
        <ele>198.80000305176</ele>
        <time>2020-08-03T15:14:12.000Z</time>
      </trkpt>
      <trkpt lat="49.4281" lon="1.74315">
        <ele>199</ele>
        <time>2020-08-03T15:14:14.000Z</time>
      </trkpt>
      <trkpt lat="49.42812" lon="1.74314">
        <ele>199.19999694824</ele>
        <time>2020-08-03T15:14:16.000Z</time>
      </trkpt>
      <trkpt lat="49.42813" lon="1.74314">
        <ele>199.19999694824</ele>
        <time>2020-08-03T15:14:17.000Z</time>
      </trkpt>
      <trkpt lat="49.42814" lon="1.74314">
        <ele>199.19999694824</ele>
        <time>2020-08-03T15:14:18.000Z</time>
      </trkpt>
      <trkpt lat="49.42815" lon="1.74314">
        <ele>199.19999694824</ele>
        <time>2020-08-03T15:14:19.000Z</time>
      </trkpt>
      <trkpt lat="49.42816" lon="1.74313">
        <ele>199.19999694824</ele>
        <time>2020-08-03T15:14:21.000Z</time>
      </trkpt>
      <trkpt lat="49.42817" lon="1.74311">
        <ele>199.39999389648</ele>
        <time>2020-08-03T15:14:23.000Z</time>
      </trkpt>
      <trkpt lat="49.42816" lon="1.74308">
        <ele>199.19999694824</ele>
        <time>2020-08-03T15:14:27.000Z</time>
      </trkpt>
      <trkpt lat="49.42812" lon="1.74305">
        <ele>199</ele>
        <time>2020-08-03T15:14:31.000Z</time>
      </trkpt>
      <trkpt lat="49.4281" lon="1.74302">
        <ele>198.80000305176</ele>
        <time>2020-08-03T15:14:35.000Z</time>
      </trkpt>
      <trkpt lat="49.42808" lon="1.74298">
        <ele>198.19999694824</ele>
        <time>2020-08-03T15:14:42.000Z</time>
      </trkpt>
      <trkpt lat="49.42808" lon="1.74296">
        <ele>198.39999389648</ele>
        <time>2020-08-03T15:14:50.000Z</time>
      </trkpt>
      <trkpt lat="49.42806" lon="1.74295">
        <ele>197.80000305176</ele>
        <time>2020-08-03T15:14:58.000Z</time>
      </trkpt>
      <trkpt lat="49.42807" lon="1.74295">
        <ele>197.80000305176</ele>
        <time>2020-08-03T15:14:59.000Z</time>
      </trkpt>
      <trkpt lat="49.42807" lon="1.74292">
        <ele>198</ele>
        <time>2020-08-03T15:15:04.000Z</time>
      </trkpt>
      <trkpt lat="49.42806" lon="1.7429">
        <ele>198</ele>
        <time>2020-08-03T15:15:07.000Z</time>
      </trkpt>
      <trkpt lat="49.42807" lon="1.74284">
        <ele>197.80000305176</ele>
        <time>2020-08-03T15:15:16.000Z</time>
      </trkpt>
      <trkpt lat="49.42809" lon="1.74275">
        <ele>198</ele>
        <time>2020-08-03T15:15:22.000Z</time>
      </trkpt>
      <trkpt lat="49.42809" lon="1.74274">
        <ele>198.19999694824</ele>
        <time>2020-08-03T15:15:23.000Z</time>
      </trkpt>
      <trkpt lat="49.4281" lon="1.74265">
        <ele>198.19999694824</ele>
        <time>2020-08-03T15:15:29.000Z</time>
      </trkpt>
      <trkpt lat="49.4281" lon="1.74264">
        <ele>198.19999694824</ele>
        <time>2020-08-03T15:15:30.000Z</time>
      </trkpt>
      <trkpt lat="49.4281" lon="1.74262">
        <ele>198.19999694824</ele>
        <time>2020-08-03T15:15:32.000Z</time>
      </trkpt>
      <trkpt lat="49.42808" lon="1.74256">
        <ele>197.80000305176</ele>
        <time>2020-08-03T15:15:36.000Z</time>
      </trkpt>
      <trkpt lat="49.42808" lon="1.74255">
        <ele>197.60000610352</ele>
        <time>2020-08-03T15:15:37.000Z</time>
      </trkpt>
      <trkpt lat="49.42808" lon="1.74254">
        <ele>197.60000610352</ele>
        <time>2020-08-03T15:15:38.000Z</time>
      </trkpt>
      <trkpt lat="49.42808" lon="1.74252">
        <ele>197.60000610352</ele>
        <time>2020-08-03T15:15:39.000Z</time>
      </trkpt>
      <trkpt lat="49.4281" lon="1.74251">
        <ele>197.60000610352</ele>
        <time>2020-08-03T15:15:41.000Z</time>
      </trkpt>
      <trkpt lat="49.42811" lon="1.7425">
        <ele>197.60000610352</ele>
        <time>2020-08-03T15:15:42.000Z</time>
      </trkpt>
      <trkpt lat="49.42812" lon="1.74248">
        <ele>197.39999389648</ele>
        <time>2020-08-03T15:15:43.000Z</time>
      </trkpt>
      <trkpt lat="49.42813" lon="1.74243">
        <ele>197</ele>
        <time>2020-08-03T15:15:47.000Z</time>
      </trkpt>
      <trkpt lat="49.42814" lon="1.74239">
        <ele>197</ele>
        <time>2020-08-03T15:15:50.000Z</time>
      </trkpt>
      <trkpt lat="49.42814" lon="1.74237">
        <ele>197</ele>
        <time>2020-08-03T15:15:51.000Z</time>
      </trkpt>
      <trkpt lat="49.42814" lon="1.74235">
        <ele>197.19999694824</ele>
        <time>2020-08-03T15:15:53.000Z</time>
      </trkpt>
      <trkpt lat="49.42814" lon="1.74233">
        <ele>197.19999694824</ele>
        <time>2020-08-03T15:15:54.000Z</time>
      </trkpt>
      <trkpt lat="49.42815" lon="1.74225">
        <ele>197.39999389648</ele>
        <time>2020-08-03T15:15:59.000Z</time>
      </trkpt>
      <trkpt lat="49.42815" lon="1.74223">
        <ele>197.19999694824</ele>
        <time>2020-08-03T15:16:01.000Z</time>
      </trkpt>
      <trkpt lat="49.42817" lon="1.74219">
        <ele>197.19999694824</ele>
        <time>2020-08-03T15:16:04.000Z</time>
      </trkpt>
      <trkpt lat="49.42817" lon="1.74216">
        <ele>197</ele>
        <time>2020-08-03T15:16:06.000Z</time>
      </trkpt>
      <trkpt lat="49.42818" lon="1.74215">
        <ele>197</ele>
        <time>2020-08-03T15:16:07.000Z</time>
      </trkpt>
      <trkpt lat="49.42818" lon="1.74214">
        <ele>197</ele>
        <time>2020-08-03T15:16:09.000Z</time>
      </trkpt>
      <trkpt lat="49.42818" lon="1.74209">
        <ele>196.80000305176</ele>
        <time>2020-08-03T15:16:11.000Z</time>
      </trkpt>
      <trkpt lat="49.42819" lon="1.74207">
        <ele>196.80000305176</ele>
        <time>2020-08-03T15:16:12.000Z</time>
      </trkpt>
      <trkpt lat="49.42819" lon="1.74207">
        <ele>196.60000610352</ele>
        <time>2020-08-03T15:16:14.000Z</time>
      </trkpt>
      <trkpt lat="49.4282" lon="1.74205">
        <ele>196.60000610352</ele>
        <time>2020-08-03T15:16:16.000Z</time>
      </trkpt>
      <trkpt lat="49.42821" lon="1.74206">
        <ele>196.60000610352</ele>
        <time>2020-08-03T15:16:18.000Z</time>
      </trkpt>
      <trkpt lat="49.42821" lon="1.74203">
        <ele>196.39999389648</ele>
        <time>2020-08-03T15:16:20.000Z</time>
      </trkpt>
      <trkpt lat="49.42821" lon="1.74201">
        <ele>196.39999389648</ele>
        <time>2020-08-03T15:16:21.000Z</time>
      </trkpt>
      <trkpt lat="49.42822" lon="1.74199">
        <ele>196.19999694824</ele>
        <time>2020-08-03T15:16:23.000Z</time>
      </trkpt>
      <trkpt lat="49.42822" lon="1.74197">
        <ele>196.19999694824</ele>
        <time>2020-08-03T15:16:24.000Z</time>
      </trkpt>
      <trkpt lat="49.42822" lon="1.74193">
        <ele>196.19999694824</ele>
        <time>2020-08-03T15:16:26.000Z</time>
      </trkpt>
      <trkpt lat="49.42822" lon="1.74192">
        <ele>196</ele>
        <time>2020-08-03T15:16:27.000Z</time>
      </trkpt>
      <trkpt lat="49.42822" lon="1.74189">
        <ele>196</ele>
        <time>2020-08-03T15:16:28.000Z</time>
      </trkpt>
      <trkpt lat="49.42822" lon="1.74185">
        <ele>196</ele>
        <time>2020-08-03T15:16:30.000Z</time>
      </trkpt>
      <trkpt lat="49.42822" lon="1.74178">
        <ele>195.80000305176</ele>
        <time>2020-08-03T15:16:34.000Z</time>
      </trkpt>
      <trkpt lat="49.42823" lon="1.74177">
        <ele>195.80000305176</ele>
        <time>2020-08-03T15:16:35.000Z</time>
      </trkpt>
      <trkpt lat="49.42825" lon="1.74167">
        <ele>195.80000305176</ele>
        <time>2020-08-03T15:16:40.000Z</time>
      </trkpt>
      <trkpt lat="49.42825" lon="1.74164">
        <ele>195.80000305176</ele>
        <time>2020-08-03T15:16:41.000Z</time>
      </trkpt>
      <trkpt lat="49.42827" lon="1.74162">
        <ele>196</ele>
        <time>2020-08-03T15:16:44.000Z</time>
      </trkpt>
      <trkpt lat="49.42827" lon="1.74151">
        <ele>195.60000610352</ele>
        <time>2020-08-03T15:16:50.000Z</time>
      </trkpt>
      <trkpt lat="49.42827" lon="1.74146">
        <ele>195.60000610352</ele>
        <time>2020-08-03T15:16:52.000Z</time>
      </trkpt>
      <trkpt lat="49.42826" lon="1.74143">
        <ele>195.39999389648</ele>
        <time>2020-08-03T15:16:54.000Z</time>
      </trkpt>
      <trkpt lat="49.42827" lon="1.74136">
        <ele>195.39999389648</ele>
        <time>2020-08-03T15:16:57.000Z</time>
      </trkpt>
      <trkpt lat="49.42827" lon="1.74131">
        <ele>195.39999389648</ele>
        <time>2020-08-03T15:17:00.000Z</time>
      </trkpt>
      <trkpt lat="49.42828" lon="1.74125">
        <ele>195.19999694824</ele>
        <time>2020-08-03T15:17:04.000Z</time>
      </trkpt>
      <trkpt lat="49.4283" lon="1.74113">
        <ele>195</ele>
        <time>2020-08-03T15:17:12.000Z</time>
      </trkpt>
      <trkpt lat="49.42831" lon="1.74103">
        <ele>194.80000305176</ele>
        <time>2020-08-03T15:17:17.000Z</time>
      </trkpt>
      <trkpt lat="49.42832" lon="1.74101">
        <ele>194.60000610352</ele>
        <time>2020-08-03T15:17:18.000Z</time>
      </trkpt>
      <trkpt lat="49.42833" lon="1.74091">
        <ele>194.60000610352</ele>
        <time>2020-08-03T15:17:24.000Z</time>
      </trkpt>
      <trkpt lat="49.42836" lon="1.74086">
        <ele>194.80000305176</ele>
        <time>2020-08-03T15:17:28.000Z</time>
      </trkpt>
      <trkpt lat="49.42836" lon="1.74083">
        <ele>194.80000305176</ele>
        <time>2020-08-03T15:17:30.000Z</time>
      </trkpt>
      <trkpt lat="49.42837" lon="1.7408">
        <ele>194.39999389648</ele>
        <time>2020-08-03T15:17:32.000Z</time>
      </trkpt>
      <trkpt lat="49.42837" lon="1.74078">
        <ele>194.39999389648</ele>
        <time>2020-08-03T15:17:33.000Z</time>
      </trkpt>
      <trkpt lat="49.42836" lon="1.74076">
        <ele>194.39999389648</ele>
        <time>2020-08-03T15:17:34.000Z</time>
      </trkpt>
      <trkpt lat="49.42836" lon="1.74072">
        <ele>194.39999389648</ele>
        <time>2020-08-03T15:17:36.000Z</time>
      </trkpt>
      <trkpt lat="49.42837" lon="1.74065">
        <ele>194.19999694824</ele>
        <time>2020-08-03T15:17:39.000Z</time>
      </trkpt>
      <trkpt lat="49.42837" lon="1.74064">
        <ele>194</ele>
        <time>2020-08-03T15:17:40.000Z</time>
      </trkpt>
      <trkpt lat="49.42835" lon="1.74058">
        <ele>193.80000305176</ele>
        <time>2020-08-03T15:17:45.000Z</time>
      </trkpt>
      <trkpt lat="49.42834" lon="1.74057">
        <ele>193.60000610352</ele>
        <time>2020-08-03T15:17:46.000Z</time>
      </trkpt>
      <trkpt lat="49.42833" lon="1.74057">
        <ele>193.60000610352</ele>
        <time>2020-08-03T15:17:47.000Z</time>
      </trkpt>
      <trkpt lat="49.42832" lon="1.74057">
        <ele>193.60000610352</ele>
        <time>2020-08-03T15:17:49.000Z</time>
      </trkpt>
      <trkpt lat="49.42832" lon="1.74059">
        <ele>193.60000610352</ele>
        <time>2020-08-03T15:17:53.000Z</time>
      </trkpt>
      <trkpt lat="49.42832" lon="1.74059">
        <ele>193.80000305176</ele>
        <time>2020-08-03T15:17:57.000Z</time>
      </trkpt>
      <trkpt lat="49.42832" lon="1.74055">
        <ele>194</ele>
        <time>2020-08-03T15:18:00.000Z</time>
      </trkpt>
      <trkpt lat="49.42832" lon="1.74056">
        <ele>193.80000305176</ele>
        <time>2020-08-03T15:18:01.000Z</time>
      </trkpt>
      <trkpt lat="49.42832" lon="1.74056">
        <ele>193.80000305176</ele>
        <time>2020-08-03T15:18:02.000Z</time>
      </trkpt>
      <trkpt lat="49.42833" lon="1.74056">
        <ele>193.80000305176</ele>
        <time>2020-08-03T15:18:03.000Z</time>
      </trkpt>
      <trkpt lat="49.42832" lon="1.74056">
        <ele>193.60000610352</ele>
        <time>2020-08-03T15:18:04.000Z</time>
      </trkpt>
      <trkpt lat="49.42832" lon="1.74056">
        <ele>193.60000610352</ele>
        <time>2020-08-03T15:18:05.000Z</time>
      </trkpt>
      <trkpt lat="49.42833" lon="1.74056">
        <ele>193.60000610352</ele>
        <time>2020-08-03T15:18:06.000Z</time>
      </trkpt>
      <trkpt lat="49.42832" lon="1.74054">
        <ele>193.60000610352</ele>
        <time>2020-08-03T15:18:13.000Z</time>
      </trkpt>
      <trkpt lat="49.42834" lon="1.74054">
        <ele>193</ele>
        <time>2020-08-03T15:18:21.000Z</time>
      </trkpt>
      <trkpt lat="49.42833" lon="1.74051">
        <ele>192.80000305176</ele>
        <time>2020-08-03T15:18:28.000Z</time>
      </trkpt>
      <trkpt lat="49.42832" lon="1.74051">
        <ele>192.80000305176</ele>
        <time>2020-08-03T15:18:29.000Z</time>
      </trkpt>
      <trkpt lat="49.42832" lon="1.7405">
        <ele>192.80000305176</ele>
        <time>2020-08-03T15:18:31.000Z</time>
      </trkpt>
      <trkpt lat="49.42832" lon="1.74048">
        <ele>193</ele>
        <time>2020-08-03T15:18:35.000Z</time>
      </trkpt>
      <trkpt lat="49.42832" lon="1.74041">
        <ele>193</ele>
        <time>2020-08-03T15:18:41.000Z</time>
      </trkpt>
      <trkpt lat="49.42832" lon="1.74041">
        <ele>193</ele>
        <time>2020-08-03T15:18:42.000Z</time>
      </trkpt>
      <trkpt lat="49.42832" lon="1.74044">
        <ele>193</ele>
        <time>2020-08-03T15:18:51.000Z</time>
      </trkpt>
      <trkpt lat="49.42833" lon="1.74048">
        <ele>193</ele>
        <time>2020-08-03T15:18:59.000Z</time>
      </trkpt>
      <trkpt lat="49.42837" lon="1.7405">
        <ele>193</ele>
        <time>2020-08-03T15:19:07.000Z</time>
      </trkpt>
      <trkpt lat="49.42836" lon="1.74052">
        <ele>192.80000305176</ele>
        <time>2020-08-03T15:19:10.000Z</time>
      </trkpt>
      <trkpt lat="49.42836" lon="1.7405">
        <ele>192.60000610352</ele>
        <time>2020-08-03T15:19:14.000Z</time>
      </trkpt>
      <trkpt lat="49.42839" lon="1.74052">
        <ele>193</ele>
        <time>2020-08-03T15:19:20.000Z</time>
      </trkpt>
      <trkpt lat="49.42839" lon="1.74052">
        <ele>192.60000610352</ele>
        <time>2020-08-03T15:19:21.000Z</time>
      </trkpt>
      <trkpt lat="49.42839" lon="1.74053">
        <ele>192.60000610352</ele>
        <time>2020-08-03T15:19:23.000Z</time>
      </trkpt>
      <trkpt lat="49.4284" lon="1.7405">
        <ele>192.60000610352</ele>
        <time>2020-08-03T15:19:28.000Z</time>
      </trkpt>
      <trkpt lat="49.42843" lon="1.74044">
        <ele>192.60000610352</ele>
        <time>2020-08-03T15:19:32.000Z</time>
      </trkpt>
      <trkpt lat="49.42843" lon="1.74038">
        <ele>192.60000610352</ele>
        <time>2020-08-03T15:19:35.000Z</time>
      </trkpt>
      <trkpt lat="49.42842" lon="1.74033">
        <ele>192.60000610352</ele>
        <time>2020-08-03T15:19:37.000Z</time>
      </trkpt>
      <trkpt lat="49.42841" lon="1.74031">
        <ele>192.60000610352</ele>
        <time>2020-08-03T15:19:38.000Z</time>
      </trkpt>
      <trkpt lat="49.4284" lon="1.74025">
        <ele>192.39999389648</ele>
        <time>2020-08-03T15:19:42.000Z</time>
      </trkpt>
      <trkpt lat="49.42838" lon="1.74016">
        <ele>192.19999694824</ele>
        <time>2020-08-03T15:19:48.000Z</time>
      </trkpt>
      <trkpt lat="49.42835" lon="1.74004">
        <ele>192.19999694824</ele>
        <time>2020-08-03T15:19:56.000Z</time>
      </trkpt>
      <trkpt lat="49.42835" lon="1.73998">
        <ele>192</ele>
        <time>2020-08-03T15:20:00.000Z</time>
      </trkpt>
      <trkpt lat="49.42833" lon="1.73994">
        <ele>191.80000305176</ele>
        <time>2020-08-03T15:20:03.000Z</time>
      </trkpt>
      <trkpt lat="49.42833" lon="1.7399">
        <ele>191.60000610352</ele>
        <time>2020-08-03T15:20:06.000Z</time>
      </trkpt>
      <trkpt lat="49.42832" lon="1.73985">
        <ele>191.60000610352</ele>
        <time>2020-08-03T15:20:10.000Z</time>
      </trkpt>
      <trkpt lat="49.42831" lon="1.73981">
        <ele>191.60000610352</ele>
        <time>2020-08-03T15:20:12.000Z</time>
      </trkpt>
      <trkpt lat="49.42828" lon="1.73969">
        <ele>191</ele>
        <time>2020-08-03T15:20:19.000Z</time>
      </trkpt>
      <trkpt lat="49.42824" lon="1.7396">
        <ele>191.60000610352</ele>
        <time>2020-08-03T15:20:26.000Z</time>
      </trkpt>
      <trkpt lat="49.42822" lon="1.73954">
        <ele>191.19999694824</ele>
        <time>2020-08-03T15:20:30.000Z</time>
      </trkpt>
      <trkpt lat="49.42821" lon="1.73948">
        <ele>190.80000305176</ele>
        <time>2020-08-03T15:20:34.000Z</time>
      </trkpt>
      <trkpt lat="49.4282" lon="1.73946">
        <ele>190.60000610352</ele>
        <time>2020-08-03T15:20:38.000Z</time>
      </trkpt>
      <trkpt lat="49.42821" lon="1.73946">
        <ele>190.60000610352</ele>
        <time>2020-08-03T15:20:39.000Z</time>
      </trkpt>
      <trkpt lat="49.42821" lon="1.73942">
        <ele>190.60000610352</ele>
        <time>2020-08-03T15:20:42.000Z</time>
      </trkpt>
      <trkpt lat="49.42821" lon="1.73935">
        <ele>190.19999694824</ele>
        <time>2020-08-03T15:20:46.000Z</time>
      </trkpt>
      <trkpt lat="49.4282" lon="1.73932">
        <ele>190.19999694824</ele>
        <time>2020-08-03T15:20:48.000Z</time>
      </trkpt>
      <trkpt lat="49.42818" lon="1.73925">
        <ele>190.60000610352</ele>
        <time>2020-08-03T15:20:52.000Z</time>
      </trkpt>
      <trkpt lat="49.42817" lon="1.7392">
        <ele>191</ele>
        <time>2020-08-03T15:20:56.000Z</time>
      </trkpt>
      <trkpt lat="49.42817" lon="1.73918">
        <ele>191</ele>
        <time>2020-08-03T15:20:58.000Z</time>
      </trkpt>
      <trkpt lat="49.42816" lon="1.73918">
        <ele>191.19999694824</ele>
        <time>2020-08-03T15:21:03.000Z</time>
      </trkpt>
      <trkpt lat="49.42816" lon="1.73915">
        <ele>191</ele>
        <time>2020-08-03T15:21:10.000Z</time>
      </trkpt>
      <trkpt lat="49.42816" lon="1.73913">
        <ele>191</ele>
        <time>2020-08-03T15:21:12.000Z</time>
      </trkpt>
      <trkpt lat="49.42816" lon="1.7391">
        <ele>190.80000305176</ele>
        <time>2020-08-03T15:21:14.000Z</time>
      </trkpt>
      <trkpt lat="49.42815" lon="1.73909">
        <ele>190.80000305176</ele>
        <time>2020-08-03T15:21:16.000Z</time>
      </trkpt>
      <trkpt lat="49.42814" lon="1.73908">
        <ele>190.80000305176</ele>
        <time>2020-08-03T15:21:19.000Z</time>
      </trkpt>
      <trkpt lat="49.42814" lon="1.73907">
        <ele>190.80000305176</ele>
        <time>2020-08-03T15:21:21.000Z</time>
      </trkpt>
      <trkpt lat="49.42813" lon="1.73907">
        <ele>190.80000305176</ele>
        <time>2020-08-03T15:21:23.000Z</time>
      </trkpt>
      <trkpt lat="49.42812" lon="1.73904">
        <ele>190.60000610352</ele>
        <time>2020-08-03T15:21:26.000Z</time>
      </trkpt>
      <trkpt lat="49.42811" lon="1.73901">
        <ele>190.80000305176</ele>
        <time>2020-08-03T15:21:31.000Z</time>
      </trkpt>
      <trkpt lat="49.42811" lon="1.73902">
        <ele>190.80000305176</ele>
        <time>2020-08-03T15:21:34.000Z</time>
      </trkpt>
      <trkpt lat="49.42811" lon="1.73902">
        <ele>190.80000305176</ele>
        <time>2020-08-03T15:21:35.000Z</time>
      </trkpt>
      <trkpt lat="49.42811" lon="1.73902">
        <ele>190.80000305176</ele>
        <time>2020-08-03T15:21:36.000Z</time>
      </trkpt>
      <trkpt lat="49.42811" lon="1.73902">
        <ele>190.80000305176</ele>
        <time>2020-08-03T15:21:39.000Z</time>
      </trkpt>
      <trkpt lat="49.4281" lon="1.73897">
        <ele>190.60000610352</ele>
        <time>2020-08-03T15:21:46.000Z</time>
      </trkpt>
      <trkpt lat="49.42807" lon="1.73887">
        <ele>190.39999389648</ele>
        <time>2020-08-03T15:21:54.000Z</time>
      </trkpt>
      <trkpt lat="49.42806" lon="1.73885">
        <ele>190.39999389648</ele>
        <time>2020-08-03T15:21:57.000Z</time>
      </trkpt>
      <trkpt lat="49.42806" lon="1.73883">
        <ele>190.39999389648</ele>
        <time>2020-08-03T15:22:00.000Z</time>
      </trkpt>
      <trkpt lat="49.42806" lon="1.73877">
        <ele>190.19999694824</ele>
        <time>2020-08-03T15:22:04.000Z</time>
      </trkpt>
      <trkpt lat="49.42805" lon="1.73875">
        <ele>190.19999694824</ele>
        <time>2020-08-03T15:22:06.000Z</time>
      </trkpt>
      <trkpt lat="49.42805" lon="1.73872">
        <ele>190.19999694824</ele>
        <time>2020-08-03T15:22:08.000Z</time>
      </trkpt>
      <trkpt lat="49.42804" lon="1.73864">
        <ele>189.80000305176</ele>
        <time>2020-08-03T15:22:14.000Z</time>
      </trkpt>
      <trkpt lat="49.42804" lon="1.73863">
        <ele>189.80000305176</ele>
        <time>2020-08-03T15:22:15.000Z</time>
      </trkpt>
      <trkpt lat="49.42802" lon="1.7386">
        <ele>189.80000305176</ele>
        <time>2020-08-03T15:22:18.000Z</time>
      </trkpt>
      <trkpt lat="49.42802" lon="1.73856">
        <ele>189.60000610352</ele>
        <time>2020-08-03T15:22:21.000Z</time>
      </trkpt>
      <trkpt lat="49.42802" lon="1.73854">
        <ele>189.39999389648</ele>
        <time>2020-08-03T15:22:22.000Z</time>
      </trkpt>
      <trkpt lat="49.42801" lon="1.73853">
        <ele>189.19999694824</ele>
        <time>2020-08-03T15:22:23.000Z</time>
      </trkpt>
      <trkpt lat="49.428" lon="1.73852">
        <ele>189.19999694824</ele>
        <time>2020-08-03T15:22:24.000Z</time>
      </trkpt>
      <trkpt lat="49.428" lon="1.73851">
        <ele>189.19999694824</ele>
        <time>2020-08-03T15:22:25.000Z</time>
      </trkpt>
      <trkpt lat="49.428" lon="1.73848">
        <ele>189.19999694824</ele>
        <time>2020-08-03T15:22:27.000Z</time>
      </trkpt>
      <trkpt lat="49.428" lon="1.73846">
        <ele>189.39999389648</ele>
        <time>2020-08-03T15:22:28.000Z</time>
      </trkpt>
      <trkpt lat="49.428" lon="1.73845">
        <ele>189.39999389648</ele>
        <time>2020-08-03T15:22:29.000Z</time>
      </trkpt>
      <trkpt lat="49.428" lon="1.73843">
        <ele>189.60000610352</ele>
        <time>2020-08-03T15:22:30.000Z</time>
      </trkpt>
      <trkpt lat="49.42799" lon="1.7384">
        <ele>189.60000610352</ele>
        <time>2020-08-03T15:22:32.000Z</time>
      </trkpt>
      <trkpt lat="49.42799" lon="1.73837">
        <ele>189.60000610352</ele>
        <time>2020-08-03T15:22:34.000Z</time>
      </trkpt>
      <trkpt lat="49.42799" lon="1.73835">
        <ele>189.60000610352</ele>
        <time>2020-08-03T15:22:35.000Z</time>
      </trkpt>
      <trkpt lat="49.42798" lon="1.73834">
        <ele>189.60000610352</ele>
        <time>2020-08-03T15:22:36.000Z</time>
      </trkpt>
      <trkpt lat="49.42794" lon="1.7382">
        <ele>189.39999389648</ele>
        <time>2020-08-03T15:22:43.000Z</time>
      </trkpt>
      <trkpt lat="49.42792" lon="1.73812">
        <ele>189.80000305176</ele>
        <time>2020-08-03T15:22:48.000Z</time>
      </trkpt>
      <trkpt lat="49.42791" lon="1.73807">
        <ele>189.80000305176</ele>
        <time>2020-08-03T15:22:52.000Z</time>
      </trkpt>
      <trkpt lat="49.4279" lon="1.73801">
        <ele>189.80000305176</ele>
        <time>2020-08-03T15:22:56.000Z</time>
      </trkpt>
      <trkpt lat="49.42789" lon="1.73797">
        <ele>189.80000305176</ele>
        <time>2020-08-03T15:22:59.000Z</time>
      </trkpt>
      <trkpt lat="49.42788" lon="1.73793">
        <ele>189.80000305176</ele>
        <time>2020-08-03T15:23:02.000Z</time>
      </trkpt>
      <trkpt lat="49.42786" lon="1.73784">
        <ele>189.19999694824</ele>
        <time>2020-08-03T15:23:08.000Z</time>
      </trkpt>
      <trkpt lat="49.42781" lon="1.73773">
        <ele>189</ele>
        <time>2020-08-03T15:23:15.000Z</time>
      </trkpt>
      <trkpt lat="49.42779" lon="1.73768">
        <ele>189.39999389648</ele>
        <time>2020-08-03T15:23:18.000Z</time>
      </trkpt>
      <trkpt lat="49.42778" lon="1.73766">
        <ele>189.39999389648</ele>
        <time>2020-08-03T15:23:20.000Z</time>
      </trkpt>
      <trkpt lat="49.42778" lon="1.73765">
        <ele>189.39999389648</ele>
        <time>2020-08-03T15:23:21.000Z</time>
      </trkpt>
      <trkpt lat="49.42778" lon="1.73763">
        <ele>189.19999694824</ele>
        <time>2020-08-03T15:23:22.000Z</time>
      </trkpt>
      <trkpt lat="49.42777" lon="1.7376">
        <ele>189.19999694824</ele>
        <time>2020-08-03T15:23:24.000Z</time>
      </trkpt>
      <trkpt lat="49.42777" lon="1.73758">
        <ele>189</ele>
        <time>2020-08-03T15:23:26.000Z</time>
      </trkpt>
      <trkpt lat="49.42777" lon="1.73758">
        <ele>188.80000305176</ele>
        <time>2020-08-03T15:23:28.000Z</time>
      </trkpt>
      <trkpt lat="49.42778" lon="1.73758">
        <ele>188.80000305176</ele>
        <time>2020-08-03T15:23:29.000Z</time>
      </trkpt>
      <trkpt lat="49.42777" lon="1.73757">
        <ele>188.60000610352</ele>
        <time>2020-08-03T15:23:37.000Z</time>
      </trkpt>
      <trkpt lat="49.42777" lon="1.73757">
        <ele>188.39999389648</ele>
        <time>2020-08-03T15:23:46.000Z</time>
      </trkpt>
      <trkpt lat="49.42778" lon="1.73756">
        <ele>188.39999389648</ele>
        <time>2020-08-03T15:23:47.000Z</time>
      </trkpt>
      <trkpt lat="49.42778" lon="1.73756">
        <ele>188.60000610352</ele>
        <time>2020-08-03T15:23:48.000Z</time>
      </trkpt>
      <trkpt lat="49.42778" lon="1.73753">
        <ele>188.39999389648</ele>
        <time>2020-08-03T15:23:52.000Z</time>
      </trkpt>
      <trkpt lat="49.42778" lon="1.7375">
        <ele>188.19999694824</ele>
        <time>2020-08-03T15:23:54.000Z</time>
      </trkpt>
      <trkpt lat="49.42776" lon="1.73746">
        <ele>188.19999694824</ele>
        <time>2020-08-03T15:23:58.000Z</time>
      </trkpt>
      <trkpt lat="49.42775" lon="1.73742">
        <ele>188.39999389648</ele>
        <time>2020-08-03T15:24:01.000Z</time>
      </trkpt>
      <trkpt lat="49.42774" lon="1.7374">
        <ele>188.39999389648</ele>
        <time>2020-08-03T15:24:02.000Z</time>
      </trkpt>
      <trkpt lat="49.42773" lon="1.73735">
        <ele>188.60000610352</ele>
        <time>2020-08-03T15:24:05.000Z</time>
      </trkpt>
      <trkpt lat="49.42772" lon="1.73734">
        <ele>188.60000610352</ele>
        <time>2020-08-03T15:24:06.000Z</time>
      </trkpt>
      <trkpt lat="49.42771" lon="1.73731">
        <ele>188.60000610352</ele>
        <time>2020-08-03T15:24:08.000Z</time>
      </trkpt>
      <trkpt lat="49.42771" lon="1.73729">
        <ele>188.60000610352</ele>
        <time>2020-08-03T15:24:09.000Z</time>
      </trkpt>
      <trkpt lat="49.42769" lon="1.73726">
        <ele>188.60000610352</ele>
        <time>2020-08-03T15:24:12.000Z</time>
      </trkpt>
      <trkpt lat="49.42767" lon="1.73723">
        <ele>188.39999389648</ele>
        <time>2020-08-03T15:24:15.000Z</time>
      </trkpt>
      <trkpt lat="49.42764" lon="1.73712">
        <ele>187.80000305176</ele>
        <time>2020-08-03T15:24:23.000Z</time>
      </trkpt>
      <trkpt lat="49.42762" lon="1.73705">
        <ele>187.80000305176</ele>
        <time>2020-08-03T15:24:28.000Z</time>
      </trkpt>
      <trkpt lat="49.42761" lon="1.73702">
        <ele>187.39999389648</ele>
        <time>2020-08-03T15:24:30.000Z</time>
      </trkpt>
      <trkpt lat="49.4276" lon="1.73698">
        <ele>187.19999694824</ele>
        <time>2020-08-03T15:24:33.000Z</time>
      </trkpt>
      <trkpt lat="49.42759" lon="1.73692">
        <ele>187.39999389648</ele>
        <time>2020-08-03T15:24:37.000Z</time>
      </trkpt>
      <trkpt lat="49.42754" lon="1.73679">
        <ele>186.80000305176</ele>
        <time>2020-08-03T15:24:46.000Z</time>
      </trkpt>
      <trkpt lat="49.42751" lon="1.73664">
        <ele>186.39999389648</ele>
        <time>2020-08-03T15:24:54.000Z</time>
      </trkpt>
      <trkpt lat="49.4275" lon="1.73662">
        <ele>186.19999694824</ele>
        <time>2020-08-03T15:24:56.000Z</time>
      </trkpt>
      <trkpt lat="49.42748" lon="1.73653">
        <ele>186.19999694824</ele>
        <time>2020-08-03T15:25:02.000Z</time>
      </trkpt>
      <trkpt lat="49.42745" lon="1.73642">
        <ele>186</ele>
        <time>2020-08-03T15:25:09.000Z</time>
      </trkpt>
      <trkpt lat="49.42743" lon="1.73633">
        <ele>185</ele>
        <time>2020-08-03T15:25:15.000Z</time>
      </trkpt>
      <trkpt lat="49.42742" lon="1.73626">
        <ele>184.80000305176</ele>
        <time>2020-08-03T15:25:19.000Z</time>
      </trkpt>
      <trkpt lat="49.4274" lon="1.7362">
        <ele>184.60000610352</ele>
        <time>2020-08-03T15:25:26.000Z</time>
      </trkpt>
      <trkpt lat="49.4274" lon="1.7362">
        <ele>184.39999389648</ele>
        <time>2020-08-03T15:25:27.000Z</time>
      </trkpt>
      <trkpt lat="49.42739" lon="1.73619">
        <ele>184.19999694824</ele>
        <time>2020-08-03T15:25:31.000Z</time>
      </trkpt>
      <trkpt lat="49.42739" lon="1.73619">
        <ele>184.19999694824</ele>
        <time>2020-08-03T15:25:32.000Z</time>
      </trkpt>
      <trkpt lat="49.42739" lon="1.73619">
        <ele>184.39999389648</ele>
        <time>2020-08-03T15:25:33.000Z</time>
      </trkpt>
      <trkpt lat="49.42739" lon="1.73619">
        <ele>184.80000305176</ele>
        <time>2020-08-03T15:25:34.000Z</time>
      </trkpt>
      <trkpt lat="49.42739" lon="1.73619">
        <ele>185.19999694824</ele>
        <time>2020-08-03T15:25:39.000Z</time>
      </trkpt>
      <trkpt lat="49.42739" lon="1.73618">
        <ele>185</ele>
        <time>2020-08-03T15:25:42.000Z</time>
      </trkpt>
      <trkpt lat="49.42739" lon="1.73618">
        <ele>184.80000305176</ele>
        <time>2020-08-03T15:25:51.000Z</time>
      </trkpt>
      <trkpt lat="49.42739" lon="1.73618">
        <ele>184.60000610352</ele>
        <time>2020-08-03T15:25:53.000Z</time>
      </trkpt>
      <trkpt lat="49.42738" lon="1.73618">
        <ele>184.19999694824</ele>
        <time>2020-08-03T15:26:03.000Z</time>
      </trkpt>
      <trkpt lat="49.42738" lon="1.73619">
        <ele>184.19999694824</ele>
        <time>2020-08-03T15:26:04.000Z</time>
      </trkpt>
      <trkpt lat="49.42738" lon="1.73619">
        <ele>184.39999389648</ele>
        <time>2020-08-03T15:26:10.000Z</time>
      </trkpt>
      <trkpt lat="49.42738" lon="1.73619">
        <ele>184.39999389648</ele>
        <time>2020-08-03T15:26:13.000Z</time>
      </trkpt>
      <trkpt lat="49.42738" lon="1.73619">
        <ele>184.19999694824</ele>
        <time>2020-08-03T15:26:24.000Z</time>
      </trkpt>
      <trkpt lat="49.42737" lon="1.73619">
        <ele>184</ele>
        <time>2020-08-03T15:26:31.000Z</time>
      </trkpt>
      <trkpt lat="49.42736" lon="1.73619">
        <ele>184</ele>
        <time>2020-08-03T15:26:32.000Z</time>
      </trkpt>
      <trkpt lat="49.42736" lon="1.7362">
        <ele>184</ele>
        <time>2020-08-03T15:26:37.000Z</time>
      </trkpt>
      <trkpt lat="49.42737" lon="1.73621">
        <ele>184</ele>
        <time>2020-08-03T15:26:39.000Z</time>
      </trkpt>
      <trkpt lat="49.42737" lon="1.73622">
        <ele>184</ele>
        <time>2020-08-03T15:26:46.000Z</time>
      </trkpt>
      <trkpt lat="49.42739" lon="1.7362">
        <ele>184.19999694824</ele>
        <time>2020-08-03T15:26:54.000Z</time>
      </trkpt>
      <trkpt lat="49.42739" lon="1.73615">
        <ele>184</ele>
        <time>2020-08-03T15:26:58.000Z</time>
      </trkpt>
      <trkpt lat="49.42738" lon="1.73613">
        <ele>183.80000305176</ele>
        <time>2020-08-03T15:27:00.000Z</time>
      </trkpt>
      <trkpt lat="49.42738" lon="1.73607">
        <ele>183.60000610352</ele>
        <time>2020-08-03T15:27:05.000Z</time>
      </trkpt>
      <trkpt lat="49.42738" lon="1.73605">
        <ele>183.60000610352</ele>
        <time>2020-08-03T15:27:06.000Z</time>
      </trkpt>
      <trkpt lat="49.42738" lon="1.73604">
        <ele>183.80000305176</ele>
        <time>2020-08-03T15:27:07.000Z</time>
      </trkpt>
      <trkpt lat="49.42738" lon="1.73602">
        <ele>183.80000305176</ele>
        <time>2020-08-03T15:27:08.000Z</time>
      </trkpt>
      <trkpt lat="49.42738" lon="1.73601">
        <ele>183.80000305176</ele>
        <time>2020-08-03T15:27:09.000Z</time>
      </trkpt>
      <trkpt lat="49.42738" lon="1.73599">
        <ele>183.80000305176</ele>
        <time>2020-08-03T15:27:10.000Z</time>
      </trkpt>
      <trkpt lat="49.42737" lon="1.73596">
        <ele>183.80000305176</ele>
        <time>2020-08-03T15:27:12.000Z</time>
      </trkpt>
      <trkpt lat="49.42737" lon="1.73593">
        <ele>183.60000610352</ele>
        <time>2020-08-03T15:27:14.000Z</time>
      </trkpt>
      <trkpt lat="49.42737" lon="1.73591">
        <ele>183.39999389648</ele>
        <time>2020-08-03T15:27:16.000Z</time>
      </trkpt>
      <trkpt lat="49.42737" lon="1.73589">
        <ele>183.39999389648</ele>
        <time>2020-08-03T15:27:17.000Z</time>
      </trkpt>
      <trkpt lat="49.42737" lon="1.73586">
        <ele>183.19999694824</ele>
        <time>2020-08-03T15:27:19.000Z</time>
      </trkpt>
      <trkpt lat="49.42736" lon="1.73584">
        <ele>183.19999694824</ele>
        <time>2020-08-03T15:27:21.000Z</time>
      </trkpt>
      <trkpt lat="49.42735" lon="1.73578">
        <ele>183.19999694824</ele>
        <time>2020-08-03T15:27:25.000Z</time>
      </trkpt>
      <trkpt lat="49.42735" lon="1.73577">
        <ele>183.19999694824</ele>
        <time>2020-08-03T15:27:26.000Z</time>
      </trkpt>
      <trkpt lat="49.42734" lon="1.73576">
        <ele>183.19999694824</ele>
        <time>2020-08-03T15:27:27.000Z</time>
      </trkpt>
      <trkpt lat="49.42733" lon="1.73575">
        <ele>183</ele>
        <time>2020-08-03T15:27:29.000Z</time>
      </trkpt>
      <trkpt lat="49.42733" lon="1.73574">
        <ele>183</ele>
        <time>2020-08-03T15:27:30.000Z</time>
      </trkpt>
      <trkpt lat="49.42732" lon="1.73573">
        <ele>182.80000305176</ele>
        <time>2020-08-03T15:27:32.000Z</time>
      </trkpt>
      <trkpt lat="49.42731" lon="1.73573">
        <ele>182.60000610352</ele>
        <time>2020-08-03T15:27:33.000Z</time>
      </trkpt>
      <trkpt lat="49.42729" lon="1.73577">
        <ele>182.39999389648</ele>
        <time>2020-08-03T15:27:39.000Z</time>
      </trkpt>
      <trkpt lat="49.42729" lon="1.73577">
        <ele>182.39999389648</ele>
        <time>2020-08-03T15:27:42.000Z</time>
      </trkpt>
      <trkpt lat="49.4273" lon="1.73576">
        <ele>183</ele>
        <time>2020-08-03T15:27:48.000Z</time>
      </trkpt>
      <trkpt lat="49.42731" lon="1.73576">
        <ele>182.80000305176</ele>
        <time>2020-08-03T15:27:54.000Z</time>
      </trkpt>
      <trkpt lat="49.42731" lon="1.73576">
        <ele>182.60000610352</ele>
        <time>2020-08-03T15:27:56.000Z</time>
      </trkpt>
      <trkpt lat="49.42731" lon="1.73575">
        <ele>182.60000610352</ele>
        <time>2020-08-03T15:28:00.000Z</time>
      </trkpt>
      <trkpt lat="49.42732" lon="1.73575">
        <ele>182.39999389648</ele>
        <time>2020-08-03T15:28:03.000Z</time>
      </trkpt>
      <trkpt lat="49.42729" lon="1.73575">
        <ele>182.39999389648</ele>
        <time>2020-08-03T15:28:12.000Z</time>
      </trkpt>
      <trkpt lat="49.42729" lon="1.73575">
        <ele>182.60000610352</ele>
        <time>2020-08-03T15:28:15.000Z</time>
      </trkpt>
      <trkpt lat="49.42729" lon="1.73575">
        <ele>182.60000610352</ele>
        <time>2020-08-03T15:28:18.000Z</time>
      </trkpt>
      <trkpt lat="49.42729" lon="1.73574">
        <ele>182.19999694824</ele>
        <time>2020-08-03T15:28:21.000Z</time>
      </trkpt>
      <trkpt lat="49.42729" lon="1.73574">
        <ele>182</ele>
        <time>2020-08-03T15:28:23.000Z</time>
      </trkpt>
      <trkpt lat="49.4273" lon="1.73574">
        <ele>182</ele>
        <time>2020-08-03T15:28:25.000Z</time>
      </trkpt>
      <trkpt lat="49.4273" lon="1.73575">
        <ele>182.19999694824</ele>
        <time>2020-08-03T15:28:27.000Z</time>
      </trkpt>
      <trkpt lat="49.4273" lon="1.7357">
        <ele>182.39999389648</ele>
        <time>2020-08-03T15:28:33.000Z</time>
      </trkpt>
      <trkpt lat="49.42729" lon="1.73564">
        <ele>182.39999389648</ele>
        <time>2020-08-03T15:28:37.000Z</time>
      </trkpt>
      <trkpt lat="49.42729" lon="1.73557">
        <ele>182.60000610352</ele>
        <time>2020-08-03T15:28:41.000Z</time>
      </trkpt>
      <trkpt lat="49.42728" lon="1.73547">
        <ele>182.19999694824</ele>
        <time>2020-08-03T15:28:48.000Z</time>
      </trkpt>
      <trkpt lat="49.42727" lon="1.73545">
        <ele>182.19999694824</ele>
        <time>2020-08-03T15:28:49.000Z</time>
      </trkpt>
      <trkpt lat="49.42725" lon="1.73541">
        <ele>182</ele>
        <time>2020-08-03T15:28:52.000Z</time>
      </trkpt>
      <trkpt lat="49.42725" lon="1.73539">
        <ele>181.80000305176</ele>
        <time>2020-08-03T15:28:54.000Z</time>
      </trkpt>
      <trkpt lat="49.42725" lon="1.73538">
        <ele>181.80000305176</ele>
        <time>2020-08-03T15:28:55.000Z</time>
      </trkpt>
      <trkpt lat="49.42724" lon="1.73535">
        <ele>181.60000610352</ele>
        <time>2020-08-03T15:28:57.000Z</time>
      </trkpt>
      <trkpt lat="49.42722" lon="1.73525">
        <ele>181</ele>
        <time>2020-08-03T15:29:03.000Z</time>
      </trkpt>
      <trkpt lat="49.42722" lon="1.73524">
        <ele>180.80000305176</ele>
        <time>2020-08-03T15:29:04.000Z</time>
      </trkpt>
      <trkpt lat="49.4272" lon="1.73517">
        <ele>180.80000305176</ele>
        <time>2020-08-03T15:29:08.000Z</time>
      </trkpt>
      <trkpt lat="49.42719" lon="1.73511">
        <ele>180.60000610352</ele>
        <time>2020-08-03T15:29:13.000Z</time>
      </trkpt>
      <trkpt lat="49.42719" lon="1.7351">
        <ele>180.60000610352</ele>
        <time>2020-08-03T15:29:14.000Z</time>
      </trkpt>
      <trkpt lat="49.42719" lon="1.73511">
        <ele>180.60000610352</ele>
        <time>2020-08-03T15:29:15.000Z</time>
      </trkpt>
      <trkpt lat="49.42719" lon="1.7351">
        <ele>180.60000610352</ele>
        <time>2020-08-03T15:29:16.000Z</time>
      </trkpt>
      <trkpt lat="49.4272" lon="1.73511">
        <ele>180.60000610352</ele>
        <time>2020-08-03T15:29:18.000Z</time>
      </trkpt>
      <trkpt lat="49.4272" lon="1.73511">
        <ele>180.60000610352</ele>
        <time>2020-08-03T15:29:19.000Z</time>
      </trkpt>
      <trkpt lat="49.42722" lon="1.73514">
        <ele>180.80000305176</ele>
        <time>2020-08-03T15:29:25.000Z</time>
      </trkpt>
      <trkpt lat="49.42721" lon="1.73514">
        <ele>180.80000305176</ele>
        <time>2020-08-03T15:29:26.000Z</time>
      </trkpt>
      <trkpt lat="49.42721" lon="1.73517">
        <ele>180.60000610352</ele>
        <time>2020-08-03T15:29:29.000Z</time>
      </trkpt>
      <trkpt lat="49.42719" lon="1.73516">
        <ele>180.19999694824</ele>
        <time>2020-08-03T15:29:33.000Z</time>
      </trkpt>
      <trkpt lat="49.42712" lon="1.73502">
        <ele>180.39999389648</ele>
        <time>2020-08-03T15:29:42.000Z</time>
      </trkpt>
      <trkpt lat="49.42709" lon="1.73492">
        <ele>179.80000305176</ele>
        <time>2020-08-03T15:29:47.000Z</time>
      </trkpt>
      <trkpt lat="49.42709" lon="1.73488">
        <ele>179.80000305176</ele>
        <time>2020-08-03T15:29:49.000Z</time>
      </trkpt>
      <trkpt lat="49.42709" lon="1.73486">
        <ele>179.60000610352</ele>
        <time>2020-08-03T15:29:50.000Z</time>
      </trkpt>
      <trkpt lat="49.42709" lon="1.73485">
        <ele>179.39999389648</ele>
        <time>2020-08-03T15:29:51.000Z</time>
      </trkpt>
      <trkpt lat="49.4271" lon="1.73485">
        <ele>179.19999694824</ele>
        <time>2020-08-03T15:29:54.000Z</time>
      </trkpt>
      <trkpt lat="49.42709" lon="1.73484">
        <ele>179.19999694824</ele>
        <time>2020-08-03T15:29:56.000Z</time>
      </trkpt>
      <trkpt lat="49.42709" lon="1.73482">
        <ele>179.19999694824</ele>
        <time>2020-08-03T15:29:58.000Z</time>
      </trkpt>
      <trkpt lat="49.42708" lon="1.73481">
        <ele>179.19999694824</ele>
        <time>2020-08-03T15:30:04.000Z</time>
      </trkpt>
      <trkpt lat="49.42708" lon="1.73481">
        <ele>179.19999694824</ele>
        <time>2020-08-03T15:30:12.000Z</time>
      </trkpt>
      <trkpt lat="49.42711" lon="1.73483">
        <ele>178.80000305176</ele>
        <time>2020-08-03T15:30:16.000Z</time>
      </trkpt>
      <trkpt lat="49.42711" lon="1.73482">
        <ele>179</ele>
        <time>2020-08-03T15:30:20.000Z</time>
      </trkpt>
      <trkpt lat="49.42708" lon="1.73475">
        <ele>179.39999389648</ele>
        <time>2020-08-03T15:30:25.000Z</time>
      </trkpt>
      <trkpt lat="49.42707" lon="1.73473">
        <ele>179.60000610352</ele>
        <time>2020-08-03T15:30:26.000Z</time>
      </trkpt>
      <trkpt lat="49.42706" lon="1.73461">
        <ele>179.19999694824</ele>
        <time>2020-08-03T15:30:32.000Z</time>
      </trkpt>
      <trkpt lat="49.42706" lon="1.73459">
        <ele>179</ele>
        <time>2020-08-03T15:30:33.000Z</time>
      </trkpt>
      <trkpt lat="49.42709" lon="1.73455">
        <ele>179</ele>
        <time>2020-08-03T15:30:38.000Z</time>
      </trkpt>
      <trkpt lat="49.42709" lon="1.73454">
        <ele>179.19999694824</ele>
        <time>2020-08-03T15:30:40.000Z</time>
      </trkpt>
      <trkpt lat="49.4271" lon="1.73456">
        <ele>179.19999694824</ele>
        <time>2020-08-03T15:30:43.000Z</time>
      </trkpt>
      <trkpt lat="49.4271" lon="1.73457">
        <ele>179.19999694824</ele>
        <time>2020-08-03T15:30:45.000Z</time>
      </trkpt>
      <trkpt lat="49.42711" lon="1.73458">
        <ele>179.39999389648</ele>
        <time>2020-08-03T15:30:49.000Z</time>
      </trkpt>
      <trkpt lat="49.42711" lon="1.73456">
        <ele>179.39999389648</ele>
        <time>2020-08-03T15:30:53.000Z</time>
      </trkpt>
      <trkpt lat="49.42709" lon="1.73455">
        <ele>179.19999694824</ele>
        <time>2020-08-03T15:30:55.000Z</time>
      </trkpt>
      <trkpt lat="49.42709" lon="1.73452">
        <ele>179.19999694824</ele>
        <time>2020-08-03T15:30:59.000Z</time>
      </trkpt>
      <trkpt lat="49.42709" lon="1.73453">
        <ele>179.39999389648</ele>
        <time>2020-08-03T15:31:01.000Z</time>
      </trkpt>
      <trkpt lat="49.42708" lon="1.73453">
        <ele>179.39999389648</ele>
        <time>2020-08-03T15:31:03.000Z</time>
      </trkpt>
      <trkpt lat="49.42709" lon="1.73453">
        <ele>179.19999694824</ele>
        <time>2020-08-03T15:31:10.000Z</time>
      </trkpt>
      <trkpt lat="49.42709" lon="1.73454">
        <ele>179.19999694824</ele>
        <time>2020-08-03T15:31:18.000Z</time>
      </trkpt>
      <trkpt lat="49.42709" lon="1.73454">
        <ele>179</ele>
        <time>2020-08-03T15:31:19.000Z</time>
      </trkpt>
      <trkpt lat="49.42713" lon="1.73381">
        <ele>171.80000305176</ele>
        <time>2020-08-03T15:38:29.000Z</time>
      </trkpt>
      <trkpt lat="49.42714" lon="1.73381">
        <ele>171.80000305176</ele>
        <time>2020-08-03T15:38:30.000Z</time>
      </trkpt>
      <trkpt lat="49.42716" lon="1.73379">
        <ele>168.80000305176</ele>
        <time>2020-08-03T15:38:32.000Z</time>
      </trkpt>
      <trkpt lat="49.42716" lon="1.73378">
        <ele>166.80000305176</ele>
        <time>2020-08-03T15:38:33.000Z</time>
      </trkpt>
      <trkpt lat="49.42718" lon="1.73379">
        <ele>165.80000305176</ele>
        <time>2020-08-03T15:38:34.000Z</time>
      </trkpt>
      <trkpt lat="49.4272" lon="1.73378">
        <ele>164.60000610352</ele>
        <time>2020-08-03T15:38:37.000Z</time>
      </trkpt>
      <trkpt lat="49.42722" lon="1.73378">
        <ele>164</ele>
        <time>2020-08-03T15:38:39.000Z</time>
      </trkpt>
      <trkpt lat="49.42728" lon="1.73381">
        <ele>163.60000610352</ele>
        <time>2020-08-03T15:38:43.000Z</time>
      </trkpt>
      <trkpt lat="49.42731" lon="1.73382">
        <ele>163</ele>
        <time>2020-08-03T15:38:46.000Z</time>
      </trkpt>
      <trkpt lat="49.42737" lon="1.73383">
        <ele>162.60000610352</ele>
        <time>2020-08-03T15:38:51.000Z</time>
      </trkpt>
      <trkpt lat="49.42739" lon="1.73386">
        <ele>162.39999389648</ele>
        <time>2020-08-03T15:38:54.000Z</time>
      </trkpt>
      <trkpt lat="49.42743" lon="1.73388">
        <ele>161.39999389648</ele>
        <time>2020-08-03T15:38:59.000Z</time>
      </trkpt>
      <trkpt lat="49.42748" lon="1.73389">
        <ele>161</ele>
        <time>2020-08-03T15:39:03.000Z</time>
      </trkpt>
      <trkpt lat="49.42752" lon="1.73391">
        <ele>160.39999389648</ele>
        <time>2020-08-03T15:39:07.000Z</time>
      </trkpt>
      <trkpt lat="49.42756" lon="1.73394">
        <ele>159.60000610352</ele>
        <time>2020-08-03T15:39:11.000Z</time>
      </trkpt>
      <trkpt lat="49.42758" lon="1.73395">
        <ele>159.19999694824</ele>
        <time>2020-08-03T15:39:12.000Z</time>
      </trkpt>
      <trkpt lat="49.42767" lon="1.73402">
        <ele>158.19999694824</ele>
        <time>2020-08-03T15:39:19.000Z</time>
      </trkpt>
      <trkpt lat="49.4277" lon="1.73405">
        <ele>157.60000610352</ele>
        <time>2020-08-03T15:39:22.000Z</time>
      </trkpt>
      <trkpt lat="49.42772" lon="1.73406">
        <ele>157.39999389648</ele>
        <time>2020-08-03T15:39:24.000Z</time>
      </trkpt>
      <trkpt lat="49.42776" lon="1.73408">
        <ele>157</ele>
        <time>2020-08-03T15:39:27.000Z</time>
      </trkpt>
      <trkpt lat="49.42779" lon="1.7341">
        <ele>156.39999389648</ele>
        <time>2020-08-03T15:39:29.000Z</time>
      </trkpt>
      <trkpt lat="49.42782" lon="1.73412">
        <ele>156</ele>
        <time>2020-08-03T15:39:32.000Z</time>
      </trkpt>
      <trkpt lat="49.42787" lon="1.73413">
        <ele>155.60000610352</ele>
        <time>2020-08-03T15:39:36.000Z</time>
      </trkpt>
      <trkpt lat="49.4279" lon="1.73415">
        <ele>154.80000305176</ele>
        <time>2020-08-03T15:39:38.000Z</time>
      </trkpt>
      <trkpt lat="49.42792" lon="1.7342">
        <ele>154</ele>
        <time>2020-08-03T15:39:42.000Z</time>
      </trkpt>
      <trkpt lat="49.42793" lon="1.73422">
        <ele>153.80000305176</ele>
        <time>2020-08-03T15:39:43.000Z</time>
      </trkpt>
      <trkpt lat="49.42793" lon="1.73423">
        <ele>153.60000610352</ele>
        <time>2020-08-03T15:39:44.000Z</time>
      </trkpt>
      <trkpt lat="49.42794" lon="1.73424">
        <ele>153.39999389648</ele>
        <time>2020-08-03T15:39:45.000Z</time>
      </trkpt>
      <trkpt lat="49.42798" lon="1.73427">
        <ele>153</ele>
        <time>2020-08-03T15:39:49.000Z</time>
      </trkpt>
      <trkpt lat="49.42798" lon="1.73428">
        <ele>153</ele>
        <time>2020-08-03T15:39:50.000Z</time>
      </trkpt>
      <trkpt lat="49.428" lon="1.73432">
        <ele>152.39999389648</ele>
        <time>2020-08-03T15:39:53.000Z</time>
      </trkpt>
      <trkpt lat="49.42804" lon="1.73435">
        <ele>151.80000305176</ele>
        <time>2020-08-03T15:39:57.000Z</time>
      </trkpt>
      <trkpt lat="49.42805" lon="1.73436">
        <ele>151.60000610352</ele>
        <time>2020-08-03T15:39:58.000Z</time>
      </trkpt>
      <trkpt lat="49.42806" lon="1.73438">
        <ele>151.19999694824</ele>
        <time>2020-08-03T15:39:59.000Z</time>
      </trkpt>
      <trkpt lat="49.4281" lon="1.73443">
        <ele>150.60000610352</ele>
        <time>2020-08-03T15:40:03.000Z</time>
      </trkpt>
      <trkpt lat="49.42811" lon="1.73444">
        <ele>150.60000610352</ele>
        <time>2020-08-03T15:40:04.000Z</time>
      </trkpt>
      <trkpt lat="49.42812" lon="1.73445">
        <ele>150.19999694824</ele>
        <time>2020-08-03T15:40:05.000Z</time>
      </trkpt>
      <trkpt lat="49.42812" lon="1.73446">
        <ele>150</ele>
        <time>2020-08-03T15:40:06.000Z</time>
      </trkpt>
      <trkpt lat="49.42816" lon="1.73453">
        <ele>149.39999389648</ele>
        <time>2020-08-03T15:40:11.000Z</time>
      </trkpt>
      <trkpt lat="49.42817" lon="1.73455">
        <ele>149.19999694824</ele>
        <time>2020-08-03T15:40:13.000Z</time>
      </trkpt>
      <trkpt lat="49.42821" lon="1.73459">
        <ele>148.19999694824</ele>
        <time>2020-08-03T15:40:17.000Z</time>
      </trkpt>
      <trkpt lat="49.42822" lon="1.7346">
        <ele>148</ele>
        <time>2020-08-03T15:40:19.000Z</time>
      </trkpt>
      <trkpt lat="49.42821" lon="1.73461">
        <ele>148</ele>
        <time>2020-08-03T15:40:20.000Z</time>
      </trkpt>
      <trkpt lat="49.42822" lon="1.73463">
        <ele>147.80000305176</ele>
        <time>2020-08-03T15:40:22.000Z</time>
      </trkpt>
      <trkpt lat="49.42824" lon="1.73466">
        <ele>147.60000610352</ele>
        <time>2020-08-03T15:40:25.000Z</time>
      </trkpt>
      <trkpt lat="49.42827" lon="1.73471">
        <ele>147</ele>
        <time>2020-08-03T15:40:30.000Z</time>
      </trkpt>
      <trkpt lat="49.42827" lon="1.73472">
        <ele>147</ele>
        <time>2020-08-03T15:40:31.000Z</time>
      </trkpt>
      <trkpt lat="49.42829" lon="1.73472">
        <ele>146.60000610352</ele>
        <time>2020-08-03T15:40:32.000Z</time>
      </trkpt>
      <trkpt lat="49.42838" lon="1.7347">
        <ele>146</ele>
        <time>2020-08-03T15:40:37.000Z</time>
      </trkpt>
      <trkpt lat="49.42835" lon="1.73468">
        <ele>145.80000305176</ele>
        <time>2020-08-03T15:40:40.000Z</time>
      </trkpt>
      <trkpt lat="49.42836" lon="1.7347">
        <ele>145.80000305176</ele>
        <time>2020-08-03T15:40:41.000Z</time>
      </trkpt>
      <trkpt lat="49.42836" lon="1.73471">
        <ele>145.80000305176</ele>
        <time>2020-08-03T15:40:43.000Z</time>
      </trkpt>
      <trkpt lat="49.42835" lon="1.7347">
        <ele>145.80000305176</ele>
        <time>2020-08-03T15:40:44.000Z</time>
      </trkpt>
      <trkpt lat="49.42835" lon="1.73469">
        <ele>145.80000305176</ele>
        <time>2020-08-03T15:40:45.000Z</time>
      </trkpt>
      <trkpt lat="49.42836" lon="1.73469">
        <ele>145.60000610352</ele>
        <time>2020-08-03T15:40:47.000Z</time>
      </trkpt>
      <trkpt lat="49.42837" lon="1.73469">
        <ele>145.39999389648</ele>
        <time>2020-08-03T15:40:48.000Z</time>
      </trkpt>
      <trkpt lat="49.42839" lon="1.73468">
        <ele>145.39999389648</ele>
        <time>2020-08-03T15:40:49.000Z</time>
      </trkpt>
      <trkpt lat="49.4284" lon="1.73466">
        <ele>145</ele>
        <time>2020-08-03T15:40:51.000Z</time>
      </trkpt>
      <trkpt lat="49.42841" lon="1.73465">
        <ele>144.39999389648</ele>
        <time>2020-08-03T15:40:53.000Z</time>
      </trkpt>
      <trkpt lat="49.42842" lon="1.73465">
        <ele>144.19999694824</ele>
        <time>2020-08-03T15:40:54.000Z</time>
      </trkpt>
      <trkpt lat="49.42842" lon="1.73464">
        <ele>143.80000305176</ele>
        <time>2020-08-03T15:40:55.000Z</time>
      </trkpt>
      <trkpt lat="49.42843" lon="1.73459">
        <ele>142.80000305176</ele>
        <time>2020-08-03T15:40:59.000Z</time>
      </trkpt>
      <trkpt lat="49.42843" lon="1.73458">
        <ele>142.39999389648</ele>
        <time>2020-08-03T15:41:01.000Z</time>
      </trkpt>
      <trkpt lat="49.42845" lon="1.73456">
        <ele>141.60000610352</ele>
        <time>2020-08-03T15:41:05.000Z</time>
      </trkpt>
      <trkpt lat="49.42849" lon="1.73456">
        <ele>140.60000610352</ele>
        <time>2020-08-03T15:41:09.000Z</time>
      </trkpt>
      <trkpt lat="49.4285" lon="1.73456">
        <ele>140.60000610352</ele>
        <time>2020-08-03T15:41:10.000Z</time>
      </trkpt>
      <trkpt lat="49.42855" lon="1.73451">
        <ele>139.39999389648</ele>
        <time>2020-08-03T15:41:15.000Z</time>
      </trkpt>
      <trkpt lat="49.42857" lon="1.73448">
        <ele>138.39999389648</ele>
        <time>2020-08-03T15:41:18.000Z</time>
      </trkpt>
      <trkpt lat="49.42858" lon="1.73446">
        <ele>138</ele>
        <time>2020-08-03T15:41:20.000Z</time>
      </trkpt>
      <trkpt lat="49.42859" lon="1.73443">
        <ele>137.19999694824</ele>
        <time>2020-08-03T15:41:22.000Z</time>
      </trkpt>
      <trkpt lat="49.4286" lon="1.73443">
        <ele>136.80000305176</ele>
        <time>2020-08-03T15:41:23.000Z</time>
      </trkpt>
      <trkpt lat="49.42862" lon="1.73441">
        <ele>136.19999694824</ele>
        <time>2020-08-03T15:41:25.000Z</time>
      </trkpt>
      <trkpt lat="49.42863" lon="1.73441">
        <ele>136.19999694824</ele>
        <time>2020-08-03T15:41:26.000Z</time>
      </trkpt>
      <trkpt lat="49.42864" lon="1.73439">
        <ele>135.39999389648</ele>
        <time>2020-08-03T15:41:29.000Z</time>
      </trkpt>
      <trkpt lat="49.42865" lon="1.73438">
        <ele>135</ele>
        <time>2020-08-03T15:41:31.000Z</time>
      </trkpt>
      <trkpt lat="49.42865" lon="1.73438">
        <ele>135</ele>
        <time>2020-08-03T15:41:32.000Z</time>
      </trkpt>
      <trkpt lat="49.42864" lon="1.73437">
        <ele>135</ele>
        <time>2020-08-03T15:41:35.000Z</time>
      </trkpt>
      <trkpt lat="49.42864" lon="1.73438">
        <ele>135.19999694824</ele>
        <time>2020-08-03T15:41:38.000Z</time>
      </trkpt>
      <trkpt lat="49.42868" lon="1.73434">
        <ele>134</ele>
        <time>2020-08-03T15:41:44.000Z</time>
      </trkpt>
      <trkpt lat="49.42871" lon="1.73431">
        <ele>132.80000305176</ele>
        <time>2020-08-03T15:41:48.000Z</time>
      </trkpt>
      <trkpt lat="49.42872" lon="1.73429">
        <ele>132.39999389648</ele>
        <time>2020-08-03T15:41:50.000Z</time>
      </trkpt>
      <trkpt lat="49.42873" lon="1.73427">
        <ele>132</ele>
        <time>2020-08-03T15:41:52.000Z</time>
      </trkpt>
      <trkpt lat="49.42874" lon="1.73426">
        <ele>131.80000305176</ele>
        <time>2020-08-03T15:41:53.000Z</time>
      </trkpt>
      <trkpt lat="49.42875" lon="1.73424">
        <ele>130.80000305176</ele>
        <time>2020-08-03T15:41:55.000Z</time>
      </trkpt>
      <trkpt lat="49.42875" lon="1.73422">
        <ele>130.60000610352</ele>
        <time>2020-08-03T15:41:56.000Z</time>
      </trkpt>
      <trkpt lat="49.42877" lon="1.73419">
        <ele>130</ele>
        <time>2020-08-03T15:41:59.000Z</time>
      </trkpt>
      <trkpt lat="49.42878" lon="1.73416">
        <ele>129.39999389648</ele>
        <time>2020-08-03T15:42:02.000Z</time>
      </trkpt>
      <trkpt lat="49.42881" lon="1.73417">
        <ele>128.39999389648</ele>
        <time>2020-08-03T15:42:07.000Z</time>
      </trkpt>
      <trkpt lat="49.42882" lon="1.73419">
        <ele>128.39999389648</ele>
        <time>2020-08-03T15:42:09.000Z</time>
      </trkpt>
      <trkpt lat="49.42883" lon="1.7342">
        <ele>128.39999389648</ele>
        <time>2020-08-03T15:42:16.000Z</time>
      </trkpt>
      <trkpt lat="49.42883" lon="1.73421">
        <ele>128.39999389648</ele>
        <time>2020-08-03T15:42:18.000Z</time>
      </trkpt>
      <trkpt lat="49.42883" lon="1.73417">
        <ele>128</ele>
        <time>2020-08-03T15:42:23.000Z</time>
      </trkpt>
      <trkpt lat="49.42883" lon="1.73409">
        <ele>127.40000152588</ele>
        <time>2020-08-03T15:42:27.000Z</time>
      </trkpt>
      <trkpt lat="49.42883" lon="1.73404">
        <ele>127</ele>
        <time>2020-08-03T15:42:29.000Z</time>
      </trkpt>
      <trkpt lat="49.42881" lon="1.73397">
        <ele>126.19999694824</ele>
        <time>2020-08-03T15:42:34.000Z</time>
      </trkpt>
      <trkpt lat="49.4288" lon="1.73393">
        <ele>126</ele>
        <time>2020-08-03T15:42:37.000Z</time>
      </trkpt>
      <trkpt lat="49.42877" lon="1.73381">
        <ele>125.59999847412</ele>
        <time>2020-08-03T15:42:45.000Z</time>
      </trkpt>
      <trkpt lat="49.42877" lon="1.73378">
        <ele>125.80000305176</ele>
        <time>2020-08-03T15:42:47.000Z</time>
      </trkpt>
      <trkpt lat="49.42876" lon="1.73372">
        <ele>125.80000305176</ele>
        <time>2020-08-03T15:42:50.000Z</time>
      </trkpt>
      <trkpt lat="49.42875" lon="1.73367">
        <ele>125.40000152588</ele>
        <time>2020-08-03T15:42:53.000Z</time>
      </trkpt>
      <trkpt lat="49.42875" lon="1.73362">
        <ele>125.19999694824</ele>
        <time>2020-08-03T15:42:55.000Z</time>
      </trkpt>
      <trkpt lat="49.42876" lon="1.73361">
        <ele>125</ele>
        <time>2020-08-03T15:42:56.000Z</time>
      </trkpt>
      <trkpt lat="49.42876" lon="1.7336">
        <ele>124.59999847412</ele>
        <time>2020-08-03T15:42:57.000Z</time>
      </trkpt>
      <trkpt lat="49.42877" lon="1.73359">
        <ele>124.40000152588</ele>
        <time>2020-08-03T15:42:58.000Z</time>
      </trkpt>
      <trkpt lat="49.42877" lon="1.73358">
        <ele>124.19999694824</ele>
        <time>2020-08-03T15:42:59.000Z</time>
      </trkpt>
      <trkpt lat="49.42878" lon="1.73357">
        <ele>123.80000305176</ele>
        <time>2020-08-03T15:43:00.000Z</time>
      </trkpt>
      <trkpt lat="49.42879" lon="1.73353">
        <ele>122.80000305176</ele>
        <time>2020-08-03T15:43:03.000Z</time>
      </trkpt>
      <trkpt lat="49.42879" lon="1.73351">
        <ele>122.59999847412</ele>
        <time>2020-08-03T15:43:04.000Z</time>
      </trkpt>
      <trkpt lat="49.4288" lon="1.73352">
        <ele>122.59999847412</ele>
        <time>2020-08-03T15:43:05.000Z</time>
      </trkpt>
      <trkpt lat="49.4288" lon="1.73352">
        <ele>122.40000152588</ele>
        <time>2020-08-03T15:43:06.000Z</time>
      </trkpt>
      <trkpt lat="49.42881" lon="1.73353">
        <ele>122</ele>
        <time>2020-08-03T15:43:09.000Z</time>
      </trkpt>
      <trkpt lat="49.42881" lon="1.73354">
        <ele>121.80000305176</ele>
        <time>2020-08-03T15:43:11.000Z</time>
      </trkpt>
      <trkpt lat="49.42881" lon="1.73354">
        <ele>121.59999847412</ele>
        <time>2020-08-03T15:43:12.000Z</time>
      </trkpt>
      <trkpt lat="49.42881" lon="1.73354">
        <ele>121.59999847412</ele>
        <time>2020-08-03T15:43:13.000Z</time>
      </trkpt>
      <trkpt lat="49.42882" lon="1.73348">
        <ele>121.19999694824</ele>
        <time>2020-08-03T15:43:19.000Z</time>
      </trkpt>
      <trkpt lat="49.42881" lon="1.73342">
        <ele>120.59999847412</ele>
        <time>2020-08-03T15:43:23.000Z</time>
      </trkpt>
      <trkpt lat="49.42881" lon="1.73338">
        <ele>120.40000152588</ele>
        <time>2020-08-03T15:43:25.000Z</time>
      </trkpt>
      <trkpt lat="49.42882" lon="1.73331">
        <ele>120.19999694824</ele>
        <time>2020-08-03T15:43:29.000Z</time>
      </trkpt>
      <trkpt lat="49.42883" lon="1.73327">
        <ele>119.59999847412</ele>
        <time>2020-08-03T15:43:32.000Z</time>
      </trkpt>
      <trkpt lat="49.42884" lon="1.73325">
        <ele>119.40000152588</ele>
        <time>2020-08-03T15:43:34.000Z</time>
      </trkpt>
      <trkpt lat="49.42885" lon="1.73324">
        <ele>119</ele>
        <time>2020-08-03T15:43:36.000Z</time>
      </trkpt>
      <trkpt lat="49.42885" lon="1.73323">
        <ele>118.80000305176</ele>
        <time>2020-08-03T15:43:37.000Z</time>
      </trkpt>
      <trkpt lat="49.42886" lon="1.73323">
        <ele>118.59999847412</ele>
        <time>2020-08-03T15:43:39.000Z</time>
      </trkpt>
      <trkpt lat="49.42886" lon="1.73323">
        <ele>118.40000152588</ele>
        <time>2020-08-03T15:43:41.000Z</time>
      </trkpt>
      <trkpt lat="49.42887" lon="1.73322">
        <ele>118.40000152588</ele>
        <time>2020-08-03T15:43:42.000Z</time>
      </trkpt>
      <trkpt lat="49.42887" lon="1.73317">
        <ele>118.19999694824</ele>
        <time>2020-08-03T15:43:45.000Z</time>
      </trkpt>
      <trkpt lat="49.42888" lon="1.73311">
        <ele>118</ele>
        <time>2020-08-03T15:43:49.000Z</time>
      </trkpt>
      <trkpt lat="49.42887" lon="1.73303">
        <ele>117.40000152588</ele>
        <time>2020-08-03T15:43:53.000Z</time>
      </trkpt>
      <trkpt lat="49.42888" lon="1.73298">
        <ele>116.40000152588</ele>
        <time>2020-08-03T15:43:57.000Z</time>
      </trkpt>
      <trkpt lat="49.4289" lon="1.73294">
        <ele>115.59999847412</ele>
        <time>2020-08-03T15:44:02.000Z</time>
      </trkpt>
      <trkpt lat="49.4289" lon="1.73291">
        <ele>115.59999847412</ele>
        <time>2020-08-03T15:44:05.000Z</time>
      </trkpt>
      <trkpt lat="49.4289" lon="1.7329">
        <ele>115.40000152588</ele>
        <time>2020-08-03T15:44:08.000Z</time>
      </trkpt>
      <trkpt lat="49.42889" lon="1.73288">
        <ele>115.40000152588</ele>
        <time>2020-08-03T15:44:10.000Z</time>
      </trkpt>
      <trkpt lat="49.42889" lon="1.7329">
        <ele>115.19999694824</ele>
        <time>2020-08-03T15:44:15.000Z</time>
      </trkpt>
      <trkpt lat="49.42889" lon="1.73292">
        <ele>115.19999694824</ele>
        <time>2020-08-03T15:44:16.000Z</time>
      </trkpt>
      <trkpt lat="49.42889" lon="1.73293">
        <ele>115.40000152588</ele>
        <time>2020-08-03T15:44:21.000Z</time>
      </trkpt>
      <trkpt lat="49.4289" lon="1.73292">
        <ele>115</ele>
        <time>2020-08-03T15:44:26.000Z</time>
      </trkpt>
      <trkpt lat="49.4289" lon="1.73292">
        <ele>115</ele>
        <time>2020-08-03T15:44:28.000Z</time>
      </trkpt>
      <trkpt lat="49.42891" lon="1.73291">
        <ele>115.19999694824</ele>
        <time>2020-08-03T15:44:33.000Z</time>
      </trkpt>
      <trkpt lat="49.42891" lon="1.73291">
        <ele>115</ele>
        <time>2020-08-03T15:44:35.000Z</time>
      </trkpt>
      <trkpt lat="49.42893" lon="1.73292">
        <ele>115.40000152588</ele>
        <time>2020-08-03T15:46:34.000Z</time>
      </trkpt>
      <trkpt lat="49.42893" lon="1.73293">
        <ele>115.40000152588</ele>
        <time>2020-08-03T15:46:35.000Z</time>
      </trkpt>
      <trkpt lat="49.42895" lon="1.73292">
        <ele>115.40000152588</ele>
        <time>2020-08-03T15:46:37.000Z</time>
      </trkpt>
      <trkpt lat="49.42897" lon="1.73293">
        <ele>115.19999694824</ele>
        <time>2020-08-03T15:46:42.000Z</time>
      </trkpt>
      <trkpt lat="49.42898" lon="1.73291">
        <ele>114.59999847412</ele>
        <time>2020-08-03T15:46:45.000Z</time>
      </trkpt>
      <trkpt lat="49.42899" lon="1.7329">
        <ele>114.40000152588</ele>
        <time>2020-08-03T15:46:46.000Z</time>
      </trkpt>
      <trkpt lat="49.42901" lon="1.73285">
        <ele>113.40000152588</ele>
        <time>2020-08-03T15:46:50.000Z</time>
      </trkpt>
      <trkpt lat="49.42904" lon="1.73283">
        <ele>112.59999847412</ele>
        <time>2020-08-03T15:46:53.000Z</time>
      </trkpt>
      <trkpt lat="49.42906" lon="1.73281">
        <ele>112.40000152588</ele>
        <time>2020-08-03T15:46:56.000Z</time>
      </trkpt>
      <trkpt lat="49.42909" lon="1.73273">
        <ele>112.19999694824</ele>
        <time>2020-08-03T15:47:00.000Z</time>
      </trkpt>
      <trkpt lat="49.42911" lon="1.73265">
        <ele>112</ele>
        <time>2020-08-03T15:47:04.000Z</time>
      </trkpt>
      <trkpt lat="49.42912" lon="1.73263">
        <ele>112</ele>
        <time>2020-08-03T15:47:05.000Z</time>
      </trkpt>
      <trkpt lat="49.42912" lon="1.73262">
        <ele>112</ele>
        <time>2020-08-03T15:47:06.000Z</time>
      </trkpt>
      <trkpt lat="49.42913" lon="1.73258">
        <ele>111.59999847412</ele>
        <time>2020-08-03T15:47:08.000Z</time>
      </trkpt>
      <trkpt lat="49.42914" lon="1.73255">
        <ele>111.40000152588</ele>
        <time>2020-08-03T15:47:10.000Z</time>
      </trkpt>
      <trkpt lat="49.42914" lon="1.73253">
        <ele>111.19999694824</ele>
        <time>2020-08-03T15:47:11.000Z</time>
      </trkpt>
      <trkpt lat="49.42914" lon="1.73252">
        <ele>111.19999694824</ele>
        <time>2020-08-03T15:47:12.000Z</time>
      </trkpt>
      <trkpt lat="49.42916" lon="1.73247">
        <ele>111</ele>
        <time>2020-08-03T15:47:15.000Z</time>
      </trkpt>
      <trkpt lat="49.42917" lon="1.73245">
        <ele>110.80000305176</ele>
        <time>2020-08-03T15:47:16.000Z</time>
      </trkpt>
      <trkpt lat="49.42917" lon="1.73244">
        <ele>110.59999847412</ele>
        <time>2020-08-03T15:47:17.000Z</time>
      </trkpt>
      <trkpt lat="49.42922" lon="1.73238">
        <ele>110.59999847412</ele>
        <time>2020-08-03T15:47:22.000Z</time>
      </trkpt>
      <trkpt lat="49.42926" lon="1.73232">
        <ele>110.19999694824</ele>
        <time>2020-08-03T15:47:27.000Z</time>
      </trkpt>
      <trkpt lat="49.42928" lon="1.73229">
        <ele>109.59999847412</ele>
        <time>2020-08-03T15:47:30.000Z</time>
      </trkpt>
      <trkpt lat="49.42931" lon="1.73224">
        <ele>109.40000152588</ele>
        <time>2020-08-03T15:47:35.000Z</time>
      </trkpt>
      <trkpt lat="49.42932" lon="1.73225">
        <ele>109.40000152588</ele>
        <time>2020-08-03T15:47:38.000Z</time>
      </trkpt>
      <trkpt lat="49.42932" lon="1.73225">
        <ele>109.40000152588</ele>
        <time>2020-08-03T15:47:39.000Z</time>
      </trkpt>
      <trkpt lat="49.42932" lon="1.73226">
        <ele>109.40000152588</ele>
        <time>2020-08-03T15:47:40.000Z</time>
      </trkpt>
      <trkpt lat="49.42932" lon="1.73226">
        <ele>109.40000152588</ele>
        <time>2020-08-03T15:47:41.000Z</time>
      </trkpt>
      <trkpt lat="49.42931" lon="1.73223">
        <ele>109.40000152588</ele>
        <time>2020-08-03T15:47:44.000Z</time>
      </trkpt>
      <trkpt lat="49.42931" lon="1.73221">
        <ele>109.19999694824</ele>
        <time>2020-08-03T15:47:45.000Z</time>
      </trkpt>
      <trkpt lat="49.42932" lon="1.73218">
        <ele>109.19999694824</ele>
        <time>2020-08-03T15:47:47.000Z</time>
      </trkpt>
      <trkpt lat="49.42934" lon="1.7321">
        <ele>109</ele>
        <time>2020-08-03T15:47:52.000Z</time>
      </trkpt>
      <trkpt lat="49.42938" lon="1.73204">
        <ele>108.80000305176</ele>
        <time>2020-08-03T15:47:56.000Z</time>
      </trkpt>
      <trkpt lat="49.42941" lon="1.73198">
        <ele>108.59999847412</ele>
        <time>2020-08-03T15:48:00.000Z</time>
      </trkpt>
      <trkpt lat="49.42945" lon="1.73184">
        <ele>108.59999847412</ele>
        <time>2020-08-03T15:48:09.000Z</time>
      </trkpt>
      <trkpt lat="49.42947" lon="1.73181">
        <ele>108.40000152588</ele>
        <time>2020-08-03T15:48:11.000Z</time>
      </trkpt>
      <trkpt lat="49.42948" lon="1.73175">
        <ele>108</ele>
        <time>2020-08-03T15:48:14.000Z</time>
      </trkpt>
      <trkpt lat="49.4295" lon="1.73172">
        <ele>107.80000305176</ele>
        <time>2020-08-03T15:48:16.000Z</time>
      </trkpt>
      <trkpt lat="49.42951" lon="1.73165">
        <ele>107.59999847412</ele>
        <time>2020-08-03T15:48:19.000Z</time>
      </trkpt>
      <trkpt lat="49.42953" lon="1.73158">
        <ele>107.40000152588</ele>
        <time>2020-08-03T15:48:23.000Z</time>
      </trkpt>
      <trkpt lat="49.42956" lon="1.73153">
        <ele>107.40000152588</ele>
        <time>2020-08-03T15:48:27.000Z</time>
      </trkpt>
      <trkpt lat="49.42957" lon="1.73151">
        <ele>107.19999694824</ele>
        <time>2020-08-03T15:48:28.000Z</time>
      </trkpt>
      <trkpt lat="49.42958" lon="1.73147">
        <ele>107</ele>
        <time>2020-08-03T15:48:30.000Z</time>
      </trkpt>
      <trkpt lat="49.4296" lon="1.73141">
        <ele>106.80000305176</ele>
        <time>2020-08-03T15:48:34.000Z</time>
      </trkpt>
      <trkpt lat="49.42965" lon="1.7313">
        <ele>106.40000152588</ele>
        <time>2020-08-03T15:48:42.000Z</time>
      </trkpt>
      <trkpt lat="49.42966" lon="1.73131">
        <ele>106.19999694824</ele>
        <time>2020-08-03T15:48:44.000Z</time>
      </trkpt>
      <trkpt lat="49.42967" lon="1.73131">
        <ele>106</ele>
        <time>2020-08-03T15:48:47.000Z</time>
      </trkpt>
      <trkpt lat="49.42968" lon="1.7313">
        <ele>106</ele>
        <time>2020-08-03T15:48:49.000Z</time>
      </trkpt>
      <trkpt lat="49.42971" lon="1.73124">
        <ele>105.59999847412</ele>
        <time>2020-08-03T15:48:53.000Z</time>
      </trkpt>
      <trkpt lat="49.42976" lon="1.73112">
        <ele>105.59999847412</ele>
        <time>2020-08-03T15:49:01.000Z</time>
      </trkpt>
      <trkpt lat="49.42978" lon="1.73107">
        <ele>105</ele>
        <time>2020-08-03T15:49:05.000Z</time>
      </trkpt>
      <trkpt lat="49.4298" lon="1.73103">
        <ele>105</ele>
        <time>2020-08-03T15:49:08.000Z</time>
      </trkpt>
      <trkpt lat="49.42985" lon="1.73091">
        <ele>104.80000305176</ele>
        <time>2020-08-03T15:49:16.000Z</time>
      </trkpt>
      <trkpt lat="49.4299" lon="1.73081">
        <ele>104.59999847412</ele>
        <time>2020-08-03T15:49:24.000Z</time>
      </trkpt>
      <trkpt lat="49.42993" lon="1.7308">
        <ele>104.40000152588</ele>
        <time>2020-08-03T15:49:27.000Z</time>
      </trkpt>
      <trkpt lat="49.42995" lon="1.73078">
        <ele>104.19999694824</ele>
        <time>2020-08-03T15:49:30.000Z</time>
      </trkpt>
      <trkpt lat="49.42996" lon="1.73074">
        <ele>104</ele>
        <time>2020-08-03T15:49:32.000Z</time>
      </trkpt>
      <trkpt lat="49.42997" lon="1.7307">
        <ele>104.19999694824</ele>
        <time>2020-08-03T15:49:34.000Z</time>
      </trkpt>
      <trkpt lat="49.42999" lon="1.73065">
        <ele>104.19999694824</ele>
        <time>2020-08-03T15:49:38.000Z</time>
      </trkpt>
      <trkpt lat="49.43002" lon="1.73057">
        <ele>103.80000305176</ele>
        <time>2020-08-03T15:49:43.000Z</time>
      </trkpt>
      <trkpt lat="49.43003" lon="1.73056">
        <ele>103.80000305176</ele>
        <time>2020-08-03T15:49:44.000Z</time>
      </trkpt>
      <trkpt lat="49.43003" lon="1.73054">
        <ele>103.80000305176</ele>
        <time>2020-08-03T15:49:45.000Z</time>
      </trkpt>
      <trkpt lat="49.43004" lon="1.73052">
        <ele>103.59999847412</ele>
        <time>2020-08-03T15:49:47.000Z</time>
      </trkpt>
      <trkpt lat="49.43007" lon="1.73049">
        <ele>103.59999847412</ele>
        <time>2020-08-03T15:49:50.000Z</time>
      </trkpt>
      <trkpt lat="49.43008" lon="1.73048">
        <ele>103.40000152588</ele>
        <time>2020-08-03T15:49:51.000Z</time>
      </trkpt>
      <trkpt lat="49.43009" lon="1.73046">
        <ele>103.40000152588</ele>
        <time>2020-08-03T15:49:52.000Z</time>
      </trkpt>
      <trkpt lat="49.43009" lon="1.73044">
        <ele>103.40000152588</ele>
        <time>2020-08-03T15:49:53.000Z</time>
      </trkpt>
      <trkpt lat="49.4301" lon="1.73042">
        <ele>103.40000152588</ele>
        <time>2020-08-03T15:49:54.000Z</time>
      </trkpt>
      <trkpt lat="49.4301" lon="1.73041">
        <ele>103.59999847412</ele>
        <time>2020-08-03T15:49:55.000Z</time>
      </trkpt>
      <trkpt lat="49.43011" lon="1.7304">
        <ele>103.40000152588</ele>
        <time>2020-08-03T15:49:56.000Z</time>
      </trkpt>
      <trkpt lat="49.43015" lon="1.73032">
        <ele>103</ele>
        <time>2020-08-03T15:50:03.000Z</time>
      </trkpt>
      <trkpt lat="49.43016" lon="1.73031">
        <ele>102.80000305176</ele>
        <time>2020-08-03T15:50:04.000Z</time>
      </trkpt>
      <trkpt lat="49.43018" lon="1.73027">
        <ele>102.80000305176</ele>
        <time>2020-08-03T15:50:07.000Z</time>
      </trkpt>
      <trkpt lat="49.43021" lon="1.7302">
        <ele>102.59999847412</ele>
        <time>2020-08-03T15:50:11.000Z</time>
      </trkpt>
      <trkpt lat="49.43025" lon="1.73009">
        <ele>101.80000305176</ele>
        <time>2020-08-03T15:50:19.000Z</time>
      </trkpt>
      <trkpt lat="49.43033" lon="1.72995">
        <ele>101.59999847412</ele>
        <time>2020-08-03T15:50:28.000Z</time>
      </trkpt>
      <trkpt lat="49.43035" lon="1.72991">
        <ele>101.59999847412</ele>
        <time>2020-08-03T15:50:31.000Z</time>
      </trkpt>
      <trkpt lat="49.43039" lon="1.72989">
        <ele>101.19999694824</ele>
        <time>2020-08-03T15:50:34.000Z</time>
      </trkpt>
      <trkpt lat="49.43041" lon="1.72988">
        <ele>101</ele>
        <time>2020-08-03T15:50:35.000Z</time>
      </trkpt>
      <trkpt lat="49.43044" lon="1.72984">
        <ele>101</ele>
        <time>2020-08-03T15:50:37.000Z</time>
      </trkpt>
      <trkpt lat="49.43044" lon="1.72982">
        <ele>100.80000305176</ele>
        <time>2020-08-03T15:50:38.000Z</time>
      </trkpt>
      <trkpt lat="49.43045" lon="1.7298">
        <ele>100.80000305176</ele>
        <time>2020-08-03T15:50:39.000Z</time>
      </trkpt>
      <trkpt lat="49.43046" lon="1.72977">
        <ele>100.59999847412</ele>
        <time>2020-08-03T15:50:41.000Z</time>
      </trkpt>
      <trkpt lat="49.43053" lon="1.72964">
        <ele>100</ele>
        <time>2020-08-03T15:50:50.000Z</time>
      </trkpt>
      <trkpt lat="49.43058" lon="1.72951">
        <ele>99.800003051758</ele>
        <time>2020-08-03T15:50:58.000Z</time>
      </trkpt>
      <trkpt lat="49.4306" lon="1.72947">
        <ele>99.599998474121</ele>
        <time>2020-08-03T15:51:02.000Z</time>
      </trkpt>
      <trkpt lat="49.43061" lon="1.72944">
        <ele>99.599998474121</ele>
        <time>2020-08-03T15:51:04.000Z</time>
      </trkpt>
      <trkpt lat="49.43062" lon="1.72942">
        <ele>99.400001525879</ele>
        <time>2020-08-03T15:51:06.000Z</time>
      </trkpt>
      <trkpt lat="49.43063" lon="1.72937">
        <ele>99.199996948242</ele>
        <time>2020-08-03T15:51:09.000Z</time>
      </trkpt>
      <trkpt lat="49.43063" lon="1.72935">
        <ele>99</ele>
        <time>2020-08-03T15:51:11.000Z</time>
      </trkpt>
      <trkpt lat="49.43064" lon="1.72934">
        <ele>99</ele>
        <time>2020-08-03T15:51:12.000Z</time>
      </trkpt>
      <trkpt lat="49.43067" lon="1.72928">
        <ele>98.599998474121</ele>
        <time>2020-08-03T15:51:17.000Z</time>
      </trkpt>
      <trkpt lat="49.43068" lon="1.72925">
        <ele>98.199996948242</ele>
        <time>2020-08-03T15:51:19.000Z</time>
      </trkpt>
      <trkpt lat="49.4307" lon="1.72916">
        <ele>98</ele>
        <time>2020-08-03T15:51:25.000Z</time>
      </trkpt>
      <trkpt lat="49.43071" lon="1.72915">
        <ele>98</ele>
        <time>2020-08-03T15:51:26.000Z</time>
      </trkpt>
      <trkpt lat="49.43073" lon="1.72912">
        <ele>98</ele>
        <time>2020-08-03T15:51:29.000Z</time>
      </trkpt>
      <trkpt lat="49.43076" lon="1.72908">
        <ele>97.800003051758</ele>
        <time>2020-08-03T15:51:32.000Z</time>
      </trkpt>
      <trkpt lat="49.43077" lon="1.72906">
        <ele>97.599998474121</ele>
        <time>2020-08-03T15:51:34.000Z</time>
      </trkpt>
      <trkpt lat="49.43077" lon="1.72902">
        <ele>97.199996948242</ele>
        <time>2020-08-03T15:51:37.000Z</time>
      </trkpt>
      <trkpt lat="49.43077" lon="1.72901">
        <ele>97.199996948242</ele>
        <time>2020-08-03T15:51:38.000Z</time>
      </trkpt>
      <trkpt lat="49.43077" lon="1.72899">
        <ele>97.199996948242</ele>
        <time>2020-08-03T15:51:39.000Z</time>
      </trkpt>
      <trkpt lat="49.43081" lon="1.72891">
        <ele>97</ele>
        <time>2020-08-03T15:51:46.000Z</time>
      </trkpt>
      <trkpt lat="49.43084" lon="1.72887">
        <ele>96.800003051758</ele>
        <time>2020-08-03T15:51:49.000Z</time>
      </trkpt>
      <trkpt lat="49.43087" lon="1.72882">
        <ele>96.400001525879</ele>
        <time>2020-08-03T15:51:52.000Z</time>
      </trkpt>
      <trkpt lat="49.43088" lon="1.72879">
        <ele>96.199996948242</ele>
        <time>2020-08-03T15:51:54.000Z</time>
      </trkpt>
      <trkpt lat="49.43091" lon="1.72873">
        <ele>96</ele>
        <time>2020-08-03T15:51:58.000Z</time>
      </trkpt>
      <trkpt lat="49.43094" lon="1.72867">
        <ele>95.800003051758</ele>
        <time>2020-08-03T15:52:01.000Z</time>
      </trkpt>
      <trkpt lat="49.43096" lon="1.72861">
        <ele>95.199996948242</ele>
        <time>2020-08-03T15:52:06.000Z</time>
      </trkpt>
      <trkpt lat="49.43099" lon="1.72856">
        <ele>95</ele>
        <time>2020-08-03T15:52:10.000Z</time>
      </trkpt>
      <trkpt lat="49.43102" lon="1.72846">
        <ele>94.400001525879</ele>
        <time>2020-08-03T15:52:17.000Z</time>
      </trkpt>
      <trkpt lat="49.43103" lon="1.72845">
        <ele>94.199996948242</ele>
        <time>2020-08-03T15:52:18.000Z</time>
      </trkpt>
      <trkpt lat="49.43107" lon="1.72839">
        <ele>94.199996948242</ele>
        <time>2020-08-03T15:52:23.000Z</time>
      </trkpt>
      <trkpt lat="49.43109" lon="1.72837">
        <ele>94.199996948242</ele>
        <time>2020-08-03T15:52:25.000Z</time>
      </trkpt>
      <trkpt lat="49.43109" lon="1.72838">
        <ele>94</ele>
        <time>2020-08-03T15:52:26.000Z</time>
      </trkpt>
      <trkpt lat="49.43108" lon="1.72839">
        <ele>93.599998474121</ele>
        <time>2020-08-03T15:52:30.000Z</time>
      </trkpt>
      <trkpt lat="49.43107" lon="1.7284">
        <ele>93.800003051758</ele>
        <time>2020-08-03T15:52:32.000Z</time>
      </trkpt>
      <trkpt lat="49.43107" lon="1.7284">
        <ele>93.800003051758</ele>
        <time>2020-08-03T15:52:34.000Z</time>
      </trkpt>
      <trkpt lat="49.43108" lon="1.72839">
        <ele>93.800003051758</ele>
        <time>2020-08-03T15:52:36.000Z</time>
      </trkpt>
      <trkpt lat="49.43111" lon="1.72838">
        <ele>93.599998474121</ele>
        <time>2020-08-03T15:52:38.000Z</time>
      </trkpt>
      <trkpt lat="49.43111" lon="1.72834">
        <ele>93.599998474121</ele>
        <time>2020-08-03T15:52:43.000Z</time>
      </trkpt>
      <trkpt lat="49.43111" lon="1.72834">
        <ele>93.599998474121</ele>
        <time>2020-08-03T15:52:44.000Z</time>
      </trkpt>
      <trkpt lat="49.43113" lon="1.72827">
        <ele>93.400001525879</ele>
        <time>2020-08-03T15:52:50.000Z</time>
      </trkpt>
      <trkpt lat="49.43114" lon="1.72826">
        <ele>93.400001525879</ele>
        <time>2020-08-03T15:52:51.000Z</time>
      </trkpt>
      <trkpt lat="49.43115" lon="1.72823">
        <ele>93.199996948242</ele>
        <time>2020-08-03T15:52:53.000Z</time>
      </trkpt>
      <trkpt lat="49.43118" lon="1.72811">
        <ele>92.599998474121</ele>
        <time>2020-08-03T15:52:59.000Z</time>
      </trkpt>
      <trkpt lat="49.43121" lon="1.72805">
        <ele>92.400001525879</ele>
        <time>2020-08-03T15:53:02.000Z</time>
      </trkpt>
      <trkpt lat="49.43123" lon="1.72795">
        <ele>92.400001525879</ele>
        <time>2020-08-03T15:53:07.000Z</time>
      </trkpt>
      <trkpt lat="49.43124" lon="1.72789">
        <ele>92.199996948242</ele>
        <time>2020-08-03T15:53:10.000Z</time>
      </trkpt>
      <trkpt lat="49.43127" lon="1.72782">
        <ele>92.199996948242</ele>
        <time>2020-08-03T15:53:15.000Z</time>
      </trkpt>
      <trkpt lat="49.4313" lon="1.72774">
        <ele>91.800003051758</ele>
        <time>2020-08-03T15:53:20.000Z</time>
      </trkpt>
      <trkpt lat="49.43131" lon="1.72771">
        <ele>91.599998474121</ele>
        <time>2020-08-03T15:53:22.000Z</time>
      </trkpt>
      <trkpt lat="49.43133" lon="1.72765">
        <ele>91.199996948242</ele>
        <time>2020-08-03T15:53:26.000Z</time>
      </trkpt>
      <trkpt lat="49.43137" lon="1.72756">
        <ele>90.800003051758</ele>
        <time>2020-08-03T15:53:32.000Z</time>
      </trkpt>
      <trkpt lat="49.43138" lon="1.72745">
        <ele>90.599998474121</ele>
        <time>2020-08-03T15:53:38.000Z</time>
      </trkpt>
      <trkpt lat="49.43138" lon="1.72743">
        <ele>90.800003051758</ele>
        <time>2020-08-03T15:53:39.000Z</time>
      </trkpt>
      <trkpt lat="49.43138" lon="1.72729">
        <ele>90.400001525879</ele>
        <time>2020-08-03T15:53:47.000Z</time>
      </trkpt>
      <trkpt lat="49.43139" lon="1.72727">
        <ele>90.400001525879</ele>
        <time>2020-08-03T15:53:48.000Z</time>
      </trkpt>
      <trkpt lat="49.43139" lon="1.72723">
        <ele>90.199996948242</ele>
        <time>2020-08-03T15:53:50.000Z</time>
      </trkpt>
      <trkpt lat="49.4314" lon="1.72718">
        <ele>89.800003051758</ele>
        <time>2020-08-03T15:53:53.000Z</time>
      </trkpt>
    </trkseg>
  </trk>
</gpx>